<?xml version="1.0" encoding="UTF-8" standalone="no" ?>
<gpx xmlns="http://www.topografix.com/GPX/1/1" xmlns:xsi="http://www.w3.org/2001/XMLSchema-instance" xsi:schemaLocation="http://www.topografix.com/GPX/1/1 http://www.topografix.com/GPX/1/1/gpx.xsd" version="1.1" creator="VisuGPX - https://www.visugpx.com">
  <metadata>
    <name>Jour 1 Lautaret </name>
    <desc><![CDATA[Départ Lautaret, descente T4, remontée sur chemin de vaches, descente épinglée vers Besse.]]></desc>
  </metadata>
  <trk>
    <name><![CDATA[2014-09-15 16:26:22]]></name>
    <desc><![CDATA[Total: 27.8km]]></desc>
    <trkseg>
      <trkpt lat="45.22746" lon="6.20343">
        <ele>2069.86</ele>
        <time>2014-09-15T08:54:41Z</time>
      </trkpt>
      <trkpt lat="45.22747" lon="6.20343">
        <ele>2069.86</ele>
        <time>2014-09-15T08:55:07Z</time>
      </trkpt>
      <trkpt lat="45.22747" lon="6.20346">
        <ele>2069.86</ele>
        <time>2014-09-15T08:55:26Z</time>
      </trkpt>
      <trkpt lat="45.22748" lon="6.20346">
        <ele>2069.86</ele>
        <time>2014-09-15T08:55:52Z</time>
      </trkpt>
      <trkpt lat="45.22746" lon="6.20345">
        <ele>2069.86</ele>
        <time>2014-09-15T08:56:16Z</time>
      </trkpt>
      <trkpt lat="45.22745" lon="6.20343">
        <ele>2069.86</ele>
        <time>2014-09-15T08:56:36Z</time>
      </trkpt>
      <trkpt lat="45.22745" lon="6.20345">
        <ele>2069.86</ele>
        <time>2014-09-15T08:56:51Z</time>
      </trkpt>
      <trkpt lat="45.22744" lon="6.20346">
        <ele>2069.86</ele>
        <time>2014-09-15T08:56:57Z</time>
      </trkpt>
      <trkpt lat="45.22742" lon="6.20349">
        <ele>2069.86</ele>
        <time>2014-09-15T08:56:59Z</time>
      </trkpt>
      <trkpt lat="45.22736" lon="6.20363">
        <ele>2069.86</ele>
        <time>2014-09-15T08:57:03Z</time>
      </trkpt>
      <trkpt lat="45.22733" lon="6.20368">
        <ele>2069.86</ele>
        <time>2014-09-15T08:57:04Z</time>
      </trkpt>
      <trkpt lat="45.2273" lon="6.20372">
        <ele>2068.41</ele>
        <time>2014-09-15T08:57:05Z</time>
      </trkpt>
      <trkpt lat="45.22729" lon="6.20375">
        <ele>2068.41</ele>
        <time>2014-09-15T08:57:06Z</time>
      </trkpt>
      <trkpt lat="45.22727" lon="6.20378">
        <ele>2068.41</ele>
        <time>2014-09-15T08:57:07Z</time>
      </trkpt>
      <trkpt lat="45.22725" lon="6.20381">
        <ele>2068.41</ele>
        <time>2014-09-15T08:57:08Z</time>
      </trkpt>
      <trkpt lat="45.22724" lon="6.20383">
        <ele>2068.41</ele>
        <time>2014-09-15T08:57:09Z</time>
      </trkpt>
      <trkpt lat="45.22724" lon="6.20386">
        <ele>2068.41</ele>
        <time>2014-09-15T08:57:10Z</time>
      </trkpt>
      <trkpt lat="45.22724" lon="6.20389">
        <ele>2068.41</ele>
        <time>2014-09-15T08:57:11Z</time>
      </trkpt>
      <trkpt lat="45.22724" lon="6.20392">
        <ele>2068.41</ele>
        <time>2014-09-15T08:57:12Z</time>
      </trkpt>
      <trkpt lat="45.22724" lon="6.20394">
        <ele>2067.93</ele>
        <time>2014-09-15T08:57:13Z</time>
      </trkpt>
      <trkpt lat="45.22726" lon="6.20403">
        <ele>2067.93</ele>
        <time>2014-09-15T08:57:27Z</time>
      </trkpt>
      <trkpt lat="45.22728" lon="6.20403">
        <ele>2067.93</ele>
        <time>2014-09-15T08:57:32Z</time>
      </trkpt>
      <trkpt lat="45.22729" lon="6.20403">
        <ele>2067.93</ele>
        <time>2014-09-15T08:57:33Z</time>
      </trkpt>
      <trkpt lat="45.22731" lon="6.20403">
        <ele>2067.93</ele>
        <time>2014-09-15T08:57:34Z</time>
      </trkpt>
      <trkpt lat="45.22734" lon="6.20406">
        <ele>2067.93</ele>
        <time>2014-09-15T08:57:36Z</time>
      </trkpt>
      <trkpt lat="45.22738" lon="6.20414">
        <ele>2067.93</ele>
        <time>2014-09-15T08:57:39Z</time>
      </trkpt>
      <trkpt lat="45.22739" lon="6.20414">
        <ele>2067.93</ele>
        <time>2014-09-15T08:57:40Z</time>
      </trkpt>
      <trkpt lat="45.2274" lon="6.20412">
        <ele>2067.93</ele>
        <time>2014-09-15T08:57:41Z</time>
      </trkpt>
      <trkpt lat="45.22739" lon="6.20411">
        <ele>2067.93</ele>
        <time>2014-09-15T08:57:42Z</time>
      </trkpt>
      <trkpt lat="45.22738" lon="6.2041">
        <ele>2067.93</ele>
        <time>2014-09-15T08:57:43Z</time>
      </trkpt>
      <trkpt lat="45.22737" lon="6.20411">
        <ele>2067.93</ele>
        <time>2014-09-15T08:57:44Z</time>
      </trkpt>
      <trkpt lat="45.22735" lon="6.20411">
        <ele>2067.93</ele>
        <time>2014-09-15T08:57:45Z</time>
      </trkpt>
      <trkpt lat="45.2273" lon="6.20411">
        <ele>2067.45</ele>
        <time>2014-09-15T08:57:58Z</time>
      </trkpt>
      <trkpt lat="45.22722" lon="6.20406">
        <ele>2066.49</ele>
        <time>2014-09-15T08:58:09Z</time>
      </trkpt>
      <trkpt lat="45.22719" lon="6.20404">
        <ele>2066.01</ele>
        <time>2014-09-15T08:58:10Z</time>
      </trkpt>
      <trkpt lat="45.2271" lon="6.204">
        <ele>2065.53</ele>
        <time>2014-09-15T08:58:19Z</time>
      </trkpt>
      <trkpt lat="45.22709" lon="6.20402">
        <ele>2065.53</ele>
        <time>2014-09-15T08:58:28Z</time>
      </trkpt>
      <trkpt lat="45.2271" lon="6.20402">
        <ele>2064.09</ele>
        <time>2014-09-15T08:58:41Z</time>
      </trkpt>
      <trkpt lat="45.2271" lon="6.20404">
        <ele>2064.09</ele>
        <time>2014-09-15T08:58:45Z</time>
      </trkpt>
      <trkpt lat="45.22716" lon="6.20413">
        <ele>2062.17</ele>
        <time>2014-09-15T08:58:49Z</time>
      </trkpt>
      <trkpt lat="45.22717" lon="6.20415">
        <ele>2061.68</ele>
        <time>2014-09-15T08:58:53Z</time>
      </trkpt>
      <trkpt lat="45.22707" lon="6.20414">
        <ele>2058.8</ele>
        <time>2014-09-15T08:59:04Z</time>
      </trkpt>
      <trkpt lat="45.22707" lon="6.20414">
        <ele>2058.32</ele>
        <time>2014-09-15T08:59:09Z</time>
      </trkpt>
      <trkpt lat="45.22702" lon="6.20421">
        <ele>2055.44</ele>
        <time>2014-09-15T08:59:20Z</time>
      </trkpt>
      <trkpt lat="45.22701" lon="6.20423">
        <ele>2054.47</ele>
        <time>2014-09-15T08:59:36Z</time>
      </trkpt>
      <trkpt lat="45.22694" lon="6.20425">
        <ele>2052.55</ele>
        <time>2014-09-15T08:59:44Z</time>
      </trkpt>
      <trkpt lat="45.22693" lon="6.20428">
        <ele>2051.11</ele>
        <time>2014-09-15T08:59:47Z</time>
      </trkpt>
      <trkpt lat="45.22686" lon="6.20427">
        <ele>2049.67</ele>
        <time>2014-09-15T08:59:55Z</time>
      </trkpt>
      <trkpt lat="45.22683" lon="6.2043">
        <ele>2047.26</ele>
        <time>2014-09-15T09:00:00Z</time>
      </trkpt>
      <trkpt lat="45.22671" lon="6.20438">
        <ele>2044.38</ele>
        <time>2014-09-15T09:00:05Z</time>
      </trkpt>
      <trkpt lat="45.22668" lon="6.20439">
        <ele>2043.9</ele>
        <time>2014-09-15T09:00:07Z</time>
      </trkpt>
      <trkpt lat="45.22665" lon="6.20441">
        <ele>2041.98</ele>
        <time>2014-09-15T09:00:17Z</time>
      </trkpt>
      <trkpt lat="45.22664" lon="6.20446">
        <ele>2041.02</ele>
        <time>2014-09-15T09:00:23Z</time>
      </trkpt>
      <trkpt lat="45.2266" lon="6.20456">
        <ele>2039.09</ele>
        <time>2014-09-15T09:00:35Z</time>
      </trkpt>
      <trkpt lat="45.22656" lon="6.20471">
        <ele>2037.17</ele>
        <time>2014-09-15T09:00:42Z</time>
      </trkpt>
      <trkpt lat="45.22649" lon="6.20475">
        <ele>2036.21</ele>
        <time>2014-09-15T09:00:53Z</time>
      </trkpt>
      <trkpt lat="45.22646" lon="6.20479">
        <ele>2034.77</ele>
        <time>2014-09-15T09:01:03Z</time>
      </trkpt>
      <trkpt lat="45.22646" lon="6.20479">
        <ele>2034.77</ele>
        <time>2014-09-15T09:01:04Z</time>
      </trkpt>
      <trkpt lat="45.22648" lon="6.20484">
        <ele>2034.29</ele>
        <time>2014-09-15T09:01:07Z</time>
      </trkpt>
      <trkpt lat="45.22646" lon="6.20485">
        <ele>2033.33</ele>
        <time>2014-09-15T09:01:10Z</time>
      </trkpt>
      <trkpt lat="45.22644" lon="6.20492">
        <ele>2031.4</ele>
        <time>2014-09-15T09:01:15Z</time>
      </trkpt>
      <trkpt lat="45.22646" lon="6.20496">
        <ele>2030.44</ele>
        <time>2014-09-15T09:01:17Z</time>
      </trkpt>
      <trkpt lat="45.22646" lon="6.20503">
        <ele>2029</ele>
        <time>2014-09-15T09:01:28Z</time>
      </trkpt>
      <trkpt lat="45.22652" lon="6.20506">
        <ele>2026.12</ele>
        <time>2014-09-15T09:01:39Z</time>
      </trkpt>
      <trkpt lat="45.22652" lon="6.20507">
        <ele>2026.12</ele>
        <time>2014-09-15T09:01:40Z</time>
      </trkpt>
      <trkpt lat="45.2265" lon="6.20513">
        <ele>2023.71</ele>
        <time>2014-09-15T09:01:45Z</time>
      </trkpt>
      <trkpt lat="45.22652" lon="6.20519">
        <ele>2020.83</ele>
        <time>2014-09-15T09:01:55Z</time>
      </trkpt>
      <trkpt lat="45.22645" lon="6.20527">
        <ele>2018.91</ele>
        <time>2014-09-15T09:02:05Z</time>
      </trkpt>
      <trkpt lat="45.22641" lon="6.20528">
        <ele>2017.94</ele>
        <time>2014-09-15T09:02:17Z</time>
      </trkpt>
      <trkpt lat="45.2264" lon="6.20528">
        <ele>2017.94</ele>
        <time>2014-09-15T09:02:18Z</time>
      </trkpt>
      <trkpt lat="45.22638" lon="6.2053">
        <ele>2016.02</ele>
        <time>2014-09-15T09:02:25Z</time>
      </trkpt>
      <trkpt lat="45.22633" lon="6.20532">
        <ele>2015.06</ele>
        <time>2014-09-15T09:02:29Z</time>
      </trkpt>
      <trkpt lat="45.22636" lon="6.20552">
        <ele>2010.73</ele>
        <time>2014-09-15T09:02:35Z</time>
      </trkpt>
      <trkpt lat="45.22632" lon="6.2056">
        <ele>2010.25</ele>
        <time>2014-09-15T09:02:42Z</time>
      </trkpt>
      <trkpt lat="45.22632" lon="6.20559">
        <ele>2010.25</ele>
        <time>2014-09-15T09:02:44Z</time>
      </trkpt>
      <trkpt lat="45.2261" lon="6.20572">
        <ele>2011.7</ele>
        <time>2014-09-15T09:02:53Z</time>
      </trkpt>
      <trkpt lat="45.22607" lon="6.20576">
        <ele>2013.14</ele>
        <time>2014-09-15T09:02:59Z</time>
      </trkpt>
      <trkpt lat="45.22606" lon="6.20583">
        <ele>2013.14</ele>
        <time>2014-09-15T09:03:14Z</time>
      </trkpt>
      <trkpt lat="45.22606" lon="6.20583">
        <ele>2013.62</ele>
        <time>2014-09-15T09:03:42Z</time>
      </trkpt>
      <trkpt lat="45.22605" lon="6.20583">
        <ele>2013.14</ele>
        <time>2014-09-15T09:04:06Z</time>
      </trkpt>
      <trkpt lat="45.22605" lon="6.20581">
        <ele>2013.14</ele>
        <time>2014-09-15T09:04:34Z</time>
      </trkpt>
      <trkpt lat="45.22605" lon="6.20581">
        <ele>2012.18</ele>
        <time>2014-09-15T09:05:02Z</time>
      </trkpt>
      <trkpt lat="45.22606" lon="6.20581">
        <ele>2012.18</ele>
        <time>2014-09-15T09:05:24Z</time>
      </trkpt>
      <trkpt lat="45.22606" lon="6.20579">
        <ele>2013.62</ele>
        <time>2014-09-15T09:05:34Z</time>
      </trkpt>
      <trkpt lat="45.22606" lon="6.20581">
        <ele>2013.62</ele>
        <time>2014-09-15T09:05:54Z</time>
      </trkpt>
      <trkpt lat="45.22607" lon="6.20584">
        <ele>2013.14</ele>
        <time>2014-09-15T09:06:08Z</time>
      </trkpt>
      <trkpt lat="45.22607" lon="6.20585">
        <ele>2013.14</ele>
        <time>2014-09-15T09:06:09Z</time>
      </trkpt>
      <trkpt lat="45.22609" lon="6.20587">
        <ele>2013.14</ele>
        <time>2014-09-15T09:06:11Z</time>
      </trkpt>
      <trkpt lat="45.22623" lon="6.20618">
        <ele>2011.22</ele>
        <time>2014-09-15T09:06:19Z</time>
      </trkpt>
      <trkpt lat="45.22628" lon="6.20621">
        <ele>2011.22</ele>
        <time>2014-09-15T09:06:20Z</time>
      </trkpt>
      <trkpt lat="45.22636" lon="6.20626">
        <ele>2010.25</ele>
        <time>2014-09-15T09:06:22Z</time>
      </trkpt>
      <trkpt lat="45.22644" lon="6.2063">
        <ele>2009.29</ele>
        <time>2014-09-15T09:06:24Z</time>
      </trkpt>
      <trkpt lat="45.22648" lon="6.20632">
        <ele>2008.81</ele>
        <time>2014-09-15T09:06:25Z</time>
      </trkpt>
      <trkpt lat="45.22653" lon="6.20635">
        <ele>2007.37</ele>
        <time>2014-09-15T09:06:26Z</time>
      </trkpt>
      <trkpt lat="45.22658" lon="6.20641">
        <ele>2006.89</ele>
        <time>2014-09-15T09:06:27Z</time>
      </trkpt>
      <trkpt lat="45.22663" lon="6.20647">
        <ele>2006.41</ele>
        <time>2014-09-15T09:06:28Z</time>
      </trkpt>
      <trkpt lat="45.22668" lon="6.20654">
        <ele>2005.45</ele>
        <time>2014-09-15T09:06:29Z</time>
      </trkpt>
      <trkpt lat="45.22672" lon="6.20661">
        <ele>2004.49</ele>
        <time>2014-09-15T09:06:30Z</time>
      </trkpt>
      <trkpt lat="45.22676" lon="6.20666">
        <ele>2004.49</ele>
        <time>2014-09-15T09:06:31Z</time>
      </trkpt>
      <trkpt lat="45.22685" lon="6.20686">
        <ele>2001.12</ele>
        <time>2014-09-15T09:06:35Z</time>
      </trkpt>
      <trkpt lat="45.22696" lon="6.20714">
        <ele>1997.28</ele>
        <time>2014-09-15T09:06:39Z</time>
      </trkpt>
      <trkpt lat="45.22699" lon="6.20721">
        <ele>1996.32</ele>
        <time>2014-09-15T09:06:40Z</time>
      </trkpt>
      <trkpt lat="45.22703" lon="6.20727">
        <ele>1995.35</ele>
        <time>2014-09-15T09:06:41Z</time>
      </trkpt>
      <trkpt lat="45.22708" lon="6.20731">
        <ele>1993.91</ele>
        <time>2014-09-15T09:06:42Z</time>
      </trkpt>
      <trkpt lat="45.22714" lon="6.20735">
        <ele>1992.47</ele>
        <time>2014-09-15T09:06:43Z</time>
      </trkpt>
      <trkpt lat="45.22721" lon="6.20738">
        <ele>1991.03</ele>
        <time>2014-09-15T09:06:44Z</time>
      </trkpt>
      <trkpt lat="45.22728" lon="6.2074">
        <ele>1990.07</ele>
        <time>2014-09-15T09:06:45Z</time>
      </trkpt>
      <trkpt lat="45.22736" lon="6.20743">
        <ele>1989.1</ele>
        <time>2014-09-15T09:06:46Z</time>
      </trkpt>
      <trkpt lat="45.22743" lon="6.20745">
        <ele>1988.62</ele>
        <time>2014-09-15T09:06:47Z</time>
      </trkpt>
      <trkpt lat="45.2275" lon="6.20748">
        <ele>1988.62</ele>
        <time>2014-09-15T09:06:48Z</time>
      </trkpt>
      <trkpt lat="45.22754" lon="6.20752">
        <ele>1988.14</ele>
        <time>2014-09-15T09:06:49Z</time>
      </trkpt>
      <trkpt lat="45.22757" lon="6.20756">
        <ele>1988.14</ele>
        <time>2014-09-15T09:06:50Z</time>
      </trkpt>
      <trkpt lat="45.22761" lon="6.2077">
        <ele>1987.66</ele>
        <time>2014-09-15T09:06:59Z</time>
      </trkpt>
      <trkpt lat="45.22761" lon="6.20772">
        <ele>1986.7</ele>
        <time>2014-09-15T09:07:00Z</time>
      </trkpt>
      <trkpt lat="45.22765" lon="6.20788">
        <ele>1984.78</ele>
        <time>2014-09-15T09:07:11Z</time>
      </trkpt>
      <trkpt lat="45.22768" lon="6.20813">
        <ele>1980.93</ele>
        <time>2014-09-15T09:07:16Z</time>
      </trkpt>
      <trkpt lat="45.22769" lon="6.20819">
        <ele>1980.45</ele>
        <time>2014-09-15T09:07:17Z</time>
      </trkpt>
      <trkpt lat="45.2277" lon="6.20825">
        <ele>1979.49</ele>
        <time>2014-09-15T09:07:18Z</time>
      </trkpt>
      <trkpt lat="45.2277" lon="6.20832">
        <ele>1978.53</ele>
        <time>2014-09-15T09:07:19Z</time>
      </trkpt>
      <trkpt lat="45.22773" lon="6.20851">
        <ele>1974.69</ele>
        <time>2014-09-15T09:07:22Z</time>
      </trkpt>
      <trkpt lat="45.22772" lon="6.20866">
        <ele>1971.32</ele>
        <time>2014-09-15T09:07:25Z</time>
      </trkpt>
      <trkpt lat="45.22763" lon="6.20886">
        <ele>1967.96</ele>
        <time>2014-09-15T09:07:32Z</time>
      </trkpt>
      <trkpt lat="45.22758" lon="6.20895">
        <ele>1965.07</ele>
        <time>2014-09-15T09:07:36Z</time>
      </trkpt>
      <trkpt lat="45.22756" lon="6.20896">
        <ele>1964.59</ele>
        <time>2014-09-15T09:07:37Z</time>
      </trkpt>
      <trkpt lat="45.22754" lon="6.20898">
        <ele>1963.63</ele>
        <time>2014-09-15T09:07:38Z</time>
      </trkpt>
      <trkpt lat="45.22752" lon="6.209">
        <ele>1963.15</ele>
        <time>2014-09-15T09:07:39Z</time>
      </trkpt>
      <trkpt lat="45.22751" lon="6.20902">
        <ele>1962.67</ele>
        <time>2014-09-15T09:07:40Z</time>
      </trkpt>
      <trkpt lat="45.22751" lon="6.20904">
        <ele>1961.71</ele>
        <time>2014-09-15T09:07:41Z</time>
      </trkpt>
      <trkpt lat="45.22749" lon="6.20907">
        <ele>1961.23</ele>
        <time>2014-09-15T09:07:42Z</time>
      </trkpt>
      <trkpt lat="45.22747" lon="6.20908">
        <ele>1960.27</ele>
        <time>2014-09-15T09:07:43Z</time>
      </trkpt>
      <trkpt lat="45.22745" lon="6.20911">
        <ele>1959.78</ele>
        <time>2014-09-15T09:07:44Z</time>
      </trkpt>
      <trkpt lat="45.22743" lon="6.20913">
        <ele>1959.3</ele>
        <time>2014-09-15T09:07:45Z</time>
      </trkpt>
      <trkpt lat="45.22742" lon="6.20914">
        <ele>1958.34</ele>
        <time>2014-09-15T09:07:46Z</time>
      </trkpt>
      <trkpt lat="45.22738" lon="6.2092">
        <ele>1956.9</ele>
        <time>2014-09-15T09:07:50Z</time>
      </trkpt>
      <trkpt lat="45.22733" lon="6.20926">
        <ele>1953.54</ele>
        <time>2014-09-15T09:07:55Z</time>
      </trkpt>
      <trkpt lat="45.2273" lon="6.20933">
        <ele>1952.09</ele>
        <time>2014-09-15T09:08:04Z</time>
      </trkpt>
      <trkpt lat="45.22729" lon="6.20935">
        <ele>1951.13</ele>
        <time>2014-09-15T09:08:05Z</time>
      </trkpt>
      <trkpt lat="45.22729" lon="6.20937">
        <ele>1950.65</ele>
        <time>2014-09-15T09:08:06Z</time>
      </trkpt>
      <trkpt lat="45.22728" lon="6.20939">
        <ele>1950.17</ele>
        <time>2014-09-15T09:08:07Z</time>
      </trkpt>
      <trkpt lat="45.22728" lon="6.20941">
        <ele>1949.69</ele>
        <time>2014-09-15T09:08:08Z</time>
      </trkpt>
      <trkpt lat="45.22728" lon="6.20944">
        <ele>1948.73</ele>
        <time>2014-09-15T09:08:09Z</time>
      </trkpt>
      <trkpt lat="45.22728" lon="6.20946">
        <ele>1948.73</ele>
        <time>2014-09-15T09:08:10Z</time>
      </trkpt>
      <trkpt lat="45.22728" lon="6.20948">
        <ele>1948.25</ele>
        <time>2014-09-15T09:08:11Z</time>
      </trkpt>
      <trkpt lat="45.22728" lon="6.2095">
        <ele>1947.77</ele>
        <time>2014-09-15T09:08:12Z</time>
      </trkpt>
      <trkpt lat="45.22727" lon="6.20964">
        <ele>1944.4</ele>
        <time>2014-09-15T09:08:20Z</time>
      </trkpt>
      <trkpt lat="45.22725" lon="6.2097">
        <ele>1942.96</ele>
        <time>2014-09-15T09:08:23Z</time>
      </trkpt>
      <trkpt lat="45.22724" lon="6.20978">
        <ele>1940.08</ele>
        <time>2014-09-15T09:08:33Z</time>
      </trkpt>
      <trkpt lat="45.22726" lon="6.20988">
        <ele>1937.67</ele>
        <time>2014-09-15T09:08:46Z</time>
      </trkpt>
      <trkpt lat="45.22726" lon="6.21002">
        <ele>1934.79</ele>
        <time>2014-09-15T09:08:55Z</time>
      </trkpt>
      <trkpt lat="45.22729" lon="6.21017">
        <ele>1931.43</ele>
        <time>2014-09-15T09:08:59Z</time>
      </trkpt>
      <trkpt lat="45.22729" lon="6.21021">
        <ele>1930.46</ele>
        <time>2014-09-15T09:09:00Z</time>
      </trkpt>
      <trkpt lat="45.22728" lon="6.21026">
        <ele>1929.98</ele>
        <time>2014-09-15T09:09:01Z</time>
      </trkpt>
      <trkpt lat="45.22728" lon="6.21031">
        <ele>1929.02</ele>
        <time>2014-09-15T09:09:02Z</time>
      </trkpt>
      <trkpt lat="45.22728" lon="6.21036">
        <ele>1928.06</ele>
        <time>2014-09-15T09:09:03Z</time>
      </trkpt>
      <trkpt lat="45.22726" lon="6.21041">
        <ele>1927.58</ele>
        <time>2014-09-15T09:09:04Z</time>
      </trkpt>
      <trkpt lat="45.22725" lon="6.21047">
        <ele>1927.1</ele>
        <time>2014-09-15T09:09:05Z</time>
      </trkpt>
      <trkpt lat="45.22724" lon="6.21052">
        <ele>1926.14</ele>
        <time>2014-09-15T09:09:06Z</time>
      </trkpt>
      <trkpt lat="45.22718" lon="6.21075">
        <ele>1923.25</ele>
        <time>2014-09-15T09:09:11Z</time>
      </trkpt>
      <trkpt lat="45.22717" lon="6.2108">
        <ele>1923.25</ele>
        <time>2014-09-15T09:09:12Z</time>
      </trkpt>
      <trkpt lat="45.22715" lon="6.21107">
        <ele>1919.89</ele>
        <time>2014-09-15T09:09:19Z</time>
      </trkpt>
      <trkpt lat="45.22714" lon="6.21114">
        <ele>1919.41</ele>
        <time>2014-09-15T09:09:21Z</time>
      </trkpt>
      <trkpt lat="45.22715" lon="6.21118">
        <ele>1919.41</ele>
        <time>2014-09-15T09:09:22Z</time>
      </trkpt>
      <trkpt lat="45.22715" lon="6.21121">
        <ele>1919.41</ele>
        <time>2014-09-15T09:09:23Z</time>
      </trkpt>
      <trkpt lat="45.22714" lon="6.21124">
        <ele>1918.93</ele>
        <time>2014-09-15T09:09:24Z</time>
      </trkpt>
      <trkpt lat="45.22714" lon="6.21127">
        <ele>1918.93</ele>
        <time>2014-09-15T09:09:25Z</time>
      </trkpt>
      <trkpt lat="45.22713" lon="6.2113">
        <ele>1918.93</ele>
        <time>2014-09-15T09:09:26Z</time>
      </trkpt>
      <trkpt lat="45.22713" lon="6.21133">
        <ele>1918.93</ele>
        <time>2014-09-15T09:09:27Z</time>
      </trkpt>
      <trkpt lat="45.22712" lon="6.21137">
        <ele>1918.93</ele>
        <time>2014-09-15T09:09:28Z</time>
      </trkpt>
      <trkpt lat="45.22711" lon="6.2114">
        <ele>1918.93</ele>
        <time>2014-09-15T09:09:29Z</time>
      </trkpt>
      <trkpt lat="45.22711" lon="6.21142">
        <ele>1918.93</ele>
        <time>2014-09-15T09:09:30Z</time>
      </trkpt>
      <trkpt lat="45.22711" lon="6.21145">
        <ele>1918.93</ele>
        <time>2014-09-15T09:09:31Z</time>
      </trkpt>
      <trkpt lat="45.22711" lon="6.21148">
        <ele>1918.93</ele>
        <time>2014-09-15T09:09:32Z</time>
      </trkpt>
      <trkpt lat="45.22712" lon="6.21152">
        <ele>1918.45</ele>
        <time>2014-09-15T09:09:33Z</time>
      </trkpt>
      <trkpt lat="45.22713" lon="6.21155">
        <ele>1918.45</ele>
        <time>2014-09-15T09:09:34Z</time>
      </trkpt>
      <trkpt lat="45.22712" lon="6.21157">
        <ele>1918.45</ele>
        <time>2014-09-15T09:09:35Z</time>
      </trkpt>
      <trkpt lat="45.22711" lon="6.21159">
        <ele>1918.45</ele>
        <time>2014-09-15T09:09:36Z</time>
      </trkpt>
      <trkpt lat="45.2271" lon="6.21162">
        <ele>1918.45</ele>
        <time>2014-09-15T09:09:37Z</time>
      </trkpt>
      <trkpt lat="45.22709" lon="6.21164">
        <ele>1918.45</ele>
        <time>2014-09-15T09:09:38Z</time>
      </trkpt>
      <trkpt lat="45.22708" lon="6.21166">
        <ele>1918.45</ele>
        <time>2014-09-15T09:09:39Z</time>
      </trkpt>
      <trkpt lat="45.22707" lon="6.21168">
        <ele>1918.45</ele>
        <time>2014-09-15T09:09:40Z</time>
      </trkpt>
      <trkpt lat="45.22706" lon="6.2117">
        <ele>1918.45</ele>
        <time>2014-09-15T09:09:41Z</time>
      </trkpt>
      <trkpt lat="45.22699" lon="6.21182">
        <ele>1919.89</ele>
        <time>2014-09-15T09:09:49Z</time>
      </trkpt>
      <trkpt lat="45.22681" lon="6.21206">
        <ele>1919.89</ele>
        <time>2014-09-15T09:10:00Z</time>
      </trkpt>
      <trkpt lat="45.22679" lon="6.21212">
        <ele>1919.89</ele>
        <time>2014-09-15T09:10:12Z</time>
      </trkpt>
      <trkpt lat="45.22678" lon="6.21222">
        <ele>1918.93</ele>
        <time>2014-09-15T09:10:18Z</time>
      </trkpt>
      <trkpt lat="45.22677" lon="6.21227">
        <ele>1917.97</ele>
        <time>2014-09-15T09:10:28Z</time>
      </trkpt>
      <trkpt lat="45.22674" lon="6.21229">
        <ele>1917.49</ele>
        <time>2014-09-15T09:10:44Z</time>
      </trkpt>
      <trkpt lat="45.22672" lon="6.21229">
        <ele>1916.04</ele>
        <time>2014-09-15T09:10:53Z</time>
      </trkpt>
      <trkpt lat="45.22671" lon="6.21229">
        <ele>1915.56</ele>
        <time>2014-09-15T09:10:54Z</time>
      </trkpt>
      <trkpt lat="45.2267" lon="6.21229">
        <ele>1915.56</ele>
        <time>2014-09-15T09:10:55Z</time>
      </trkpt>
      <trkpt lat="45.22666" lon="6.21228">
        <ele>1914.12</ele>
        <time>2014-09-15T09:10:57Z</time>
      </trkpt>
      <trkpt lat="45.22664" lon="6.21229">
        <ele>1913.64</ele>
        <time>2014-09-15T09:10:58Z</time>
      </trkpt>
      <trkpt lat="45.22662" lon="6.21231">
        <ele>1913.16</ele>
        <time>2014-09-15T09:10:59Z</time>
      </trkpt>
      <trkpt lat="45.2266" lon="6.21234">
        <ele>1912.2</ele>
        <time>2014-09-15T09:11:00Z</time>
      </trkpt>
      <trkpt lat="45.22658" lon="6.21235">
        <ele>1911.24</ele>
        <time>2014-09-15T09:11:01Z</time>
      </trkpt>
      <trkpt lat="45.22656" lon="6.21236">
        <ele>1910.76</ele>
        <time>2014-09-15T09:11:02Z</time>
      </trkpt>
      <trkpt lat="45.22656" lon="6.21237">
        <ele>1910.76</ele>
        <time>2014-09-15T09:11:03Z</time>
      </trkpt>
      <trkpt lat="45.22656" lon="6.21239">
        <ele>1909.32</ele>
        <time>2014-09-15T09:11:06Z</time>
      </trkpt>
      <trkpt lat="45.22657" lon="6.2124">
        <ele>1909.32</ele>
        <time>2014-09-15T09:11:07Z</time>
      </trkpt>
      <trkpt lat="45.22659" lon="6.21241">
        <ele>1908.83</ele>
        <time>2014-09-15T09:11:08Z</time>
      </trkpt>
      <trkpt lat="45.22661" lon="6.21242">
        <ele>1908.83</ele>
        <time>2014-09-15T09:11:09Z</time>
      </trkpt>
      <trkpt lat="45.22662" lon="6.21244">
        <ele>1907.87</ele>
        <time>2014-09-15T09:11:10Z</time>
      </trkpt>
      <trkpt lat="45.22665" lon="6.21247">
        <ele>1907.39</ele>
        <time>2014-09-15T09:11:12Z</time>
      </trkpt>
      <trkpt lat="45.22665" lon="6.21249">
        <ele>1906.43</ele>
        <time>2014-09-15T09:11:13Z</time>
      </trkpt>
      <trkpt lat="45.22662" lon="6.21253">
        <ele>1904.99</ele>
        <time>2014-09-15T09:11:18Z</time>
      </trkpt>
      <trkpt lat="45.22661" lon="6.21253">
        <ele>1904.99</ele>
        <time>2014-09-15T09:11:19Z</time>
      </trkpt>
      <trkpt lat="45.22659" lon="6.21252">
        <ele>1904.51</ele>
        <time>2014-09-15T09:11:20Z</time>
      </trkpt>
      <trkpt lat="45.22656" lon="6.21252">
        <ele>1904.03</ele>
        <time>2014-09-15T09:11:21Z</time>
      </trkpt>
      <trkpt lat="45.22654" lon="6.21252">
        <ele>1903.07</ele>
        <time>2014-09-15T09:11:22Z</time>
      </trkpt>
      <trkpt lat="45.22651" lon="6.21253">
        <ele>1902.59</ele>
        <time>2014-09-15T09:11:23Z</time>
      </trkpt>
      <trkpt lat="45.22649" lon="6.21254">
        <ele>1902.11</ele>
        <time>2014-09-15T09:11:24Z</time>
      </trkpt>
      <trkpt lat="45.22648" lon="6.21255">
        <ele>1901.14</ele>
        <time>2014-09-15T09:11:25Z</time>
      </trkpt>
      <trkpt lat="45.22647" lon="6.21254">
        <ele>1900.66</ele>
        <time>2014-09-15T09:11:26Z</time>
      </trkpt>
      <trkpt lat="45.22645" lon="6.21253">
        <ele>1900.66</ele>
        <time>2014-09-15T09:11:27Z</time>
      </trkpt>
      <trkpt lat="45.22644" lon="6.21253">
        <ele>1899.7</ele>
        <time>2014-09-15T09:11:28Z</time>
      </trkpt>
      <trkpt lat="45.22642" lon="6.21253">
        <ele>1898.74</ele>
        <time>2014-09-15T09:11:29Z</time>
      </trkpt>
      <trkpt lat="45.2264" lon="6.21252">
        <ele>1898.26</ele>
        <time>2014-09-15T09:11:30Z</time>
      </trkpt>
      <trkpt lat="45.22638" lon="6.21251">
        <ele>1897.78</ele>
        <time>2014-09-15T09:11:31Z</time>
      </trkpt>
      <trkpt lat="45.22637" lon="6.21249">
        <ele>1897.3</ele>
        <time>2014-09-15T09:11:32Z</time>
      </trkpt>
      <trkpt lat="45.22636" lon="6.21248">
        <ele>1896.82</ele>
        <time>2014-09-15T09:11:33Z</time>
      </trkpt>
      <trkpt lat="45.22629" lon="6.21243">
        <ele>1893.93</ele>
        <time>2014-09-15T09:11:37Z</time>
      </trkpt>
      <trkpt lat="45.22628" lon="6.21244">
        <ele>1893.45</ele>
        <time>2014-09-15T09:11:38Z</time>
      </trkpt>
      <trkpt lat="45.22618" lon="6.21242">
        <ele>1890.09</ele>
        <time>2014-09-15T09:11:42Z</time>
      </trkpt>
      <trkpt lat="45.22612" lon="6.2124">
        <ele>1887.69</ele>
        <time>2014-09-15T09:11:45Z</time>
      </trkpt>
      <trkpt lat="45.2261" lon="6.21239">
        <ele>1887.21</ele>
        <time>2014-09-15T09:11:46Z</time>
      </trkpt>
      <trkpt lat="45.22608" lon="6.21237">
        <ele>1886.72</ele>
        <time>2014-09-15T09:11:47Z</time>
      </trkpt>
      <trkpt lat="45.22606" lon="6.21235">
        <ele>1886.24</ele>
        <time>2014-09-15T09:11:48Z</time>
      </trkpt>
      <trkpt lat="45.22605" lon="6.21234">
        <ele>1886.24</ele>
        <time>2014-09-15T09:11:49Z</time>
      </trkpt>
      <trkpt lat="45.22594" lon="6.21228">
        <ele>1882.88</ele>
        <time>2014-09-15T09:11:55Z</time>
      </trkpt>
      <trkpt lat="45.22589" lon="6.21227">
        <ele>1880.48</ele>
        <time>2014-09-15T09:12:07Z</time>
      </trkpt>
      <trkpt lat="45.22589" lon="6.21229">
        <ele>1879.51</ele>
        <time>2014-09-15T09:12:09Z</time>
      </trkpt>
      <trkpt lat="45.2259" lon="6.21231">
        <ele>1879.51</ele>
        <time>2014-09-15T09:12:10Z</time>
      </trkpt>
      <trkpt lat="45.22589" lon="6.21232">
        <ele>1879.03</ele>
        <time>2014-09-15T09:12:13Z</time>
      </trkpt>
      <trkpt lat="45.2258" lon="6.21226">
        <ele>1876.15</ele>
        <time>2014-09-15T09:12:24Z</time>
      </trkpt>
      <trkpt lat="45.22576" lon="6.21226">
        <ele>1873.75</ele>
        <time>2014-09-15T09:12:35Z</time>
      </trkpt>
      <trkpt lat="45.22573" lon="6.21227">
        <ele>1872.3</ele>
        <time>2014-09-15T09:12:43Z</time>
      </trkpt>
      <trkpt lat="45.22572" lon="6.21226">
        <ele>1872.3</ele>
        <time>2014-09-15T09:12:44Z</time>
      </trkpt>
      <trkpt lat="45.22567" lon="6.21221">
        <ele>1869.9</ele>
        <time>2014-09-15T09:12:50Z</time>
      </trkpt>
      <trkpt lat="45.22563" lon="6.21216">
        <ele>1867.98</ele>
        <time>2014-09-15T09:13:03Z</time>
      </trkpt>
      <trkpt lat="45.22561" lon="6.21216">
        <ele>1867.98</ele>
        <time>2014-09-15T09:13:04Z</time>
      </trkpt>
      <trkpt lat="45.22558" lon="6.21219">
        <ele>1865.09</ele>
        <time>2014-09-15T09:13:11Z</time>
      </trkpt>
      <trkpt lat="45.22558" lon="6.21221">
        <ele>1865.09</ele>
        <time>2014-09-15T09:13:12Z</time>
      </trkpt>
      <trkpt lat="45.22556" lon="6.21222">
        <ele>1862.69</ele>
        <time>2014-09-15T09:13:22Z</time>
      </trkpt>
      <trkpt lat="45.22549" lon="6.21213">
        <ele>1860.29</ele>
        <time>2014-09-15T09:13:26Z</time>
      </trkpt>
      <trkpt lat="45.22547" lon="6.2121">
        <ele>1859.81</ele>
        <time>2014-09-15T09:13:27Z</time>
      </trkpt>
      <trkpt lat="45.22545" lon="6.21207">
        <ele>1858.85</ele>
        <time>2014-09-15T09:13:28Z</time>
      </trkpt>
      <trkpt lat="45.22543" lon="6.21204">
        <ele>1858.85</ele>
        <time>2014-09-15T09:13:29Z</time>
      </trkpt>
      <trkpt lat="45.2254" lon="6.21202">
        <ele>1858.37</ele>
        <time>2014-09-15T09:13:30Z</time>
      </trkpt>
      <trkpt lat="45.22537" lon="6.21201">
        <ele>1857.89</ele>
        <time>2014-09-15T09:13:31Z</time>
      </trkpt>
      <trkpt lat="45.22534" lon="6.21198">
        <ele>1856.92</ele>
        <time>2014-09-15T09:13:32Z</time>
      </trkpt>
      <trkpt lat="45.2253" lon="6.21195">
        <ele>1855.48</ele>
        <time>2014-09-15T09:13:34Z</time>
      </trkpt>
      <trkpt lat="45.22528" lon="6.21195">
        <ele>1854.52</ele>
        <time>2014-09-15T09:13:35Z</time>
      </trkpt>
      <trkpt lat="45.22526" lon="6.21194">
        <ele>1854.04</ele>
        <time>2014-09-15T09:13:36Z</time>
      </trkpt>
      <trkpt lat="45.22524" lon="6.21193">
        <ele>1853.08</ele>
        <time>2014-09-15T09:13:37Z</time>
      </trkpt>
      <trkpt lat="45.22521" lon="6.21192">
        <ele>1852.12</ele>
        <time>2014-09-15T09:13:38Z</time>
      </trkpt>
      <trkpt lat="45.22518" lon="6.21191">
        <ele>1851.16</ele>
        <time>2014-09-15T09:13:39Z</time>
      </trkpt>
      <trkpt lat="45.22516" lon="6.2119">
        <ele>1849.71</ele>
        <time>2014-09-15T09:13:40Z</time>
      </trkpt>
      <trkpt lat="45.22514" lon="6.21187">
        <ele>1849.23</ele>
        <time>2014-09-15T09:13:41Z</time>
      </trkpt>
      <trkpt lat="45.22512" lon="6.21184">
        <ele>1848.27</ele>
        <time>2014-09-15T09:13:42Z</time>
      </trkpt>
      <trkpt lat="45.2251" lon="6.2118">
        <ele>1847.79</ele>
        <time>2014-09-15T09:13:43Z</time>
      </trkpt>
      <trkpt lat="45.22509" lon="6.21177">
        <ele>1847.79</ele>
        <time>2014-09-15T09:13:44Z</time>
      </trkpt>
      <trkpt lat="45.22507" lon="6.21175">
        <ele>1847.79</ele>
        <time>2014-09-15T09:13:45Z</time>
      </trkpt>
      <trkpt lat="45.22505" lon="6.21173">
        <ele>1847.79</ele>
        <time>2014-09-15T09:13:46Z</time>
      </trkpt>
      <trkpt lat="45.22501" lon="6.21172">
        <ele>1846.83</ele>
        <time>2014-09-15T09:13:47Z</time>
      </trkpt>
      <trkpt lat="45.22497" lon="6.2117">
        <ele>1846.35</ele>
        <time>2014-09-15T09:13:48Z</time>
      </trkpt>
      <trkpt lat="45.22492" lon="6.2117">
        <ele>1845.87</ele>
        <time>2014-09-15T09:13:49Z</time>
      </trkpt>
      <trkpt lat="45.22489" lon="6.21171">
        <ele>1845.87</ele>
        <time>2014-09-15T09:13:50Z</time>
      </trkpt>
      <trkpt lat="45.22488" lon="6.21173">
        <ele>1845.39</ele>
        <time>2014-09-15T09:13:51Z</time>
      </trkpt>
      <trkpt lat="45.22488" lon="6.21175">
        <ele>1844.91</ele>
        <time>2014-09-15T09:13:52Z</time>
      </trkpt>
      <trkpt lat="45.22489" lon="6.2118">
        <ele>1843.95</ele>
        <time>2014-09-15T09:13:53Z</time>
      </trkpt>
      <trkpt lat="45.22491" lon="6.21187">
        <ele>1842.02</ele>
        <time>2014-09-15T09:13:54Z</time>
      </trkpt>
      <trkpt lat="45.22493" lon="6.21196">
        <ele>1840.58</ele>
        <time>2014-09-15T09:13:55Z</time>
      </trkpt>
      <trkpt lat="45.22498" lon="6.21217">
        <ele>1839.14</ele>
        <time>2014-09-15T09:13:57Z</time>
      </trkpt>
      <trkpt lat="45.22502" lon="6.21226">
        <ele>1838.66</ele>
        <time>2014-09-15T09:13:58Z</time>
      </trkpt>
      <trkpt lat="45.22505" lon="6.21234">
        <ele>1837.7</ele>
        <time>2014-09-15T09:13:59Z</time>
      </trkpt>
      <trkpt lat="45.22516" lon="6.21273">
        <ele>1834.81</ele>
        <time>2014-09-15T09:14:03Z</time>
      </trkpt>
      <trkpt lat="45.22526" lon="6.21306">
        <ele>1831.93</ele>
        <time>2014-09-15T09:14:06Z</time>
      </trkpt>
      <trkpt lat="45.2253" lon="6.21315">
        <ele>1830.97</ele>
        <time>2014-09-15T09:14:07Z</time>
      </trkpt>
      <trkpt lat="45.22534" lon="6.21324">
        <ele>1830.01</ele>
        <time>2014-09-15T09:14:08Z</time>
      </trkpt>
      <trkpt lat="45.22546" lon="6.21341">
        <ele>1826.16</ele>
        <time>2014-09-15T09:14:10Z</time>
      </trkpt>
      <trkpt lat="45.22562" lon="6.21362">
        <ele>1823.28</ele>
        <time>2014-09-15T09:14:14Z</time>
      </trkpt>
      <trkpt lat="45.22563" lon="6.21364">
        <ele>1823.28</ele>
        <time>2014-09-15T09:14:15Z</time>
      </trkpt>
      <trkpt lat="45.22564" lon="6.21365">
        <ele>1822.8</ele>
        <time>2014-09-15T09:14:28Z</time>
      </trkpt>
      <trkpt lat="45.22564" lon="6.21367">
        <ele>1822.32</ele>
        <time>2014-09-15T09:14:29Z</time>
      </trkpt>
      <trkpt lat="45.22564" lon="6.21369">
        <ele>1822.32</ele>
        <time>2014-09-15T09:14:30Z</time>
      </trkpt>
      <trkpt lat="45.22563" lon="6.21373">
        <ele>1821.84</ele>
        <time>2014-09-15T09:14:31Z</time>
      </trkpt>
      <trkpt lat="45.2256" lon="6.21375">
        <ele>1820.39</ele>
        <time>2014-09-15T09:14:32Z</time>
      </trkpt>
      <trkpt lat="45.22557" lon="6.21376">
        <ele>1819.91</ele>
        <time>2014-09-15T09:14:33Z</time>
      </trkpt>
      <trkpt lat="45.22553" lon="6.21376">
        <ele>1818.95</ele>
        <time>2014-09-15T09:14:34Z</time>
      </trkpt>
      <trkpt lat="45.22548" lon="6.21375">
        <ele>1817.99</ele>
        <time>2014-09-15T09:14:35Z</time>
      </trkpt>
      <trkpt lat="45.22543" lon="6.21374">
        <ele>1817.03</ele>
        <time>2014-09-15T09:14:36Z</time>
      </trkpt>
      <trkpt lat="45.22529" lon="6.21368">
        <ele>1813.66</ele>
        <time>2014-09-15T09:14:39Z</time>
      </trkpt>
      <trkpt lat="45.22527" lon="6.21369">
        <ele>1813.66</ele>
        <time>2014-09-15T09:14:40Z</time>
      </trkpt>
      <trkpt lat="45.22525" lon="6.21371">
        <ele>1812.7</ele>
        <time>2014-09-15T09:14:41Z</time>
      </trkpt>
      <trkpt lat="45.22523" lon="6.21374">
        <ele>1812.7</ele>
        <time>2014-09-15T09:14:44Z</time>
      </trkpt>
      <trkpt lat="45.22521" lon="6.21374">
        <ele>1812.7</ele>
        <time>2014-09-15T09:14:45Z</time>
      </trkpt>
      <trkpt lat="45.22519" lon="6.21374">
        <ele>1812.7</ele>
        <time>2014-09-15T09:14:46Z</time>
      </trkpt>
      <trkpt lat="45.22518" lon="6.21374">
        <ele>1812.7</ele>
        <time>2014-09-15T09:14:47Z</time>
      </trkpt>
      <trkpt lat="45.22516" lon="6.21372">
        <ele>1812.7</ele>
        <time>2014-09-15T09:14:55Z</time>
      </trkpt>
      <trkpt lat="45.22514" lon="6.21371">
        <ele>1811.74</ele>
        <time>2014-09-15T09:14:56Z</time>
      </trkpt>
      <trkpt lat="45.22512" lon="6.21372">
        <ele>1811.26</ele>
        <time>2014-09-15T09:14:57Z</time>
      </trkpt>
      <trkpt lat="45.2251" lon="6.21374">
        <ele>1810.78</ele>
        <time>2014-09-15T09:14:58Z</time>
      </trkpt>
      <trkpt lat="45.22509" lon="6.21378">
        <ele>1809.34</ele>
        <time>2014-09-15T09:14:59Z</time>
      </trkpt>
      <trkpt lat="45.2251" lon="6.21382">
        <ele>1808.38</ele>
        <time>2014-09-15T09:15:00Z</time>
      </trkpt>
      <trkpt lat="45.22511" lon="6.21388">
        <ele>1807.42</ele>
        <time>2014-09-15T09:15:01Z</time>
      </trkpt>
      <trkpt lat="45.22512" lon="6.21393">
        <ele>1806.94</ele>
        <time>2014-09-15T09:15:02Z</time>
      </trkpt>
      <trkpt lat="45.22514" lon="6.21398">
        <ele>1805.49</ele>
        <time>2014-09-15T09:15:03Z</time>
      </trkpt>
      <trkpt lat="45.22516" lon="6.21404">
        <ele>1805.01</ele>
        <time>2014-09-15T09:15:04Z</time>
      </trkpt>
      <trkpt lat="45.22518" lon="6.2141">
        <ele>1804.05</ele>
        <time>2014-09-15T09:15:05Z</time>
      </trkpt>
      <trkpt lat="45.2252" lon="6.21417">
        <ele>1803.09</ele>
        <time>2014-09-15T09:15:06Z</time>
      </trkpt>
      <trkpt lat="45.22523" lon="6.21423">
        <ele>1801.65</ele>
        <time>2014-09-15T09:15:07Z</time>
      </trkpt>
      <trkpt lat="45.22525" lon="6.21429">
        <ele>1801.17</ele>
        <time>2014-09-15T09:15:08Z</time>
      </trkpt>
      <trkpt lat="45.22529" lon="6.21434">
        <ele>1799.73</ele>
        <time>2014-09-15T09:15:09Z</time>
      </trkpt>
      <trkpt lat="45.22532" lon="6.21438">
        <ele>1799.24</ele>
        <time>2014-09-15T09:15:10Z</time>
      </trkpt>
      <trkpt lat="45.22537" lon="6.21443">
        <ele>1798.76</ele>
        <time>2014-09-15T09:15:11Z</time>
      </trkpt>
      <trkpt lat="45.2254" lon="6.21446">
        <ele>1798.28</ele>
        <time>2014-09-15T09:15:12Z</time>
      </trkpt>
      <trkpt lat="45.22543" lon="6.21447">
        <ele>1798.28</ele>
        <time>2014-09-15T09:15:13Z</time>
      </trkpt>
      <trkpt lat="45.22546" lon="6.21448">
        <ele>1796.84</ele>
        <time>2014-09-15T09:15:14Z</time>
      </trkpt>
      <trkpt lat="45.22548" lon="6.2145">
        <ele>1796.84</ele>
        <time>2014-09-15T09:15:15Z</time>
      </trkpt>
      <trkpt lat="45.22549" lon="6.21451">
        <ele>1796.84</ele>
        <time>2014-09-15T09:15:16Z</time>
      </trkpt>
      <trkpt lat="45.2255" lon="6.21453">
        <ele>1796.36</ele>
        <time>2014-09-15T09:15:17Z</time>
      </trkpt>
      <trkpt lat="45.22553" lon="6.21456">
        <ele>1796.36</ele>
        <time>2014-09-15T09:15:18Z</time>
      </trkpt>
      <trkpt lat="45.22558" lon="6.21462">
        <ele>1794.92</ele>
        <time>2014-09-15T09:15:20Z</time>
      </trkpt>
      <trkpt lat="45.22561" lon="6.21466">
        <ele>1793.96</ele>
        <time>2014-09-15T09:15:21Z</time>
      </trkpt>
      <trkpt lat="45.22564" lon="6.21468">
        <ele>1793.48</ele>
        <time>2014-09-15T09:15:22Z</time>
      </trkpt>
      <trkpt lat="45.22568" lon="6.21471">
        <ele>1792.52</ele>
        <time>2014-09-15T09:15:23Z</time>
      </trkpt>
      <trkpt lat="45.22572" lon="6.21474">
        <ele>1793</ele>
        <time>2014-09-15T09:15:24Z</time>
      </trkpt>
      <trkpt lat="45.22575" lon="6.21475">
        <ele>1793</ele>
        <time>2014-09-15T09:15:25Z</time>
      </trkpt>
      <trkpt lat="45.22586" lon="6.21485">
        <ele>1791.55</ele>
        <time>2014-09-15T09:15:29Z</time>
      </trkpt>
      <trkpt lat="45.22597" lon="6.21505">
        <ele>1787.71</ele>
        <time>2014-09-15T09:15:34Z</time>
      </trkpt>
      <trkpt lat="45.22604" lon="6.21512">
        <ele>1786.27</ele>
        <time>2014-09-15T09:15:37Z</time>
      </trkpt>
      <trkpt lat="45.22604" lon="6.21515">
        <ele>1786.27</ele>
        <time>2014-09-15T09:15:38Z</time>
      </trkpt>
      <trkpt lat="45.22603" lon="6.21518">
        <ele>1785.31</ele>
        <time>2014-09-15T09:15:39Z</time>
      </trkpt>
      <trkpt lat="45.22602" lon="6.21519">
        <ele>1784.82</ele>
        <time>2014-09-15T09:15:40Z</time>
      </trkpt>
      <trkpt lat="45.22601" lon="6.2152">
        <ele>1784.34</ele>
        <time>2014-09-15T09:15:41Z</time>
      </trkpt>
      <trkpt lat="45.226" lon="6.21518">
        <ele>1784.34</ele>
        <time>2014-09-15T09:15:42Z</time>
      </trkpt>
      <trkpt lat="45.22598" lon="6.21517">
        <ele>1783.38</ele>
        <time>2014-09-15T09:15:43Z</time>
      </trkpt>
      <trkpt lat="45.22595" lon="6.21517">
        <ele>1783.38</ele>
        <time>2014-09-15T09:15:44Z</time>
      </trkpt>
      <trkpt lat="45.22591" lon="6.21517">
        <ele>1782.42</ele>
        <time>2014-09-15T09:15:45Z</time>
      </trkpt>
      <trkpt lat="45.22587" lon="6.21517">
        <ele>1781.94</ele>
        <time>2014-09-15T09:15:46Z</time>
      </trkpt>
      <trkpt lat="45.22582" lon="6.21515">
        <ele>1780.98</ele>
        <time>2014-09-15T09:15:47Z</time>
      </trkpt>
      <trkpt lat="45.22578" lon="6.21514">
        <ele>1780.98</ele>
        <time>2014-09-15T09:15:48Z</time>
      </trkpt>
      <trkpt lat="45.22574" lon="6.21513">
        <ele>1780.5</ele>
        <time>2014-09-15T09:15:49Z</time>
      </trkpt>
      <trkpt lat="45.22571" lon="6.21514">
        <ele>1780.5</ele>
        <time>2014-09-15T09:15:50Z</time>
      </trkpt>
      <trkpt lat="45.22568" lon="6.21513">
        <ele>1779.54</ele>
        <time>2014-09-15T09:15:51Z</time>
      </trkpt>
      <trkpt lat="45.22565" lon="6.21512">
        <ele>1779.06</ele>
        <time>2014-09-15T09:15:52Z</time>
      </trkpt>
      <trkpt lat="45.22561" lon="6.21511">
        <ele>1779.06</ele>
        <time>2014-09-15T09:15:53Z</time>
      </trkpt>
      <trkpt lat="45.22552" lon="6.21506">
        <ele>1776.65</ele>
        <time>2014-09-15T09:15:58Z</time>
      </trkpt>
      <trkpt lat="45.2255" lon="6.21505">
        <ele>1775.69</ele>
        <time>2014-09-15T09:15:59Z</time>
      </trkpt>
      <trkpt lat="45.22547" lon="6.21505">
        <ele>1775.21</ele>
        <time>2014-09-15T09:16:00Z</time>
      </trkpt>
      <trkpt lat="45.22528" lon="6.215">
        <ele>1771.85</ele>
        <time>2014-09-15T09:16:06Z</time>
      </trkpt>
      <trkpt lat="45.22527" lon="6.21503">
        <ele>1771.37</ele>
        <time>2014-09-15T09:16:07Z</time>
      </trkpt>
      <trkpt lat="45.22527" lon="6.21505">
        <ele>1770.41</ele>
        <time>2014-09-15T09:16:08Z</time>
      </trkpt>
      <trkpt lat="45.22528" lon="6.21509">
        <ele>1769.92</ele>
        <time>2014-09-15T09:16:09Z</time>
      </trkpt>
      <trkpt lat="45.2253" lon="6.21513">
        <ele>1769.44</ele>
        <time>2014-09-15T09:16:10Z</time>
      </trkpt>
      <trkpt lat="45.22533" lon="6.21519">
        <ele>1768.48</ele>
        <time>2014-09-15T09:16:11Z</time>
      </trkpt>
      <trkpt lat="45.22535" lon="6.21525">
        <ele>1768</ele>
        <time>2014-09-15T09:16:12Z</time>
      </trkpt>
      <trkpt lat="45.22541" lon="6.21551">
        <ele>1764.16</ele>
        <time>2014-09-15T09:16:16Z</time>
      </trkpt>
      <trkpt lat="45.22545" lon="6.21564">
        <ele>1762.71</ele>
        <time>2014-09-15T09:16:18Z</time>
      </trkpt>
      <trkpt lat="45.22546" lon="6.21571">
        <ele>1761.27</ele>
        <time>2014-09-15T09:16:19Z</time>
      </trkpt>
      <trkpt lat="45.22549" lon="6.21579">
        <ele>1760.31</ele>
        <time>2014-09-15T09:16:20Z</time>
      </trkpt>
      <trkpt lat="45.22555" lon="6.21594">
        <ele>1757.91</ele>
        <time>2014-09-15T09:16:22Z</time>
      </trkpt>
      <trkpt lat="45.22559" lon="6.21601">
        <ele>1756.95</ele>
        <time>2014-09-15T09:16:23Z</time>
      </trkpt>
      <trkpt lat="45.22567" lon="6.21625">
        <ele>1753.58</ele>
        <time>2014-09-15T09:16:26Z</time>
      </trkpt>
      <trkpt lat="45.22567" lon="6.21631">
        <ele>1752.62</ele>
        <time>2014-09-15T09:16:27Z</time>
      </trkpt>
      <trkpt lat="45.22566" lon="6.21635">
        <ele>1752.14</ele>
        <time>2014-09-15T09:16:28Z</time>
      </trkpt>
      <trkpt lat="45.22564" lon="6.21638">
        <ele>1751.18</ele>
        <time>2014-09-15T09:16:29Z</time>
      </trkpt>
      <trkpt lat="45.22562" lon="6.21642">
        <ele>1750.22</ele>
        <time>2014-09-15T09:16:30Z</time>
      </trkpt>
      <trkpt lat="45.22559" lon="6.21645">
        <ele>1749.26</ele>
        <time>2014-09-15T09:16:31Z</time>
      </trkpt>
      <trkpt lat="45.22553" lon="6.21657">
        <ele>1745.89</ele>
        <time>2014-09-15T09:16:34Z</time>
      </trkpt>
      <trkpt lat="45.22549" lon="6.21671">
        <ele>1741.57</ele>
        <time>2014-09-15T09:16:37Z</time>
      </trkpt>
      <trkpt lat="45.22549" lon="6.21677">
        <ele>1740.6</ele>
        <time>2014-09-15T09:16:38Z</time>
      </trkpt>
      <trkpt lat="45.22549" lon="6.21683">
        <ele>1738.2</ele>
        <time>2014-09-15T09:16:39Z</time>
      </trkpt>
      <trkpt lat="45.22549" lon="6.21691">
        <ele>1736.76</ele>
        <time>2014-09-15T09:16:41Z</time>
      </trkpt>
      <trkpt lat="45.22548" lon="6.21692">
        <ele>1736.28</ele>
        <time>2014-09-15T09:16:42Z</time>
      </trkpt>
      <trkpt lat="45.22545" lon="6.21694">
        <ele>1735.8</ele>
        <time>2014-09-15T09:16:43Z</time>
      </trkpt>
      <trkpt lat="45.22543" lon="6.21697">
        <ele>1734.36</ele>
        <time>2014-09-15T09:16:44Z</time>
      </trkpt>
      <trkpt lat="45.2254" lon="6.21701">
        <ele>1732.91</ele>
        <time>2014-09-15T09:16:45Z</time>
      </trkpt>
      <trkpt lat="45.22538" lon="6.21705">
        <ele>1731.95</ele>
        <time>2014-09-15T09:16:46Z</time>
      </trkpt>
      <trkpt lat="45.22537" lon="6.2171">
        <ele>1730.99</ele>
        <time>2014-09-15T09:16:47Z</time>
      </trkpt>
      <trkpt lat="45.22537" lon="6.21715">
        <ele>1730.03</ele>
        <time>2014-09-15T09:16:48Z</time>
      </trkpt>
      <trkpt lat="45.22538" lon="6.2172">
        <ele>1728.59</ele>
        <time>2014-09-15T09:16:49Z</time>
      </trkpt>
      <trkpt lat="45.2254" lon="6.21724">
        <ele>1728.11</ele>
        <time>2014-09-15T09:16:50Z</time>
      </trkpt>
      <trkpt lat="45.22541" lon="6.21727">
        <ele>1728.11</ele>
        <time>2014-09-15T09:16:51Z</time>
      </trkpt>
      <trkpt lat="45.22543" lon="6.21728">
        <ele>1728.59</ele>
        <time>2014-09-15T09:17:02Z</time>
      </trkpt>
      <trkpt lat="45.22543" lon="6.21731">
        <ele>1728.11</ele>
        <time>2014-09-15T09:17:24Z</time>
      </trkpt>
      <trkpt lat="45.22544" lon="6.21737">
        <ele>1728.11</ele>
        <time>2014-09-15T09:17:30Z</time>
      </trkpt>
      <trkpt lat="45.22547" lon="6.21738">
        <ele>1728.11</ele>
        <time>2014-09-15T09:17:33Z</time>
      </trkpt>
      <trkpt lat="45.22551" lon="6.21742">
        <ele>1728.11</ele>
        <time>2014-09-15T09:17:40Z</time>
      </trkpt>
      <trkpt lat="45.22551" lon="6.21746">
        <ele>1728.11</ele>
        <time>2014-09-15T09:17:41Z</time>
      </trkpt>
      <trkpt lat="45.22553" lon="6.2175">
        <ele>1727.63</ele>
        <time>2014-09-15T09:17:42Z</time>
      </trkpt>
      <trkpt lat="45.22554" lon="6.21753">
        <ele>1727.63</ele>
        <time>2014-09-15T09:17:43Z</time>
      </trkpt>
      <trkpt lat="45.22556" lon="6.21757">
        <ele>1727.63</ele>
        <time>2014-09-15T09:17:44Z</time>
      </trkpt>
      <trkpt lat="45.22556" lon="6.21761">
        <ele>1727.15</ele>
        <time>2014-09-15T09:17:45Z</time>
      </trkpt>
      <trkpt lat="45.22556" lon="6.21773">
        <ele>1726.18</ele>
        <time>2014-09-15T09:17:48Z</time>
      </trkpt>
      <trkpt lat="45.22547" lon="6.21778">
        <ele>1722.34</ele>
        <time>2014-09-15T09:17:53Z</time>
      </trkpt>
      <trkpt lat="45.22531" lon="6.21774">
        <ele>1716.57</ele>
        <time>2014-09-15T09:17:58Z</time>
      </trkpt>
      <trkpt lat="45.22527" lon="6.21774">
        <ele>1715.13</ele>
        <time>2014-09-15T09:17:59Z</time>
      </trkpt>
      <trkpt lat="45.22523" lon="6.21778">
        <ele>1714.65</ele>
        <time>2014-09-15T09:18:01Z</time>
      </trkpt>
      <trkpt lat="45.22518" lon="6.21785">
        <ele>1713.21</ele>
        <time>2014-09-15T09:18:04Z</time>
      </trkpt>
      <trkpt lat="45.22514" lon="6.21786">
        <ele>1712.25</ele>
        <time>2014-09-15T09:18:07Z</time>
      </trkpt>
      <trkpt lat="45.22511" lon="6.21784">
        <ele>1710.32</ele>
        <time>2014-09-15T09:18:09Z</time>
      </trkpt>
      <trkpt lat="45.22496" lon="6.21801">
        <ele>1706.96</ele>
        <time>2014-09-15T09:18:14Z</time>
      </trkpt>
      <trkpt lat="45.2248" lon="6.21808">
        <ele>1703.11</ele>
        <time>2014-09-15T09:18:18Z</time>
      </trkpt>
      <trkpt lat="45.22472" lon="6.21812">
        <ele>1701.19</ele>
        <time>2014-09-15T09:18:21Z</time>
      </trkpt>
      <trkpt lat="45.22462" lon="6.21825">
        <ele>1697.34</ele>
        <time>2014-09-15T09:18:25Z</time>
      </trkpt>
      <trkpt lat="45.22444" lon="6.21832">
        <ele>1693.02</ele>
        <time>2014-09-15T09:18:30Z</time>
      </trkpt>
      <trkpt lat="45.22431" lon="6.21841">
        <ele>1689.65</ele>
        <time>2014-09-15T09:18:33Z</time>
      </trkpt>
      <trkpt lat="45.22421" lon="6.21847">
        <ele>1686.29</ele>
        <time>2014-09-15T09:18:36Z</time>
      </trkpt>
      <trkpt lat="45.22416" lon="6.21848">
        <ele>1685.33</ele>
        <time>2014-09-15T09:18:37Z</time>
      </trkpt>
      <trkpt lat="45.22411" lon="6.21849">
        <ele>1684.37</ele>
        <time>2014-09-15T09:18:38Z</time>
      </trkpt>
      <trkpt lat="45.22405" lon="6.21853">
        <ele>1682.93</ele>
        <time>2014-09-15T09:18:40Z</time>
      </trkpt>
      <trkpt lat="45.22403" lon="6.21856">
        <ele>1682.44</ele>
        <time>2014-09-15T09:18:41Z</time>
      </trkpt>
      <trkpt lat="45.22402" lon="6.21859">
        <ele>1681.48</ele>
        <time>2014-09-15T09:18:42Z</time>
      </trkpt>
      <trkpt lat="45.22408" lon="6.21878">
        <ele>1678.6</ele>
        <time>2014-09-15T09:18:46Z</time>
      </trkpt>
      <trkpt lat="45.22408" lon="6.21894">
        <ele>1676.2</ele>
        <time>2014-09-15T09:18:48Z</time>
      </trkpt>
      <trkpt lat="45.224" lon="6.21907">
        <ele>1674.75</ele>
        <time>2014-09-15T09:18:54Z</time>
      </trkpt>
      <trkpt lat="45.22399" lon="6.21907">
        <ele>1674.27</ele>
        <time>2014-09-15T09:18:55Z</time>
      </trkpt>
      <trkpt lat="45.22397" lon="6.21907">
        <ele>1674.27</ele>
        <time>2014-09-15T09:18:56Z</time>
      </trkpt>
      <trkpt lat="45.22394" lon="6.21909">
        <ele>1673.31</ele>
        <time>2014-09-15T09:18:57Z</time>
      </trkpt>
      <trkpt lat="45.22388" lon="6.21913">
        <ele>1672.35</ele>
        <time>2014-09-15T09:18:58Z</time>
      </trkpt>
      <trkpt lat="45.22382" lon="6.21918">
        <ele>1670.91</ele>
        <time>2014-09-15T09:18:59Z</time>
      </trkpt>
      <trkpt lat="45.22373" lon="6.21924">
        <ele>1668.02</ele>
        <time>2014-09-15T09:19:01Z</time>
      </trkpt>
      <trkpt lat="45.22364" lon="6.21935">
        <ele>1665.62</ele>
        <time>2014-09-15T09:19:04Z</time>
      </trkpt>
      <trkpt lat="45.22361" lon="6.21939">
        <ele>1664.66</ele>
        <time>2014-09-15T09:19:05Z</time>
      </trkpt>
      <trkpt lat="45.22359" lon="6.21943">
        <ele>1664.18</ele>
        <time>2014-09-15T09:19:06Z</time>
      </trkpt>
      <trkpt lat="45.22357" lon="6.21946">
        <ele>1662.74</ele>
        <time>2014-09-15T09:19:07Z</time>
      </trkpt>
      <trkpt lat="45.22353" lon="6.21949">
        <ele>1662.26</ele>
        <time>2014-09-15T09:19:08Z</time>
      </trkpt>
      <trkpt lat="45.2235" lon="6.21954">
        <ele>1661.3</ele>
        <time>2014-09-15T09:19:09Z</time>
      </trkpt>
      <trkpt lat="45.22347" lon="6.21961">
        <ele>1659.85</ele>
        <time>2014-09-15T09:19:10Z</time>
      </trkpt>
      <trkpt lat="45.22345" lon="6.21969">
        <ele>1658.89</ele>
        <time>2014-09-15T09:19:11Z</time>
      </trkpt>
      <trkpt lat="45.22339" lon="6.2198">
        <ele>1656.49</ele>
        <time>2014-09-15T09:19:13Z</time>
      </trkpt>
      <trkpt lat="45.22335" lon="6.21984">
        <ele>1655.53</ele>
        <time>2014-09-15T09:19:14Z</time>
      </trkpt>
      <trkpt lat="45.22332" lon="6.2199">
        <ele>1654.57</ele>
        <time>2014-09-15T09:19:15Z</time>
      </trkpt>
      <trkpt lat="45.22328" lon="6.21996">
        <ele>1653.12</ele>
        <time>2014-09-15T09:19:16Z</time>
      </trkpt>
      <trkpt lat="45.22324" lon="6.22">
        <ele>1652.16</ele>
        <time>2014-09-15T09:19:17Z</time>
      </trkpt>
      <trkpt lat="45.22321" lon="6.22003">
        <ele>1651.68</ele>
        <time>2014-09-15T09:19:18Z</time>
      </trkpt>
      <trkpt lat="45.2231" lon="6.22015">
        <ele>1647.84</ele>
        <time>2014-09-15T09:19:23Z</time>
      </trkpt>
      <trkpt lat="45.22306" lon="6.22019">
        <ele>1647.36</ele>
        <time>2014-09-15T09:19:24Z</time>
      </trkpt>
      <trkpt lat="45.22303" lon="6.22023">
        <ele>1646.4</ele>
        <time>2014-09-15T09:19:25Z</time>
      </trkpt>
      <trkpt lat="45.22294" lon="6.22032">
        <ele>1643.99</ele>
        <time>2014-09-15T09:19:27Z</time>
      </trkpt>
      <trkpt lat="45.22283" lon="6.22047">
        <ele>1641.11</ele>
        <time>2014-09-15T09:19:30Z</time>
      </trkpt>
      <trkpt lat="45.22278" lon="6.22054">
        <ele>1640.15</ele>
        <time>2014-09-15T09:19:38Z</time>
      </trkpt>
      <trkpt lat="45.22278" lon="6.22056">
        <ele>1640.15</ele>
        <time>2014-09-15T09:20:01Z</time>
      </trkpt>
      <trkpt lat="45.2227" lon="6.22071">
        <ele>1637.74</ele>
        <time>2014-09-15T09:20:11Z</time>
      </trkpt>
      <trkpt lat="45.22266" lon="6.22079">
        <ele>1636.78</ele>
        <time>2014-09-15T09:20:12Z</time>
      </trkpt>
      <trkpt lat="45.22259" lon="6.22096">
        <ele>1633.42</ele>
        <time>2014-09-15T09:20:14Z</time>
      </trkpt>
      <trkpt lat="45.22256" lon="6.22103">
        <ele>1632.46</ele>
        <time>2014-09-15T09:20:15Z</time>
      </trkpt>
      <trkpt lat="45.22253" lon="6.22108">
        <ele>1631.49</ele>
        <time>2014-09-15T09:20:16Z</time>
      </trkpt>
      <trkpt lat="45.22248" lon="6.22111">
        <ele>1630.53</ele>
        <time>2014-09-15T09:20:17Z</time>
      </trkpt>
      <trkpt lat="45.22238" lon="6.22109">
        <ele>1630.05</ele>
        <time>2014-09-15T09:20:19Z</time>
      </trkpt>
      <trkpt lat="45.2221" lon="6.22095">
        <ele>1629.57</ele>
        <time>2014-09-15T09:20:25Z</time>
      </trkpt>
      <trkpt lat="45.22206" lon="6.22092">
        <ele>1629.57</ele>
        <time>2014-09-15T09:20:26Z</time>
      </trkpt>
      <trkpt lat="45.222" lon="6.22089">
        <ele>1629.09</ele>
        <time>2014-09-15T09:20:31Z</time>
      </trkpt>
      <trkpt lat="45.22198" lon="6.22088">
        <ele>1629.09</ele>
        <time>2014-09-15T09:20:32Z</time>
      </trkpt>
      <trkpt lat="45.22196" lon="6.22087">
        <ele>1629.09</ele>
        <time>2014-09-15T09:20:33Z</time>
      </trkpt>
      <trkpt lat="45.22193" lon="6.22085">
        <ele>1629.09</ele>
        <time>2014-09-15T09:20:34Z</time>
      </trkpt>
      <trkpt lat="45.22189" lon="6.22083">
        <ele>1629.09</ele>
        <time>2014-09-15T09:20:35Z</time>
      </trkpt>
      <trkpt lat="45.22174" lon="6.22071">
        <ele>1629.09</ele>
        <time>2014-09-15T09:20:39Z</time>
      </trkpt>
      <trkpt lat="45.22172" lon="6.22066">
        <ele>1629.09</ele>
        <time>2014-09-15T09:20:40Z</time>
      </trkpt>
      <trkpt lat="45.22163" lon="6.22053">
        <ele>1630.53</ele>
        <time>2014-09-15T09:20:43Z</time>
      </trkpt>
      <trkpt lat="45.2216" lon="6.22049">
        <ele>1630.53</ele>
        <time>2014-09-15T09:20:44Z</time>
      </trkpt>
      <trkpt lat="45.22156" lon="6.22046">
        <ele>1630.53</ele>
        <time>2014-09-15T09:20:45Z</time>
      </trkpt>
      <trkpt lat="45.22153" lon="6.22042">
        <ele>1630.53</ele>
        <time>2014-09-15T09:20:46Z</time>
      </trkpt>
      <trkpt lat="45.2215" lon="6.22039">
        <ele>1630.53</ele>
        <time>2014-09-15T09:20:47Z</time>
      </trkpt>
      <trkpt lat="45.22125" lon="6.22023">
        <ele>1633.42</ele>
        <time>2014-09-15T09:20:58Z</time>
      </trkpt>
      <trkpt lat="45.22112" lon="6.22016">
        <ele>1634.86</ele>
        <time>2014-09-15T09:21:06Z</time>
      </trkpt>
      <trkpt lat="45.2211" lon="6.22016">
        <ele>1634.86</ele>
        <time>2014-09-15T09:21:07Z</time>
      </trkpt>
      <trkpt lat="45.22109" lon="6.22015">
        <ele>1634.86</ele>
        <time>2014-09-15T09:21:08Z</time>
      </trkpt>
      <trkpt lat="45.22107" lon="6.22013">
        <ele>1635.82</ele>
        <time>2014-09-15T09:21:09Z</time>
      </trkpt>
      <trkpt lat="45.22106" lon="6.22011">
        <ele>1635.82</ele>
        <time>2014-09-15T09:21:10Z</time>
      </trkpt>
      <trkpt lat="45.22105" lon="6.2201">
        <ele>1635.82</ele>
        <time>2014-09-15T09:21:11Z</time>
      </trkpt>
      <trkpt lat="45.22089" lon="6.21985">
        <ele>1638.7</ele>
        <time>2014-09-15T09:21:23Z</time>
      </trkpt>
      <trkpt lat="45.22084" lon="6.21966">
        <ele>1640.15</ele>
        <time>2014-09-15T09:21:34Z</time>
      </trkpt>
      <trkpt lat="45.2208" lon="6.21952">
        <ele>1641.59</ele>
        <time>2014-09-15T09:21:48Z</time>
      </trkpt>
      <trkpt lat="45.22073" lon="6.21915">
        <ele>1644.47</ele>
        <time>2014-09-15T09:22:02Z</time>
      </trkpt>
      <trkpt lat="45.22067" lon="6.21884">
        <ele>1647.36</ele>
        <time>2014-09-15T09:22:16Z</time>
      </trkpt>
      <trkpt lat="45.22065" lon="6.21885">
        <ele>1647.36</ele>
        <time>2014-09-15T09:22:33Z</time>
      </trkpt>
      <trkpt lat="45.22063" lon="6.21885">
        <ele>1647.36</ele>
        <time>2014-09-15T09:22:47Z</time>
      </trkpt>
      <trkpt lat="45.22063" lon="6.21886">
        <ele>1647.36</ele>
        <time>2014-09-15T09:22:49Z</time>
      </trkpt>
      <trkpt lat="45.22063" lon="6.21889">
        <ele>1647.36</ele>
        <time>2014-09-15T09:22:50Z</time>
      </trkpt>
      <trkpt lat="45.22064" lon="6.21893">
        <ele>1645.91</ele>
        <time>2014-09-15T09:22:51Z</time>
      </trkpt>
      <trkpt lat="45.22063" lon="6.21897">
        <ele>1645.91</ele>
        <time>2014-09-15T09:22:52Z</time>
      </trkpt>
      <trkpt lat="45.22064" lon="6.21902">
        <ele>1645.91</ele>
        <time>2014-09-15T09:22:53Z</time>
      </trkpt>
      <trkpt lat="45.22064" lon="6.21907">
        <ele>1645.43</ele>
        <time>2014-09-15T09:22:54Z</time>
      </trkpt>
      <trkpt lat="45.22066" lon="6.21912">
        <ele>1644.95</ele>
        <time>2014-09-15T09:22:55Z</time>
      </trkpt>
      <trkpt lat="45.22067" lon="6.21917">
        <ele>1644.47</ele>
        <time>2014-09-15T09:22:56Z</time>
      </trkpt>
      <trkpt lat="45.22072" lon="6.21933">
        <ele>1643.03</ele>
        <time>2014-09-15T09:22:59Z</time>
      </trkpt>
      <trkpt lat="45.22079" lon="6.21975">
        <ele>1639.67</ele>
        <time>2014-09-15T09:23:04Z</time>
      </trkpt>
      <trkpt lat="45.22085" lon="6.21996">
        <ele>1638.22</ele>
        <time>2014-09-15T09:23:06Z</time>
      </trkpt>
      <trkpt lat="45.2209" lon="6.22005">
        <ele>1637.26</ele>
        <time>2014-09-15T09:23:07Z</time>
      </trkpt>
      <trkpt lat="45.22096" lon="6.22013">
        <ele>1636.3</ele>
        <time>2014-09-15T09:23:08Z</time>
      </trkpt>
      <trkpt lat="45.22103" lon="6.22018">
        <ele>1635.34</ele>
        <time>2014-09-15T09:23:09Z</time>
      </trkpt>
      <trkpt lat="45.2211" lon="6.22023">
        <ele>1634.38</ele>
        <time>2014-09-15T09:23:10Z</time>
      </trkpt>
      <trkpt lat="45.2214" lon="6.22044">
        <ele>1631.01</ele>
        <time>2014-09-15T09:23:14Z</time>
      </trkpt>
      <trkpt lat="45.22145" lon="6.22052">
        <ele>1630.05</ele>
        <time>2014-09-15T09:23:15Z</time>
      </trkpt>
      <trkpt lat="45.22146" lon="6.22062">
        <ele>1629.09</ele>
        <time>2014-09-15T09:23:16Z</time>
      </trkpt>
      <trkpt lat="45.22146" lon="6.22072">
        <ele>1628.13</ele>
        <time>2014-09-15T09:23:17Z</time>
      </trkpt>
      <trkpt lat="45.22145" lon="6.2208">
        <ele>1627.65</ele>
        <time>2014-09-15T09:23:18Z</time>
      </trkpt>
      <trkpt lat="45.22145" lon="6.22087">
        <ele>1627.65</ele>
        <time>2014-09-15T09:23:19Z</time>
      </trkpt>
      <trkpt lat="45.22146" lon="6.22117">
        <ele>1624.77</ele>
        <time>2014-09-15T09:23:27Z</time>
      </trkpt>
      <trkpt lat="45.22147" lon="6.22122">
        <ele>1624.28</ele>
        <time>2014-09-15T09:23:48Z</time>
      </trkpt>
      <trkpt lat="45.22147" lon="6.22123">
        <ele>1623.8</ele>
        <time>2014-09-15T09:23:59Z</time>
      </trkpt>
      <trkpt lat="45.22147" lon="6.22125">
        <ele>1623.8</ele>
        <time>2014-09-15T09:24:21Z</time>
      </trkpt>
      <trkpt lat="45.22148" lon="6.22125">
        <ele>1623.32</ele>
        <time>2014-09-15T09:24:40Z</time>
      </trkpt>
      <trkpt lat="45.22157" lon="6.2214">
        <ele>1622.36</ele>
        <time>2014-09-15T09:24:54Z</time>
      </trkpt>
      <trkpt lat="45.22174" lon="6.22176">
        <ele>1619</ele>
        <time>2014-09-15T09:25:01Z</time>
      </trkpt>
      <trkpt lat="45.22177" lon="6.22181">
        <ele>1618.52</ele>
        <time>2014-09-15T09:25:02Z</time>
      </trkpt>
      <trkpt lat="45.22181" lon="6.22185">
        <ele>1617.56</ele>
        <time>2014-09-15T09:25:03Z</time>
      </trkpt>
      <trkpt lat="45.22184" lon="6.22191">
        <ele>1617.07</ele>
        <time>2014-09-15T09:25:04Z</time>
      </trkpt>
      <trkpt lat="45.22188" lon="6.22197">
        <ele>1616.59</ele>
        <time>2014-09-15T09:25:05Z</time>
      </trkpt>
      <trkpt lat="45.22196" lon="6.22213">
        <ele>1614.67</ele>
        <time>2014-09-15T09:25:07Z</time>
      </trkpt>
      <trkpt lat="45.222" lon="6.22222">
        <ele>1613.71</ele>
        <time>2014-09-15T09:25:08Z</time>
      </trkpt>
      <trkpt lat="45.22202" lon="6.22232">
        <ele>1613.23</ele>
        <time>2014-09-15T09:25:09Z</time>
      </trkpt>
      <trkpt lat="45.22209" lon="6.22284">
        <ele>1610.35</ele>
        <time>2014-09-15T09:25:13Z</time>
      </trkpt>
      <trkpt lat="45.2221" lon="6.22348">
        <ele>1606.98</ele>
        <time>2014-09-15T09:25:18Z</time>
      </trkpt>
      <trkpt lat="45.2221" lon="6.22368">
        <ele>1606.5</ele>
        <time>2014-09-15T09:25:20Z</time>
      </trkpt>
      <trkpt lat="45.22209" lon="6.22374">
        <ele>1606.02</ele>
        <time>2014-09-15T09:25:21Z</time>
      </trkpt>
      <trkpt lat="45.22207" lon="6.22379">
        <ele>1606.02</ele>
        <time>2014-09-15T09:25:22Z</time>
      </trkpt>
      <trkpt lat="45.22203" lon="6.22381">
        <ele>1605.06</ele>
        <time>2014-09-15T09:25:23Z</time>
      </trkpt>
      <trkpt lat="45.22199" lon="6.22379">
        <ele>1605.06</ele>
        <time>2014-09-15T09:25:24Z</time>
      </trkpt>
      <trkpt lat="45.22197" lon="6.22373">
        <ele>1605.06</ele>
        <time>2014-09-15T09:25:25Z</time>
      </trkpt>
      <trkpt lat="45.22196" lon="6.22367">
        <ele>1604.58</ele>
        <time>2014-09-15T09:25:26Z</time>
      </trkpt>
      <trkpt lat="45.22195" lon="6.22361">
        <ele>1604.58</ele>
        <time>2014-09-15T09:25:27Z</time>
      </trkpt>
      <trkpt lat="45.22195" lon="6.22355">
        <ele>1604.1</ele>
        <time>2014-09-15T09:25:28Z</time>
      </trkpt>
      <trkpt lat="45.22192" lon="6.22328">
        <ele>1603.62</ele>
        <time>2014-09-15T09:25:32Z</time>
      </trkpt>
      <trkpt lat="45.22192" lon="6.22321">
        <ele>1602.66</ele>
        <time>2014-09-15T09:25:33Z</time>
      </trkpt>
      <trkpt lat="45.2219" lon="6.22306">
        <ele>1602.17</ele>
        <time>2014-09-15T09:25:35Z</time>
      </trkpt>
      <trkpt lat="45.22188" lon="6.22298">
        <ele>1602.17</ele>
        <time>2014-09-15T09:25:36Z</time>
      </trkpt>
      <trkpt lat="45.22184" lon="6.22291">
        <ele>1601.69</ele>
        <time>2014-09-15T09:25:37Z</time>
      </trkpt>
      <trkpt lat="45.2218" lon="6.22285">
        <ele>1600.73</ele>
        <time>2014-09-15T09:25:38Z</time>
      </trkpt>
      <trkpt lat="45.22174" lon="6.22281">
        <ele>1600.25</ele>
        <time>2014-09-15T09:25:39Z</time>
      </trkpt>
      <trkpt lat="45.22166" lon="6.22278">
        <ele>1599.77</ele>
        <time>2014-09-15T09:25:40Z</time>
      </trkpt>
      <trkpt lat="45.22158" lon="6.22277">
        <ele>1598.81</ele>
        <time>2014-09-15T09:25:41Z</time>
      </trkpt>
      <trkpt lat="45.22149" lon="6.22278">
        <ele>1598.33</ele>
        <time>2014-09-15T09:25:42Z</time>
      </trkpt>
      <trkpt lat="45.22141" lon="6.2228">
        <ele>1597.37</ele>
        <time>2014-09-15T09:25:43Z</time>
      </trkpt>
      <trkpt lat="45.22133" lon="6.22282">
        <ele>1596.41</ele>
        <time>2014-09-15T09:25:44Z</time>
      </trkpt>
      <trkpt lat="45.22125" lon="6.22286">
        <ele>1595.45</ele>
        <time>2014-09-15T09:25:45Z</time>
      </trkpt>
      <trkpt lat="45.22104" lon="6.22301">
        <ele>1592.56</ele>
        <time>2014-09-15T09:25:48Z</time>
      </trkpt>
      <trkpt lat="45.22089" lon="6.2231">
        <ele>1591.12</ele>
        <time>2014-09-15T09:25:50Z</time>
      </trkpt>
      <trkpt lat="45.22074" lon="6.22323">
        <ele>1589.68</ele>
        <time>2014-09-15T09:25:52Z</time>
      </trkpt>
      <trkpt lat="45.22065" lon="6.22328">
        <ele>1588.24</ele>
        <time>2014-09-15T09:25:53Z</time>
      </trkpt>
      <trkpt lat="45.22057" lon="6.2233">
        <ele>1587.27</ele>
        <time>2014-09-15T09:25:54Z</time>
      </trkpt>
      <trkpt lat="45.22048" lon="6.2233">
        <ele>1586.79</ele>
        <time>2014-09-15T09:25:55Z</time>
      </trkpt>
      <trkpt lat="45.2204" lon="6.22326">
        <ele>1586.31</ele>
        <time>2014-09-15T09:25:56Z</time>
      </trkpt>
      <trkpt lat="45.22032" lon="6.2232">
        <ele>1585.83</ele>
        <time>2014-09-15T09:25:57Z</time>
      </trkpt>
      <trkpt lat="45.22025" lon="6.22314">
        <ele>1585.83</ele>
        <time>2014-09-15T09:25:58Z</time>
      </trkpt>
      <trkpt lat="45.22019" lon="6.22308">
        <ele>1585.83</ele>
        <time>2014-09-15T09:25:59Z</time>
      </trkpt>
      <trkpt lat="45.22015" lon="6.22303">
        <ele>1587.27</ele>
        <time>2014-09-15T09:26:00Z</time>
      </trkpt>
      <trkpt lat="45.2201" lon="6.223">
        <ele>1588.24</ele>
        <time>2014-09-15T09:26:01Z</time>
      </trkpt>
      <trkpt lat="45.22006" lon="6.223">
        <ele>1588.72</ele>
        <time>2014-09-15T09:26:02Z</time>
      </trkpt>
      <trkpt lat="45.22002" lon="6.22303">
        <ele>1588.72</ele>
        <time>2014-09-15T09:26:03Z</time>
      </trkpt>
      <trkpt lat="45.21998" lon="6.22306">
        <ele>1589.2</ele>
        <time>2014-09-15T09:26:04Z</time>
      </trkpt>
      <trkpt lat="45.21995" lon="6.22309">
        <ele>1589.2</ele>
        <time>2014-09-15T09:26:05Z</time>
      </trkpt>
      <trkpt lat="45.21976" lon="6.22326">
        <ele>1592.56</ele>
        <time>2014-09-15T09:26:15Z</time>
      </trkpt>
      <trkpt lat="45.21958" lon="6.22336">
        <ele>1594.96</ele>
        <time>2014-09-15T09:26:28Z</time>
      </trkpt>
      <trkpt lat="45.21952" lon="6.22343">
        <ele>1595.93</ele>
        <time>2014-09-15T09:26:32Z</time>
      </trkpt>
      <trkpt lat="45.2195" lon="6.22344">
        <ele>1595.93</ele>
        <time>2014-09-15T09:26:33Z</time>
      </trkpt>
      <trkpt lat="45.21948" lon="6.22345">
        <ele>1595.93</ele>
        <time>2014-09-15T09:26:34Z</time>
      </trkpt>
      <trkpt lat="45.21926" lon="6.22357">
        <ele>1598.81</ele>
        <time>2014-09-15T09:26:47Z</time>
      </trkpt>
      <trkpt lat="45.2191" lon="6.22376">
        <ele>1600.73</ele>
        <time>2014-09-15T09:27:00Z</time>
      </trkpt>
      <trkpt lat="45.21896" lon="6.22405">
        <ele>1603.14</ele>
        <time>2014-09-15T09:27:13Z</time>
      </trkpt>
      <trkpt lat="45.21878" lon="6.22428">
        <ele>1605.06</ele>
        <time>2014-09-15T09:27:25Z</time>
      </trkpt>
      <trkpt lat="45.21852" lon="6.22451">
        <ele>1607.46</ele>
        <time>2014-09-15T09:27:40Z</time>
      </trkpt>
      <trkpt lat="45.21831" lon="6.2248">
        <ele>1610.83</ele>
        <time>2014-09-15T09:27:55Z</time>
      </trkpt>
      <trkpt lat="45.21812" lon="6.22498">
        <ele>1612.75</ele>
        <time>2014-09-15T09:28:07Z</time>
      </trkpt>
      <trkpt lat="45.21782" lon="6.22508">
        <ele>1615.15</ele>
        <time>2014-09-15T09:28:21Z</time>
      </trkpt>
      <trkpt lat="45.21748" lon="6.22523">
        <ele>1617.56</ele>
        <time>2014-09-15T09:28:37Z</time>
      </trkpt>
      <trkpt lat="45.21717" lon="6.22538">
        <ele>1619.96</ele>
        <time>2014-09-15T09:28:52Z</time>
      </trkpt>
      <trkpt lat="45.21713" lon="6.2254">
        <ele>1620.44</ele>
        <time>2014-09-15T09:28:54Z</time>
      </trkpt>
      <trkpt lat="45.21711" lon="6.2254">
        <ele>1620.44</ele>
        <time>2014-09-15T09:28:55Z</time>
      </trkpt>
      <trkpt lat="45.21708" lon="6.22541">
        <ele>1620.44</ele>
        <time>2014-09-15T09:28:56Z</time>
      </trkpt>
      <trkpt lat="45.21706" lon="6.22542">
        <ele>1620.92</ele>
        <time>2014-09-15T09:28:57Z</time>
      </trkpt>
      <trkpt lat="45.21704" lon="6.22543">
        <ele>1620.92</ele>
        <time>2014-09-15T09:28:58Z</time>
      </trkpt>
      <trkpt lat="45.21672" lon="6.22566">
        <ele>1623.32</ele>
        <time>2014-09-15T09:29:14Z</time>
      </trkpt>
      <trkpt lat="45.2164" lon="6.22596">
        <ele>1625.25</ele>
        <time>2014-09-15T09:29:31Z</time>
      </trkpt>
      <trkpt lat="45.21612" lon="6.22618">
        <ele>1627.17</ele>
        <time>2014-09-15T09:29:45Z</time>
      </trkpt>
      <trkpt lat="45.21578" lon="6.22628">
        <ele>1628.61</ele>
        <time>2014-09-15T09:30:00Z</time>
      </trkpt>
      <trkpt lat="45.21549" lon="6.22624">
        <ele>1630.05</ele>
        <time>2014-09-15T09:30:13Z</time>
      </trkpt>
      <trkpt lat="45.21516" lon="6.22594">
        <ele>1630.53</ele>
        <time>2014-09-15T09:30:26Z</time>
      </trkpt>
      <trkpt lat="45.21474" lon="6.22573">
        <ele>1630.53</ele>
        <time>2014-09-15T09:30:39Z</time>
      </trkpt>
      <trkpt lat="45.21423" lon="6.2256">
        <ele>1630.53</ele>
        <time>2014-09-15T09:30:53Z</time>
      </trkpt>
      <trkpt lat="45.21406" lon="6.22561">
        <ele>1630.53</ele>
        <time>2014-09-15T09:30:57Z</time>
      </trkpt>
      <trkpt lat="45.21401" lon="6.22562">
        <ele>1630.53</ele>
        <time>2014-09-15T09:30:58Z</time>
      </trkpt>
      <trkpt lat="45.21397" lon="6.22564">
        <ele>1630.53</ele>
        <time>2014-09-15T09:30:59Z</time>
      </trkpt>
      <trkpt lat="45.21331" lon="6.22587">
        <ele>1630.05</ele>
        <time>2014-09-15T09:31:15Z</time>
      </trkpt>
      <trkpt lat="45.21307" lon="6.22589">
        <ele>1629.09</ele>
        <time>2014-09-15T09:31:20Z</time>
      </trkpt>
      <trkpt lat="45.21298" lon="6.2259">
        <ele>1629.09</ele>
        <time>2014-09-15T09:31:22Z</time>
      </trkpt>
      <trkpt lat="45.21233" lon="6.22611">
        <ele>1628.61</ele>
        <time>2014-09-15T09:31:35Z</time>
      </trkpt>
      <trkpt lat="45.21228" lon="6.22611">
        <ele>1628.61</ele>
        <time>2014-09-15T09:31:36Z</time>
      </trkpt>
      <trkpt lat="45.21223" lon="6.2261">
        <ele>1628.61</ele>
        <time>2014-09-15T09:31:37Z</time>
      </trkpt>
      <trkpt lat="45.21219" lon="6.22608">
        <ele>1630.05</ele>
        <time>2014-09-15T09:31:38Z</time>
      </trkpt>
      <trkpt lat="45.21216" lon="6.22606">
        <ele>1630.05</ele>
        <time>2014-09-15T09:31:39Z</time>
      </trkpt>
      <trkpt lat="45.21213" lon="6.22603">
        <ele>1630.05</ele>
        <time>2014-09-15T09:31:40Z</time>
      </trkpt>
      <trkpt lat="45.21194" lon="6.22589">
        <ele>1630.05</ele>
        <time>2014-09-15T09:31:45Z</time>
      </trkpt>
      <trkpt lat="45.21189" lon="6.22587">
        <ele>1630.05</ele>
        <time>2014-09-15T09:31:46Z</time>
      </trkpt>
      <trkpt lat="45.21185" lon="6.22587">
        <ele>1630.05</ele>
        <time>2014-09-15T09:31:47Z</time>
      </trkpt>
      <trkpt lat="45.21181" lon="6.22588">
        <ele>1630.05</ele>
        <time>2014-09-15T09:31:48Z</time>
      </trkpt>
      <trkpt lat="45.21177" lon="6.2259">
        <ele>1630.05</ele>
        <time>2014-09-15T09:31:49Z</time>
      </trkpt>
      <trkpt lat="45.21173" lon="6.22593">
        <ele>1630.05</ele>
        <time>2014-09-15T09:31:50Z</time>
      </trkpt>
      <trkpt lat="45.21117" lon="6.22634">
        <ele>1631.01</ele>
        <time>2014-09-15T09:32:04Z</time>
      </trkpt>
      <trkpt lat="45.21109" lon="6.2264">
        <ele>1631.01</ele>
        <time>2014-09-15T09:32:06Z</time>
      </trkpt>
      <trkpt lat="45.21094" lon="6.22653">
        <ele>1631.01</ele>
        <time>2014-09-15T09:32:10Z</time>
      </trkpt>
      <trkpt lat="45.21055" lon="6.22676">
        <ele>1633.9</ele>
        <time>2014-09-15T09:32:22Z</time>
      </trkpt>
      <trkpt lat="45.2103" lon="6.22686">
        <ele>1633.9</ele>
        <time>2014-09-15T09:32:29Z</time>
      </trkpt>
      <trkpt lat="45.21026" lon="6.22688">
        <ele>1633.9</ele>
        <time>2014-09-15T09:32:30Z</time>
      </trkpt>
      <trkpt lat="45.21022" lon="6.22691">
        <ele>1633.9</ele>
        <time>2014-09-15T09:32:31Z</time>
      </trkpt>
      <trkpt lat="45.21018" lon="6.22695">
        <ele>1633.9</ele>
        <time>2014-09-15T09:32:32Z</time>
      </trkpt>
      <trkpt lat="45.21015" lon="6.22699">
        <ele>1633.9</ele>
        <time>2014-09-15T09:32:33Z</time>
      </trkpt>
      <trkpt lat="45.20981" lon="6.22721">
        <ele>1637.26</ele>
        <time>2014-09-15T09:32:44Z</time>
      </trkpt>
      <trkpt lat="45.20944" lon="6.2272">
        <ele>1640.63</ele>
        <time>2014-09-15T09:32:59Z</time>
      </trkpt>
      <trkpt lat="45.20907" lon="6.22719">
        <ele>1642.07</ele>
        <time>2014-09-15T09:33:12Z</time>
      </trkpt>
      <trkpt lat="45.20876" lon="6.22715">
        <ele>1643.51</ele>
        <time>2014-09-15T09:33:24Z</time>
      </trkpt>
      <trkpt lat="45.20822" lon="6.22719">
        <ele>1644.95</ele>
        <time>2014-09-15T09:33:38Z</time>
      </trkpt>
      <trkpt lat="45.20773" lon="6.2272">
        <ele>1647.84</ele>
        <time>2014-09-15T09:33:52Z</time>
      </trkpt>
      <trkpt lat="45.20737" lon="6.22697">
        <ele>1648.32</ele>
        <time>2014-09-15T09:34:04Z</time>
      </trkpt>
      <trkpt lat="45.2069" lon="6.22694">
        <ele>1650.24</ele>
        <time>2014-09-15T09:34:17Z</time>
      </trkpt>
      <trkpt lat="45.20654" lon="6.22703">
        <ele>1651.68</ele>
        <time>2014-09-15T09:34:28Z</time>
      </trkpt>
      <trkpt lat="45.20597" lon="6.22716">
        <ele>1651.68</ele>
        <time>2014-09-15T09:34:42Z</time>
      </trkpt>
      <trkpt lat="45.20569" lon="6.22711">
        <ele>1651.68</ele>
        <time>2014-09-15T09:34:49Z</time>
      </trkpt>
      <trkpt lat="45.20555" lon="6.22712">
        <ele>1651.68</ele>
        <time>2014-09-15T09:34:52Z</time>
      </trkpt>
      <trkpt lat="45.2055" lon="6.22713">
        <ele>1651.68</ele>
        <time>2014-09-15T09:34:53Z</time>
      </trkpt>
      <trkpt lat="45.20535" lon="6.22719">
        <ele>1651.68</ele>
        <time>2014-09-15T09:34:56Z</time>
      </trkpt>
      <trkpt lat="45.20525" lon="6.22724">
        <ele>1651.68</ele>
        <time>2014-09-15T09:34:58Z</time>
      </trkpt>
      <trkpt lat="45.20515" lon="6.22727">
        <ele>1651.68</ele>
        <time>2014-09-15T09:35:00Z</time>
      </trkpt>
      <trkpt lat="45.2051" lon="6.22728">
        <ele>1651.68</ele>
        <time>2014-09-15T09:35:01Z</time>
      </trkpt>
      <trkpt lat="45.20505" lon="6.22727">
        <ele>1651.68</ele>
        <time>2014-09-15T09:35:02Z</time>
      </trkpt>
      <trkpt lat="45.205" lon="6.22726">
        <ele>1651.68</ele>
        <time>2014-09-15T09:35:03Z</time>
      </trkpt>
      <trkpt lat="45.20495" lon="6.22724">
        <ele>1651.68</ele>
        <time>2014-09-15T09:35:04Z</time>
      </trkpt>
      <trkpt lat="45.2049" lon="6.22722">
        <ele>1651.68</ele>
        <time>2014-09-15T09:35:05Z</time>
      </trkpt>
      <trkpt lat="45.20448" lon="6.22704">
        <ele>1648.8</ele>
        <time>2014-09-15T09:35:12Z</time>
      </trkpt>
      <trkpt lat="45.20442" lon="6.227">
        <ele>1648.32</ele>
        <time>2014-09-15T09:35:13Z</time>
      </trkpt>
      <trkpt lat="45.20421" lon="6.22687">
        <ele>1646.88</ele>
        <time>2014-09-15T09:35:16Z</time>
      </trkpt>
      <trkpt lat="45.20414" lon="6.22687">
        <ele>1646.88</ele>
        <time>2014-09-15T09:35:17Z</time>
      </trkpt>
      <trkpt lat="45.20407" lon="6.22688">
        <ele>1645.91</ele>
        <time>2014-09-15T09:35:18Z</time>
      </trkpt>
      <trkpt lat="45.204" lon="6.22691">
        <ele>1645.91</ele>
        <time>2014-09-15T09:35:19Z</time>
      </trkpt>
      <trkpt lat="45.20392" lon="6.22695">
        <ele>1644.95</ele>
        <time>2014-09-15T09:35:20Z</time>
      </trkpt>
      <trkpt lat="45.20384" lon="6.22697">
        <ele>1644.95</ele>
        <time>2014-09-15T09:35:21Z</time>
      </trkpt>
      <trkpt lat="45.20376" lon="6.22699">
        <ele>1643.51</ele>
        <time>2014-09-15T09:35:22Z</time>
      </trkpt>
      <trkpt lat="45.20368" lon="6.22699">
        <ele>1643.51</ele>
        <time>2014-09-15T09:35:23Z</time>
      </trkpt>
      <trkpt lat="45.2036" lon="6.22699">
        <ele>1643.51</ele>
        <time>2014-09-15T09:35:24Z</time>
      </trkpt>
      <trkpt lat="45.20352" lon="6.22701">
        <ele>1642.55</ele>
        <time>2014-09-15T09:35:25Z</time>
      </trkpt>
      <trkpt lat="45.20346" lon="6.22706">
        <ele>1642.07</ele>
        <time>2014-09-15T09:35:26Z</time>
      </trkpt>
      <trkpt lat="45.2034" lon="6.22712">
        <ele>1642.07</ele>
        <time>2014-09-15T09:35:27Z</time>
      </trkpt>
      <trkpt lat="45.20336" lon="6.2272">
        <ele>1642.07</ele>
        <time>2014-09-15T09:35:28Z</time>
      </trkpt>
      <trkpt lat="45.20333" lon="6.22729">
        <ele>1641.59</ele>
        <time>2014-09-15T09:35:29Z</time>
      </trkpt>
      <trkpt lat="45.20329" lon="6.22738">
        <ele>1641.59</ele>
        <time>2014-09-15T09:35:30Z</time>
      </trkpt>
      <trkpt lat="45.20324" lon="6.22745">
        <ele>1641.59</ele>
        <time>2014-09-15T09:35:31Z</time>
      </trkpt>
      <trkpt lat="45.20318" lon="6.2275">
        <ele>1641.11</ele>
        <time>2014-09-15T09:35:32Z</time>
      </trkpt>
      <trkpt lat="45.20312" lon="6.22754">
        <ele>1641.11</ele>
        <time>2014-09-15T09:35:33Z</time>
      </trkpt>
      <trkpt lat="45.20305" lon="6.22756">
        <ele>1641.11</ele>
        <time>2014-09-15T09:35:34Z</time>
      </trkpt>
      <trkpt lat="45.20297" lon="6.22757">
        <ele>1641.11</ele>
        <time>2014-09-15T09:35:35Z</time>
      </trkpt>
      <trkpt lat="45.20225" lon="6.22752">
        <ele>1639.67</ele>
        <time>2014-09-15T09:35:45Z</time>
      </trkpt>
      <trkpt lat="45.20218" lon="6.22749">
        <ele>1639.19</ele>
        <time>2014-09-15T09:35:46Z</time>
      </trkpt>
      <trkpt lat="45.20211" lon="6.22748">
        <ele>1638.22</ele>
        <time>2014-09-15T09:35:47Z</time>
      </trkpt>
      <trkpt lat="45.20204" lon="6.22748">
        <ele>1638.22</ele>
        <time>2014-09-15T09:35:48Z</time>
      </trkpt>
      <trkpt lat="45.20196" lon="6.22749">
        <ele>1638.22</ele>
        <time>2014-09-15T09:35:49Z</time>
      </trkpt>
      <trkpt lat="45.20189" lon="6.22749">
        <ele>1638.22</ele>
        <time>2014-09-15T09:35:50Z</time>
      </trkpt>
      <trkpt lat="45.20182" lon="6.2275">
        <ele>1639.67</ele>
        <time>2014-09-15T09:35:51Z</time>
      </trkpt>
      <trkpt lat="45.20176" lon="6.22749">
        <ele>1640.63</ele>
        <time>2014-09-15T09:35:52Z</time>
      </trkpt>
      <trkpt lat="45.20171" lon="6.22747">
        <ele>1641.11</ele>
        <time>2014-09-15T09:35:53Z</time>
      </trkpt>
      <trkpt lat="45.20166" lon="6.22745">
        <ele>1641.11</ele>
        <time>2014-09-15T09:35:54Z</time>
      </trkpt>
      <trkpt lat="45.20162" lon="6.22742">
        <ele>1641.59</ele>
        <time>2014-09-15T09:35:55Z</time>
      </trkpt>
      <trkpt lat="45.20157" lon="6.22739">
        <ele>1641.59</ele>
        <time>2014-09-15T09:35:56Z</time>
      </trkpt>
      <trkpt lat="45.20114" lon="6.2271">
        <ele>1643.03</ele>
        <time>2014-09-15T09:36:09Z</time>
      </trkpt>
      <trkpt lat="45.20073" lon="6.22688">
        <ele>1645.91</ele>
        <time>2014-09-15T09:36:20Z</time>
      </trkpt>
      <trkpt lat="45.20047" lon="6.22674">
        <ele>1647.36</ele>
        <time>2014-09-15T09:36:31Z</time>
      </trkpt>
      <trkpt lat="45.20045" lon="6.22675">
        <ele>1647.84</ele>
        <time>2014-09-15T09:36:51Z</time>
      </trkpt>
      <trkpt lat="45.20043" lon="6.22673">
        <ele>1647.84</ele>
        <time>2014-09-15T09:37:06Z</time>
      </trkpt>
      <trkpt lat="45.20009" lon="6.2267">
        <ele>1645.91</ele>
        <time>2014-09-15T09:37:17Z</time>
      </trkpt>
      <trkpt lat="45.19971" lon="6.22661">
        <ele>1642.55</ele>
        <time>2014-09-15T09:37:23Z</time>
      </trkpt>
      <trkpt lat="45.19957" lon="6.22658">
        <ele>1642.07</ele>
        <time>2014-09-15T09:37:25Z</time>
      </trkpt>
      <trkpt lat="45.19943" lon="6.22654">
        <ele>1640.63</ele>
        <time>2014-09-15T09:37:27Z</time>
      </trkpt>
      <trkpt lat="45.19908" lon="6.22632">
        <ele>1639.19</ele>
        <time>2014-09-15T09:37:32Z</time>
      </trkpt>
      <trkpt lat="45.19901" lon="6.22627">
        <ele>1638.7</ele>
        <time>2014-09-15T09:37:33Z</time>
      </trkpt>
      <trkpt lat="45.19888" lon="6.22616">
        <ele>1638.7</ele>
        <time>2014-09-15T09:37:35Z</time>
      </trkpt>
      <trkpt lat="45.1981" lon="6.22554">
        <ele>1635.82</ele>
        <time>2014-09-15T09:37:48Z</time>
      </trkpt>
      <trkpt lat="45.19754" lon="6.22527">
        <ele>1632.46</ele>
        <time>2014-09-15T09:37:56Z</time>
      </trkpt>
      <trkpt lat="45.19683" lon="6.22504">
        <ele>1629.09</ele>
        <time>2014-09-15T09:38:05Z</time>
      </trkpt>
      <trkpt lat="45.19676" lon="6.22501">
        <ele>1628.61</ele>
        <time>2014-09-15T09:38:06Z</time>
      </trkpt>
      <trkpt lat="45.19656" lon="6.22488">
        <ele>1627.65</ele>
        <time>2014-09-15T09:38:09Z</time>
      </trkpt>
      <trkpt lat="45.19638" lon="6.22468">
        <ele>1626.69</ele>
        <time>2014-09-15T09:38:12Z</time>
      </trkpt>
      <trkpt lat="45.19632" lon="6.2246">
        <ele>1626.69</ele>
        <time>2014-09-15T09:38:13Z</time>
      </trkpt>
      <trkpt lat="45.19621" lon="6.22444">
        <ele>1625.25</ele>
        <time>2014-09-15T09:38:15Z</time>
      </trkpt>
      <trkpt lat="45.19561" lon="6.2239">
        <ele>1622.36</ele>
        <time>2014-09-15T09:38:24Z</time>
      </trkpt>
      <trkpt lat="45.19514" lon="6.22347">
        <ele>1619.96</ele>
        <time>2014-09-15T09:38:31Z</time>
      </trkpt>
      <trkpt lat="45.19509" lon="6.22339">
        <ele>1619.48</ele>
        <time>2014-09-15T09:38:32Z</time>
      </trkpt>
      <trkpt lat="45.19504" lon="6.2233">
        <ele>1619</ele>
        <time>2014-09-15T09:38:33Z</time>
      </trkpt>
      <trkpt lat="45.19499" lon="6.22321">
        <ele>1618.52</ele>
        <time>2014-09-15T09:38:34Z</time>
      </trkpt>
      <trkpt lat="45.19494" lon="6.22313">
        <ele>1618.04</ele>
        <time>2014-09-15T09:38:35Z</time>
      </trkpt>
      <trkpt lat="45.19488" lon="6.22308">
        <ele>1618.04</ele>
        <time>2014-09-15T09:38:36Z</time>
      </trkpt>
      <trkpt lat="45.19482" lon="6.22302">
        <ele>1617.56</ele>
        <time>2014-09-15T09:38:37Z</time>
      </trkpt>
      <trkpt lat="45.19476" lon="6.22296">
        <ele>1617.56</ele>
        <time>2014-09-15T09:38:38Z</time>
      </trkpt>
      <trkpt lat="45.19427" lon="6.2223">
        <ele>1613.71</ele>
        <time>2014-09-15T09:38:47Z</time>
      </trkpt>
      <trkpt lat="45.19401" lon="6.22187">
        <ele>1611.31</ele>
        <time>2014-09-15T09:38:52Z</time>
      </trkpt>
      <trkpt lat="45.19395" lon="6.2218">
        <ele>1610.83</ele>
        <time>2014-09-15T09:38:53Z</time>
      </trkpt>
      <trkpt lat="45.19388" lon="6.22175">
        <ele>1610.35</ele>
        <time>2014-09-15T09:38:54Z</time>
      </trkpt>
      <trkpt lat="45.19381" lon="6.22172">
        <ele>1610.35</ele>
        <time>2014-09-15T09:38:55Z</time>
      </trkpt>
      <trkpt lat="45.19373" lon="6.22171">
        <ele>1609.86</ele>
        <time>2014-09-15T09:38:56Z</time>
      </trkpt>
      <trkpt lat="45.19365" lon="6.22174">
        <ele>1609.86</ele>
        <time>2014-09-15T09:38:57Z</time>
      </trkpt>
      <trkpt lat="45.19359" lon="6.2218">
        <ele>1609.38</ele>
        <time>2014-09-15T09:38:58Z</time>
      </trkpt>
      <trkpt lat="45.19356" lon="6.22189">
        <ele>1609.38</ele>
        <time>2014-09-15T09:38:59Z</time>
      </trkpt>
      <trkpt lat="45.19356" lon="6.22199">
        <ele>1608.42</ele>
        <time>2014-09-15T09:39:00Z</time>
      </trkpt>
      <trkpt lat="45.19358" lon="6.22208">
        <ele>1608.42</ele>
        <time>2014-09-15T09:39:01Z</time>
      </trkpt>
      <trkpt lat="45.19361" lon="6.22216">
        <ele>1608.42</ele>
        <time>2014-09-15T09:39:02Z</time>
      </trkpt>
      <trkpt lat="45.19366" lon="6.22233">
        <ele>1607.94</ele>
        <time>2014-09-15T09:39:04Z</time>
      </trkpt>
      <trkpt lat="45.19368" lon="6.2224">
        <ele>1607.94</ele>
        <time>2014-09-15T09:39:05Z</time>
      </trkpt>
      <trkpt lat="45.19369" lon="6.22248">
        <ele>1607.94</ele>
        <time>2014-09-15T09:39:06Z</time>
      </trkpt>
      <trkpt lat="45.19369" lon="6.22254">
        <ele>1607.94</ele>
        <time>2014-09-15T09:39:07Z</time>
      </trkpt>
      <trkpt lat="45.19367" lon="6.2226">
        <ele>1607.46</ele>
        <time>2014-09-15T09:39:08Z</time>
      </trkpt>
      <trkpt lat="45.19364" lon="6.22262">
        <ele>1607.46</ele>
        <time>2014-09-15T09:39:09Z</time>
      </trkpt>
      <trkpt lat="45.19361" lon="6.22264">
        <ele>1607.46</ele>
        <time>2014-09-15T09:39:10Z</time>
      </trkpt>
      <trkpt lat="45.1935" lon="6.22268">
        <ele>1607.46</ele>
        <time>2014-09-15T09:39:22Z</time>
      </trkpt>
      <trkpt lat="45.19349" lon="6.22268">
        <ele>1606.98</ele>
        <time>2014-09-15T09:39:44Z</time>
      </trkpt>
      <trkpt lat="45.1935" lon="6.22267">
        <ele>1606.98</ele>
        <time>2014-09-15T09:40:15Z</time>
      </trkpt>
      <trkpt lat="45.19349" lon="6.22269">
        <ele>1606.98</ele>
        <time>2014-09-15T09:40:29Z</time>
      </trkpt>
      <trkpt lat="45.19349" lon="6.22271">
        <ele>1606.98</ele>
        <time>2014-09-15T09:40:32Z</time>
      </trkpt>
      <trkpt lat="45.19348" lon="6.22273">
        <ele>1606.98</ele>
        <time>2014-09-15T09:40:33Z</time>
      </trkpt>
      <trkpt lat="45.19347" lon="6.22276">
        <ele>1606.98</ele>
        <time>2014-09-15T09:40:34Z</time>
      </trkpt>
      <trkpt lat="45.1934" lon="6.22321">
        <ele>1606.98</ele>
        <time>2014-09-15T09:40:46Z</time>
      </trkpt>
      <trkpt lat="45.19323" lon="6.22355">
        <ele>1607.94</ele>
        <time>2014-09-15T09:40:58Z</time>
      </trkpt>
      <trkpt lat="45.1932" lon="6.22355">
        <ele>1607.94</ele>
        <time>2014-09-15T09:40:59Z</time>
      </trkpt>
      <trkpt lat="45.19317" lon="6.22356">
        <ele>1607.94</ele>
        <time>2014-09-15T09:41:00Z</time>
      </trkpt>
      <trkpt lat="45.19313" lon="6.22356">
        <ele>1607.94</ele>
        <time>2014-09-15T09:41:01Z</time>
      </trkpt>
      <trkpt lat="45.1931" lon="6.22356">
        <ele>1607.94</ele>
        <time>2014-09-15T09:41:02Z</time>
      </trkpt>
      <trkpt lat="45.19274" lon="6.22362">
        <ele>1608.42</ele>
        <time>2014-09-15T09:41:14Z</time>
      </trkpt>
      <trkpt lat="45.19235" lon="6.22358">
        <ele>1611.31</ele>
        <time>2014-09-15T09:41:28Z</time>
      </trkpt>
      <trkpt lat="45.19197" lon="6.22343">
        <ele>1612.75</ele>
        <time>2014-09-15T09:41:42Z</time>
      </trkpt>
      <trkpt lat="45.19148" lon="6.22329">
        <ele>1615.15</ele>
        <time>2014-09-15T09:41:59Z</time>
      </trkpt>
      <trkpt lat="45.19115" lon="6.22329">
        <ele>1618.04</ele>
        <time>2014-09-15T09:42:12Z</time>
      </trkpt>
      <trkpt lat="45.19079" lon="6.22349">
        <ele>1619.96</ele>
        <time>2014-09-15T09:42:28Z</time>
      </trkpt>
      <trkpt lat="45.19049" lon="6.22359">
        <ele>1621.4</ele>
        <time>2014-09-15T09:42:41Z</time>
      </trkpt>
      <trkpt lat="45.19017" lon="6.22351">
        <ele>1623.32</ele>
        <time>2014-09-15T09:42:54Z</time>
      </trkpt>
      <trkpt lat="45.18991" lon="6.22377">
        <ele>1625.25</ele>
        <time>2014-09-15T09:43:07Z</time>
      </trkpt>
      <trkpt lat="45.18966" lon="6.22408">
        <ele>1628.13</ele>
        <time>2014-09-15T09:43:22Z</time>
      </trkpt>
      <trkpt lat="45.18931" lon="6.22414">
        <ele>1631.98</ele>
        <time>2014-09-15T09:43:40Z</time>
      </trkpt>
      <trkpt lat="45.18897" lon="6.22415">
        <ele>1634.38</ele>
        <time>2014-09-15T09:43:57Z</time>
      </trkpt>
      <trkpt lat="45.18893" lon="6.22415">
        <ele>1634.38</ele>
        <time>2014-09-15T09:43:59Z</time>
      </trkpt>
      <trkpt lat="45.18891" lon="6.22415">
        <ele>1634.38</ele>
        <time>2014-09-15T09:44:00Z</time>
      </trkpt>
      <trkpt lat="45.18861" lon="6.22412">
        <ele>1635.82</ele>
        <time>2014-09-15T09:44:14Z</time>
      </trkpt>
      <trkpt lat="45.18838" lon="6.224">
        <ele>1636.78</ele>
        <time>2014-09-15T09:44:28Z</time>
      </trkpt>
      <trkpt lat="45.1883" lon="6.22397">
        <ele>1636.78</ele>
        <time>2014-09-15T09:44:35Z</time>
      </trkpt>
      <trkpt lat="45.18824" lon="6.22397">
        <ele>1636.78</ele>
        <time>2014-09-15T09:44:44Z</time>
      </trkpt>
      <trkpt lat="45.18819" lon="6.22396">
        <ele>1636.78</ele>
        <time>2014-09-15T09:44:48Z</time>
      </trkpt>
      <trkpt lat="45.18775" lon="6.22383">
        <ele>1637.26</ele>
        <time>2014-09-15T09:45:06Z</time>
      </trkpt>
      <trkpt lat="45.18737" lon="6.22358">
        <ele>1638.7</ele>
        <time>2014-09-15T09:45:23Z</time>
      </trkpt>
      <trkpt lat="45.18704" lon="6.22344">
        <ele>1640.15</ele>
        <time>2014-09-15T09:45:39Z</time>
      </trkpt>
      <trkpt lat="45.18676" lon="6.2232">
        <ele>1642.55</ele>
        <time>2014-09-15T09:45:54Z</time>
      </trkpt>
      <trkpt lat="45.18648" lon="6.22305">
        <ele>1644.47</ele>
        <time>2014-09-15T09:46:11Z</time>
      </trkpt>
      <trkpt lat="45.18629" lon="6.22288">
        <ele>1645.91</ele>
        <time>2014-09-15T09:46:24Z</time>
      </trkpt>
      <trkpt lat="45.18618" lon="6.22276">
        <ele>1647.36</ele>
        <time>2014-09-15T09:46:35Z</time>
      </trkpt>
      <trkpt lat="45.18612" lon="6.22274">
        <ele>1647.84</ele>
        <time>2014-09-15T09:46:50Z</time>
      </trkpt>
      <trkpt lat="45.18608" lon="6.22264">
        <ele>1648.32</ele>
        <time>2014-09-15T09:47:02Z</time>
      </trkpt>
      <trkpt lat="45.18606" lon="6.22261">
        <ele>1648.32</ele>
        <time>2014-09-15T09:47:06Z</time>
      </trkpt>
      <trkpt lat="45.18604" lon="6.22254">
        <ele>1648.8</ele>
        <time>2014-09-15T09:47:16Z</time>
      </trkpt>
      <trkpt lat="45.18604" lon="6.22252">
        <ele>1648.8</ele>
        <time>2014-09-15T09:47:28Z</time>
      </trkpt>
      <trkpt lat="45.18601" lon="6.22251">
        <ele>1648.8</ele>
        <time>2014-09-15T09:47:34Z</time>
      </trkpt>
      <trkpt lat="45.186" lon="6.22251">
        <ele>1648.8</ele>
        <time>2014-09-15T09:47:35Z</time>
      </trkpt>
      <trkpt lat="45.18598" lon="6.2225">
        <ele>1649.28</ele>
        <time>2014-09-15T09:47:36Z</time>
      </trkpt>
      <trkpt lat="45.18597" lon="6.22249">
        <ele>1649.28</ele>
        <time>2014-09-15T09:47:37Z</time>
      </trkpt>
      <trkpt lat="45.18595" lon="6.22247">
        <ele>1649.28</ele>
        <time>2014-09-15T09:47:38Z</time>
      </trkpt>
      <trkpt lat="45.18578" lon="6.2223">
        <ele>1652.16</ele>
        <time>2014-09-15T09:47:50Z</time>
      </trkpt>
      <trkpt lat="45.18552" lon="6.2222">
        <ele>1653.6</ele>
        <time>2014-09-15T09:48:03Z</time>
      </trkpt>
      <trkpt lat="45.18529" lon="6.22205">
        <ele>1656.01</ele>
        <time>2014-09-15T09:48:19Z</time>
      </trkpt>
      <trkpt lat="45.18516" lon="6.22195">
        <ele>1658.41</ele>
        <time>2014-09-15T09:48:34Z</time>
      </trkpt>
      <trkpt lat="45.18508" lon="6.22193">
        <ele>1659.37</ele>
        <time>2014-09-15T09:48:42Z</time>
      </trkpt>
      <trkpt lat="45.18507" lon="6.22192">
        <ele>1659.37</ele>
        <time>2014-09-15T09:48:43Z</time>
      </trkpt>
      <trkpt lat="45.18506" lon="6.22191">
        <ele>1659.85</ele>
        <time>2014-09-15T09:48:44Z</time>
      </trkpt>
      <trkpt lat="45.18491" lon="6.22186">
        <ele>1663.22</ele>
        <time>2014-09-15T09:48:58Z</time>
      </trkpt>
      <trkpt lat="45.18491" lon="6.22185">
        <ele>1663.7</ele>
        <time>2014-09-15T09:49:15Z</time>
      </trkpt>
      <trkpt lat="45.18484" lon="6.22185">
        <ele>1665.14</ele>
        <time>2014-09-15T09:49:31Z</time>
      </trkpt>
      <trkpt lat="45.18472" lon="6.22189">
        <ele>1668.51</ele>
        <time>2014-09-15T09:49:49Z</time>
      </trkpt>
      <trkpt lat="45.18458" lon="6.22198">
        <ele>1671.87</ele>
        <time>2014-09-15T09:50:08Z</time>
      </trkpt>
      <trkpt lat="45.18448" lon="6.22199">
        <ele>1674.27</ele>
        <time>2014-09-15T09:50:23Z</time>
      </trkpt>
      <trkpt lat="45.1844" lon="6.22199">
        <ele>1676.2</ele>
        <time>2014-09-15T09:50:37Z</time>
      </trkpt>
      <trkpt lat="45.18436" lon="6.22201">
        <ele>1677.64</ele>
        <time>2014-09-15T09:50:50Z</time>
      </trkpt>
      <trkpt lat="45.18429" lon="6.22205">
        <ele>1680.52</ele>
        <time>2014-09-15T09:51:03Z</time>
      </trkpt>
      <trkpt lat="45.18422" lon="6.22208">
        <ele>1683.89</ele>
        <time>2014-09-15T09:51:21Z</time>
      </trkpt>
      <trkpt lat="45.18415" lon="6.22213">
        <ele>1686.29</ele>
        <time>2014-09-15T09:51:35Z</time>
      </trkpt>
      <trkpt lat="45.18409" lon="6.22216">
        <ele>1688.21</ele>
        <time>2014-09-15T09:51:48Z</time>
      </trkpt>
      <trkpt lat="45.18401" lon="6.22215">
        <ele>1690.14</ele>
        <time>2014-09-15T09:52:00Z</time>
      </trkpt>
      <trkpt lat="45.18391" lon="6.22214">
        <ele>1693.5</ele>
        <time>2014-09-15T09:52:15Z</time>
      </trkpt>
      <trkpt lat="45.18382" lon="6.22217">
        <ele>1695.9</ele>
        <time>2014-09-15T09:52:30Z</time>
      </trkpt>
      <trkpt lat="45.18371" lon="6.22219">
        <ele>1698.79</ele>
        <time>2014-09-15T09:52:47Z</time>
      </trkpt>
      <trkpt lat="45.18363" lon="6.22224">
        <ele>1702.15</ele>
        <time>2014-09-15T09:53:00Z</time>
      </trkpt>
      <trkpt lat="45.18361" lon="6.22227">
        <ele>1703.11</ele>
        <time>2014-09-15T09:53:05Z</time>
      </trkpt>
      <trkpt lat="45.1836" lon="6.22239">
        <ele>1705.52</ele>
        <time>2014-09-15T09:53:19Z</time>
      </trkpt>
      <trkpt lat="45.18358" lon="6.2225">
        <ele>1707.92</ele>
        <time>2014-09-15T09:53:34Z</time>
      </trkpt>
      <trkpt lat="45.18349" lon="6.2225">
        <ele>1710.32</ele>
        <time>2014-09-15T09:53:51Z</time>
      </trkpt>
      <trkpt lat="45.18342" lon="6.22254">
        <ele>1712.73</ele>
        <time>2014-09-15T09:54:04Z</time>
      </trkpt>
      <trkpt lat="45.18336" lon="6.2226">
        <ele>1715.61</ele>
        <time>2014-09-15T09:54:18Z</time>
      </trkpt>
      <trkpt lat="45.18329" lon="6.22264">
        <ele>1718.49</ele>
        <time>2014-09-15T09:54:31Z</time>
      </trkpt>
      <trkpt lat="45.18319" lon="6.22273">
        <ele>1721.38</ele>
        <time>2014-09-15T09:54:48Z</time>
      </trkpt>
      <trkpt lat="45.1831" lon="6.22279">
        <ele>1724.26</ele>
        <time>2014-09-15T09:55:04Z</time>
      </trkpt>
      <trkpt lat="45.18303" lon="6.2228">
        <ele>1726.18</ele>
        <time>2014-09-15T09:55:13Z</time>
      </trkpt>
      <trkpt lat="45.18289" lon="6.22282">
        <ele>1729.55</ele>
        <time>2014-09-15T09:55:29Z</time>
      </trkpt>
      <trkpt lat="45.18281" lon="6.22281">
        <ele>1731.47</ele>
        <time>2014-09-15T09:55:46Z</time>
      </trkpt>
      <trkpt lat="45.18276" lon="6.22276">
        <ele>1731.47</ele>
        <time>2014-09-15T09:56:09Z</time>
      </trkpt>
      <trkpt lat="45.18278" lon="6.22276">
        <ele>1731.47</ele>
        <time>2014-09-15T09:56:31Z</time>
      </trkpt>
      <trkpt lat="45.18279" lon="6.2228">
        <ele>1731.47</ele>
        <time>2014-09-15T09:57:07Z</time>
      </trkpt>
      <trkpt lat="45.18278" lon="6.2228">
        <ele>1731.47</ele>
        <time>2014-09-15T09:57:31Z</time>
      </trkpt>
      <trkpt lat="45.18264" lon="6.22285">
        <ele>1732.43</ele>
        <time>2014-09-15T09:57:42Z</time>
      </trkpt>
      <trkpt lat="45.18258" lon="6.22288">
        <ele>1733.39</ele>
        <time>2014-09-15T09:57:47Z</time>
      </trkpt>
      <trkpt lat="45.18257" lon="6.22289">
        <ele>1733.39</ele>
        <time>2014-09-15T09:57:48Z</time>
      </trkpt>
      <trkpt lat="45.18256" lon="6.22289">
        <ele>1733.88</ele>
        <time>2014-09-15T09:57:49Z</time>
      </trkpt>
      <trkpt lat="45.18255" lon="6.22289">
        <ele>1733.88</ele>
        <time>2014-09-15T09:57:50Z</time>
      </trkpt>
      <trkpt lat="45.18254" lon="6.22289">
        <ele>1733.88</ele>
        <time>2014-09-15T09:57:51Z</time>
      </trkpt>
      <trkpt lat="45.18253" lon="6.22289">
        <ele>1733.88</ele>
        <time>2014-09-15T09:57:52Z</time>
      </trkpt>
      <trkpt lat="45.18252" lon="6.22289">
        <ele>1733.88</ele>
        <time>2014-09-15T09:57:53Z</time>
      </trkpt>
      <trkpt lat="45.18235" lon="6.22278">
        <ele>1737.72</ele>
        <time>2014-09-15T09:58:09Z</time>
      </trkpt>
      <trkpt lat="45.18224" lon="6.22273">
        <ele>1740.6</ele>
        <time>2014-09-15T09:58:22Z</time>
      </trkpt>
      <trkpt lat="45.1822" lon="6.22276">
        <ele>1741.57</ele>
        <time>2014-09-15T09:58:36Z</time>
      </trkpt>
      <trkpt lat="45.18221" lon="6.22274">
        <ele>1741.57</ele>
        <time>2014-09-15T09:59:09Z</time>
      </trkpt>
      <trkpt lat="45.1822" lon="6.22272">
        <ele>1741.57</ele>
        <time>2014-09-15T09:59:39Z</time>
      </trkpt>
      <trkpt lat="45.1822" lon="6.2227">
        <ele>1741.57</ele>
        <time>2014-09-15T10:00:11Z</time>
      </trkpt>
      <trkpt lat="45.18218" lon="6.22271">
        <ele>1741.57</ele>
        <time>2014-09-15T10:00:35Z</time>
      </trkpt>
      <trkpt lat="45.18216" lon="6.22275">
        <ele>1741.57</ele>
        <time>2014-09-15T10:01:06Z</time>
      </trkpt>
      <trkpt lat="45.18217" lon="6.22277">
        <ele>1741.08</ele>
        <time>2014-09-15T10:01:30Z</time>
      </trkpt>
      <trkpt lat="45.18216" lon="6.22277">
        <ele>1741.08</ele>
        <time>2014-09-15T10:01:56Z</time>
      </trkpt>
      <trkpt lat="45.18215" lon="6.22277">
        <ele>1741.08</ele>
        <time>2014-09-15T10:02:29Z</time>
      </trkpt>
      <trkpt lat="45.18217" lon="6.22274">
        <ele>1741.08</ele>
        <time>2014-09-15T10:02:55Z</time>
      </trkpt>
      <trkpt lat="45.18218" lon="6.22276">
        <ele>1741.08</ele>
        <time>2014-09-15T10:03:18Z</time>
      </trkpt>
      <trkpt lat="45.18217" lon="6.22275">
        <ele>1741.08</ele>
        <time>2014-09-15T10:03:44Z</time>
      </trkpt>
      <trkpt lat="45.18215" lon="6.22276">
        <ele>1741.57</ele>
        <time>2014-09-15T10:03:59Z</time>
      </trkpt>
      <trkpt lat="45.18214" lon="6.22276">
        <ele>1741.57</ele>
        <time>2014-09-15T10:04:00Z</time>
      </trkpt>
      <trkpt lat="45.18212" lon="6.22277">
        <ele>1741.57</ele>
        <time>2014-09-15T10:04:01Z</time>
      </trkpt>
      <trkpt lat="45.1821" lon="6.22279">
        <ele>1741.57</ele>
        <time>2014-09-15T10:04:02Z</time>
      </trkpt>
      <trkpt lat="45.18206" lon="6.2228">
        <ele>1741.57</ele>
        <time>2014-09-15T10:04:03Z</time>
      </trkpt>
      <trkpt lat="45.18202" lon="6.22282">
        <ele>1740.12</ele>
        <time>2014-09-15T10:04:04Z</time>
      </trkpt>
      <trkpt lat="45.18198" lon="6.22285">
        <ele>1739.64</ele>
        <time>2014-09-15T10:04:05Z</time>
      </trkpt>
      <trkpt lat="45.18193" lon="6.22288">
        <ele>1739.64</ele>
        <time>2014-09-15T10:04:06Z</time>
      </trkpt>
      <trkpt lat="45.18189" lon="6.22289">
        <ele>1739.64</ele>
        <time>2014-09-15T10:04:07Z</time>
      </trkpt>
      <trkpt lat="45.18186" lon="6.2229">
        <ele>1739.64</ele>
        <time>2014-09-15T10:04:08Z</time>
      </trkpt>
      <trkpt lat="45.18176" lon="6.22294">
        <ele>1742.05</ele>
        <time>2014-09-15T10:04:16Z</time>
      </trkpt>
      <trkpt lat="45.18154" lon="6.22295">
        <ele>1743.97</ele>
        <time>2014-09-15T10:04:28Z</time>
      </trkpt>
      <trkpt lat="45.18138" lon="6.22313">
        <ele>1744.45</ele>
        <time>2014-09-15T10:04:36Z</time>
      </trkpt>
      <trkpt lat="45.18136" lon="6.22314">
        <ele>1744.45</ele>
        <time>2014-09-15T10:04:37Z</time>
      </trkpt>
      <trkpt lat="45.18122" lon="6.2232">
        <ele>1746.37</ele>
        <time>2014-09-15T10:04:44Z</time>
      </trkpt>
      <trkpt lat="45.18108" lon="6.22337">
        <ele>1748.29</ele>
        <time>2014-09-15T10:04:58Z</time>
      </trkpt>
      <trkpt lat="45.18106" lon="6.22339">
        <ele>1748.29</ele>
        <time>2014-09-15T10:04:59Z</time>
      </trkpt>
      <trkpt lat="45.18105" lon="6.22339">
        <ele>1748.29</ele>
        <time>2014-09-15T10:05:00Z</time>
      </trkpt>
      <trkpt lat="45.18104" lon="6.2234">
        <ele>1748.29</ele>
        <time>2014-09-15T10:05:01Z</time>
      </trkpt>
      <trkpt lat="45.18103" lon="6.22342">
        <ele>1748.29</ele>
        <time>2014-09-15T10:05:02Z</time>
      </trkpt>
      <trkpt lat="45.18103" lon="6.22344">
        <ele>1748.29</ele>
        <time>2014-09-15T10:05:03Z</time>
      </trkpt>
      <trkpt lat="45.18102" lon="6.22349">
        <ele>1748.78</ele>
        <time>2014-09-15T10:05:12Z</time>
      </trkpt>
      <trkpt lat="45.181" lon="6.22357">
        <ele>1749.26</ele>
        <time>2014-09-15T10:05:41Z</time>
      </trkpt>
      <trkpt lat="45.18096" lon="6.22371">
        <ele>1751.18</ele>
        <time>2014-09-15T10:05:51Z</time>
      </trkpt>
      <trkpt lat="45.18095" lon="6.22371">
        <ele>1751.18</ele>
        <time>2014-09-15T10:05:52Z</time>
      </trkpt>
      <trkpt lat="45.18088" lon="6.22372">
        <ele>1751.18</ele>
        <time>2014-09-15T10:06:03Z</time>
      </trkpt>
      <trkpt lat="45.18067" lon="6.22371">
        <ele>1750.22</ele>
        <time>2014-09-15T10:06:10Z</time>
      </trkpt>
      <trkpt lat="45.18062" lon="6.2237">
        <ele>1749.74</ele>
        <time>2014-09-15T10:06:11Z</time>
      </trkpt>
      <trkpt lat="45.18059" lon="6.22369">
        <ele>1749.74</ele>
        <time>2014-09-15T10:06:12Z</time>
      </trkpt>
      <trkpt lat="45.1805" lon="6.22368">
        <ele>1751.18</ele>
        <time>2014-09-15T10:06:16Z</time>
      </trkpt>
      <trkpt lat="45.18038" lon="6.22372">
        <ele>1752.14</ele>
        <time>2014-09-15T10:06:23Z</time>
      </trkpt>
      <trkpt lat="45.18035" lon="6.22364">
        <ele>1752.62</ele>
        <time>2014-09-15T10:06:34Z</time>
      </trkpt>
      <trkpt lat="45.18034" lon="6.22354">
        <ele>1752.62</ele>
        <time>2014-09-15T10:06:38Z</time>
      </trkpt>
      <trkpt lat="45.18033" lon="6.22351">
        <ele>1752.62</ele>
        <time>2014-09-15T10:06:39Z</time>
      </trkpt>
      <trkpt lat="45.18029" lon="6.22339">
        <ele>1752.62</ele>
        <time>2014-09-15T10:06:43Z</time>
      </trkpt>
      <trkpt lat="45.18002" lon="6.22319">
        <ele>1750.7</ele>
        <time>2014-09-15T10:06:53Z</time>
      </trkpt>
      <trkpt lat="45.17995" lon="6.22312">
        <ele>1749.26</ele>
        <time>2014-09-15T10:06:55Z</time>
      </trkpt>
      <trkpt lat="45.17992" lon="6.22308">
        <ele>1748.29</ele>
        <time>2014-09-15T10:06:56Z</time>
      </trkpt>
      <trkpt lat="45.17986" lon="6.22299">
        <ele>1746.37</ele>
        <time>2014-09-15T10:06:58Z</time>
      </trkpt>
      <trkpt lat="45.17984" lon="6.22293">
        <ele>1745.89</ele>
        <time>2014-09-15T10:06:59Z</time>
      </trkpt>
      <trkpt lat="45.17982" lon="6.22289">
        <ele>1745.41</ele>
        <time>2014-09-15T10:07:00Z</time>
      </trkpt>
      <trkpt lat="45.1798" lon="6.22286">
        <ele>1745.41</ele>
        <time>2014-09-15T10:07:01Z</time>
      </trkpt>
      <trkpt lat="45.17977" lon="6.22285">
        <ele>1744.45</ele>
        <time>2014-09-15T10:07:02Z</time>
      </trkpt>
      <trkpt lat="45.17974" lon="6.22285">
        <ele>1743.97</ele>
        <time>2014-09-15T10:07:03Z</time>
      </trkpt>
      <trkpt lat="45.1797" lon="6.22283">
        <ele>1743.49</ele>
        <time>2014-09-15T10:07:04Z</time>
      </trkpt>
      <trkpt lat="45.17967" lon="6.2228">
        <ele>1743.49</ele>
        <time>2014-09-15T10:07:05Z</time>
      </trkpt>
      <trkpt lat="45.17965" lon="6.22276">
        <ele>1742.53</ele>
        <time>2014-09-15T10:07:10Z</time>
      </trkpt>
      <trkpt lat="45.17962" lon="6.22272">
        <ele>1742.05</ele>
        <time>2014-09-15T10:07:22Z</time>
      </trkpt>
      <trkpt lat="45.17961" lon="6.22271">
        <ele>1742.05</ele>
        <time>2014-09-15T10:07:24Z</time>
      </trkpt>
      <trkpt lat="45.1796" lon="6.2227">
        <ele>1742.05</ele>
        <time>2014-09-15T10:07:25Z</time>
      </trkpt>
      <trkpt lat="45.17958" lon="6.22269">
        <ele>1742.05</ele>
        <time>2014-09-15T10:07:26Z</time>
      </trkpt>
      <trkpt lat="45.17957" lon="6.22268">
        <ele>1742.05</ele>
        <time>2014-09-15T10:07:27Z</time>
      </trkpt>
      <trkpt lat="45.17956" lon="6.22267">
        <ele>1742.05</ele>
        <time>2014-09-15T10:07:28Z</time>
      </trkpt>
      <trkpt lat="45.17949" lon="6.22254">
        <ele>1743.49</ele>
        <time>2014-09-15T10:07:38Z</time>
      </trkpt>
      <trkpt lat="45.17946" lon="6.22249">
        <ele>1744.45</ele>
        <time>2014-09-15T10:07:40Z</time>
      </trkpt>
      <trkpt lat="45.17945" lon="6.22248">
        <ele>1744.45</ele>
        <time>2014-09-15T10:07:41Z</time>
      </trkpt>
      <trkpt lat="45.17929" lon="6.22248">
        <ele>1741.08</ele>
        <time>2014-09-15T10:07:50Z</time>
      </trkpt>
      <trkpt lat="45.17928" lon="6.22247">
        <ele>1741.08</ele>
        <time>2014-09-15T10:07:52Z</time>
      </trkpt>
      <trkpt lat="45.17926" lon="6.22245">
        <ele>1741.08</ele>
        <time>2014-09-15T10:07:54Z</time>
      </trkpt>
      <trkpt lat="45.17921" lon="6.22239">
        <ele>1742.53</ele>
        <time>2014-09-15T10:08:03Z</time>
      </trkpt>
      <trkpt lat="45.1791" lon="6.22215">
        <ele>1743.01</ele>
        <time>2014-09-15T10:08:12Z</time>
      </trkpt>
      <trkpt lat="45.17909" lon="6.22211">
        <ele>1743.49</ele>
        <time>2014-09-15T10:08:14Z</time>
      </trkpt>
      <trkpt lat="45.17897" lon="6.22187">
        <ele>1746.37</ele>
        <time>2014-09-15T10:08:28Z</time>
      </trkpt>
      <trkpt lat="45.17892" lon="6.22183">
        <ele>1748.78</ele>
        <time>2014-09-15T10:08:32Z</time>
      </trkpt>
      <trkpt lat="45.17891" lon="6.22182">
        <ele>1748.78</ele>
        <time>2014-09-15T10:08:33Z</time>
      </trkpt>
      <trkpt lat="45.17885" lon="6.22182">
        <ele>1749.26</ele>
        <time>2014-09-15T10:08:38Z</time>
      </trkpt>
      <trkpt lat="45.1788" lon="6.22181">
        <ele>1749.74</ele>
        <time>2014-09-15T10:08:48Z</time>
      </trkpt>
      <trkpt lat="45.17878" lon="6.22182">
        <ele>1749.74</ele>
        <time>2014-09-15T10:08:49Z</time>
      </trkpt>
      <trkpt lat="45.17876" lon="6.22182">
        <ele>1749.74</ele>
        <time>2014-09-15T10:08:50Z</time>
      </trkpt>
      <trkpt lat="45.17867" lon="6.22194">
        <ele>1748.29</ele>
        <time>2014-09-15T10:08:55Z</time>
      </trkpt>
      <trkpt lat="45.17865" lon="6.22205">
        <ele>1746.85</ele>
        <time>2014-09-15T10:08:57Z</time>
      </trkpt>
      <trkpt lat="45.17864" lon="6.22211">
        <ele>1746.85</ele>
        <time>2014-09-15T10:08:58Z</time>
      </trkpt>
      <trkpt lat="45.17862" lon="6.22216">
        <ele>1745.89</ele>
        <time>2014-09-15T10:08:59Z</time>
      </trkpt>
      <trkpt lat="45.17859" lon="6.22223">
        <ele>1745.41</ele>
        <time>2014-09-15T10:09:00Z</time>
      </trkpt>
      <trkpt lat="45.17858" lon="6.2223">
        <ele>1744.93</ele>
        <time>2014-09-15T10:09:01Z</time>
      </trkpt>
      <trkpt lat="45.17855" lon="6.22235">
        <ele>1744.93</ele>
        <time>2014-09-15T10:09:02Z</time>
      </trkpt>
      <trkpt lat="45.17852" lon="6.22239">
        <ele>1744.45</ele>
        <time>2014-09-15T10:09:03Z</time>
      </trkpt>
      <trkpt lat="45.17848" lon="6.2224">
        <ele>1744.45</ele>
        <time>2014-09-15T10:09:04Z</time>
      </trkpt>
      <trkpt lat="45.17844" lon="6.22239">
        <ele>1744.45</ele>
        <time>2014-09-15T10:09:05Z</time>
      </trkpt>
      <trkpt lat="45.17841" lon="6.22238">
        <ele>1744.45</ele>
        <time>2014-09-15T10:09:06Z</time>
      </trkpt>
      <trkpt lat="45.17839" lon="6.22237">
        <ele>1744.45</ele>
        <time>2014-09-15T10:09:07Z</time>
      </trkpt>
      <trkpt lat="45.17838" lon="6.22239">
        <ele>1743.97</ele>
        <time>2014-09-15T10:09:10Z</time>
      </trkpt>
      <trkpt lat="45.17837" lon="6.22241">
        <ele>1743.97</ele>
        <time>2014-09-15T10:09:11Z</time>
      </trkpt>
      <trkpt lat="45.17836" lon="6.22243">
        <ele>1743.97</ele>
        <time>2014-09-15T10:09:12Z</time>
      </trkpt>
      <trkpt lat="45.17832" lon="6.22245">
        <ele>1743.97</ele>
        <time>2014-09-15T10:09:16Z</time>
      </trkpt>
      <trkpt lat="45.17827" lon="6.22242">
        <ele>1743.49</ele>
        <time>2014-09-15T10:09:25Z</time>
      </trkpt>
      <trkpt lat="45.17819" lon="6.22239">
        <ele>1745.89</ele>
        <time>2014-09-15T10:09:35Z</time>
      </trkpt>
      <trkpt lat="45.17815" lon="6.22239">
        <ele>1748.78</ele>
        <time>2014-09-15T10:09:45Z</time>
      </trkpt>
      <trkpt lat="45.17806" lon="6.22231">
        <ele>1751.66</ele>
        <time>2014-09-15T10:10:01Z</time>
      </trkpt>
      <trkpt lat="45.17795" lon="6.22216">
        <ele>1752.62</ele>
        <time>2014-09-15T10:10:12Z</time>
      </trkpt>
      <trkpt lat="45.17775" lon="6.22182">
        <ele>1751.18</ele>
        <time>2014-09-15T10:10:23Z</time>
      </trkpt>
      <trkpt lat="45.17765" lon="6.22165">
        <ele>1751.18</ele>
        <time>2014-09-15T10:10:29Z</time>
      </trkpt>
      <trkpt lat="45.17764" lon="6.22161">
        <ele>1751.18</ele>
        <time>2014-09-15T10:10:30Z</time>
      </trkpt>
      <trkpt lat="45.17762" lon="6.2215">
        <ele>1752.62</ele>
        <time>2014-09-15T10:10:33Z</time>
      </trkpt>
      <trkpt lat="45.17761" lon="6.22148">
        <ele>1752.62</ele>
        <time>2014-09-15T10:10:34Z</time>
      </trkpt>
      <trkpt lat="45.17759" lon="6.22146">
        <ele>1753.58</ele>
        <time>2014-09-15T10:10:35Z</time>
      </trkpt>
      <trkpt lat="45.17757" lon="6.22145">
        <ele>1753.58</ele>
        <time>2014-09-15T10:10:36Z</time>
      </trkpt>
      <trkpt lat="45.17756" lon="6.22145">
        <ele>1753.58</ele>
        <time>2014-09-15T10:10:37Z</time>
      </trkpt>
      <trkpt lat="45.17739" lon="6.22126">
        <ele>1753.58</ele>
        <time>2014-09-15T10:10:45Z</time>
      </trkpt>
      <trkpt lat="45.17725" lon="6.2212">
        <ele>1751.66</ele>
        <time>2014-09-15T10:10:51Z</time>
      </trkpt>
      <trkpt lat="45.17716" lon="6.22123">
        <ele>1750.22</ele>
        <time>2014-09-15T10:10:53Z</time>
      </trkpt>
      <trkpt lat="45.1771" lon="6.22125">
        <ele>1749.26</ele>
        <time>2014-09-15T10:10:54Z</time>
      </trkpt>
      <trkpt lat="45.17698" lon="6.22129">
        <ele>1747.33</ele>
        <time>2014-09-15T10:10:56Z</time>
      </trkpt>
      <trkpt lat="45.17693" lon="6.22129">
        <ele>1747.33</ele>
        <time>2014-09-15T10:10:57Z</time>
      </trkpt>
      <trkpt lat="45.17688" lon="6.2213">
        <ele>1747.33</ele>
        <time>2014-09-15T10:10:58Z</time>
      </trkpt>
      <trkpt lat="45.17683" lon="6.22131">
        <ele>1746.85</ele>
        <time>2014-09-15T10:10:59Z</time>
      </trkpt>
      <trkpt lat="45.17679" lon="6.22132">
        <ele>1745.89</ele>
        <time>2014-09-15T10:11:00Z</time>
      </trkpt>
      <trkpt lat="45.17675" lon="6.22135">
        <ele>1745.41</ele>
        <time>2014-09-15T10:11:01Z</time>
      </trkpt>
      <trkpt lat="45.17672" lon="6.22138">
        <ele>1745.89</ele>
        <time>2014-09-15T10:11:02Z</time>
      </trkpt>
      <trkpt lat="45.17669" lon="6.22141">
        <ele>1745.89</ele>
        <time>2014-09-15T10:11:03Z</time>
      </trkpt>
      <trkpt lat="45.17667" lon="6.22144">
        <ele>1745.41</ele>
        <time>2014-09-15T10:11:04Z</time>
      </trkpt>
      <trkpt lat="45.17664" lon="6.22147">
        <ele>1745.41</ele>
        <time>2014-09-15T10:11:05Z</time>
      </trkpt>
      <trkpt lat="45.17643" lon="6.22155">
        <ele>1746.85</ele>
        <time>2014-09-15T10:11:14Z</time>
      </trkpt>
      <trkpt lat="45.17629" lon="6.22148">
        <ele>1744.93</ele>
        <time>2014-09-15T10:11:20Z</time>
      </trkpt>
      <trkpt lat="45.17626" lon="6.22144">
        <ele>1743.97</ele>
        <time>2014-09-15T10:11:21Z</time>
      </trkpt>
      <trkpt lat="45.17623" lon="6.2214">
        <ele>1743.97</ele>
        <time>2014-09-15T10:11:22Z</time>
      </trkpt>
      <trkpt lat="45.17617" lon="6.22131">
        <ele>1741.57</ele>
        <time>2014-09-15T10:11:25Z</time>
      </trkpt>
      <trkpt lat="45.17616" lon="6.22131">
        <ele>1741.08</ele>
        <time>2014-09-15T10:11:26Z</time>
      </trkpt>
      <trkpt lat="45.17603" lon="6.2214">
        <ele>1739.16</ele>
        <time>2014-09-15T10:11:37Z</time>
      </trkpt>
      <trkpt lat="45.17597" lon="6.22139">
        <ele>1740.6</ele>
        <time>2014-09-15T10:11:45Z</time>
      </trkpt>
      <trkpt lat="45.17594" lon="6.22137">
        <ele>1740.6</ele>
        <time>2014-09-15T10:11:54Z</time>
      </trkpt>
      <trkpt lat="45.17593" lon="6.22135">
        <ele>1740.6</ele>
        <time>2014-09-15T10:11:55Z</time>
      </trkpt>
      <trkpt lat="45.1758" lon="6.22122">
        <ele>1742.53</ele>
        <time>2014-09-15T10:12:07Z</time>
      </trkpt>
      <trkpt lat="45.17562" lon="6.22104">
        <ele>1743.01</ele>
        <time>2014-09-15T10:12:19Z</time>
      </trkpt>
      <trkpt lat="45.17553" lon="6.22094">
        <ele>1741.57</ele>
        <time>2014-09-15T10:12:26Z</time>
      </trkpt>
      <trkpt lat="45.17551" lon="6.22092">
        <ele>1741.57</ele>
        <time>2014-09-15T10:12:28Z</time>
      </trkpt>
      <trkpt lat="45.17549" lon="6.22091">
        <ele>1741.57</ele>
        <time>2014-09-15T10:12:29Z</time>
      </trkpt>
      <trkpt lat="45.17522" lon="6.2208">
        <ele>1741.57</ele>
        <time>2014-09-15T10:12:41Z</time>
      </trkpt>
      <trkpt lat="45.1751" lon="6.22077">
        <ele>1743.01</ele>
        <time>2014-09-15T10:12:48Z</time>
      </trkpt>
      <trkpt lat="45.17509" lon="6.22079">
        <ele>1743.01</ele>
        <time>2014-09-15T10:12:49Z</time>
      </trkpt>
      <trkpt lat="45.17508" lon="6.2208">
        <ele>1741.57</ele>
        <time>2014-09-15T10:12:50Z</time>
      </trkpt>
      <trkpt lat="45.17507" lon="6.22082">
        <ele>1741.08</ele>
        <time>2014-09-15T10:12:51Z</time>
      </trkpt>
      <trkpt lat="45.17506" lon="6.22084">
        <ele>1740.6</ele>
        <time>2014-09-15T10:12:52Z</time>
      </trkpt>
      <trkpt lat="45.17504" lon="6.22084">
        <ele>1740.12</ele>
        <time>2014-09-15T10:12:53Z</time>
      </trkpt>
      <trkpt lat="45.17503" lon="6.22084">
        <ele>1740.12</ele>
        <time>2014-09-15T10:12:54Z</time>
      </trkpt>
      <trkpt lat="45.17499" lon="6.22071">
        <ele>1738.2</ele>
        <time>2014-09-15T10:13:06Z</time>
      </trkpt>
      <trkpt lat="45.17501" lon="6.22059">
        <ele>1737.24</ele>
        <time>2014-09-15T10:13:19Z</time>
      </trkpt>
      <trkpt lat="45.17501" lon="6.22053">
        <ele>1738.68</ele>
        <time>2014-09-15T10:13:27Z</time>
      </trkpt>
      <trkpt lat="45.17502" lon="6.22043">
        <ele>1741.57</ele>
        <time>2014-09-15T10:13:40Z</time>
      </trkpt>
      <trkpt lat="45.17502" lon="6.22027">
        <ele>1744.45</ele>
        <time>2014-09-15T10:13:55Z</time>
      </trkpt>
      <trkpt lat="45.175" lon="6.22025">
        <ele>1744.45</ele>
        <time>2014-09-15T10:14:00Z</time>
      </trkpt>
      <trkpt lat="45.17498" lon="6.22024">
        <ele>1744.45</ele>
        <time>2014-09-15T10:14:01Z</time>
      </trkpt>
      <trkpt lat="45.17481" lon="6.2201">
        <ele>1745.89</ele>
        <time>2014-09-15T10:14:12Z</time>
      </trkpt>
      <trkpt lat="45.17479" lon="6.22">
        <ele>1744.45</ele>
        <time>2014-09-15T10:14:26Z</time>
      </trkpt>
      <trkpt lat="45.17475" lon="6.21999">
        <ele>1745.41</ele>
        <time>2014-09-15T10:14:39Z</time>
      </trkpt>
      <trkpt lat="45.17471" lon="6.21999">
        <ele>1748.78</ele>
        <time>2014-09-15T10:14:49Z</time>
      </trkpt>
      <trkpt lat="45.1746" lon="6.21995">
        <ele>1751.18</ele>
        <time>2014-09-15T10:15:05Z</time>
      </trkpt>
      <trkpt lat="45.17448" lon="6.21994">
        <ele>1751.18</ele>
        <time>2014-09-15T10:15:14Z</time>
      </trkpt>
      <trkpt lat="45.17441" lon="6.21999">
        <ele>1752.14</ele>
        <time>2014-09-15T10:15:25Z</time>
      </trkpt>
      <trkpt lat="45.17434" lon="6.21996">
        <ele>1752.14</ele>
        <time>2014-09-15T10:15:38Z</time>
      </trkpt>
      <trkpt lat="45.17422" lon="6.21992">
        <ele>1754.06</ele>
        <time>2014-09-15T10:15:52Z</time>
      </trkpt>
      <trkpt lat="45.17414" lon="6.21992">
        <ele>1755.5</ele>
        <time>2014-09-15T10:16:04Z</time>
      </trkpt>
      <trkpt lat="45.17412" lon="6.21991">
        <ele>1755.5</ele>
        <time>2014-09-15T10:16:20Z</time>
      </trkpt>
      <trkpt lat="45.1741" lon="6.2199">
        <ele>1755.5</ele>
        <time>2014-09-15T10:16:23Z</time>
      </trkpt>
      <trkpt lat="45.17408" lon="6.21991">
        <ele>1755.5</ele>
        <time>2014-09-15T10:16:24Z</time>
      </trkpt>
      <trkpt lat="45.17406" lon="6.21991">
        <ele>1755.5</ele>
        <time>2014-09-15T10:16:25Z</time>
      </trkpt>
      <trkpt lat="45.17386" lon="6.21982">
        <ele>1757.91</ele>
        <time>2014-09-15T10:16:36Z</time>
      </trkpt>
      <trkpt lat="45.17362" lon="6.21982">
        <ele>1757.91</ele>
        <time>2014-09-15T10:16:47Z</time>
      </trkpt>
      <trkpt lat="45.17358" lon="6.2198">
        <ele>1759.35</ele>
        <time>2014-09-15T10:16:56Z</time>
      </trkpt>
      <trkpt lat="45.17355" lon="6.21978">
        <ele>1759.35</ele>
        <time>2014-09-15T10:17:14Z</time>
      </trkpt>
      <trkpt lat="45.17352" lon="6.21981">
        <ele>1759.35</ele>
        <time>2014-09-15T10:17:26Z</time>
      </trkpt>
      <trkpt lat="45.17349" lon="6.21973">
        <ele>1760.79</ele>
        <time>2014-09-15T10:17:36Z</time>
      </trkpt>
      <trkpt lat="45.17348" lon="6.21972">
        <ele>1760.79</ele>
        <time>2014-09-15T10:17:37Z</time>
      </trkpt>
      <trkpt lat="45.17346" lon="6.21971">
        <ele>1760.79</ele>
        <time>2014-09-15T10:17:38Z</time>
      </trkpt>
      <trkpt lat="45.17344" lon="6.21971">
        <ele>1760.79</ele>
        <time>2014-09-15T10:17:39Z</time>
      </trkpt>
      <trkpt lat="45.17341" lon="6.21971">
        <ele>1760.79</ele>
        <time>2014-09-15T10:17:40Z</time>
      </trkpt>
      <trkpt lat="45.17339" lon="6.2197">
        <ele>1761.75</ele>
        <time>2014-09-15T10:17:41Z</time>
      </trkpt>
      <trkpt lat="45.17337" lon="6.21969">
        <ele>1761.75</ele>
        <time>2014-09-15T10:17:42Z</time>
      </trkpt>
      <trkpt lat="45.17312" lon="6.21968">
        <ele>1763.68</ele>
        <time>2014-09-15T10:17:55Z</time>
      </trkpt>
      <trkpt lat="45.17304" lon="6.21969">
        <ele>1764.64</ele>
        <time>2014-09-15T10:18:05Z</time>
      </trkpt>
      <trkpt lat="45.17294" lon="6.21965">
        <ele>1766.56</ele>
        <time>2014-09-15T10:18:18Z</time>
      </trkpt>
      <trkpt lat="45.17293" lon="6.21964">
        <ele>1767.04</ele>
        <time>2014-09-15T10:18:19Z</time>
      </trkpt>
      <trkpt lat="45.17291" lon="6.21964">
        <ele>1767.04</ele>
        <time>2014-09-15T10:18:20Z</time>
      </trkpt>
      <trkpt lat="45.1729" lon="6.21964">
        <ele>1767.04</ele>
        <time>2014-09-15T10:18:21Z</time>
      </trkpt>
      <trkpt lat="45.17282" lon="6.21962">
        <ele>1767.52</ele>
        <time>2014-09-15T10:18:32Z</time>
      </trkpt>
      <trkpt lat="45.17273" lon="6.2196">
        <ele>1769.44</ele>
        <time>2014-09-15T10:18:42Z</time>
      </trkpt>
      <trkpt lat="45.17272" lon="6.2196">
        <ele>1769.44</ele>
        <time>2014-09-15T10:18:43Z</time>
      </trkpt>
      <trkpt lat="45.17267" lon="6.21965">
        <ele>1770.89</ele>
        <time>2014-09-15T10:18:49Z</time>
      </trkpt>
      <trkpt lat="45.17263" lon="6.21964">
        <ele>1771.37</ele>
        <time>2014-09-15T10:19:04Z</time>
      </trkpt>
      <trkpt lat="45.17262" lon="6.21964">
        <ele>1771.85</ele>
        <time>2014-09-15T10:19:29Z</time>
      </trkpt>
      <trkpt lat="45.17261" lon="6.21964">
        <ele>1771.85</ele>
        <time>2014-09-15T10:19:30Z</time>
      </trkpt>
      <trkpt lat="45.17258" lon="6.21965">
        <ele>1771.85</ele>
        <time>2014-09-15T10:19:31Z</time>
      </trkpt>
      <trkpt lat="45.17256" lon="6.21965">
        <ele>1772.33</ele>
        <time>2014-09-15T10:19:32Z</time>
      </trkpt>
      <trkpt lat="45.17253" lon="6.21964">
        <ele>1772.81</ele>
        <time>2014-09-15T10:19:33Z</time>
      </trkpt>
      <trkpt lat="45.17251" lon="6.21963">
        <ele>1773.29</ele>
        <time>2014-09-15T10:19:34Z</time>
      </trkpt>
      <trkpt lat="45.1723" lon="6.21969">
        <ele>1776.65</ele>
        <time>2014-09-15T10:19:45Z</time>
      </trkpt>
      <trkpt lat="45.17214" lon="6.21973">
        <ele>1779.54</ele>
        <time>2014-09-15T10:19:56Z</time>
      </trkpt>
      <trkpt lat="45.17205" lon="6.21978">
        <ele>1781.46</ele>
        <time>2014-09-15T10:20:02Z</time>
      </trkpt>
      <trkpt lat="45.17199" lon="6.21982">
        <ele>1782.9</ele>
        <time>2014-09-15T10:20:11Z</time>
      </trkpt>
      <trkpt lat="45.17189" lon="6.21983">
        <ele>1783.86</ele>
        <time>2014-09-15T10:20:23Z</time>
      </trkpt>
      <trkpt lat="45.17171" lon="6.21993">
        <ele>1786.27</ele>
        <time>2014-09-15T10:20:37Z</time>
      </trkpt>
      <trkpt lat="45.17155" lon="6.21996">
        <ele>1786.75</ele>
        <time>2014-09-15T10:20:49Z</time>
      </trkpt>
      <trkpt lat="45.17144" lon="6.21996">
        <ele>1787.23</ele>
        <time>2014-09-15T10:20:55Z</time>
      </trkpt>
      <trkpt lat="45.17142" lon="6.21997">
        <ele>1787.23</ele>
        <time>2014-09-15T10:20:56Z</time>
      </trkpt>
      <trkpt lat="45.1714" lon="6.21996">
        <ele>1787.23</ele>
        <time>2014-09-15T10:20:57Z</time>
      </trkpt>
      <trkpt lat="45.17116" lon="6.21994">
        <ele>1788.67</ele>
        <time>2014-09-15T10:21:10Z</time>
      </trkpt>
      <trkpt lat="45.17098" lon="6.22019">
        <ele>1789.63</ele>
        <time>2014-09-15T10:21:22Z</time>
      </trkpt>
      <trkpt lat="45.17093" lon="6.22032">
        <ele>1788.19</ele>
        <time>2014-09-15T10:21:26Z</time>
      </trkpt>
      <trkpt lat="45.1709" lon="6.22039">
        <ele>1787.71</ele>
        <time>2014-09-15T10:21:28Z</time>
      </trkpt>
      <trkpt lat="45.17088" lon="6.22041">
        <ele>1787.23</ele>
        <time>2014-09-15T10:21:36Z</time>
      </trkpt>
      <trkpt lat="45.17085" lon="6.22037">
        <ele>1787.23</ele>
        <time>2014-09-15T10:21:46Z</time>
      </trkpt>
      <trkpt lat="45.17084" lon="6.22037">
        <ele>1787.23</ele>
        <time>2014-09-15T10:21:47Z</time>
      </trkpt>
      <trkpt lat="45.17082" lon="6.22033">
        <ele>1787.23</ele>
        <time>2014-09-15T10:21:51Z</time>
      </trkpt>
      <trkpt lat="45.17076" lon="6.22015">
        <ele>1790.11</ele>
        <time>2014-09-15T10:22:06Z</time>
      </trkpt>
      <trkpt lat="45.1707" lon="6.22011">
        <ele>1793</ele>
        <time>2014-09-15T10:22:14Z</time>
      </trkpt>
      <trkpt lat="45.17057" lon="6.22007">
        <ele>1794.44</ele>
        <time>2014-09-15T10:22:27Z</time>
      </trkpt>
      <trkpt lat="45.17049" lon="6.22009">
        <ele>1796.36</ele>
        <time>2014-09-15T10:22:36Z</time>
      </trkpt>
      <trkpt lat="45.17049" lon="6.22008">
        <ele>1796.36</ele>
        <time>2014-09-15T10:22:37Z</time>
      </trkpt>
      <trkpt lat="45.17048" lon="6.22009">
        <ele>1796.84</ele>
        <time>2014-09-15T10:22:38Z</time>
      </trkpt>
      <trkpt lat="45.17044" lon="6.22011">
        <ele>1796.84</ele>
        <time>2014-09-15T10:22:51Z</time>
      </trkpt>
      <trkpt lat="45.17042" lon="6.22015">
        <ele>1796.84</ele>
        <time>2014-09-15T10:23:02Z</time>
      </trkpt>
      <trkpt lat="45.17041" lon="6.22015">
        <ele>1796.84</ele>
        <time>2014-09-15T10:23:03Z</time>
      </trkpt>
      <trkpt lat="45.17039" lon="6.22015">
        <ele>1796.84</ele>
        <time>2014-09-15T10:23:04Z</time>
      </trkpt>
      <trkpt lat="45.17034" lon="6.22016">
        <ele>1796.84</ele>
        <time>2014-09-15T10:23:07Z</time>
      </trkpt>
      <trkpt lat="45.17032" lon="6.22017">
        <ele>1797.32</ele>
        <time>2014-09-15T10:23:08Z</time>
      </trkpt>
      <trkpt lat="45.17031" lon="6.22017">
        <ele>1797.32</ele>
        <time>2014-09-15T10:23:09Z</time>
      </trkpt>
      <trkpt lat="45.1703" lon="6.22017">
        <ele>1797.8</ele>
        <time>2014-09-15T10:23:10Z</time>
      </trkpt>
      <trkpt lat="45.17029" lon="6.22017">
        <ele>1797.8</ele>
        <time>2014-09-15T10:23:11Z</time>
      </trkpt>
      <trkpt lat="45.17027" lon="6.22018">
        <ele>1797.8</ele>
        <time>2014-09-15T10:23:12Z</time>
      </trkpt>
      <trkpt lat="45.17014" lon="6.22016">
        <ele>1797.8</ele>
        <time>2014-09-15T10:23:22Z</time>
      </trkpt>
      <trkpt lat="45.17009" lon="6.22016">
        <ele>1797.8</ele>
        <time>2014-09-15T10:23:25Z</time>
      </trkpt>
      <trkpt lat="45.17008" lon="6.22017">
        <ele>1797.8</ele>
        <time>2014-09-15T10:23:26Z</time>
      </trkpt>
      <trkpt lat="45.17006" lon="6.22017">
        <ele>1797.8</ele>
        <time>2014-09-15T10:23:27Z</time>
      </trkpt>
      <trkpt lat="45.17004" lon="6.22018">
        <ele>1797.8</ele>
        <time>2014-09-15T10:23:28Z</time>
      </trkpt>
      <trkpt lat="45.17002" lon="6.22018">
        <ele>1797.8</ele>
        <time>2014-09-15T10:23:29Z</time>
      </trkpt>
      <trkpt lat="45.16999" lon="6.22018">
        <ele>1797.8</ele>
        <time>2014-09-15T10:23:30Z</time>
      </trkpt>
      <trkpt lat="45.16997" lon="6.22017">
        <ele>1798.76</ele>
        <time>2014-09-15T10:23:31Z</time>
      </trkpt>
      <trkpt lat="45.16975" lon="6.22029">
        <ele>1799.73</ele>
        <time>2014-09-15T10:23:44Z</time>
      </trkpt>
      <trkpt lat="45.1697" lon="6.22029">
        <ele>1800.21</ele>
        <time>2014-09-15T10:23:53Z</time>
      </trkpt>
      <trkpt lat="45.16958" lon="6.22022">
        <ele>1802.61</ele>
        <time>2014-09-15T10:24:06Z</time>
      </trkpt>
      <trkpt lat="45.16955" lon="6.22025">
        <ele>1802.61</ele>
        <time>2014-09-15T10:24:21Z</time>
      </trkpt>
      <trkpt lat="45.16949" lon="6.2203">
        <ele>1803.57</ele>
        <time>2014-09-15T10:24:27Z</time>
      </trkpt>
      <trkpt lat="45.16936" lon="6.22044">
        <ele>1806.94</ele>
        <time>2014-09-15T10:24:40Z</time>
      </trkpt>
      <trkpt lat="45.16919" lon="6.2206">
        <ele>1809.34</ele>
        <time>2014-09-15T10:24:54Z</time>
      </trkpt>
      <trkpt lat="45.16913" lon="6.22066">
        <ele>1809.82</ele>
        <time>2014-09-15T10:25:04Z</time>
      </trkpt>
      <trkpt lat="45.16905" lon="6.22076">
        <ele>1810.3</ele>
        <time>2014-09-15T10:25:21Z</time>
      </trkpt>
      <trkpt lat="45.16901" lon="6.2208">
        <ele>1811.74</ele>
        <time>2014-09-15T10:25:33Z</time>
      </trkpt>
      <trkpt lat="45.169" lon="6.22081">
        <ele>1811.74</ele>
        <time>2014-09-15T10:25:34Z</time>
      </trkpt>
      <trkpt lat="45.16893" lon="6.22089">
        <ele>1812.7</ele>
        <time>2014-09-15T10:25:44Z</time>
      </trkpt>
      <trkpt lat="45.1689" lon="6.22096">
        <ele>1814.15</ele>
        <time>2014-09-15T10:25:57Z</time>
      </trkpt>
      <trkpt lat="45.16889" lon="6.22094">
        <ele>1814.15</ele>
        <time>2014-09-15T10:26:22Z</time>
      </trkpt>
      <trkpt lat="45.16889" lon="6.22094">
        <ele>1814.63</ele>
        <time>2014-09-15T10:26:50Z</time>
      </trkpt>
      <trkpt lat="45.16889" lon="6.22101">
        <ele>1816.55</ele>
        <time>2014-09-15T10:27:04Z</time>
      </trkpt>
      <trkpt lat="45.16886" lon="6.22111">
        <ele>1819.91</ele>
        <time>2014-09-15T10:27:17Z</time>
      </trkpt>
      <trkpt lat="45.16887" lon="6.22122">
        <ele>1823.28</ele>
        <time>2014-09-15T10:27:31Z</time>
      </trkpt>
      <trkpt lat="45.16887" lon="6.22126">
        <ele>1824.72</ele>
        <time>2014-09-15T10:27:37Z</time>
      </trkpt>
      <trkpt lat="45.16887" lon="6.22132">
        <ele>1826.16</ele>
        <time>2014-09-15T10:27:46Z</time>
      </trkpt>
      <trkpt lat="45.1689" lon="6.22141">
        <ele>1829.53</ele>
        <time>2014-09-15T10:28:00Z</time>
      </trkpt>
      <trkpt lat="45.16888" lon="6.22148">
        <ele>1829.53</ele>
        <time>2014-09-15T10:28:08Z</time>
      </trkpt>
      <trkpt lat="45.16888" lon="6.22169">
        <ele>1832.41</ele>
        <time>2014-09-15T10:28:26Z</time>
      </trkpt>
      <trkpt lat="45.16891" lon="6.22184">
        <ele>1835.29</ele>
        <time>2014-09-15T10:28:43Z</time>
      </trkpt>
      <trkpt lat="45.16891" lon="6.22186">
        <ele>1835.77</ele>
        <time>2014-09-15T10:28:58Z</time>
      </trkpt>
      <trkpt lat="45.1689" lon="6.22187">
        <ele>1835.77</ele>
        <time>2014-09-15T10:29:16Z</time>
      </trkpt>
      <trkpt lat="45.16886" lon="6.22193">
        <ele>1835.77</ele>
        <time>2014-09-15T10:29:33Z</time>
      </trkpt>
      <trkpt lat="45.16881" lon="6.22209">
        <ele>1834.33</ele>
        <time>2014-09-15T10:29:37Z</time>
      </trkpt>
      <trkpt lat="45.16876" lon="6.22226">
        <ele>1832.89</ele>
        <time>2014-09-15T10:29:41Z</time>
      </trkpt>
      <trkpt lat="45.16872" lon="6.2223">
        <ele>1832.41</ele>
        <time>2014-09-15T10:29:42Z</time>
      </trkpt>
      <trkpt lat="45.16868" lon="6.22233">
        <ele>1831.93</ele>
        <time>2014-09-15T10:29:43Z</time>
      </trkpt>
      <trkpt lat="45.16863" lon="6.22234">
        <ele>1831.93</ele>
        <time>2014-09-15T10:29:44Z</time>
      </trkpt>
      <trkpt lat="45.16858" lon="6.22234">
        <ele>1830.97</ele>
        <time>2014-09-15T10:29:45Z</time>
      </trkpt>
      <trkpt lat="45.16854" lon="6.22232">
        <ele>1830.49</ele>
        <time>2014-09-15T10:29:46Z</time>
      </trkpt>
      <trkpt lat="45.1685" lon="6.22227">
        <ele>1830.49</ele>
        <time>2014-09-15T10:29:47Z</time>
      </trkpt>
      <trkpt lat="45.16843" lon="6.22213">
        <ele>1829.53</ele>
        <time>2014-09-15T10:29:50Z</time>
      </trkpt>
      <trkpt lat="45.16841" lon="6.22211">
        <ele>1829.53</ele>
        <time>2014-09-15T10:29:51Z</time>
      </trkpt>
      <trkpt lat="45.16838" lon="6.2221">
        <ele>1829.05</ele>
        <time>2014-09-15T10:29:52Z</time>
      </trkpt>
      <trkpt lat="45.16834" lon="6.22211">
        <ele>1828.56</ele>
        <time>2014-09-15T10:29:53Z</time>
      </trkpt>
      <trkpt lat="45.16829" lon="6.22213">
        <ele>1827.6</ele>
        <time>2014-09-15T10:29:54Z</time>
      </trkpt>
      <trkpt lat="45.16824" lon="6.22216">
        <ele>1826.16</ele>
        <time>2014-09-15T10:29:55Z</time>
      </trkpt>
      <trkpt lat="45.1681" lon="6.22224">
        <ele>1823.28</ele>
        <time>2014-09-15T10:29:58Z</time>
      </trkpt>
      <trkpt lat="45.16807" lon="6.22224">
        <ele>1822.32</ele>
        <time>2014-09-15T10:29:59Z</time>
      </trkpt>
      <trkpt lat="45.16804" lon="6.22222">
        <ele>1821.84</ele>
        <time>2014-09-15T10:30:00Z</time>
      </trkpt>
      <trkpt lat="45.16803" lon="6.2222">
        <ele>1821.84</ele>
        <time>2014-09-15T10:30:01Z</time>
      </trkpt>
      <trkpt lat="45.16802" lon="6.22218">
        <ele>1821.84</ele>
        <time>2014-09-15T10:30:02Z</time>
      </trkpt>
      <trkpt lat="45.16802" lon="6.22216">
        <ele>1821.84</ele>
        <time>2014-09-15T10:30:03Z</time>
      </trkpt>
      <trkpt lat="45.16802" lon="6.22215">
        <ele>1821.84</ele>
        <time>2014-09-15T10:30:04Z</time>
      </trkpt>
      <trkpt lat="45.16803" lon="6.22205">
        <ele>1823.28</ele>
        <time>2014-09-15T10:30:09Z</time>
      </trkpt>
      <trkpt lat="45.16801" lon="6.22184">
        <ele>1826.64</ele>
        <time>2014-09-15T10:30:21Z</time>
      </trkpt>
      <trkpt lat="45.168" lon="6.22183">
        <ele>1826.64</ele>
        <time>2014-09-15T10:30:22Z</time>
      </trkpt>
      <trkpt lat="45.16799" lon="6.22182">
        <ele>1826.64</ele>
        <time>2014-09-15T10:30:23Z</time>
      </trkpt>
      <trkpt lat="45.16798" lon="6.22182">
        <ele>1826.64</ele>
        <time>2014-09-15T10:30:24Z</time>
      </trkpt>
      <trkpt lat="45.16786" lon="6.22183">
        <ele>1828.08</ele>
        <time>2014-09-15T10:30:36Z</time>
      </trkpt>
      <trkpt lat="45.16771" lon="6.22183">
        <ele>1830.97</ele>
        <time>2014-09-15T10:30:50Z</time>
      </trkpt>
      <trkpt lat="45.16764" lon="6.2219">
        <ele>1833.37</ele>
        <time>2014-09-15T10:31:04Z</time>
      </trkpt>
      <trkpt lat="45.16757" lon="6.22193">
        <ele>1835.29</ele>
        <time>2014-09-15T10:31:19Z</time>
      </trkpt>
      <trkpt lat="45.16748" lon="6.22199">
        <ele>1838.18</ele>
        <time>2014-09-15T10:31:37Z</time>
      </trkpt>
      <trkpt lat="45.16735" lon="6.22202">
        <ele>1840.1</ele>
        <time>2014-09-15T10:31:53Z</time>
      </trkpt>
      <trkpt lat="45.16724" lon="6.22207">
        <ele>1842.5</ele>
        <time>2014-09-15T10:32:07Z</time>
      </trkpt>
      <trkpt lat="45.16717" lon="6.22209">
        <ele>1842.98</ele>
        <time>2014-09-15T10:32:21Z</time>
      </trkpt>
      <trkpt lat="45.16707" lon="6.2222">
        <ele>1844.91</ele>
        <time>2014-09-15T10:32:37Z</time>
      </trkpt>
      <trkpt lat="45.16695" lon="6.22225">
        <ele>1847.31</ele>
        <time>2014-09-15T10:32:51Z</time>
      </trkpt>
      <trkpt lat="45.16692" lon="6.22228">
        <ele>1847.79</ele>
        <time>2014-09-15T10:32:54Z</time>
      </trkpt>
      <trkpt lat="45.16681" lon="6.22232">
        <ele>1849.23</ele>
        <time>2014-09-15T10:33:10Z</time>
      </trkpt>
      <trkpt lat="45.16677" lon="6.22234">
        <ele>1849.23</ele>
        <time>2014-09-15T10:33:28Z</time>
      </trkpt>
      <trkpt lat="45.16675" lon="6.22243">
        <ele>1850.68</ele>
        <time>2014-09-15T10:33:35Z</time>
      </trkpt>
      <trkpt lat="45.16664" lon="6.22246">
        <ele>1851.16</ele>
        <time>2014-09-15T10:33:50Z</time>
      </trkpt>
      <trkpt lat="45.16661" lon="6.22244">
        <ele>1851.64</ele>
        <time>2014-09-15T10:33:56Z</time>
      </trkpt>
      <trkpt lat="45.1666" lon="6.22243">
        <ele>1852.12</ele>
        <time>2014-09-15T10:33:58Z</time>
      </trkpt>
      <trkpt lat="45.16658" lon="6.22242">
        <ele>1852.12</ele>
        <time>2014-09-15T10:33:59Z</time>
      </trkpt>
      <trkpt lat="45.16651" lon="6.22238">
        <ele>1852.12</ele>
        <time>2014-09-15T10:34:10Z</time>
      </trkpt>
      <trkpt lat="45.1664" lon="6.22238">
        <ele>1854.04</ele>
        <time>2014-09-15T10:34:24Z</time>
      </trkpt>
      <trkpt lat="45.16636" lon="6.22239">
        <ele>1854.52</ele>
        <time>2014-09-15T10:34:37Z</time>
      </trkpt>
      <trkpt lat="45.1663" lon="6.22238">
        <ele>1855</ele>
        <time>2014-09-15T10:34:49Z</time>
      </trkpt>
      <trkpt lat="45.16619" lon="6.22239">
        <ele>1855.96</ele>
        <time>2014-09-15T10:35:03Z</time>
      </trkpt>
      <trkpt lat="45.16611" lon="6.22244">
        <ele>1856.92</ele>
        <time>2014-09-15T10:35:14Z</time>
      </trkpt>
      <trkpt lat="45.16601" lon="6.22257">
        <ele>1859.33</ele>
        <time>2014-09-15T10:35:32Z</time>
      </trkpt>
      <trkpt lat="45.16592" lon="6.22268">
        <ele>1861.25</ele>
        <time>2014-09-15T10:35:46Z</time>
      </trkpt>
      <trkpt lat="45.16584" lon="6.22277">
        <ele>1863.17</ele>
        <time>2014-09-15T10:36:00Z</time>
      </trkpt>
      <trkpt lat="45.16571" lon="6.22293">
        <ele>1865.09</ele>
        <time>2014-09-15T10:36:15Z</time>
      </trkpt>
      <trkpt lat="45.16566" lon="6.22297">
        <ele>1865.58</ele>
        <time>2014-09-15T10:36:30Z</time>
      </trkpt>
      <trkpt lat="45.16557" lon="6.22311">
        <ele>1867.98</ele>
        <time>2014-09-15T10:36:45Z</time>
      </trkpt>
      <trkpt lat="45.16548" lon="6.22324">
        <ele>1870.86</ele>
        <time>2014-09-15T10:36:59Z</time>
      </trkpt>
      <trkpt lat="45.16537" lon="6.22338">
        <ele>1873.75</ele>
        <time>2014-09-15T10:37:20Z</time>
      </trkpt>
      <trkpt lat="45.16532" lon="6.22348">
        <ele>1876.15</ele>
        <time>2014-09-15T10:37:35Z</time>
      </trkpt>
      <trkpt lat="45.16528" lon="6.22355">
        <ele>1878.07</ele>
        <time>2014-09-15T10:37:49Z</time>
      </trkpt>
      <trkpt lat="45.16518" lon="6.22371">
        <ele>1880.96</ele>
        <time>2014-09-15T10:38:07Z</time>
      </trkpt>
      <trkpt lat="45.16512" lon="6.22381">
        <ele>1882.4</ele>
        <time>2014-09-15T10:38:19Z</time>
      </trkpt>
      <trkpt lat="45.16508" lon="6.22387">
        <ele>1883.84</ele>
        <time>2014-09-15T10:38:31Z</time>
      </trkpt>
      <trkpt lat="45.16504" lon="6.22401">
        <ele>1886.24</ele>
        <time>2014-09-15T10:38:47Z</time>
      </trkpt>
      <trkpt lat="45.16505" lon="6.22402">
        <ele>1886.24</ele>
        <time>2014-09-15T10:39:02Z</time>
      </trkpt>
      <trkpt lat="45.16503" lon="6.22402">
        <ele>1886.24</ele>
        <time>2014-09-15T10:39:12Z</time>
      </trkpt>
      <trkpt lat="45.16502" lon="6.22402">
        <ele>1886.24</ele>
        <time>2014-09-15T10:39:13Z</time>
      </trkpt>
      <trkpt lat="45.165" lon="6.22403">
        <ele>1886.24</ele>
        <time>2014-09-15T10:39:14Z</time>
      </trkpt>
      <trkpt lat="45.16484" lon="6.22416">
        <ele>1886.24</ele>
        <time>2014-09-15T10:39:27Z</time>
      </trkpt>
      <trkpt lat="45.16473" lon="6.22425">
        <ele>1886.72</ele>
        <time>2014-09-15T10:39:37Z</time>
      </trkpt>
      <trkpt lat="45.16467" lon="6.22434">
        <ele>1889.13</ele>
        <time>2014-09-15T10:39:48Z</time>
      </trkpt>
      <trkpt lat="45.16463" lon="6.22428">
        <ele>1889.13</ele>
        <time>2014-09-15T10:39:55Z</time>
      </trkpt>
      <trkpt lat="45.16457" lon="6.22426">
        <ele>1889.13</ele>
        <time>2014-09-15T10:40:10Z</time>
      </trkpt>
      <trkpt lat="45.16444" lon="6.22433">
        <ele>1890.57</ele>
        <time>2014-09-15T10:40:19Z</time>
      </trkpt>
      <trkpt lat="45.16417" lon="6.22425">
        <ele>1891.05</ele>
        <time>2014-09-15T10:40:35Z</time>
      </trkpt>
      <trkpt lat="45.16392" lon="6.22423">
        <ele>1891.05</ele>
        <time>2014-09-15T10:40:44Z</time>
      </trkpt>
      <trkpt lat="45.16369" lon="6.22427">
        <ele>1891.05</ele>
        <time>2014-09-15T10:40:58Z</time>
      </trkpt>
      <trkpt lat="45.16367" lon="6.22426">
        <ele>1891.05</ele>
        <time>2014-09-15T10:40:59Z</time>
      </trkpt>
      <trkpt lat="45.16366" lon="6.22426">
        <ele>1891.05</ele>
        <time>2014-09-15T10:41:00Z</time>
      </trkpt>
      <trkpt lat="45.16364" lon="6.22427">
        <ele>1891.05</ele>
        <time>2014-09-15T10:41:01Z</time>
      </trkpt>
      <trkpt lat="45.16363" lon="6.22427">
        <ele>1891.05</ele>
        <time>2014-09-15T10:41:02Z</time>
      </trkpt>
      <trkpt lat="45.16361" lon="6.22428">
        <ele>1891.53</ele>
        <time>2014-09-15T10:41:03Z</time>
      </trkpt>
      <trkpt lat="45.1636" lon="6.22428">
        <ele>1891.53</ele>
        <time>2014-09-15T10:41:04Z</time>
      </trkpt>
      <trkpt lat="45.16359" lon="6.22427">
        <ele>1891.53</ele>
        <time>2014-09-15T10:41:05Z</time>
      </trkpt>
      <trkpt lat="45.16341" lon="6.22422">
        <ele>1892.49</ele>
        <time>2014-09-15T10:41:17Z</time>
      </trkpt>
      <trkpt lat="45.16321" lon="6.22417">
        <ele>1894.42</ele>
        <time>2014-09-15T10:41:30Z</time>
      </trkpt>
      <trkpt lat="45.1632" lon="6.22417">
        <ele>1894.9</ele>
        <time>2014-09-15T10:41:31Z</time>
      </trkpt>
      <trkpt lat="45.16318" lon="6.22417">
        <ele>1894.9</ele>
        <time>2014-09-15T10:41:32Z</time>
      </trkpt>
      <trkpt lat="45.16311" lon="6.22416">
        <ele>1895.38</ele>
        <time>2014-09-15T10:41:37Z</time>
      </trkpt>
      <trkpt lat="45.16307" lon="6.22413">
        <ele>1895.86</ele>
        <time>2014-09-15T10:41:41Z</time>
      </trkpt>
      <trkpt lat="45.16305" lon="6.22411">
        <ele>1895.86</ele>
        <time>2014-09-15T10:41:42Z</time>
      </trkpt>
      <trkpt lat="45.16303" lon="6.22406">
        <ele>1895.86</ele>
        <time>2014-09-15T10:41:44Z</time>
      </trkpt>
      <trkpt lat="45.16301" lon="6.22405">
        <ele>1895.86</ele>
        <time>2014-09-15T10:41:56Z</time>
      </trkpt>
      <trkpt lat="45.16301" lon="6.22401">
        <ele>1895.86</ele>
        <time>2014-09-15T10:42:26Z</time>
      </trkpt>
      <trkpt lat="45.16301" lon="6.22406">
        <ele>1895.86</ele>
        <time>2014-09-15T10:42:49Z</time>
      </trkpt>
      <trkpt lat="45.16302" lon="6.22408">
        <ele>1895.86</ele>
        <time>2014-09-15T10:43:18Z</time>
      </trkpt>
      <trkpt lat="45.16301" lon="6.22407">
        <ele>1895.86</ele>
        <time>2014-09-15T10:43:42Z</time>
      </trkpt>
      <trkpt lat="45.16304" lon="6.22406">
        <ele>1895.86</ele>
        <time>2014-09-15T10:44:04Z</time>
      </trkpt>
      <trkpt lat="45.16304" lon="6.22407">
        <ele>1895.86</ele>
        <time>2014-09-15T10:44:31Z</time>
      </trkpt>
      <trkpt lat="45.16302" lon="6.22406">
        <ele>1895.86</ele>
        <time>2014-09-15T10:45:01Z</time>
      </trkpt>
      <trkpt lat="45.16304" lon="6.22406">
        <ele>1895.86</ele>
        <time>2014-09-15T10:45:31Z</time>
      </trkpt>
      <trkpt lat="45.16303" lon="6.22407">
        <ele>1895.86</ele>
        <time>2014-09-15T10:45:52Z</time>
      </trkpt>
      <trkpt lat="45.16303" lon="6.22406">
        <ele>1895.38</ele>
        <time>2014-09-15T10:46:16Z</time>
      </trkpt>
      <trkpt lat="45.16304" lon="6.22408">
        <ele>1895.38</ele>
        <time>2014-09-15T10:46:41Z</time>
      </trkpt>
      <trkpt lat="45.16303" lon="6.22407">
        <ele>1895.38</ele>
        <time>2014-09-15T10:47:05Z</time>
      </trkpt>
      <trkpt lat="45.163" lon="6.22405">
        <ele>1895.38</ele>
        <time>2014-09-15T10:47:11Z</time>
      </trkpt>
      <trkpt lat="45.16299" lon="6.22403">
        <ele>1895.38</ele>
        <time>2014-09-15T10:47:12Z</time>
      </trkpt>
      <trkpt lat="45.16294" lon="6.22393">
        <ele>1895.38</ele>
        <time>2014-09-15T10:47:17Z</time>
      </trkpt>
      <trkpt lat="45.16292" lon="6.22392">
        <ele>1893.93</ele>
        <time>2014-09-15T10:47:18Z</time>
      </trkpt>
      <trkpt lat="45.1629" lon="6.22392">
        <ele>1893.93</ele>
        <time>2014-09-15T10:47:19Z</time>
      </trkpt>
      <trkpt lat="45.16288" lon="6.22391">
        <ele>1893.45</ele>
        <time>2014-09-15T10:47:20Z</time>
      </trkpt>
      <trkpt lat="45.16286" lon="6.22391">
        <ele>1893.45</ele>
        <time>2014-09-15T10:47:21Z</time>
      </trkpt>
      <trkpt lat="45.16282" lon="6.2239">
        <ele>1893.45</ele>
        <time>2014-09-15T10:47:24Z</time>
      </trkpt>
      <trkpt lat="45.16267" lon="6.22389">
        <ele>1893.45</ele>
        <time>2014-09-15T10:47:32Z</time>
      </trkpt>
      <trkpt lat="45.16265" lon="6.2239">
        <ele>1892.97</ele>
        <time>2014-09-15T10:47:33Z</time>
      </trkpt>
      <trkpt lat="45.16265" lon="6.2239">
        <ele>1892.97</ele>
        <time>2014-09-15T10:47:34Z</time>
      </trkpt>
      <trkpt lat="45.16263" lon="6.22391">
        <ele>1892.01</ele>
        <time>2014-09-15T10:47:35Z</time>
      </trkpt>
      <trkpt lat="45.16262" lon="6.22393">
        <ele>1891.05</ele>
        <time>2014-09-15T10:47:36Z</time>
      </trkpt>
      <trkpt lat="45.16261" lon="6.22395">
        <ele>1890.09</ele>
        <time>2014-09-15T10:47:37Z</time>
      </trkpt>
      <trkpt lat="45.1626" lon="6.22398">
        <ele>1889.61</ele>
        <time>2014-09-15T10:47:38Z</time>
      </trkpt>
      <trkpt lat="45.1626" lon="6.22403">
        <ele>1888.65</ele>
        <time>2014-09-15T10:47:39Z</time>
      </trkpt>
      <trkpt lat="45.16256" lon="6.22415">
        <ele>1885.76</ele>
        <time>2014-09-15T10:47:43Z</time>
      </trkpt>
      <trkpt lat="45.16255" lon="6.22417">
        <ele>1885.76</ele>
        <time>2014-09-15T10:47:44Z</time>
      </trkpt>
      <trkpt lat="45.16245" lon="6.22423">
        <ele>1883.36</ele>
        <time>2014-09-15T10:47:49Z</time>
      </trkpt>
      <trkpt lat="45.16235" lon="6.22424">
        <ele>1880.48</ele>
        <time>2014-09-15T10:47:54Z</time>
      </trkpt>
      <trkpt lat="45.16233" lon="6.22426">
        <ele>1879.51</ele>
        <time>2014-09-15T10:47:55Z</time>
      </trkpt>
      <trkpt lat="45.16217" lon="6.22442">
        <ele>1877.11</ele>
        <time>2014-09-15T10:48:02Z</time>
      </trkpt>
      <trkpt lat="45.1621" lon="6.22448">
        <ele>1875.19</ele>
        <time>2014-09-15T10:48:07Z</time>
      </trkpt>
      <trkpt lat="45.16209" lon="6.22441">
        <ele>1872.79</ele>
        <time>2014-09-15T10:48:11Z</time>
      </trkpt>
      <trkpt lat="45.16204" lon="6.22419">
        <ele>1868.94</ele>
        <time>2014-09-15T10:48:17Z</time>
      </trkpt>
      <trkpt lat="45.162" lon="6.22404">
        <ele>1866.54</ele>
        <time>2014-09-15T10:48:19Z</time>
      </trkpt>
      <trkpt lat="45.16199" lon="6.22399">
        <ele>1866.54</ele>
        <time>2014-09-15T10:48:20Z</time>
      </trkpt>
      <trkpt lat="45.162" lon="6.22396">
        <ele>1866.06</ele>
        <time>2014-09-15T10:48:34Z</time>
      </trkpt>
      <trkpt lat="45.162" lon="6.22397">
        <ele>1866.06</ele>
        <time>2014-09-15T10:48:52Z</time>
      </trkpt>
      <trkpt lat="45.16201" lon="6.22399">
        <ele>1867.02</ele>
        <time>2014-09-15T10:49:18Z</time>
      </trkpt>
      <trkpt lat="45.16198" lon="6.22398">
        <ele>1867.02</ele>
        <time>2014-09-15T10:49:36Z</time>
      </trkpt>
      <trkpt lat="45.16197" lon="6.22397">
        <ele>1867.02</ele>
        <time>2014-09-15T10:49:40Z</time>
      </trkpt>
      <trkpt lat="45.16195" lon="6.22396">
        <ele>1865.58</ele>
        <time>2014-09-15T10:49:50Z</time>
      </trkpt>
      <trkpt lat="45.16192" lon="6.22395">
        <ele>1865.58</ele>
        <time>2014-09-15T10:50:01Z</time>
      </trkpt>
      <trkpt lat="45.16192" lon="6.22393">
        <ele>1867.5</ele>
        <time>2014-09-15T10:50:13Z</time>
      </trkpt>
      <trkpt lat="45.16193" lon="6.2239">
        <ele>1869.42</ele>
        <time>2014-09-15T10:50:22Z</time>
      </trkpt>
      <trkpt lat="45.16188" lon="6.22384">
        <ele>1871.34</ele>
        <time>2014-09-15T10:50:35Z</time>
      </trkpt>
      <trkpt lat="45.16187" lon="6.22378">
        <ele>1873.75</ele>
        <time>2014-09-15T10:50:48Z</time>
      </trkpt>
      <trkpt lat="45.1618" lon="6.2238">
        <ele>1875.19</ele>
        <time>2014-09-15T10:51:02Z</time>
      </trkpt>
      <trkpt lat="45.16181" lon="6.22382">
        <ele>1875.19</ele>
        <time>2014-09-15T10:51:21Z</time>
      </trkpt>
      <trkpt lat="45.16178" lon="6.22386">
        <ele>1877.11</ele>
        <time>2014-09-15T10:51:35Z</time>
      </trkpt>
      <trkpt lat="45.16172" lon="6.22395">
        <ele>1880.48</ele>
        <time>2014-09-15T10:51:49Z</time>
      </trkpt>
      <trkpt lat="45.16169" lon="6.22408">
        <ele>1883.36</ele>
        <time>2014-09-15T10:52:04Z</time>
      </trkpt>
      <trkpt lat="45.16165" lon="6.2241">
        <ele>1883.84</ele>
        <time>2014-09-15T10:52:10Z</time>
      </trkpt>
      <trkpt lat="45.16161" lon="6.22406">
        <ele>1885.28</ele>
        <time>2014-09-15T10:52:20Z</time>
      </trkpt>
      <trkpt lat="45.16155" lon="6.22413">
        <ele>1888.17</ele>
        <time>2014-09-15T10:52:32Z</time>
      </trkpt>
      <trkpt lat="45.16158" lon="6.22422">
        <ele>1890.57</ele>
        <time>2014-09-15T10:52:48Z</time>
      </trkpt>
      <trkpt lat="45.16154" lon="6.22426">
        <ele>1891.53</ele>
        <time>2014-09-15T10:53:01Z</time>
      </trkpt>
      <trkpt lat="45.16149" lon="6.22426">
        <ele>1893.45</ele>
        <time>2014-09-15T10:53:20Z</time>
      </trkpt>
      <trkpt lat="45.16147" lon="6.22437">
        <ele>1896.34</ele>
        <time>2014-09-15T10:53:36Z</time>
      </trkpt>
      <trkpt lat="45.16147" lon="6.22444">
        <ele>1898.26</ele>
        <time>2014-09-15T10:53:50Z</time>
      </trkpt>
      <trkpt lat="45.16146" lon="6.22452">
        <ele>1900.66</ele>
        <time>2014-09-15T10:54:08Z</time>
      </trkpt>
      <trkpt lat="45.16144" lon="6.22456">
        <ele>1901.63</ele>
        <time>2014-09-15T10:54:24Z</time>
      </trkpt>
      <trkpt lat="45.16143" lon="6.22456">
        <ele>1902.11</ele>
        <time>2014-09-15T10:54:49Z</time>
      </trkpt>
      <trkpt lat="45.16141" lon="6.22457">
        <ele>1903.07</ele>
        <time>2014-09-15T10:55:12Z</time>
      </trkpt>
      <trkpt lat="45.16144" lon="6.22459">
        <ele>1903.07</ele>
        <time>2014-09-15T10:55:38Z</time>
      </trkpt>
      <trkpt lat="45.16146" lon="6.22458">
        <ele>1903.55</ele>
        <time>2014-09-15T10:56:00Z</time>
      </trkpt>
      <trkpt lat="45.16144" lon="6.22458">
        <ele>1903.55</ele>
        <time>2014-09-15T10:56:31Z</time>
      </trkpt>
      <trkpt lat="45.16133" lon="6.2245">
        <ele>1905.95</ele>
        <time>2014-09-15T10:56:47Z</time>
      </trkpt>
      <trkpt lat="45.16122" lon="6.22451">
        <ele>1907.87</ele>
        <time>2014-09-15T10:57:03Z</time>
      </trkpt>
      <trkpt lat="45.16123" lon="6.22459">
        <ele>1909.8</ele>
        <time>2014-09-15T10:57:17Z</time>
      </trkpt>
      <trkpt lat="45.16122" lon="6.22468">
        <ele>1911.72</ele>
        <time>2014-09-15T10:57:30Z</time>
      </trkpt>
      <trkpt lat="45.16115" lon="6.22465">
        <ele>1914.12</ele>
        <time>2014-09-15T10:57:45Z</time>
      </trkpt>
      <trkpt lat="45.1611" lon="6.22469">
        <ele>1916.53</ele>
        <time>2014-09-15T10:57:59Z</time>
      </trkpt>
      <trkpt lat="45.16109" lon="6.22473">
        <ele>1918.45</ele>
        <time>2014-09-15T10:58:13Z</time>
      </trkpt>
      <trkpt lat="45.16103" lon="6.22476">
        <ele>1920.37</ele>
        <time>2014-09-15T10:58:28Z</time>
      </trkpt>
      <trkpt lat="45.16095" lon="6.22481">
        <ele>1924.22</ele>
        <time>2014-09-15T10:58:44Z</time>
      </trkpt>
      <trkpt lat="45.16096" lon="6.22493">
        <ele>1926.14</ele>
        <time>2014-09-15T10:58:57Z</time>
      </trkpt>
      <trkpt lat="45.16093" lon="6.22493">
        <ele>1927.1</ele>
        <time>2014-09-15T10:59:12Z</time>
      </trkpt>
      <trkpt lat="45.16086" lon="6.22488">
        <ele>1929.02</ele>
        <time>2014-09-15T10:59:26Z</time>
      </trkpt>
      <trkpt lat="45.16085" lon="6.22488">
        <ele>1929.02</ele>
        <time>2014-09-15T10:59:27Z</time>
      </trkpt>
      <trkpt lat="45.16075" lon="6.22486">
        <ele>1930.46</ele>
        <time>2014-09-15T10:59:42Z</time>
      </trkpt>
      <trkpt lat="45.16059" lon="6.22485">
        <ele>1932.39</ele>
        <time>2014-09-15T10:59:59Z</time>
      </trkpt>
      <trkpt lat="45.16059" lon="6.22485">
        <ele>1932.87</ele>
        <time>2014-09-15T11:00:00Z</time>
      </trkpt>
      <trkpt lat="45.16048" lon="6.22486">
        <ele>1935.75</ele>
        <time>2014-09-15T11:00:17Z</time>
      </trkpt>
      <trkpt lat="45.16048" lon="6.22493">
        <ele>1937.67</ele>
        <time>2014-09-15T11:00:29Z</time>
      </trkpt>
      <trkpt lat="45.16052" lon="6.22496">
        <ele>1938.64</ele>
        <time>2014-09-15T11:00:46Z</time>
      </trkpt>
      <trkpt lat="45.16058" lon="6.22508">
        <ele>1941.52</ele>
        <time>2014-09-15T11:01:01Z</time>
      </trkpt>
      <trkpt lat="45.16066" lon="6.22516">
        <ele>1943.92</ele>
        <time>2014-09-15T11:01:16Z</time>
      </trkpt>
      <trkpt lat="45.16069" lon="6.22519">
        <ele>1944.88</ele>
        <time>2014-09-15T11:01:27Z</time>
      </trkpt>
      <trkpt lat="45.16071" lon="6.22521">
        <ele>1945.36</ele>
        <time>2014-09-15T11:01:40Z</time>
      </trkpt>
      <trkpt lat="45.1607" lon="6.22532">
        <ele>1947.29</ele>
        <time>2014-09-15T11:01:52Z</time>
      </trkpt>
      <trkpt lat="45.16071" lon="6.22538">
        <ele>1949.69</ele>
        <time>2014-09-15T11:02:05Z</time>
      </trkpt>
      <trkpt lat="45.16071" lon="6.2254">
        <ele>1947.77</ele>
        <time>2014-09-15T11:02:09Z</time>
      </trkpt>
      <trkpt lat="45.1607" lon="6.2254">
        <ele>1951.13</ele>
        <time>2014-09-15T11:02:14Z</time>
      </trkpt>
      <trkpt lat="45.1607" lon="6.2254">
        <ele>1951.13</ele>
        <time>2014-09-15T11:02:15Z</time>
      </trkpt>
      <trkpt lat="45.1607" lon="6.2254">
        <ele>1946.81</ele>
        <time>2014-09-15T11:02:16Z</time>
      </trkpt>
      <trkpt lat="45.1607" lon="6.2254">
        <ele>1948.25</ele>
        <time>2014-09-15T11:02:17Z</time>
      </trkpt>
      <trkpt lat="45.1607" lon="6.2254">
        <ele>1953.54</ele>
        <time>2014-09-15T11:02:21Z</time>
      </trkpt>
      <trkpt lat="45.1607" lon="6.22541">
        <ele>1948.73</ele>
        <time>2014-09-15T11:02:22Z</time>
      </trkpt>
      <trkpt lat="45.1607" lon="6.22541">
        <ele>1952.57</ele>
        <time>2014-09-15T11:02:23Z</time>
      </trkpt>
      <trkpt lat="45.1607" lon="6.22541">
        <ele>1949.21</ele>
        <time>2014-09-15T11:02:24Z</time>
      </trkpt>
      <trkpt lat="45.16069" lon="6.22541">
        <ele>1949.21</ele>
        <time>2014-09-15T11:02:51Z</time>
      </trkpt>
      <trkpt lat="45.16077" lon="6.22545">
        <ele>1950.65</ele>
        <time>2014-09-15T11:03:10Z</time>
      </trkpt>
      <trkpt lat="45.16084" lon="6.22549">
        <ele>1953.06</ele>
        <time>2014-09-15T11:03:25Z</time>
      </trkpt>
      <trkpt lat="45.16083" lon="6.22557">
        <ele>1955.94</ele>
        <time>2014-09-15T11:03:41Z</time>
      </trkpt>
      <trkpt lat="45.16076" lon="6.22558">
        <ele>1957.38</ele>
        <time>2014-09-15T11:03:57Z</time>
      </trkpt>
      <trkpt lat="45.16067" lon="6.22558">
        <ele>1958.82</ele>
        <time>2014-09-15T11:04:13Z</time>
      </trkpt>
      <trkpt lat="45.16065" lon="6.22565">
        <ele>1961.71</ele>
        <time>2014-09-15T11:04:26Z</time>
      </trkpt>
      <trkpt lat="45.16074" lon="6.22573">
        <ele>1964.59</ele>
        <time>2014-09-15T11:04:44Z</time>
      </trkpt>
      <trkpt lat="45.16081" lon="6.22583">
        <ele>1967.96</ele>
        <time>2014-09-15T11:04:59Z</time>
      </trkpt>
      <trkpt lat="45.16088" lon="6.22594">
        <ele>1970.36</ele>
        <time>2014-09-15T11:05:16Z</time>
      </trkpt>
      <trkpt lat="45.16091" lon="6.22601">
        <ele>1971.8</ele>
        <time>2014-09-15T11:05:32Z</time>
      </trkpt>
      <trkpt lat="45.16088" lon="6.22601">
        <ele>1973.72</ele>
        <time>2014-09-15T11:05:51Z</time>
      </trkpt>
      <trkpt lat="45.16083" lon="6.22604">
        <ele>1975.17</ele>
        <time>2014-09-15T11:06:10Z</time>
      </trkpt>
      <trkpt lat="45.16082" lon="6.22612">
        <ele>1978.05</ele>
        <time>2014-09-15T11:06:24Z</time>
      </trkpt>
      <trkpt lat="45.16087" lon="6.22616">
        <ele>1980.45</ele>
        <time>2014-09-15T11:06:42Z</time>
      </trkpt>
      <trkpt lat="45.1609" lon="6.22624">
        <ele>1983.34</ele>
        <time>2014-09-15T11:06:53Z</time>
      </trkpt>
      <trkpt lat="45.16087" lon="6.22628">
        <ele>1984.78</ele>
        <time>2014-09-15T11:07:04Z</time>
      </trkpt>
      <trkpt lat="45.16081" lon="6.22629">
        <ele>1986.7</ele>
        <time>2014-09-15T11:07:15Z</time>
      </trkpt>
      <trkpt lat="45.1608" lon="6.22628">
        <ele>1986.7</ele>
        <time>2014-09-15T11:07:16Z</time>
      </trkpt>
      <trkpt lat="45.16074" lon="6.22622">
        <ele>1987.18</ele>
        <time>2014-09-15T11:07:30Z</time>
      </trkpt>
      <trkpt lat="45.16074" lon="6.22622">
        <ele>1987.66</ele>
        <time>2014-09-15T11:07:52Z</time>
      </trkpt>
      <trkpt lat="45.16073" lon="6.22621">
        <ele>1987.66</ele>
        <time>2014-09-15T11:08:12Z</time>
      </trkpt>
      <trkpt lat="45.16074" lon="6.22622">
        <ele>1987.66</ele>
        <time>2014-09-15T11:08:36Z</time>
      </trkpt>
      <trkpt lat="45.1607" lon="6.22626">
        <ele>1991.03</ele>
        <time>2014-09-15T11:08:50Z</time>
      </trkpt>
      <trkpt lat="45.1608" lon="6.22638">
        <ele>1993.43</ele>
        <time>2014-09-15T11:09:08Z</time>
      </trkpt>
      <trkpt lat="45.16083" lon="6.2265">
        <ele>1996.32</ele>
        <time>2014-09-15T11:09:25Z</time>
      </trkpt>
      <trkpt lat="45.16076" lon="6.22653">
        <ele>1999.2</ele>
        <time>2014-09-15T11:09:38Z</time>
      </trkpt>
      <trkpt lat="45.16068" lon="6.22652">
        <ele>2002.08</ele>
        <time>2014-09-15T11:09:53Z</time>
      </trkpt>
      <trkpt lat="45.1606" lon="6.22647">
        <ele>2004.01</ele>
        <time>2014-09-15T11:10:07Z</time>
      </trkpt>
      <trkpt lat="45.16056" lon="6.22647">
        <ele>2006.41</ele>
        <time>2014-09-15T11:10:21Z</time>
      </trkpt>
      <trkpt lat="45.16059" lon="6.22655">
        <ele>2008.81</ele>
        <time>2014-09-15T11:10:36Z</time>
      </trkpt>
      <trkpt lat="45.16066" lon="6.22664">
        <ele>2011.22</ele>
        <time>2014-09-15T11:10:51Z</time>
      </trkpt>
      <trkpt lat="45.16069" lon="6.22672">
        <ele>2013.62</ele>
        <time>2014-09-15T11:11:05Z</time>
      </trkpt>
      <trkpt lat="45.16079" lon="6.22684">
        <ele>2015.54</ele>
        <time>2014-09-15T11:11:22Z</time>
      </trkpt>
      <trkpt lat="45.16079" lon="6.22688">
        <ele>2016.02</ele>
        <time>2014-09-15T11:11:28Z</time>
      </trkpt>
      <trkpt lat="45.16078" lon="6.2269">
        <ele>2016.98</ele>
        <time>2014-09-15T11:11:38Z</time>
      </trkpt>
      <trkpt lat="45.16072" lon="6.22688">
        <ele>2018.43</ele>
        <time>2014-09-15T11:11:51Z</time>
      </trkpt>
      <trkpt lat="45.16062" lon="6.22684">
        <ele>2020.83</ele>
        <time>2014-09-15T11:12:09Z</time>
      </trkpt>
      <trkpt lat="45.16055" lon="6.22679">
        <ele>2022.27</ele>
        <time>2014-09-15T11:12:24Z</time>
      </trkpt>
      <trkpt lat="45.16045" lon="6.2267">
        <ele>2024.67</ele>
        <time>2014-09-15T11:12:43Z</time>
      </trkpt>
      <trkpt lat="45.1604" lon="6.22672">
        <ele>2026.6</ele>
        <time>2014-09-15T11:12:58Z</time>
      </trkpt>
      <trkpt lat="45.16045" lon="6.22677">
        <ele>2028.52</ele>
        <time>2014-09-15T11:13:11Z</time>
      </trkpt>
      <trkpt lat="45.16046" lon="6.22685">
        <ele>2029</ele>
        <time>2014-09-15T11:13:27Z</time>
      </trkpt>
      <trkpt lat="45.16051" lon="6.22695">
        <ele>2032.36</ele>
        <time>2014-09-15T11:13:45Z</time>
      </trkpt>
      <trkpt lat="45.16053" lon="6.22705">
        <ele>2035.25</ele>
        <time>2014-09-15T11:13:59Z</time>
      </trkpt>
      <trkpt lat="45.16048" lon="6.22712">
        <ele>2037.17</ele>
        <time>2014-09-15T11:14:12Z</time>
      </trkpt>
      <trkpt lat="45.16043" lon="6.22704">
        <ele>2039.57</ele>
        <time>2014-09-15T11:14:28Z</time>
      </trkpt>
      <trkpt lat="45.16034" lon="6.227">
        <ele>2041.98</ele>
        <time>2014-09-15T11:14:46Z</time>
      </trkpt>
      <trkpt lat="45.16028" lon="6.22702">
        <ele>2044.86</ele>
        <time>2014-09-15T11:15:00Z</time>
      </trkpt>
      <trkpt lat="45.16021" lon="6.22701">
        <ele>2046.78</ele>
        <time>2014-09-15T11:15:16Z</time>
      </trkpt>
      <trkpt lat="45.16018" lon="6.22701">
        <ele>2047.26</ele>
        <time>2014-09-15T11:15:32Z</time>
      </trkpt>
      <trkpt lat="45.16015" lon="6.22703">
        <ele>2048.23</ele>
        <time>2014-09-15T11:15:44Z</time>
      </trkpt>
      <trkpt lat="45.16013" lon="6.22705">
        <ele>2048.71</ele>
        <time>2014-09-15T11:15:48Z</time>
      </trkpt>
      <trkpt lat="45.16004" lon="6.22701">
        <ele>2051.59</ele>
        <time>2014-09-15T11:16:05Z</time>
      </trkpt>
      <trkpt lat="45.15991" lon="6.22696">
        <ele>2054.47</ele>
        <time>2014-09-15T11:16:21Z</time>
      </trkpt>
      <trkpt lat="45.15986" lon="6.227">
        <ele>2055.92</ele>
        <time>2014-09-15T11:16:30Z</time>
      </trkpt>
      <trkpt lat="45.1598" lon="6.22712">
        <ele>2057.84</ele>
        <time>2014-09-15T11:16:46Z</time>
      </trkpt>
      <trkpt lat="45.15975" lon="6.22707">
        <ele>2059.76</ele>
        <time>2014-09-15T11:17:03Z</time>
      </trkpt>
      <trkpt lat="45.15971" lon="6.22703">
        <ele>2061.68</ele>
        <time>2014-09-15T11:17:18Z</time>
      </trkpt>
      <trkpt lat="45.15962" lon="6.22713">
        <ele>2063.61</ele>
        <time>2014-09-15T11:17:34Z</time>
      </trkpt>
      <trkpt lat="45.15953" lon="6.22709">
        <ele>2066.01</ele>
        <time>2014-09-15T11:17:51Z</time>
      </trkpt>
      <trkpt lat="45.15948" lon="6.22702">
        <ele>2068.89</ele>
        <time>2014-09-15T11:18:06Z</time>
      </trkpt>
      <trkpt lat="45.15938" lon="6.22706">
        <ele>2071.3</ele>
        <time>2014-09-15T11:18:22Z</time>
      </trkpt>
      <trkpt lat="45.15933" lon="6.22708">
        <ele>2072.74</ele>
        <time>2014-09-15T11:18:37Z</time>
      </trkpt>
      <trkpt lat="45.15925" lon="6.22712">
        <ele>2074.18</ele>
        <time>2014-09-15T11:18:50Z</time>
      </trkpt>
      <trkpt lat="45.15922" lon="6.22715">
        <ele>2074.66</ele>
        <time>2014-09-15T11:18:55Z</time>
      </trkpt>
      <trkpt lat="45.1591" lon="6.22709">
        <ele>2078.03</ele>
        <time>2014-09-15T11:19:10Z</time>
      </trkpt>
      <trkpt lat="45.15909" lon="6.22709">
        <ele>2078.03</ele>
        <time>2014-09-15T11:19:11Z</time>
      </trkpt>
      <trkpt lat="45.15908" lon="6.22708">
        <ele>2078.03</ele>
        <time>2014-09-15T11:19:12Z</time>
      </trkpt>
      <trkpt lat="45.15907" lon="6.22707">
        <ele>2078.03</ele>
        <time>2014-09-15T11:19:13Z</time>
      </trkpt>
      <trkpt lat="45.15906" lon="6.22706">
        <ele>2078.03</ele>
        <time>2014-09-15T11:19:14Z</time>
      </trkpt>
      <trkpt lat="45.15905" lon="6.22706">
        <ele>2078.03</ele>
        <time>2014-09-15T11:19:15Z</time>
      </trkpt>
      <trkpt lat="45.15893" lon="6.22699">
        <ele>2080.91</ele>
        <time>2014-09-15T11:19:31Z</time>
      </trkpt>
      <trkpt lat="45.15887" lon="6.22701">
        <ele>2081.87</ele>
        <time>2014-09-15T11:19:45Z</time>
      </trkpt>
      <trkpt lat="45.15887" lon="6.22701">
        <ele>2081.87</ele>
        <time>2014-09-15T11:20:43Z</time>
      </trkpt>
      <trkpt lat="45.15888" lon="6.22702">
        <ele>2082.35</ele>
        <time>2014-09-15T11:21:30Z</time>
      </trkpt>
      <trkpt lat="45.15887" lon="6.22702">
        <ele>2082.35</ele>
        <time>2014-09-15T11:22:14Z</time>
      </trkpt>
      <trkpt lat="45.15887" lon="6.22702">
        <ele>2082.35</ele>
        <time>2014-09-15T11:23:02Z</time>
      </trkpt>
      <trkpt lat="45.15886" lon="6.22702">
        <ele>2082.83</ele>
        <time>2014-09-15T11:23:42Z</time>
      </trkpt>
      <trkpt lat="45.15886" lon="6.22703">
        <ele>2082.83</ele>
        <time>2014-09-15T11:24:28Z</time>
      </trkpt>
      <trkpt lat="45.15887" lon="6.22702">
        <ele>2082.83</ele>
        <time>2014-09-15T11:25:12Z</time>
      </trkpt>
      <trkpt lat="45.15887" lon="6.22702">
        <ele>2082.83</ele>
        <time>2014-09-15T11:25:50Z</time>
      </trkpt>
      <trkpt lat="45.15887" lon="6.227">
        <ele>2083.31</ele>
        <time>2014-09-15T11:26:30Z</time>
      </trkpt>
      <trkpt lat="45.15886" lon="6.227">
        <ele>2083.31</ele>
        <time>2014-09-15T11:27:05Z</time>
      </trkpt>
      <trkpt lat="45.15887" lon="6.22701">
        <ele>2083.31</ele>
        <time>2014-09-15T11:27:43Z</time>
      </trkpt>
      <trkpt lat="45.15887" lon="6.22701">
        <ele>2083.79</ele>
        <time>2014-09-15T11:28:22Z</time>
      </trkpt>
      <trkpt lat="45.15886" lon="6.22701">
        <ele>2083.79</ele>
        <time>2014-09-15T11:28:55Z</time>
      </trkpt>
      <trkpt lat="45.15886" lon="6.227">
        <ele>2083.79</ele>
        <time>2014-09-15T11:29:34Z</time>
      </trkpt>
      <trkpt lat="45.15886" lon="6.227">
        <ele>2083.79</ele>
        <time>2014-09-15T11:30:16Z</time>
      </trkpt>
      <trkpt lat="45.15886" lon="6.22699">
        <ele>2084.28</ele>
        <time>2014-09-15T11:30:53Z</time>
      </trkpt>
      <trkpt lat="45.15886" lon="6.227">
        <ele>2084.28</ele>
        <time>2014-09-15T11:31:28Z</time>
      </trkpt>
      <trkpt lat="45.15886" lon="6.227">
        <ele>2084.28</ele>
        <time>2014-09-15T11:32:09Z</time>
      </trkpt>
      <trkpt lat="45.15886" lon="6.227">
        <ele>2084.28</ele>
        <time>2014-09-15T11:32:52Z</time>
      </trkpt>
      <trkpt lat="45.15886" lon="6.22701">
        <ele>2084.76</ele>
        <time>2014-09-15T11:33:31Z</time>
      </trkpt>
      <trkpt lat="45.15886" lon="6.22701">
        <ele>2084.76</ele>
        <time>2014-09-15T11:34:06Z</time>
      </trkpt>
      <trkpt lat="45.15886" lon="6.22702">
        <ele>2084.76</ele>
        <time>2014-09-15T11:34:46Z</time>
      </trkpt>
      <trkpt lat="45.15886" lon="6.22699">
        <ele>2084.76</ele>
        <time>2014-09-15T11:35:22Z</time>
      </trkpt>
      <trkpt lat="45.15886" lon="6.227">
        <ele>2084.76</ele>
        <time>2014-09-15T11:35:59Z</time>
      </trkpt>
      <trkpt lat="45.15886" lon="6.22701">
        <ele>2084.76</ele>
        <time>2014-09-15T11:36:37Z</time>
      </trkpt>
      <trkpt lat="45.15886" lon="6.22701">
        <ele>2084.76</ele>
        <time>2014-09-15T11:37:14Z</time>
      </trkpt>
      <trkpt lat="45.15886" lon="6.22699">
        <ele>2084.76</ele>
        <time>2014-09-15T11:37:55Z</time>
      </trkpt>
      <trkpt lat="45.15886" lon="6.227">
        <ele>2084.76</ele>
        <time>2014-09-15T11:38:27Z</time>
      </trkpt>
      <trkpt lat="45.15886" lon="6.22699">
        <ele>2084.76</ele>
        <time>2014-09-15T11:39:16Z</time>
      </trkpt>
      <trkpt lat="45.15887" lon="6.22699">
        <ele>2085.24</ele>
        <time>2014-09-15T11:39:46Z</time>
      </trkpt>
      <trkpt lat="45.15887" lon="6.227">
        <ele>2085.24</ele>
        <time>2014-09-15T11:40:21Z</time>
      </trkpt>
      <trkpt lat="45.15887" lon="6.227">
        <ele>2085.24</ele>
        <time>2014-09-15T11:41:01Z</time>
      </trkpt>
      <trkpt lat="45.15886" lon="6.227">
        <ele>2085.24</ele>
        <time>2014-09-15T11:41:40Z</time>
      </trkpt>
      <trkpt lat="45.15886" lon="6.227">
        <ele>2085.72</ele>
        <time>2014-09-15T11:42:17Z</time>
      </trkpt>
      <trkpt lat="45.15886" lon="6.22699">
        <ele>2085.72</ele>
        <time>2014-09-15T11:42:49Z</time>
      </trkpt>
      <trkpt lat="45.15887" lon="6.22699">
        <ele>2085.72</ele>
        <time>2014-09-15T11:43:26Z</time>
      </trkpt>
      <trkpt lat="45.15884" lon="6.22698">
        <ele>2085.72</ele>
        <time>2014-09-15T11:43:36Z</time>
      </trkpt>
      <trkpt lat="45.15882" lon="6.22698">
        <ele>2086.2</ele>
        <time>2014-09-15T11:43:38Z</time>
      </trkpt>
      <trkpt lat="45.1588" lon="6.22698">
        <ele>2086.2</ele>
        <time>2014-09-15T11:43:39Z</time>
      </trkpt>
      <trkpt lat="45.15878" lon="6.22698">
        <ele>2086.2</ele>
        <time>2014-09-15T11:43:40Z</time>
      </trkpt>
      <trkpt lat="45.15868" lon="6.22698">
        <ele>2087.16</ele>
        <time>2014-09-15T11:43:51Z</time>
      </trkpt>
      <trkpt lat="45.15838" lon="6.22696">
        <ele>2088.12</ele>
        <time>2014-09-15T11:44:06Z</time>
      </trkpt>
      <trkpt lat="45.15808" lon="6.22696">
        <ele>2090.52</ele>
        <time>2014-09-15T11:44:21Z</time>
      </trkpt>
      <trkpt lat="45.15781" lon="6.22696">
        <ele>2091.97</ele>
        <time>2014-09-15T11:44:35Z</time>
      </trkpt>
      <trkpt lat="45.15754" lon="6.22689">
        <ele>2093.89</ele>
        <time>2014-09-15T11:44:49Z</time>
      </trkpt>
      <trkpt lat="45.15751" lon="6.2269">
        <ele>2093.89</ele>
        <time>2014-09-15T11:44:51Z</time>
      </trkpt>
      <trkpt lat="45.15749" lon="6.2269">
        <ele>2093.89</ele>
        <time>2014-09-15T11:44:52Z</time>
      </trkpt>
      <trkpt lat="45.15738" lon="6.22694">
        <ele>2092.45</ele>
        <time>2014-09-15T11:44:55Z</time>
      </trkpt>
      <trkpt lat="45.15722" lon="6.22697">
        <ele>2093.41</ele>
        <time>2014-09-15T11:45:03Z</time>
      </trkpt>
      <trkpt lat="45.15716" lon="6.227">
        <ele>2093.89</ele>
        <time>2014-09-15T11:45:07Z</time>
      </trkpt>
      <trkpt lat="45.15713" lon="6.227">
        <ele>2093.89</ele>
        <time>2014-09-15T11:45:08Z</time>
      </trkpt>
      <trkpt lat="45.1571" lon="6.22699">
        <ele>2093.89</ele>
        <time>2014-09-15T11:45:09Z</time>
      </trkpt>
      <trkpt lat="45.15708" lon="6.22699">
        <ele>2092.93</ele>
        <time>2014-09-15T11:45:10Z</time>
      </trkpt>
      <trkpt lat="45.15705" lon="6.22699">
        <ele>2092.93</ele>
        <time>2014-09-15T11:45:11Z</time>
      </trkpt>
      <trkpt lat="45.15703" lon="6.22699">
        <ele>2092.93</ele>
        <time>2014-09-15T11:45:12Z</time>
      </trkpt>
      <trkpt lat="45.15702" lon="6.227">
        <ele>2092.93</ele>
        <time>2014-09-15T11:45:13Z</time>
      </trkpt>
      <trkpt lat="45.157" lon="6.22702">
        <ele>2092.93</ele>
        <time>2014-09-15T11:45:14Z</time>
      </trkpt>
      <trkpt lat="45.15698" lon="6.22704">
        <ele>2092.93</ele>
        <time>2014-09-15T11:45:15Z</time>
      </trkpt>
      <trkpt lat="45.15697" lon="6.22706">
        <ele>2092.93</ele>
        <time>2014-09-15T11:45:16Z</time>
      </trkpt>
      <trkpt lat="45.15694" lon="6.22708">
        <ele>2092.93</ele>
        <time>2014-09-15T11:45:17Z</time>
      </trkpt>
      <trkpt lat="45.15693" lon="6.2271">
        <ele>2092.93</ele>
        <time>2014-09-15T11:45:18Z</time>
      </trkpt>
      <trkpt lat="45.15667" lon="6.22721">
        <ele>2092.93</ele>
        <time>2014-09-15T11:45:29Z</time>
      </trkpt>
      <trkpt lat="45.15648" lon="6.22732">
        <ele>2091.97</ele>
        <time>2014-09-15T11:45:39Z</time>
      </trkpt>
      <trkpt lat="45.15646" lon="6.22734">
        <ele>2091.97</ele>
        <time>2014-09-15T11:45:41Z</time>
      </trkpt>
      <trkpt lat="45.15644" lon="6.22735">
        <ele>2091.97</ele>
        <time>2014-09-15T11:45:42Z</time>
      </trkpt>
      <trkpt lat="45.15641" lon="6.22736">
        <ele>2091.97</ele>
        <time>2014-09-15T11:45:43Z</time>
      </trkpt>
      <trkpt lat="45.15638" lon="6.22737">
        <ele>2091.97</ele>
        <time>2014-09-15T11:45:44Z</time>
      </trkpt>
      <trkpt lat="45.15637" lon="6.22737">
        <ele>2091.97</ele>
        <time>2014-09-15T11:45:45Z</time>
      </trkpt>
      <trkpt lat="45.15635" lon="6.22737">
        <ele>2091.97</ele>
        <time>2014-09-15T11:45:46Z</time>
      </trkpt>
      <trkpt lat="45.15633" lon="6.22736">
        <ele>2091.97</ele>
        <time>2014-09-15T11:45:47Z</time>
      </trkpt>
      <trkpt lat="45.1563" lon="6.22735">
        <ele>2091.97</ele>
        <time>2014-09-15T11:45:48Z</time>
      </trkpt>
      <trkpt lat="45.15628" lon="6.22734">
        <ele>2091.97</ele>
        <time>2014-09-15T11:45:49Z</time>
      </trkpt>
      <trkpt lat="45.15625" lon="6.22734">
        <ele>2091.97</ele>
        <time>2014-09-15T11:45:50Z</time>
      </trkpt>
      <trkpt lat="45.15623" lon="6.22734">
        <ele>2092.93</ele>
        <time>2014-09-15T11:45:51Z</time>
      </trkpt>
      <trkpt lat="45.15622" lon="6.22736">
        <ele>2093.41</ele>
        <time>2014-09-15T11:45:52Z</time>
      </trkpt>
      <trkpt lat="45.1562" lon="6.22737">
        <ele>2093.41</ele>
        <time>2014-09-15T11:45:53Z</time>
      </trkpt>
      <trkpt lat="45.15618" lon="6.22738">
        <ele>2093.41</ele>
        <time>2014-09-15T11:45:54Z</time>
      </trkpt>
      <trkpt lat="45.15616" lon="6.22739">
        <ele>2093.89</ele>
        <time>2014-09-15T11:45:55Z</time>
      </trkpt>
      <trkpt lat="45.15614" lon="6.22739">
        <ele>2093.89</ele>
        <time>2014-09-15T11:45:56Z</time>
      </trkpt>
      <trkpt lat="45.15612" lon="6.2274">
        <ele>2093.89</ele>
        <time>2014-09-15T11:45:57Z</time>
      </trkpt>
      <trkpt lat="45.15611" lon="6.2274">
        <ele>2094.37</ele>
        <time>2014-09-15T11:45:58Z</time>
      </trkpt>
      <trkpt lat="45.15609" lon="6.22741">
        <ele>2094.37</ele>
        <time>2014-09-15T11:45:59Z</time>
      </trkpt>
      <trkpt lat="45.15607" lon="6.22744">
        <ele>2094.37</ele>
        <time>2014-09-15T11:46:01Z</time>
      </trkpt>
      <trkpt lat="45.15604" lon="6.22752">
        <ele>2092.45</ele>
        <time>2014-09-15T11:46:06Z</time>
      </trkpt>
      <trkpt lat="45.15599" lon="6.22749">
        <ele>2091.49</ele>
        <time>2014-09-15T11:46:16Z</time>
      </trkpt>
      <trkpt lat="45.15596" lon="6.22746">
        <ele>2092.93</ele>
        <time>2014-09-15T11:46:20Z</time>
      </trkpt>
      <trkpt lat="45.15593" lon="6.22743">
        <ele>2093.89</ele>
        <time>2014-09-15T11:46:31Z</time>
      </trkpt>
      <trkpt lat="45.15593" lon="6.22742">
        <ele>2093.89</ele>
        <time>2014-09-15T11:46:33Z</time>
      </trkpt>
      <trkpt lat="45.15592" lon="6.22741">
        <ele>2093.89</ele>
        <time>2014-09-15T11:46:34Z</time>
      </trkpt>
      <trkpt lat="45.1559" lon="6.22741">
        <ele>2093.89</ele>
        <time>2014-09-15T11:46:35Z</time>
      </trkpt>
      <trkpt lat="45.15589" lon="6.2274">
        <ele>2094.85</ele>
        <time>2014-09-15T11:46:36Z</time>
      </trkpt>
      <trkpt lat="45.15587" lon="6.2274">
        <ele>2094.85</ele>
        <time>2014-09-15T11:46:37Z</time>
      </trkpt>
      <trkpt lat="45.15586" lon="6.2274">
        <ele>2094.85</ele>
        <time>2014-09-15T11:46:38Z</time>
      </trkpt>
      <trkpt lat="45.15584" lon="6.22739">
        <ele>2095.33</ele>
        <time>2014-09-15T11:46:39Z</time>
      </trkpt>
      <trkpt lat="45.15562" lon="6.22742">
        <ele>2096.77</ele>
        <time>2014-09-15T11:46:51Z</time>
      </trkpt>
      <trkpt lat="45.15549" lon="6.22739">
        <ele>2097.25</ele>
        <time>2014-09-15T11:47:03Z</time>
      </trkpt>
      <trkpt lat="45.15541" lon="6.22731">
        <ele>2097.73</ele>
        <time>2014-09-15T11:47:15Z</time>
      </trkpt>
      <trkpt lat="45.15537" lon="6.22727">
        <ele>2097.73</ele>
        <time>2014-09-15T11:47:18Z</time>
      </trkpt>
      <trkpt lat="45.15533" lon="6.22719">
        <ele>2097.73</ele>
        <time>2014-09-15T11:47:22Z</time>
      </trkpt>
      <trkpt lat="45.15531" lon="6.22717">
        <ele>2097.73</ele>
        <time>2014-09-15T11:47:23Z</time>
      </trkpt>
      <trkpt lat="45.15529" lon="6.22715">
        <ele>2096.29</ele>
        <time>2014-09-15T11:47:24Z</time>
      </trkpt>
      <trkpt lat="45.15527" lon="6.22712">
        <ele>2096.29</ele>
        <time>2014-09-15T11:47:25Z</time>
      </trkpt>
      <trkpt lat="45.15526" lon="6.2271">
        <ele>2096.29</ele>
        <time>2014-09-15T11:47:26Z</time>
      </trkpt>
      <trkpt lat="45.15525" lon="6.22708">
        <ele>2096.29</ele>
        <time>2014-09-15T11:47:27Z</time>
      </trkpt>
      <trkpt lat="45.15525" lon="6.22706">
        <ele>2096.29</ele>
        <time>2014-09-15T11:47:28Z</time>
      </trkpt>
      <trkpt lat="45.15524" lon="6.22704">
        <ele>2096.29</ele>
        <time>2014-09-15T11:47:29Z</time>
      </trkpt>
      <trkpt lat="45.15523" lon="6.22697">
        <ele>2097.73</ele>
        <time>2014-09-15T11:47:38Z</time>
      </trkpt>
      <trkpt lat="45.15513" lon="6.22686">
        <ele>2100.14</ele>
        <time>2014-09-15T11:47:53Z</time>
      </trkpt>
      <trkpt lat="45.15507" lon="6.22676">
        <ele>2102.06</ele>
        <time>2014-09-15T11:48:05Z</time>
      </trkpt>
      <trkpt lat="45.15498" lon="6.22665">
        <ele>2104.94</ele>
        <time>2014-09-15T11:48:21Z</time>
      </trkpt>
      <trkpt lat="45.15488" lon="6.22658">
        <ele>2107.83</ele>
        <time>2014-09-15T11:48:37Z</time>
      </trkpt>
      <trkpt lat="45.15489" lon="6.22659">
        <ele>2107.83</ele>
        <time>2014-09-15T11:48:51Z</time>
      </trkpt>
      <trkpt lat="45.15489" lon="6.2266">
        <ele>2107.83</ele>
        <time>2014-09-15T11:48:55Z</time>
      </trkpt>
      <trkpt lat="45.15488" lon="6.2266">
        <ele>2107.83</ele>
        <time>2014-09-15T11:48:56Z</time>
      </trkpt>
      <trkpt lat="45.15486" lon="6.2266">
        <ele>2107.83</ele>
        <time>2014-09-15T11:48:57Z</time>
      </trkpt>
      <trkpt lat="45.15484" lon="6.22661">
        <ele>2107.83</ele>
        <time>2014-09-15T11:48:58Z</time>
      </trkpt>
      <trkpt lat="45.15482" lon="6.22663">
        <ele>2107.83</ele>
        <time>2014-09-15T11:48:59Z</time>
      </trkpt>
      <trkpt lat="45.15481" lon="6.22664">
        <ele>2108.31</ele>
        <time>2014-09-15T11:49:00Z</time>
      </trkpt>
      <trkpt lat="45.15479" lon="6.22665">
        <ele>2108.31</ele>
        <time>2014-09-15T11:49:01Z</time>
      </trkpt>
      <trkpt lat="45.15477" lon="6.22666">
        <ele>2108.31</ele>
        <time>2014-09-15T11:49:02Z</time>
      </trkpt>
      <trkpt lat="45.15476" lon="6.22666">
        <ele>2108.31</ele>
        <time>2014-09-15T11:49:03Z</time>
      </trkpt>
      <trkpt lat="45.15474" lon="6.22667">
        <ele>2108.31</ele>
        <time>2014-09-15T11:49:04Z</time>
      </trkpt>
      <trkpt lat="45.15473" lon="6.22667">
        <ele>2108.31</ele>
        <time>2014-09-15T11:49:05Z</time>
      </trkpt>
      <trkpt lat="45.15465" lon="6.22663">
        <ele>2108.31</ele>
        <time>2014-09-15T11:49:10Z</time>
      </trkpt>
      <trkpt lat="45.15464" lon="6.22661">
        <ele>2108.31</ele>
        <time>2014-09-15T11:49:11Z</time>
      </trkpt>
      <trkpt lat="45.15453" lon="6.22645">
        <ele>2109.27</ele>
        <time>2014-09-15T11:49:21Z</time>
      </trkpt>
      <trkpt lat="45.15443" lon="6.22644">
        <ele>2109.27</ele>
        <time>2014-09-15T11:49:30Z</time>
      </trkpt>
      <trkpt lat="45.15442" lon="6.22645">
        <ele>2109.27</ele>
        <time>2014-09-15T11:49:31Z</time>
      </trkpt>
      <trkpt lat="45.15441" lon="6.22646">
        <ele>2109.27</ele>
        <time>2014-09-15T11:49:32Z</time>
      </trkpt>
      <trkpt lat="45.1544" lon="6.22648">
        <ele>2109.27</ele>
        <time>2014-09-15T11:49:33Z</time>
      </trkpt>
      <trkpt lat="45.15439" lon="6.22648">
        <ele>2109.27</ele>
        <time>2014-09-15T11:49:34Z</time>
      </trkpt>
      <trkpt lat="45.15437" lon="6.22648">
        <ele>2109.27</ele>
        <time>2014-09-15T11:49:35Z</time>
      </trkpt>
      <trkpt lat="45.15436" lon="6.22644">
        <ele>2109.75</ele>
        <time>2014-09-15T11:49:45Z</time>
      </trkpt>
      <trkpt lat="45.15436" lon="6.22643">
        <ele>2109.75</ele>
        <time>2014-09-15T11:49:46Z</time>
      </trkpt>
      <trkpt lat="45.15435" lon="6.22642">
        <ele>2109.75</ele>
        <time>2014-09-15T11:49:47Z</time>
      </trkpt>
      <trkpt lat="45.15433" lon="6.2264">
        <ele>2109.75</ele>
        <time>2014-09-15T11:49:49Z</time>
      </trkpt>
      <trkpt lat="45.15432" lon="6.2264">
        <ele>2109.75</ele>
        <time>2014-09-15T11:49:50Z</time>
      </trkpt>
      <trkpt lat="45.15429" lon="6.22639">
        <ele>2109.75</ele>
        <time>2014-09-15T11:50:06Z</time>
      </trkpt>
      <trkpt lat="45.15408" lon="6.22634">
        <ele>2110.23</ele>
        <time>2014-09-15T11:50:18Z</time>
      </trkpt>
      <trkpt lat="45.15382" lon="6.22631">
        <ele>2110.71</ele>
        <time>2014-09-15T11:50:33Z</time>
      </trkpt>
      <trkpt lat="45.15358" lon="6.22626">
        <ele>2111.19</ele>
        <time>2014-09-15T11:50:45Z</time>
      </trkpt>
      <trkpt lat="45.15327" lon="6.22619">
        <ele>2112.63</ele>
        <time>2014-09-15T11:51:01Z</time>
      </trkpt>
      <trkpt lat="45.15325" lon="6.22618">
        <ele>2112.63</ele>
        <time>2014-09-15T11:51:02Z</time>
      </trkpt>
      <trkpt lat="45.15295" lon="6.22612">
        <ele>2113.6</ele>
        <time>2014-09-15T11:51:16Z</time>
      </trkpt>
      <trkpt lat="45.1526" lon="6.22605">
        <ele>2114.08</ele>
        <time>2014-09-15T11:51:31Z</time>
      </trkpt>
      <trkpt lat="45.15235" lon="6.22606">
        <ele>2114.08</ele>
        <time>2014-09-15T11:51:42Z</time>
      </trkpt>
      <trkpt lat="45.15209" lon="6.22598">
        <ele>2112.63</ele>
        <time>2014-09-15T11:51:52Z</time>
      </trkpt>
      <trkpt lat="45.152" lon="6.22596">
        <ele>2115.52</ele>
        <time>2014-09-15T11:51:58Z</time>
      </trkpt>
      <trkpt lat="45.15191" lon="6.22588">
        <ele>2117.92</ele>
        <time>2014-09-15T11:52:14Z</time>
      </trkpt>
      <trkpt lat="45.1519" lon="6.22588">
        <ele>2118.4</ele>
        <time>2014-09-15T11:52:30Z</time>
      </trkpt>
      <trkpt lat="45.15188" lon="6.22588">
        <ele>2118.4</ele>
        <time>2014-09-15T11:52:31Z</time>
      </trkpt>
      <trkpt lat="45.15165" lon="6.22584">
        <ele>2120.32</ele>
        <time>2014-09-15T11:52:44Z</time>
      </trkpt>
      <trkpt lat="45.15144" lon="6.22594">
        <ele>2121.29</ele>
        <time>2014-09-15T11:52:57Z</time>
      </trkpt>
      <trkpt lat="45.15126" lon="6.22605">
        <ele>2122.73</ele>
        <time>2014-09-15T11:53:11Z</time>
      </trkpt>
      <trkpt lat="45.1512" lon="6.22608">
        <ele>2123.21</ele>
        <time>2014-09-15T11:53:15Z</time>
      </trkpt>
      <trkpt lat="45.15119" lon="6.22609">
        <ele>2123.21</ele>
        <time>2014-09-15T11:53:16Z</time>
      </trkpt>
      <trkpt lat="45.15117" lon="6.22609">
        <ele>2123.21</ele>
        <time>2014-09-15T11:53:17Z</time>
      </trkpt>
      <trkpt lat="45.15096" lon="6.22625">
        <ele>2123.69</ele>
        <time>2014-09-15T11:53:33Z</time>
      </trkpt>
      <trkpt lat="45.15092" lon="6.22633">
        <ele>2124.17</ele>
        <time>2014-09-15T11:53:38Z</time>
      </trkpt>
      <trkpt lat="45.15074" lon="6.22638">
        <ele>2125.61</ele>
        <time>2014-09-15T11:53:52Z</time>
      </trkpt>
      <trkpt lat="45.1506" lon="6.22633">
        <ele>2126.09</ele>
        <time>2014-09-15T11:54:02Z</time>
      </trkpt>
      <trkpt lat="45.15052" lon="6.22628">
        <ele>2126.57</ele>
        <time>2014-09-15T11:54:08Z</time>
      </trkpt>
      <trkpt lat="45.15044" lon="6.22618">
        <ele>2126.57</ele>
        <time>2014-09-15T11:54:18Z</time>
      </trkpt>
      <trkpt lat="45.15041" lon="6.22613">
        <ele>2126.57</ele>
        <time>2014-09-15T11:54:34Z</time>
      </trkpt>
      <trkpt lat="45.15041" lon="6.22613">
        <ele>2126.57</ele>
        <time>2014-09-15T11:54:47Z</time>
      </trkpt>
      <trkpt lat="45.15041" lon="6.22612">
        <ele>2126.57</ele>
        <time>2014-09-15T11:54:59Z</time>
      </trkpt>
      <trkpt lat="45.15042" lon="6.22604">
        <ele>2126.09</ele>
        <time>2014-09-15T11:55:03Z</time>
      </trkpt>
      <trkpt lat="45.1504" lon="6.22601">
        <ele>2125.61</ele>
        <time>2014-09-15T11:55:04Z</time>
      </trkpt>
      <trkpt lat="45.15039" lon="6.22599">
        <ele>2125.61</ele>
        <time>2014-09-15T11:55:05Z</time>
      </trkpt>
      <trkpt lat="45.15037" lon="6.22597">
        <ele>2125.13</ele>
        <time>2014-09-15T11:55:06Z</time>
      </trkpt>
      <trkpt lat="45.15027" lon="6.2258">
        <ele>2125.13</ele>
        <time>2014-09-15T11:55:16Z</time>
      </trkpt>
      <trkpt lat="45.15024" lon="6.22575">
        <ele>2125.13</ele>
        <time>2014-09-15T11:55:19Z</time>
      </trkpt>
      <trkpt lat="45.1502" lon="6.22568">
        <ele>2126.57</ele>
        <time>2014-09-15T11:55:24Z</time>
      </trkpt>
      <trkpt lat="45.15019" lon="6.22566">
        <ele>2126.57</ele>
        <time>2014-09-15T11:55:25Z</time>
      </trkpt>
      <trkpt lat="45.15019" lon="6.22564">
        <ele>2126.57</ele>
        <time>2014-09-15T11:55:26Z</time>
      </trkpt>
      <trkpt lat="45.15013" lon="6.22562">
        <ele>2128.02</ele>
        <time>2014-09-15T11:55:38Z</time>
      </trkpt>
      <trkpt lat="45.15012" lon="6.22558">
        <ele>2128.98</ele>
        <time>2014-09-15T11:56:06Z</time>
      </trkpt>
      <trkpt lat="45.15009" lon="6.22561">
        <ele>2129.46</ele>
        <time>2014-09-15T11:56:20Z</time>
      </trkpt>
      <trkpt lat="45.14998" lon="6.22561">
        <ele>2131.38</ele>
        <time>2014-09-15T11:56:35Z</time>
      </trkpt>
      <trkpt lat="45.14991" lon="6.22561">
        <ele>2133.78</ele>
        <time>2014-09-15T11:56:48Z</time>
      </trkpt>
      <trkpt lat="45.14986" lon="6.22557">
        <ele>2134.74</ele>
        <time>2014-09-15T11:57:01Z</time>
      </trkpt>
      <trkpt lat="45.14981" lon="6.22556">
        <ele>2136.67</ele>
        <time>2014-09-15T11:57:14Z</time>
      </trkpt>
      <trkpt lat="45.14975" lon="6.2256">
        <ele>2139.07</ele>
        <time>2014-09-15T11:57:28Z</time>
      </trkpt>
      <trkpt lat="45.14969" lon="6.2256">
        <ele>2140.99</ele>
        <time>2014-09-15T11:57:43Z</time>
      </trkpt>
      <trkpt lat="45.14964" lon="6.22559">
        <ele>2142.92</ele>
        <time>2014-09-15T11:57:59Z</time>
      </trkpt>
      <trkpt lat="45.14959" lon="6.22552">
        <ele>2145.32</ele>
        <time>2014-09-15T11:58:15Z</time>
      </trkpt>
      <trkpt lat="45.14955" lon="6.22555">
        <ele>2146.76</ele>
        <time>2014-09-15T11:58:30Z</time>
      </trkpt>
      <trkpt lat="45.1495" lon="6.22553">
        <ele>2148.68</ele>
        <time>2014-09-15T11:58:41Z</time>
      </trkpt>
      <trkpt lat="45.14944" lon="6.22553">
        <ele>2150.61</ele>
        <time>2014-09-15T11:58:55Z</time>
      </trkpt>
      <trkpt lat="45.1494" lon="6.22552">
        <ele>2152.05</ele>
        <time>2014-09-15T11:59:09Z</time>
      </trkpt>
      <trkpt lat="45.14936" lon="6.22552">
        <ele>2153.97</ele>
        <time>2014-09-15T11:59:22Z</time>
      </trkpt>
      <trkpt lat="45.1493" lon="6.22554">
        <ele>2154.93</ele>
        <time>2014-09-15T11:59:36Z</time>
      </trkpt>
      <trkpt lat="45.14923" lon="6.2256">
        <ele>2157.34</ele>
        <time>2014-09-15T11:59:52Z</time>
      </trkpt>
      <trkpt lat="45.14917" lon="6.22554">
        <ele>2158.78</ele>
        <time>2014-09-15T12:00:06Z</time>
      </trkpt>
      <trkpt lat="45.14916" lon="6.22538">
        <ele>2161.18</ele>
        <time>2014-09-15T12:00:23Z</time>
      </trkpt>
      <trkpt lat="45.14912" lon="6.22523">
        <ele>2163.58</ele>
        <time>2014-09-15T12:00:40Z</time>
      </trkpt>
      <trkpt lat="45.14909" lon="6.22511">
        <ele>2165.03</ele>
        <time>2014-09-15T12:00:56Z</time>
      </trkpt>
      <trkpt lat="45.14906" lon="6.22508">
        <ele>2167.43</ele>
        <time>2014-09-15T12:01:13Z</time>
      </trkpt>
      <trkpt lat="45.14896" lon="6.2251">
        <ele>2168.87</ele>
        <time>2014-09-15T12:01:29Z</time>
      </trkpt>
      <trkpt lat="45.14886" lon="6.22517">
        <ele>2170.79</ele>
        <time>2014-09-15T12:01:46Z</time>
      </trkpt>
      <trkpt lat="45.1488" lon="6.22521">
        <ele>2172.24</ele>
        <time>2014-09-15T12:02:02Z</time>
      </trkpt>
      <trkpt lat="45.14877" lon="6.22521">
        <ele>2172.72</ele>
        <time>2014-09-15T12:02:21Z</time>
      </trkpt>
      <trkpt lat="45.1487" lon="6.22521">
        <ele>2174.64</ele>
        <time>2014-09-15T12:02:39Z</time>
      </trkpt>
      <trkpt lat="45.1486" lon="6.22524">
        <ele>2176.56</ele>
        <time>2014-09-15T12:02:54Z</time>
      </trkpt>
      <trkpt lat="45.14856" lon="6.22527">
        <ele>2178</ele>
        <time>2014-09-15T12:03:10Z</time>
      </trkpt>
      <trkpt lat="45.14848" lon="6.22527">
        <ele>2180.41</ele>
        <time>2014-09-15T12:03:26Z</time>
      </trkpt>
      <trkpt lat="45.14837" lon="6.22529">
        <ele>2182.33</ele>
        <time>2014-09-15T12:03:42Z</time>
      </trkpt>
      <trkpt lat="45.14827" lon="6.22532">
        <ele>2184.25</ele>
        <time>2014-09-15T12:03:57Z</time>
      </trkpt>
      <trkpt lat="45.14817" lon="6.22537">
        <ele>2185.69</ele>
        <time>2014-09-15T12:04:13Z</time>
      </trkpt>
      <trkpt lat="45.14809" lon="6.22542">
        <ele>2188.1</ele>
        <time>2014-09-15T12:04:28Z</time>
      </trkpt>
      <trkpt lat="45.14797" lon="6.22548">
        <ele>2190.5</ele>
        <time>2014-09-15T12:04:45Z</time>
      </trkpt>
      <trkpt lat="45.14786" lon="6.22551">
        <ele>2192.42</ele>
        <time>2014-09-15T12:05:03Z</time>
      </trkpt>
      <trkpt lat="45.14778" lon="6.22551">
        <ele>2193.39</ele>
        <time>2014-09-15T12:05:21Z</time>
      </trkpt>
      <trkpt lat="45.14764" lon="6.22553">
        <ele>2195.79</ele>
        <time>2014-09-15T12:05:38Z</time>
      </trkpt>
      <trkpt lat="45.14751" lon="6.22555">
        <ele>2198.19</ele>
        <time>2014-09-15T12:05:58Z</time>
      </trkpt>
      <trkpt lat="45.14739" lon="6.22554">
        <ele>2201.08</ele>
        <time>2014-09-15T12:06:15Z</time>
      </trkpt>
      <trkpt lat="45.14731" lon="6.22552">
        <ele>2201.56</ele>
        <time>2014-09-15T12:06:29Z</time>
      </trkpt>
      <trkpt lat="45.14722" lon="6.2255">
        <ele>2204.44</ele>
        <time>2014-09-15T12:06:46Z</time>
      </trkpt>
      <trkpt lat="45.14719" lon="6.22549">
        <ele>2204.92</ele>
        <time>2014-09-15T12:06:58Z</time>
      </trkpt>
      <trkpt lat="45.14716" lon="6.22549">
        <ele>2205.4</ele>
        <time>2014-09-15T12:07:14Z</time>
      </trkpt>
      <trkpt lat="45.14708" lon="6.22549">
        <ele>2208.29</ele>
        <time>2014-09-15T12:07:30Z</time>
      </trkpt>
      <trkpt lat="45.14699" lon="6.22549">
        <ele>2210.21</ele>
        <time>2014-09-15T12:07:45Z</time>
      </trkpt>
      <trkpt lat="45.14691" lon="6.22548">
        <ele>2211.65</ele>
        <time>2014-09-15T12:08:00Z</time>
      </trkpt>
      <trkpt lat="45.14684" lon="6.22548">
        <ele>2214.05</ele>
        <time>2014-09-15T12:08:16Z</time>
      </trkpt>
      <trkpt lat="45.14678" lon="6.22544">
        <ele>2215.5</ele>
        <time>2014-09-15T12:08:31Z</time>
      </trkpt>
      <trkpt lat="45.14672" lon="6.22539">
        <ele>2218.38</ele>
        <time>2014-09-15T12:08:46Z</time>
      </trkpt>
      <trkpt lat="45.14663" lon="6.22536">
        <ele>2220.3</ele>
        <time>2014-09-15T12:09:03Z</time>
      </trkpt>
      <trkpt lat="45.14657" lon="6.22534">
        <ele>2222.71</ele>
        <time>2014-09-15T12:09:19Z</time>
      </trkpt>
      <trkpt lat="45.14646" lon="6.22532">
        <ele>2225.59</ele>
        <time>2014-09-15T12:09:35Z</time>
      </trkpt>
      <trkpt lat="45.14638" lon="6.22531">
        <ele>2227.51</ele>
        <time>2014-09-15T12:09:51Z</time>
      </trkpt>
      <trkpt lat="45.14629" lon="6.2253">
        <ele>2229.43</ele>
        <time>2014-09-15T12:10:06Z</time>
      </trkpt>
      <trkpt lat="45.14626" lon="6.22529">
        <ele>2229.43</ele>
        <time>2014-09-15T12:10:10Z</time>
      </trkpt>
      <trkpt lat="45.14623" lon="6.22526">
        <ele>2229.92</ele>
        <time>2014-09-15T12:10:25Z</time>
      </trkpt>
      <trkpt lat="45.14621" lon="6.22518">
        <ele>2229.92</ele>
        <time>2014-09-15T12:10:36Z</time>
      </trkpt>
      <trkpt lat="45.14617" lon="6.22506">
        <ele>2230.4</ele>
        <time>2014-09-15T12:10:46Z</time>
      </trkpt>
      <trkpt lat="45.14618" lon="6.22494">
        <ele>2232.32</ele>
        <time>2014-09-15T12:10:58Z</time>
      </trkpt>
      <trkpt lat="45.14617" lon="6.22487">
        <ele>2232.32</ele>
        <time>2014-09-15T12:11:03Z</time>
      </trkpt>
      <trkpt lat="45.14616" lon="6.2248">
        <ele>2232.8</ele>
        <time>2014-09-15T12:11:09Z</time>
      </trkpt>
      <trkpt lat="45.14618" lon="6.22474">
        <ele>2232.8</ele>
        <time>2014-09-15T12:11:16Z</time>
      </trkpt>
      <trkpt lat="45.14616" lon="6.22468">
        <ele>2232.8</ele>
        <time>2014-09-15T12:11:21Z</time>
      </trkpt>
      <trkpt lat="45.14607" lon="6.22465">
        <ele>2235.68</ele>
        <time>2014-09-15T12:11:36Z</time>
      </trkpt>
      <trkpt lat="45.14601" lon="6.22457">
        <ele>2237.13</ele>
        <time>2014-09-15T12:11:48Z</time>
      </trkpt>
      <trkpt lat="45.14593" lon="6.22447">
        <ele>2239.05</ele>
        <time>2014-09-15T12:12:03Z</time>
      </trkpt>
      <trkpt lat="45.14585" lon="6.22446">
        <ele>2240.97</ele>
        <time>2014-09-15T12:12:16Z</time>
      </trkpt>
      <trkpt lat="45.14582" lon="6.22439">
        <ele>2241.93</ele>
        <time>2014-09-15T12:12:29Z</time>
      </trkpt>
      <trkpt lat="45.14575" lon="6.22421">
        <ele>2243.37</ele>
        <time>2014-09-15T12:12:46Z</time>
      </trkpt>
      <trkpt lat="45.14572" lon="6.22413">
        <ele>2243.85</ele>
        <time>2014-09-15T12:12:54Z</time>
      </trkpt>
      <trkpt lat="45.14564" lon="6.22398">
        <ele>2245.78</ele>
        <time>2014-09-15T12:13:10Z</time>
      </trkpt>
      <trkpt lat="45.1456" lon="6.22387">
        <ele>2247.7</ele>
        <time>2014-09-15T12:13:25Z</time>
      </trkpt>
      <trkpt lat="45.1456" lon="6.22389">
        <ele>2247.7</ele>
        <time>2014-09-15T12:13:49Z</time>
      </trkpt>
      <trkpt lat="45.14559" lon="6.22385">
        <ele>2249.14</ele>
        <time>2014-09-15T12:13:59Z</time>
      </trkpt>
      <trkpt lat="45.14557" lon="6.22374">
        <ele>2251.06</ele>
        <time>2014-09-15T12:14:14Z</time>
      </trkpt>
      <trkpt lat="45.14553" lon="6.22361">
        <ele>2253.95</ele>
        <time>2014-09-15T12:14:29Z</time>
      </trkpt>
      <trkpt lat="45.14551" lon="6.22361">
        <ele>2255.87</ele>
        <time>2014-09-15T12:14:45Z</time>
      </trkpt>
      <trkpt lat="45.14544" lon="6.22367">
        <ele>2257.79</ele>
        <time>2014-09-15T12:14:58Z</time>
      </trkpt>
      <trkpt lat="45.14539" lon="6.22362">
        <ele>2259.24</ele>
        <time>2014-09-15T12:15:12Z</time>
      </trkpt>
      <trkpt lat="45.14535" lon="6.22356">
        <ele>2261.16</ele>
        <time>2014-09-15T12:15:25Z</time>
      </trkpt>
      <trkpt lat="45.14529" lon="6.22352">
        <ele>2263.56</ele>
        <time>2014-09-15T12:15:39Z</time>
      </trkpt>
      <trkpt lat="45.14523" lon="6.22346">
        <ele>2265.96</ele>
        <time>2014-09-15T12:15:53Z</time>
      </trkpt>
      <trkpt lat="45.14518" lon="6.2234">
        <ele>2268.85</ele>
        <time>2014-09-15T12:16:07Z</time>
      </trkpt>
      <trkpt lat="45.14514" lon="6.22339">
        <ele>2269.33</ele>
        <time>2014-09-15T12:16:13Z</time>
      </trkpt>
      <trkpt lat="45.14503" lon="6.22331">
        <ele>2270.77</ele>
        <time>2014-09-15T12:16:29Z</time>
      </trkpt>
      <trkpt lat="45.14491" lon="6.22328">
        <ele>2273.17</ele>
        <time>2014-09-15T12:16:45Z</time>
      </trkpt>
      <trkpt lat="45.14484" lon="6.22322">
        <ele>2273.66</ele>
        <time>2014-09-15T12:17:06Z</time>
      </trkpt>
      <trkpt lat="45.14466" lon="6.22309">
        <ele>2275.1</ele>
        <time>2014-09-15T12:17:21Z</time>
      </trkpt>
      <trkpt lat="45.14459" lon="6.22305">
        <ele>2275.1</ele>
        <time>2014-09-15T12:17:26Z</time>
      </trkpt>
      <trkpt lat="45.14458" lon="6.22303">
        <ele>2275.1</ele>
        <time>2014-09-15T12:17:27Z</time>
      </trkpt>
      <trkpt lat="45.14457" lon="6.22301">
        <ele>2275.1</ele>
        <time>2014-09-15T12:17:28Z</time>
      </trkpt>
      <trkpt lat="45.14448" lon="6.22283">
        <ele>2276.06</ele>
        <time>2014-09-15T12:17:38Z</time>
      </trkpt>
      <trkpt lat="45.14434" lon="6.22263">
        <ele>2277.5</ele>
        <time>2014-09-15T12:17:51Z</time>
      </trkpt>
      <trkpt lat="45.14422" lon="6.22247">
        <ele>2278.94</ele>
        <time>2014-09-15T12:18:04Z</time>
      </trkpt>
      <trkpt lat="45.14415" lon="6.22241">
        <ele>2279.9</ele>
        <time>2014-09-15T12:18:11Z</time>
      </trkpt>
      <trkpt lat="45.14414" lon="6.2224">
        <ele>2279.9</ele>
        <time>2014-09-15T12:18:12Z</time>
      </trkpt>
      <trkpt lat="45.14413" lon="6.22238">
        <ele>2279.9</ele>
        <time>2014-09-15T12:18:13Z</time>
      </trkpt>
      <trkpt lat="45.14412" lon="6.22237">
        <ele>2280.38</ele>
        <time>2014-09-15T12:18:14Z</time>
      </trkpt>
      <trkpt lat="45.14411" lon="6.22236">
        <ele>2280.38</ele>
        <time>2014-09-15T12:18:15Z</time>
      </trkpt>
      <trkpt lat="45.14409" lon="6.22233">
        <ele>2280.87</ele>
        <time>2014-09-15T12:18:18Z</time>
      </trkpt>
      <trkpt lat="45.14398" lon="6.22225">
        <ele>2282.31</ele>
        <time>2014-09-15T12:18:27Z</time>
      </trkpt>
      <trkpt lat="45.14393" lon="6.22211">
        <ele>2284.23</ele>
        <time>2014-09-15T12:18:35Z</time>
      </trkpt>
      <trkpt lat="45.14393" lon="6.2221">
        <ele>2284.71</ele>
        <time>2014-09-15T12:18:36Z</time>
      </trkpt>
      <trkpt lat="45.14394" lon="6.22203">
        <ele>2285.19</ele>
        <time>2014-09-15T12:18:40Z</time>
      </trkpt>
      <trkpt lat="45.14395" lon="6.22202">
        <ele>2285.19</ele>
        <time>2014-09-15T12:18:41Z</time>
      </trkpt>
      <trkpt lat="45.14395" lon="6.222">
        <ele>2285.19</ele>
        <time>2014-09-15T12:18:42Z</time>
      </trkpt>
      <trkpt lat="45.14395" lon="6.22199">
        <ele>2285.67</ele>
        <time>2014-09-15T12:18:43Z</time>
      </trkpt>
      <trkpt lat="45.14394" lon="6.22198">
        <ele>2285.67</ele>
        <time>2014-09-15T12:18:44Z</time>
      </trkpt>
      <trkpt lat="45.14394" lon="6.22196">
        <ele>2285.67</ele>
        <time>2014-09-15T12:18:45Z</time>
      </trkpt>
      <trkpt lat="45.14386" lon="6.22176">
        <ele>2286.63</ele>
        <time>2014-09-15T12:18:58Z</time>
      </trkpt>
      <trkpt lat="45.14386" lon="6.22174">
        <ele>2287.11</ele>
        <time>2014-09-15T12:18:59Z</time>
      </trkpt>
      <trkpt lat="45.14385" lon="6.22173">
        <ele>2287.11</ele>
        <time>2014-09-15T12:19:00Z</time>
      </trkpt>
      <trkpt lat="45.14385" lon="6.22171">
        <ele>2287.11</ele>
        <time>2014-09-15T12:19:01Z</time>
      </trkpt>
      <trkpt lat="45.14384" lon="6.22169">
        <ele>2287.59</ele>
        <time>2014-09-15T12:19:02Z</time>
      </trkpt>
      <trkpt lat="45.14383" lon="6.22168">
        <ele>2287.59</ele>
        <time>2014-09-15T12:19:03Z</time>
      </trkpt>
      <trkpt lat="45.14383" lon="6.22167">
        <ele>2287.59</ele>
        <time>2014-09-15T12:19:04Z</time>
      </trkpt>
      <trkpt lat="45.14379" lon="6.22165">
        <ele>2288.08</ele>
        <time>2014-09-15T12:19:18Z</time>
      </trkpt>
      <trkpt lat="45.14378" lon="6.22163">
        <ele>2288.08</ele>
        <time>2014-09-15T12:20:03Z</time>
      </trkpt>
      <trkpt lat="45.14377" lon="6.22163">
        <ele>2288.08</ele>
        <time>2014-09-15T12:20:43Z</time>
      </trkpt>
      <trkpt lat="45.14377" lon="6.22163">
        <ele>2288.08</ele>
        <time>2014-09-15T12:21:30Z</time>
      </trkpt>
      <trkpt lat="45.14376" lon="6.22164">
        <ele>2287.11</ele>
        <time>2014-09-15T12:22:09Z</time>
      </trkpt>
      <trkpt lat="45.14378" lon="6.22166">
        <ele>2288.56</ele>
        <time>2014-09-15T12:22:45Z</time>
      </trkpt>
      <trkpt lat="45.14379" lon="6.22167">
        <ele>2288.56</ele>
        <time>2014-09-15T12:23:27Z</time>
      </trkpt>
      <trkpt lat="45.14379" lon="6.22167">
        <ele>2288.56</ele>
        <time>2014-09-15T12:24:02Z</time>
      </trkpt>
      <trkpt lat="45.14379" lon="6.22166">
        <ele>2289.04</ele>
        <time>2014-09-15T12:24:43Z</time>
      </trkpt>
      <trkpt lat="45.14378" lon="6.22165">
        <ele>2289.04</ele>
        <time>2014-09-15T12:25:12Z</time>
      </trkpt>
      <trkpt lat="45.14378" lon="6.22165">
        <ele>2289.04</ele>
        <time>2014-09-15T12:25:44Z</time>
      </trkpt>
      <trkpt lat="45.14378" lon="6.22166">
        <ele>2289.04</ele>
        <time>2014-09-15T12:26:16Z</time>
      </trkpt>
      <trkpt lat="45.14378" lon="6.22164">
        <ele>2289.52</ele>
        <time>2014-09-15T12:26:47Z</time>
      </trkpt>
      <trkpt lat="45.14378" lon="6.22165">
        <ele>2289.52</ele>
        <time>2014-09-15T12:27:24Z</time>
      </trkpt>
      <trkpt lat="45.14378" lon="6.22165">
        <ele>2289.52</ele>
        <time>2014-09-15T12:27:57Z</time>
      </trkpt>
      <trkpt lat="45.1438" lon="6.22166">
        <ele>2289.52</ele>
        <time>2014-09-15T12:28:24Z</time>
      </trkpt>
      <trkpt lat="45.1438" lon="6.22165">
        <ele>2290</ele>
        <time>2014-09-15T12:28:55Z</time>
      </trkpt>
      <trkpt lat="45.14378" lon="6.22163">
        <ele>2290.48</ele>
        <time>2014-09-15T12:29:23Z</time>
      </trkpt>
      <trkpt lat="45.14376" lon="6.22161">
        <ele>2290.48</ele>
        <time>2014-09-15T12:29:46Z</time>
      </trkpt>
      <trkpt lat="45.14375" lon="6.2216">
        <ele>2290.96</ele>
        <time>2014-09-15T12:29:57Z</time>
      </trkpt>
      <trkpt lat="45.14374" lon="6.2216">
        <ele>2290.96</ele>
        <time>2014-09-15T12:29:58Z</time>
      </trkpt>
      <trkpt lat="45.14372" lon="6.2216">
        <ele>2290.96</ele>
        <time>2014-09-15T12:29:59Z</time>
      </trkpt>
      <trkpt lat="45.14371" lon="6.2216">
        <ele>2290.96</ele>
        <time>2014-09-15T12:30:00Z</time>
      </trkpt>
      <trkpt lat="45.14369" lon="6.22156">
        <ele>2290.96</ele>
        <time>2014-09-15T12:30:11Z</time>
      </trkpt>
      <trkpt lat="45.14368" lon="6.22153">
        <ele>2290.96</ele>
        <time>2014-09-15T12:30:30Z</time>
      </trkpt>
      <trkpt lat="45.14367" lon="6.2215">
        <ele>2291.44</ele>
        <time>2014-09-15T12:30:54Z</time>
      </trkpt>
      <trkpt lat="45.14367" lon="6.22149">
        <ele>2291.44</ele>
        <time>2014-09-15T12:30:55Z</time>
      </trkpt>
      <trkpt lat="45.14367" lon="6.22147">
        <ele>2291.44</ele>
        <time>2014-09-15T12:30:56Z</time>
      </trkpt>
      <trkpt lat="45.14367" lon="6.22146">
        <ele>2291.44</ele>
        <time>2014-09-15T12:30:57Z</time>
      </trkpt>
      <trkpt lat="45.14367" lon="6.22144">
        <ele>2291.44</ele>
        <time>2014-09-15T12:30:58Z</time>
      </trkpt>
      <trkpt lat="45.14366" lon="6.22137">
        <ele>2291.44</ele>
        <time>2014-09-15T12:31:05Z</time>
      </trkpt>
      <trkpt lat="45.14358" lon="6.22114">
        <ele>2290</ele>
        <time>2014-09-15T12:31:19Z</time>
      </trkpt>
      <trkpt lat="45.14351" lon="6.22097">
        <ele>2289.52</ele>
        <time>2014-09-15T12:31:27Z</time>
      </trkpt>
      <trkpt lat="45.14349" lon="6.22094">
        <ele>2289.52</ele>
        <time>2014-09-15T12:31:28Z</time>
      </trkpt>
      <trkpt lat="45.14347" lon="6.22091">
        <ele>2289.04</ele>
        <time>2014-09-15T12:31:29Z</time>
      </trkpt>
      <trkpt lat="45.14345" lon="6.2209">
        <ele>2289.04</ele>
        <time>2014-09-15T12:31:30Z</time>
      </trkpt>
      <trkpt lat="45.14343" lon="6.22088">
        <ele>2289.04</ele>
        <time>2014-09-15T12:31:31Z</time>
      </trkpt>
      <trkpt lat="45.14324" lon="6.22062">
        <ele>2288.56</ele>
        <time>2014-09-15T12:31:42Z</time>
      </trkpt>
      <trkpt lat="45.1432" lon="6.22055">
        <ele>2288.56</ele>
        <time>2014-09-15T12:31:46Z</time>
      </trkpt>
      <trkpt lat="45.1432" lon="6.22053">
        <ele>2288.56</ele>
        <time>2014-09-15T12:31:47Z</time>
      </trkpt>
      <trkpt lat="45.1432" lon="6.22051">
        <ele>2288.56</ele>
        <time>2014-09-15T12:31:48Z</time>
      </trkpt>
      <trkpt lat="45.14319" lon="6.22049">
        <ele>2288.56</ele>
        <time>2014-09-15T12:31:49Z</time>
      </trkpt>
      <trkpt lat="45.14319" lon="6.22048">
        <ele>2288.56</ele>
        <time>2014-09-15T12:31:50Z</time>
      </trkpt>
      <trkpt lat="45.14304" lon="6.22019">
        <ele>2288.56</ele>
        <time>2014-09-15T12:32:03Z</time>
      </trkpt>
      <trkpt lat="45.14291" lon="6.21991">
        <ele>2288.08</ele>
        <time>2014-09-15T12:32:15Z</time>
      </trkpt>
      <trkpt lat="45.1429" lon="6.21961">
        <ele>2287.59</ele>
        <time>2014-09-15T12:32:26Z</time>
      </trkpt>
      <trkpt lat="45.14281" lon="6.2191">
        <ele>2286.15</ele>
        <time>2014-09-15T12:32:40Z</time>
      </trkpt>
      <trkpt lat="45.14281" lon="6.21903">
        <ele>2287.59</ele>
        <time>2014-09-15T12:32:43Z</time>
      </trkpt>
      <trkpt lat="45.14284" lon="6.21877">
        <ele>2288.08</ele>
        <time>2014-09-15T12:32:50Z</time>
      </trkpt>
      <trkpt lat="45.14282" lon="6.21872">
        <ele>2288.08</ele>
        <time>2014-09-15T12:32:51Z</time>
      </trkpt>
      <trkpt lat="45.1428" lon="6.2187">
        <ele>2288.08</ele>
        <time>2014-09-15T12:32:52Z</time>
      </trkpt>
      <trkpt lat="45.14277" lon="6.21869">
        <ele>2288.08</ele>
        <time>2014-09-15T12:32:53Z</time>
      </trkpt>
      <trkpt lat="45.14275" lon="6.21868">
        <ele>2288.08</ele>
        <time>2014-09-15T12:32:54Z</time>
      </trkpt>
      <trkpt lat="45.14273" lon="6.21867">
        <ele>2288.08</ele>
        <time>2014-09-15T12:32:55Z</time>
      </trkpt>
      <trkpt lat="45.1427" lon="6.21865">
        <ele>2288.08</ele>
        <time>2014-09-15T12:32:56Z</time>
      </trkpt>
      <trkpt lat="45.14269" lon="6.21863">
        <ele>2288.08</ele>
        <time>2014-09-15T12:32:57Z</time>
      </trkpt>
      <trkpt lat="45.14267" lon="6.21861">
        <ele>2288.08</ele>
        <time>2014-09-15T12:32:58Z</time>
      </trkpt>
      <trkpt lat="45.14266" lon="6.21859">
        <ele>2288.08</ele>
        <time>2014-09-15T12:32:59Z</time>
      </trkpt>
      <trkpt lat="45.14265" lon="6.21857">
        <ele>2288.08</ele>
        <time>2014-09-15T12:33:00Z</time>
      </trkpt>
      <trkpt lat="45.14265" lon="6.21854">
        <ele>2288.56</ele>
        <time>2014-09-15T12:33:01Z</time>
      </trkpt>
      <trkpt lat="45.14259" lon="6.21809">
        <ele>2288.56</ele>
        <time>2014-09-15T12:33:16Z</time>
      </trkpt>
      <trkpt lat="45.14282" lon="6.21785">
        <ele>2289.04</ele>
        <time>2014-09-15T12:33:29Z</time>
      </trkpt>
      <trkpt lat="45.14311" lon="6.21764">
        <ele>2289.52</ele>
        <time>2014-09-15T12:33:45Z</time>
      </trkpt>
      <trkpt lat="45.14325" lon="6.21752">
        <ele>2289.52</ele>
        <time>2014-09-15T12:34:01Z</time>
      </trkpt>
      <trkpt lat="45.14324" lon="6.21751">
        <ele>2289.52</ele>
        <time>2014-09-15T12:34:21Z</time>
      </trkpt>
      <trkpt lat="45.14324" lon="6.21749">
        <ele>2289.52</ele>
        <time>2014-09-15T12:34:57Z</time>
      </trkpt>
      <trkpt lat="45.14335" lon="6.21742">
        <ele>2289.52</ele>
        <time>2014-09-15T12:35:13Z</time>
      </trkpt>
      <trkpt lat="45.14342" lon="6.21733">
        <ele>2285.67</ele>
        <time>2014-09-15T12:35:15Z</time>
      </trkpt>
      <trkpt lat="45.14348" lon="6.21723">
        <ele>2283.27</ele>
        <time>2014-09-15T12:35:17Z</time>
      </trkpt>
      <trkpt lat="45.14359" lon="6.21709">
        <ele>2280.38</ele>
        <time>2014-09-15T12:35:20Z</time>
      </trkpt>
      <trkpt lat="45.14371" lon="6.21694">
        <ele>2277.5</ele>
        <time>2014-09-15T12:35:23Z</time>
      </trkpt>
      <trkpt lat="45.14383" lon="6.21683">
        <ele>2276.06</ele>
        <time>2014-09-15T12:35:28Z</time>
      </trkpt>
      <trkpt lat="45.14382" lon="6.21682">
        <ele>2275.58</ele>
        <time>2014-09-15T12:35:29Z</time>
      </trkpt>
      <trkpt lat="45.1438" lon="6.21682">
        <ele>2274.62</ele>
        <time>2014-09-15T12:35:32Z</time>
      </trkpt>
      <trkpt lat="45.14379" lon="6.21683">
        <ele>2274.62</ele>
        <time>2014-09-15T12:35:33Z</time>
      </trkpt>
      <trkpt lat="45.14377" lon="6.21684">
        <ele>2274.62</ele>
        <time>2014-09-15T12:35:34Z</time>
      </trkpt>
      <trkpt lat="45.14374" lon="6.21684">
        <ele>2274.62</ele>
        <time>2014-09-15T12:35:45Z</time>
      </trkpt>
      <trkpt lat="45.14354" lon="6.21691">
        <ele>2272.21</ele>
        <time>2014-09-15T12:35:53Z</time>
      </trkpt>
      <trkpt lat="45.14342" lon="6.21695">
        <ele>2270.29</ele>
        <time>2014-09-15T12:36:03Z</time>
      </trkpt>
      <trkpt lat="45.14344" lon="6.21692">
        <ele>2268.85</ele>
        <time>2014-09-15T12:36:06Z</time>
      </trkpt>
      <trkpt lat="45.14347" lon="6.21688">
        <ele>2268.37</ele>
        <time>2014-09-15T12:36:07Z</time>
      </trkpt>
      <trkpt lat="45.14351" lon="6.21683">
        <ele>2267.89</ele>
        <time>2014-09-15T12:36:08Z</time>
      </trkpt>
      <trkpt lat="45.14375" lon="6.21659">
        <ele>2265</ele>
        <time>2014-09-15T12:36:13Z</time>
      </trkpt>
      <trkpt lat="45.14384" lon="6.21652">
        <ele>2263.56</ele>
        <time>2014-09-15T12:36:16Z</time>
      </trkpt>
      <trkpt lat="45.14387" lon="6.21653">
        <ele>2263.56</ele>
        <time>2014-09-15T12:36:17Z</time>
      </trkpt>
      <trkpt lat="45.14389" lon="6.21653">
        <ele>2263.08</ele>
        <time>2014-09-15T12:36:18Z</time>
      </trkpt>
      <trkpt lat="45.14392" lon="6.21653">
        <ele>2263.08</ele>
        <time>2014-09-15T12:36:19Z</time>
      </trkpt>
      <trkpt lat="45.14394" lon="6.21652">
        <ele>2263.08</ele>
        <time>2014-09-15T12:36:20Z</time>
      </trkpt>
      <trkpt lat="45.14394" lon="6.2165">
        <ele>2263.08</ele>
        <time>2014-09-15T12:36:21Z</time>
      </trkpt>
      <trkpt lat="45.14395" lon="6.21649">
        <ele>2263.08</ele>
        <time>2014-09-15T12:36:22Z</time>
      </trkpt>
      <trkpt lat="45.14397" lon="6.21646">
        <ele>2263.08</ele>
        <time>2014-09-15T12:36:23Z</time>
      </trkpt>
      <trkpt lat="45.144" lon="6.21642">
        <ele>2264.52</ele>
        <time>2014-09-15T12:36:26Z</time>
      </trkpt>
      <trkpt lat="45.14411" lon="6.21628">
        <ele>2262.12</ele>
        <time>2014-09-15T12:36:30Z</time>
      </trkpt>
      <trkpt lat="45.1443" lon="6.21606">
        <ele>2259.24</ele>
        <time>2014-09-15T12:36:34Z</time>
      </trkpt>
      <trkpt lat="45.14453" lon="6.2158">
        <ele>2255.87</ele>
        <time>2014-09-15T12:36:39Z</time>
      </trkpt>
      <trkpt lat="45.14464" lon="6.21571">
        <ele>2253.95</ele>
        <time>2014-09-15T12:36:41Z</time>
      </trkpt>
      <trkpt lat="45.14469" lon="6.21567">
        <ele>2253.47</ele>
        <time>2014-09-15T12:36:42Z</time>
      </trkpt>
      <trkpt lat="45.14486" lon="6.21552">
        <ele>2251.06</ele>
        <time>2014-09-15T12:36:49Z</time>
      </trkpt>
      <trkpt lat="45.14488" lon="6.2155">
        <ele>2251.06</ele>
        <time>2014-09-15T12:36:51Z</time>
      </trkpt>
      <trkpt lat="45.14487" lon="6.21548">
        <ele>2250.1</ele>
        <time>2014-09-15T12:36:53Z</time>
      </trkpt>
      <trkpt lat="45.14485" lon="6.21547">
        <ele>2249.62</ele>
        <time>2014-09-15T12:36:54Z</time>
      </trkpt>
      <trkpt lat="45.14464" lon="6.2155">
        <ele>2247.7</ele>
        <time>2014-09-15T12:37:01Z</time>
      </trkpt>
      <trkpt lat="45.1446" lon="6.21551">
        <ele>2246.74</ele>
        <time>2014-09-15T12:37:02Z</time>
      </trkpt>
      <trkpt lat="45.14439" lon="6.21553">
        <ele>2243.85</ele>
        <time>2014-09-15T12:37:09Z</time>
      </trkpt>
      <trkpt lat="45.14434" lon="6.21553">
        <ele>2243.37</ele>
        <time>2014-09-15T12:37:13Z</time>
      </trkpt>
      <trkpt lat="45.14434" lon="6.2155">
        <ele>2241.93</ele>
        <time>2014-09-15T12:37:16Z</time>
      </trkpt>
      <trkpt lat="45.14436" lon="6.21548">
        <ele>2241.45</ele>
        <time>2014-09-15T12:37:17Z</time>
      </trkpt>
      <trkpt lat="45.14439" lon="6.21545">
        <ele>2241.45</ele>
        <time>2014-09-15T12:37:18Z</time>
      </trkpt>
      <trkpt lat="45.14451" lon="6.21532">
        <ele>2240.01</ele>
        <time>2014-09-15T12:37:21Z</time>
      </trkpt>
      <trkpt lat="45.1446" lon="6.21524">
        <ele>2238.09</ele>
        <time>2014-09-15T12:37:23Z</time>
      </trkpt>
      <trkpt lat="45.14465" lon="6.21519">
        <ele>2238.09</ele>
        <time>2014-09-15T12:37:24Z</time>
      </trkpt>
      <trkpt lat="45.14468" lon="6.21515">
        <ele>2237.61</ele>
        <time>2014-09-15T12:37:25Z</time>
      </trkpt>
      <trkpt lat="45.14472" lon="6.21512">
        <ele>2236.64</ele>
        <time>2014-09-15T12:37:26Z</time>
      </trkpt>
      <trkpt lat="45.14475" lon="6.2151">
        <ele>2236.64</ele>
        <time>2014-09-15T12:37:27Z</time>
      </trkpt>
      <trkpt lat="45.14486" lon="6.21507">
        <ele>2235.2</ele>
        <time>2014-09-15T12:37:31Z</time>
      </trkpt>
      <trkpt lat="45.1449" lon="6.21504">
        <ele>2234.72</ele>
        <time>2014-09-15T12:37:32Z</time>
      </trkpt>
      <trkpt lat="45.14495" lon="6.21496">
        <ele>2234.24</ele>
        <time>2014-09-15T12:37:34Z</time>
      </trkpt>
      <trkpt lat="45.145" lon="6.21493">
        <ele>2233.76</ele>
        <time>2014-09-15T12:37:35Z</time>
      </trkpt>
      <trkpt lat="45.14504" lon="6.21489">
        <ele>2233.76</ele>
        <time>2014-09-15T12:37:36Z</time>
      </trkpt>
      <trkpt lat="45.14512" lon="6.21484">
        <ele>2232.32</ele>
        <time>2014-09-15T12:37:38Z</time>
      </trkpt>
      <trkpt lat="45.14516" lon="6.21483">
        <ele>2231.84</ele>
        <time>2014-09-15T12:37:39Z</time>
      </trkpt>
      <trkpt lat="45.14521" lon="6.21481">
        <ele>2230.88</ele>
        <time>2014-09-15T12:37:40Z</time>
      </trkpt>
      <trkpt lat="45.14525" lon="6.21479">
        <ele>2230.88</ele>
        <time>2014-09-15T12:37:41Z</time>
      </trkpt>
      <trkpt lat="45.14539" lon="6.21475">
        <ele>2229.43</ele>
        <time>2014-09-15T12:37:45Z</time>
      </trkpt>
      <trkpt lat="45.14542" lon="6.21475">
        <ele>2228.47</ele>
        <time>2014-09-15T12:37:46Z</time>
      </trkpt>
      <trkpt lat="45.14555" lon="6.21468">
        <ele>2227.99</ele>
        <time>2014-09-15T12:37:53Z</time>
      </trkpt>
      <trkpt lat="45.14556" lon="6.21469">
        <ele>2227.51</ele>
        <time>2014-09-15T12:37:54Z</time>
      </trkpt>
      <trkpt lat="45.14563" lon="6.21468">
        <ele>2225.59</ele>
        <time>2014-09-15T12:38:04Z</time>
      </trkpt>
      <trkpt lat="45.14566" lon="6.21463">
        <ele>2225.11</ele>
        <time>2014-09-15T12:38:14Z</time>
      </trkpt>
      <trkpt lat="45.1457" lon="6.21456">
        <ele>2225.11</ele>
        <time>2014-09-15T12:38:22Z</time>
      </trkpt>
      <trkpt lat="45.14571" lon="6.21455">
        <ele>2225.11</ele>
        <time>2014-09-15T12:38:23Z</time>
      </trkpt>
      <trkpt lat="45.14572" lon="6.21453">
        <ele>2225.11</ele>
        <time>2014-09-15T12:38:24Z</time>
      </trkpt>
      <trkpt lat="45.14574" lon="6.21451">
        <ele>2225.11</ele>
        <time>2014-09-15T12:38:25Z</time>
      </trkpt>
      <trkpt lat="45.14576" lon="6.21449">
        <ele>2225.11</ele>
        <time>2014-09-15T12:38:26Z</time>
      </trkpt>
      <trkpt lat="45.14578" lon="6.21448">
        <ele>2225.11</ele>
        <time>2014-09-15T12:38:27Z</time>
      </trkpt>
      <trkpt lat="45.1458" lon="6.21448">
        <ele>2225.11</ele>
        <time>2014-09-15T12:38:28Z</time>
      </trkpt>
      <trkpt lat="45.14582" lon="6.21448">
        <ele>2225.11</ele>
        <time>2014-09-15T12:38:29Z</time>
      </trkpt>
      <trkpt lat="45.14584" lon="6.21449">
        <ele>2225.11</ele>
        <time>2014-09-15T12:38:30Z</time>
      </trkpt>
      <trkpt lat="45.14588" lon="6.21449">
        <ele>2224.15</ele>
        <time>2014-09-15T12:38:33Z</time>
      </trkpt>
      <trkpt lat="45.1459" lon="6.21445">
        <ele>2223.67</ele>
        <time>2014-09-15T12:38:41Z</time>
      </trkpt>
      <trkpt lat="45.14591" lon="6.2144">
        <ele>2224.63</ele>
        <time>2014-09-15T12:38:47Z</time>
      </trkpt>
      <trkpt lat="45.14591" lon="6.21437">
        <ele>2226.07</ele>
        <time>2014-09-15T12:38:54Z</time>
      </trkpt>
      <trkpt lat="45.14591" lon="6.21435">
        <ele>2226.07</ele>
        <time>2014-09-15T12:38:55Z</time>
      </trkpt>
      <trkpt lat="45.14591" lon="6.21424">
        <ele>2227.99</ele>
        <time>2014-09-15T12:39:07Z</time>
      </trkpt>
      <trkpt lat="45.14592" lon="6.21421">
        <ele>2227.99</ele>
        <time>2014-09-15T12:39:14Z</time>
      </trkpt>
      <trkpt lat="45.14592" lon="6.21419">
        <ele>2227.99</ele>
        <time>2014-09-15T12:39:15Z</time>
      </trkpt>
      <trkpt lat="45.14593" lon="6.21417">
        <ele>2227.99</ele>
        <time>2014-09-15T12:39:16Z</time>
      </trkpt>
      <trkpt lat="45.14593" lon="6.21413">
        <ele>2227.99</ele>
        <time>2014-09-15T12:39:17Z</time>
      </trkpt>
      <trkpt lat="45.14595" lon="6.21409">
        <ele>2227.99</ele>
        <time>2014-09-15T12:39:18Z</time>
      </trkpt>
      <trkpt lat="45.14596" lon="6.21404">
        <ele>2227.99</ele>
        <time>2014-09-15T12:39:19Z</time>
      </trkpt>
      <trkpt lat="45.14599" lon="6.21394">
        <ele>2226.55</ele>
        <time>2014-09-15T12:39:21Z</time>
      </trkpt>
      <trkpt lat="45.14602" lon="6.21388">
        <ele>2225.59</ele>
        <time>2014-09-15T12:39:22Z</time>
      </trkpt>
      <trkpt lat="45.14614" lon="6.21367">
        <ele>2223.67</ele>
        <time>2014-09-15T12:39:29Z</time>
      </trkpt>
      <trkpt lat="45.14614" lon="6.21365">
        <ele>2223.19</ele>
        <time>2014-09-15T12:39:30Z</time>
      </trkpt>
      <trkpt lat="45.14612" lon="6.21365">
        <ele>2222.22</ele>
        <time>2014-09-15T12:39:31Z</time>
      </trkpt>
      <trkpt lat="45.14611" lon="6.21365">
        <ele>2222.22</ele>
        <time>2014-09-15T12:39:32Z</time>
      </trkpt>
      <trkpt lat="45.14609" lon="6.21366">
        <ele>2221.74</ele>
        <time>2014-09-15T12:39:33Z</time>
      </trkpt>
      <trkpt lat="45.14606" lon="6.21366">
        <ele>2221.26</ele>
        <time>2014-09-15T12:39:34Z</time>
      </trkpt>
      <trkpt lat="45.14602" lon="6.21367">
        <ele>2220.78</ele>
        <time>2014-09-15T12:39:35Z</time>
      </trkpt>
      <trkpt lat="45.14586" lon="6.21372">
        <ele>2217.42</ele>
        <time>2014-09-15T12:39:38Z</time>
      </trkpt>
      <trkpt lat="45.14571" lon="6.21375">
        <ele>2214.05</ele>
        <time>2014-09-15T12:39:44Z</time>
      </trkpt>
      <trkpt lat="45.1457" lon="6.21374">
        <ele>2214.05</ele>
        <time>2014-09-15T12:39:45Z</time>
      </trkpt>
      <trkpt lat="45.1457" lon="6.21372">
        <ele>2213.57</ele>
        <time>2014-09-15T12:39:46Z</time>
      </trkpt>
      <trkpt lat="45.14571" lon="6.21369">
        <ele>2213.57</ele>
        <time>2014-09-15T12:39:47Z</time>
      </trkpt>
      <trkpt lat="45.14574" lon="6.21364">
        <ele>2212.61</ele>
        <time>2014-09-15T12:39:48Z</time>
      </trkpt>
      <trkpt lat="45.14584" lon="6.21344">
        <ele>2208.77</ele>
        <time>2014-09-15T12:39:51Z</time>
      </trkpt>
      <trkpt lat="45.14598" lon="6.21316">
        <ele>2204.44</ele>
        <time>2014-09-15T12:39:55Z</time>
      </trkpt>
      <trkpt lat="45.14618" lon="6.21277">
        <ele>2200.59</ele>
        <time>2014-09-15T12:40:00Z</time>
      </trkpt>
      <trkpt lat="45.14625" lon="6.2126">
        <ele>2199.15</ele>
        <time>2014-09-15T12:40:03Z</time>
      </trkpt>
      <trkpt lat="45.1463" lon="6.21255">
        <ele>2196.75</ele>
        <time>2014-09-15T12:40:08Z</time>
      </trkpt>
      <trkpt lat="45.14632" lon="6.21255">
        <ele>2196.75</ele>
        <time>2014-09-15T12:40:09Z</time>
      </trkpt>
      <trkpt lat="45.14634" lon="6.21253">
        <ele>2196.75</ele>
        <time>2014-09-15T12:40:10Z</time>
      </trkpt>
      <trkpt lat="45.14642" lon="6.21248">
        <ele>2193.39</ele>
        <time>2014-09-15T12:40:14Z</time>
      </trkpt>
      <trkpt lat="45.14647" lon="6.21244">
        <ele>2191.94</ele>
        <time>2014-09-15T12:40:17Z</time>
      </trkpt>
      <trkpt lat="45.14659" lon="6.21239">
        <ele>2188.58</ele>
        <time>2014-09-15T12:40:28Z</time>
      </trkpt>
      <trkpt lat="45.14665" lon="6.21238">
        <ele>2188.58</ele>
        <time>2014-09-15T12:40:40Z</time>
      </trkpt>
      <trkpt lat="45.14667" lon="6.21238">
        <ele>2190.5</ele>
        <time>2014-09-15T12:40:43Z</time>
      </trkpt>
      <trkpt lat="45.14672" lon="6.21234">
        <ele>2192.42</ele>
        <time>2014-09-15T12:40:58Z</time>
      </trkpt>
      <trkpt lat="45.14671" lon="6.2123">
        <ele>2192.9</ele>
        <time>2014-09-15T12:41:11Z</time>
      </trkpt>
      <trkpt lat="45.1467" lon="6.21227">
        <ele>2192.9</ele>
        <time>2014-09-15T12:41:17Z</time>
      </trkpt>
      <trkpt lat="45.14668" lon="6.21215">
        <ele>2193.87</ele>
        <time>2014-09-15T12:41:29Z</time>
      </trkpt>
      <trkpt lat="45.14667" lon="6.21209">
        <ele>2194.35</ele>
        <time>2014-09-15T12:41:37Z</time>
      </trkpt>
      <trkpt lat="45.14666" lon="6.21207">
        <ele>2194.35</ele>
        <time>2014-09-15T12:41:38Z</time>
      </trkpt>
      <trkpt lat="45.14648" lon="6.21191">
        <ele>2195.79</ele>
        <time>2014-09-15T12:41:49Z</time>
      </trkpt>
      <trkpt lat="45.1464" lon="6.21169">
        <ele>2196.27</ele>
        <time>2014-09-15T12:42:01Z</time>
      </trkpt>
      <trkpt lat="45.14633" lon="6.21165">
        <ele>2197.23</ele>
        <time>2014-09-15T12:42:12Z</time>
      </trkpt>
      <trkpt lat="45.14619" lon="6.21156">
        <ele>2199.15</ele>
        <time>2014-09-15T12:42:26Z</time>
      </trkpt>
      <trkpt lat="45.14616" lon="6.21152">
        <ele>2199.63</ele>
        <time>2014-09-15T12:42:29Z</time>
      </trkpt>
      <trkpt lat="45.14612" lon="6.21137">
        <ele>2199.63</ele>
        <time>2014-09-15T12:42:39Z</time>
      </trkpt>
      <trkpt lat="45.14602" lon="6.21096">
        <ele>2200.11</ele>
        <time>2014-09-15T12:42:52Z</time>
      </trkpt>
      <trkpt lat="45.14578" lon="6.2107">
        <ele>2197.71</ele>
        <time>2014-09-15T12:42:59Z</time>
      </trkpt>
      <trkpt lat="45.14559" lon="6.21052">
        <ele>2196.75</ele>
        <time>2014-09-15T12:43:03Z</time>
      </trkpt>
      <trkpt lat="45.14554" lon="6.21047">
        <ele>2195.79</ele>
        <time>2014-09-15T12:43:04Z</time>
      </trkpt>
      <trkpt lat="45.14548" lon="6.21042">
        <ele>2194.83</ele>
        <time>2014-09-15T12:43:05Z</time>
      </trkpt>
      <trkpt lat="45.14529" lon="6.21028">
        <ele>2193.39</ele>
        <time>2014-09-15T12:43:08Z</time>
      </trkpt>
      <trkpt lat="45.14516" lon="6.2102">
        <ele>2191.46</ele>
        <time>2014-09-15T12:43:10Z</time>
      </trkpt>
      <trkpt lat="45.14504" lon="6.21012">
        <ele>2190.5</ele>
        <time>2014-09-15T12:43:12Z</time>
      </trkpt>
      <trkpt lat="45.14498" lon="6.21006">
        <ele>2189.54</ele>
        <time>2014-09-15T12:43:13Z</time>
      </trkpt>
      <trkpt lat="45.14492" lon="6.21001">
        <ele>2189.06</ele>
        <time>2014-09-15T12:43:14Z</time>
      </trkpt>
      <trkpt lat="45.14485" lon="6.20997">
        <ele>2189.06</ele>
        <time>2014-09-15T12:43:15Z</time>
      </trkpt>
      <trkpt lat="45.14479" lon="6.20995">
        <ele>2188.58</ele>
        <time>2014-09-15T12:43:16Z</time>
      </trkpt>
      <trkpt lat="45.14472" lon="6.20993">
        <ele>2188.58</ele>
        <time>2014-09-15T12:43:17Z</time>
      </trkpt>
      <trkpt lat="45.14466" lon="6.20991">
        <ele>2187.62</ele>
        <time>2014-09-15T12:43:18Z</time>
      </trkpt>
      <trkpt lat="45.14461" lon="6.20987">
        <ele>2187.14</ele>
        <time>2014-09-15T12:43:19Z</time>
      </trkpt>
      <trkpt lat="45.14452" lon="6.20978">
        <ele>2185.69</ele>
        <time>2014-09-15T12:43:21Z</time>
      </trkpt>
      <trkpt lat="45.14446" lon="6.20976">
        <ele>2186.18</ele>
        <time>2014-09-15T12:43:22Z</time>
      </trkpt>
      <trkpt lat="45.14441" lon="6.20974">
        <ele>2185.69</ele>
        <time>2014-09-15T12:43:23Z</time>
      </trkpt>
      <trkpt lat="45.14437" lon="6.20971">
        <ele>2185.69</ele>
        <time>2014-09-15T12:43:24Z</time>
      </trkpt>
      <trkpt lat="45.14433" lon="6.20967">
        <ele>2185.69</ele>
        <time>2014-09-15T12:43:25Z</time>
      </trkpt>
      <trkpt lat="45.14429" lon="6.20964">
        <ele>2185.69</ele>
        <time>2014-09-15T12:43:26Z</time>
      </trkpt>
      <trkpt lat="45.14425" lon="6.20961">
        <ele>2184.73</ele>
        <time>2014-09-15T12:43:27Z</time>
      </trkpt>
      <trkpt lat="45.1442" lon="6.20958">
        <ele>2184.73</ele>
        <time>2014-09-15T12:43:28Z</time>
      </trkpt>
      <trkpt lat="45.14414" lon="6.20955">
        <ele>2184.25</ele>
        <time>2014-09-15T12:43:29Z</time>
      </trkpt>
      <trkpt lat="45.14409" lon="6.20954">
        <ele>2183.77</ele>
        <time>2014-09-15T12:43:30Z</time>
      </trkpt>
      <trkpt lat="45.14404" lon="6.2095">
        <ele>2183.29</ele>
        <time>2014-09-15T12:43:31Z</time>
      </trkpt>
      <trkpt lat="45.14399" lon="6.20946">
        <ele>2182.81</ele>
        <time>2014-09-15T12:43:32Z</time>
      </trkpt>
      <trkpt lat="45.14393" lon="6.2094">
        <ele>2181.37</ele>
        <time>2014-09-15T12:43:33Z</time>
      </trkpt>
      <trkpt lat="45.1438" lon="6.20932">
        <ele>2179.93</ele>
        <time>2014-09-15T12:43:35Z</time>
      </trkpt>
      <trkpt lat="45.14368" lon="6.20925">
        <ele>2178.48</ele>
        <time>2014-09-15T12:43:37Z</time>
      </trkpt>
      <trkpt lat="45.14363" lon="6.20921">
        <ele>2178</ele>
        <time>2014-09-15T12:43:38Z</time>
      </trkpt>
      <trkpt lat="45.1436" lon="6.20916">
        <ele>2178</ele>
        <time>2014-09-15T12:43:39Z</time>
      </trkpt>
      <trkpt lat="45.14357" lon="6.20912">
        <ele>2176.56</ele>
        <time>2014-09-15T12:43:40Z</time>
      </trkpt>
      <trkpt lat="45.14355" lon="6.2091">
        <ele>2176.08</ele>
        <time>2014-09-15T12:43:41Z</time>
      </trkpt>
      <trkpt lat="45.14352" lon="6.20912">
        <ele>2175.12</ele>
        <time>2014-09-15T12:43:42Z</time>
      </trkpt>
      <trkpt lat="45.14349" lon="6.20916">
        <ele>2174.16</ele>
        <time>2014-09-15T12:43:43Z</time>
      </trkpt>
      <trkpt lat="45.14345" lon="6.2092">
        <ele>2173.2</ele>
        <time>2014-09-15T12:43:44Z</time>
      </trkpt>
      <trkpt lat="45.14342" lon="6.20921">
        <ele>2171.76</ele>
        <time>2014-09-15T12:43:45Z</time>
      </trkpt>
      <trkpt lat="45.14338" lon="6.20916">
        <ele>2170.31</ele>
        <time>2014-09-15T12:43:47Z</time>
      </trkpt>
      <trkpt lat="45.14336" lon="6.20911">
        <ele>2169.83</ele>
        <time>2014-09-15T12:43:48Z</time>
      </trkpt>
      <trkpt lat="45.14334" lon="6.20905">
        <ele>2168.87</ele>
        <time>2014-09-15T12:43:49Z</time>
      </trkpt>
      <trkpt lat="45.14333" lon="6.20899">
        <ele>2167.43</ele>
        <time>2014-09-15T12:43:50Z</time>
      </trkpt>
      <trkpt lat="45.1433" lon="6.20896">
        <ele>2166.47</ele>
        <time>2014-09-15T12:43:51Z</time>
      </trkpt>
      <trkpt lat="45.14327" lon="6.20896">
        <ele>2165.03</ele>
        <time>2014-09-15T12:43:52Z</time>
      </trkpt>
      <trkpt lat="45.14324" lon="6.20897">
        <ele>2164.55</ele>
        <time>2014-09-15T12:43:53Z</time>
      </trkpt>
      <trkpt lat="45.1432" lon="6.20898">
        <ele>2163.58</ele>
        <time>2014-09-15T12:43:54Z</time>
      </trkpt>
      <trkpt lat="45.14316" lon="6.20897">
        <ele>2162.14</ele>
        <time>2014-09-15T12:43:55Z</time>
      </trkpt>
      <trkpt lat="45.14314" lon="6.20895">
        <ele>2161.18</ele>
        <time>2014-09-15T12:43:56Z</time>
      </trkpt>
      <trkpt lat="45.14313" lon="6.20892">
        <ele>2160.7</ele>
        <time>2014-09-15T12:43:57Z</time>
      </trkpt>
      <trkpt lat="45.14312" lon="6.20891">
        <ele>2160.22</ele>
        <time>2014-09-15T12:43:58Z</time>
      </trkpt>
      <trkpt lat="45.14312" lon="6.20889">
        <ele>2159.26</ele>
        <time>2014-09-15T12:43:59Z</time>
      </trkpt>
      <trkpt lat="45.14313" lon="6.20887">
        <ele>2158.78</ele>
        <time>2014-09-15T12:44:00Z</time>
      </trkpt>
      <trkpt lat="45.14317" lon="6.20881">
        <ele>2156.86</ele>
        <time>2014-09-15T12:44:04Z</time>
      </trkpt>
      <trkpt lat="45.14321" lon="6.2088">
        <ele>2155.89</ele>
        <time>2014-09-15T12:44:06Z</time>
      </trkpt>
      <trkpt lat="45.14323" lon="6.20877">
        <ele>2154.93</ele>
        <time>2014-09-15T12:44:08Z</time>
      </trkpt>
      <trkpt lat="45.14323" lon="6.20876">
        <ele>2153.97</ele>
        <time>2014-09-15T12:44:09Z</time>
      </trkpt>
      <trkpt lat="45.14322" lon="6.20874">
        <ele>2153.49</ele>
        <time>2014-09-15T12:44:10Z</time>
      </trkpt>
      <trkpt lat="45.1432" lon="6.20874">
        <ele>2152.53</ele>
        <time>2014-09-15T12:44:12Z</time>
      </trkpt>
      <trkpt lat="45.14311" lon="6.20872">
        <ele>2149.16</ele>
        <time>2014-09-15T12:44:16Z</time>
      </trkpt>
      <trkpt lat="45.14307" lon="6.2087">
        <ele>2147.72</ele>
        <time>2014-09-15T12:44:18Z</time>
      </trkpt>
      <trkpt lat="45.14307" lon="6.20869">
        <ele>2147.24</ele>
        <time>2014-09-15T12:44:19Z</time>
      </trkpt>
      <trkpt lat="45.14307" lon="6.20867">
        <ele>2147.24</ele>
        <time>2014-09-15T12:44:20Z</time>
      </trkpt>
      <trkpt lat="45.14308" lon="6.20866">
        <ele>2147.24</ele>
        <time>2014-09-15T12:44:21Z</time>
      </trkpt>
      <trkpt lat="45.1431" lon="6.20865">
        <ele>2146.76</ele>
        <time>2014-09-15T12:44:22Z</time>
      </trkpt>
      <trkpt lat="45.14313" lon="6.20864">
        <ele>2146.76</ele>
        <time>2014-09-15T12:44:23Z</time>
      </trkpt>
      <trkpt lat="45.14316" lon="6.20863">
        <ele>2146.28</ele>
        <time>2014-09-15T12:44:24Z</time>
      </trkpt>
      <trkpt lat="45.14318" lon="6.20862">
        <ele>2145.8</ele>
        <time>2014-09-15T12:44:25Z</time>
      </trkpt>
      <trkpt lat="45.1432" lon="6.20861">
        <ele>2144.84</ele>
        <time>2014-09-15T12:44:26Z</time>
      </trkpt>
      <trkpt lat="45.14321" lon="6.20861">
        <ele>2144.84</ele>
        <time>2014-09-15T12:44:27Z</time>
      </trkpt>
      <trkpt lat="45.14327" lon="6.20857">
        <ele>2142.44</ele>
        <time>2014-09-15T12:44:32Z</time>
      </trkpt>
      <trkpt lat="45.14326" lon="6.20855">
        <ele>2141.47</ele>
        <time>2014-09-15T12:44:35Z</time>
      </trkpt>
      <trkpt lat="45.14325" lon="6.20855">
        <ele>2141.47</ele>
        <time>2014-09-15T12:44:36Z</time>
      </trkpt>
      <trkpt lat="45.14323" lon="6.20854">
        <ele>2140.99</ele>
        <time>2014-09-15T12:44:37Z</time>
      </trkpt>
      <trkpt lat="45.14321" lon="6.20853">
        <ele>2140.51</ele>
        <time>2014-09-15T12:44:38Z</time>
      </trkpt>
      <trkpt lat="45.14318" lon="6.20852">
        <ele>2139.55</ele>
        <time>2014-09-15T12:44:39Z</time>
      </trkpt>
      <trkpt lat="45.14306" lon="6.20847">
        <ele>2136.67</ele>
        <time>2014-09-15T12:44:43Z</time>
      </trkpt>
      <trkpt lat="45.14295" lon="6.20845">
        <ele>2133.3</ele>
        <time>2014-09-15T12:44:48Z</time>
      </trkpt>
      <trkpt lat="45.14295" lon="6.20843">
        <ele>2132.34</ele>
        <time>2014-09-15T12:44:49Z</time>
      </trkpt>
      <trkpt lat="45.14295" lon="6.20841">
        <ele>2131.86</ele>
        <time>2014-09-15T12:44:50Z</time>
      </trkpt>
      <trkpt lat="45.14296" lon="6.20839">
        <ele>2131.38</ele>
        <time>2014-09-15T12:44:51Z</time>
      </trkpt>
      <trkpt lat="45.14297" lon="6.20838">
        <ele>2130.9</ele>
        <time>2014-09-15T12:44:52Z</time>
      </trkpt>
      <trkpt lat="45.14301" lon="6.20833">
        <ele>2129.46</ele>
        <time>2014-09-15T12:44:55Z</time>
      </trkpt>
      <trkpt lat="45.14308" lon="6.2083">
        <ele>2126.57</ele>
        <time>2014-09-15T12:45:00Z</time>
      </trkpt>
      <trkpt lat="45.14309" lon="6.20828">
        <ele>2126.57</ele>
        <time>2014-09-15T12:45:01Z</time>
      </trkpt>
      <trkpt lat="45.14308" lon="6.20826">
        <ele>2126.09</ele>
        <time>2014-09-15T12:45:02Z</time>
      </trkpt>
      <trkpt lat="45.14308" lon="6.20825">
        <ele>2125.13</ele>
        <time>2014-09-15T12:45:03Z</time>
      </trkpt>
      <trkpt lat="45.14306" lon="6.20823">
        <ele>2124.65</ele>
        <time>2014-09-15T12:45:04Z</time>
      </trkpt>
      <trkpt lat="45.14304" lon="6.20822">
        <ele>2124.17</ele>
        <time>2014-09-15T12:45:05Z</time>
      </trkpt>
      <trkpt lat="45.14303" lon="6.20821">
        <ele>2123.21</ele>
        <time>2014-09-15T12:45:06Z</time>
      </trkpt>
      <trkpt lat="45.14294" lon="6.20817">
        <ele>2120.32</ele>
        <time>2014-09-15T12:45:11Z</time>
      </trkpt>
      <trkpt lat="45.14293" lon="6.20816">
        <ele>2119.84</ele>
        <time>2014-09-15T12:45:12Z</time>
      </trkpt>
      <trkpt lat="45.14292" lon="6.20815">
        <ele>2119.84</ele>
        <time>2014-09-15T12:45:13Z</time>
      </trkpt>
      <trkpt lat="45.14293" lon="6.20814">
        <ele>2118.88</ele>
        <time>2014-09-15T12:45:14Z</time>
      </trkpt>
      <trkpt lat="45.14294" lon="6.20813">
        <ele>2118.88</ele>
        <time>2014-09-15T12:45:15Z</time>
      </trkpt>
      <trkpt lat="45.14295" lon="6.20813">
        <ele>2118.4</ele>
        <time>2014-09-15T12:45:16Z</time>
      </trkpt>
      <trkpt lat="45.14296" lon="6.20812">
        <ele>2117.44</ele>
        <time>2014-09-15T12:45:17Z</time>
      </trkpt>
      <trkpt lat="45.14297" lon="6.20812">
        <ele>2117.44</ele>
        <time>2014-09-15T12:45:18Z</time>
      </trkpt>
      <trkpt lat="45.14298" lon="6.20811">
        <ele>2116.96</ele>
        <time>2014-09-15T12:45:19Z</time>
      </trkpt>
      <trkpt lat="45.14296" lon="6.20807">
        <ele>2116</ele>
        <time>2014-09-15T12:45:26Z</time>
      </trkpt>
      <trkpt lat="45.14294" lon="6.20808">
        <ele>2115.52</ele>
        <time>2014-09-15T12:45:27Z</time>
      </trkpt>
      <trkpt lat="45.1429" lon="6.20807">
        <ele>2115.04</ele>
        <time>2014-09-15T12:45:30Z</time>
      </trkpt>
      <trkpt lat="45.14291" lon="6.20805">
        <ele>2113.6</ele>
        <time>2014-09-15T12:45:33Z</time>
      </trkpt>
      <trkpt lat="45.14296" lon="6.20803">
        <ele>2112.63</ele>
        <time>2014-09-15T12:45:43Z</time>
      </trkpt>
      <trkpt lat="45.14296" lon="6.208">
        <ele>2111.67</ele>
        <time>2014-09-15T12:45:46Z</time>
      </trkpt>
      <trkpt lat="45.14292" lon="6.208">
        <ele>2111.19</ele>
        <time>2014-09-15T12:45:49Z</time>
      </trkpt>
      <trkpt lat="45.1429" lon="6.208">
        <ele>2110.23</ele>
        <time>2014-09-15T12:45:50Z</time>
      </trkpt>
      <trkpt lat="45.14287" lon="6.208">
        <ele>2109.75</ele>
        <time>2014-09-15T12:45:51Z</time>
      </trkpt>
      <trkpt lat="45.14284" lon="6.208">
        <ele>2109.75</ele>
        <time>2014-09-15T12:45:52Z</time>
      </trkpt>
      <trkpt lat="45.14283" lon="6.20799">
        <ele>2109.75</ele>
        <time>2014-09-15T12:45:53Z</time>
      </trkpt>
      <trkpt lat="45.14284" lon="6.20797">
        <ele>2109.27</ele>
        <time>2014-09-15T12:45:54Z</time>
      </trkpt>
      <trkpt lat="45.14285" lon="6.20796">
        <ele>2108.79</ele>
        <time>2014-09-15T12:45:55Z</time>
      </trkpt>
      <trkpt lat="45.14286" lon="6.20796">
        <ele>2108.79</ele>
        <time>2014-09-15T12:45:56Z</time>
      </trkpt>
      <trkpt lat="45.14288" lon="6.20796">
        <ele>2107.83</ele>
        <time>2014-09-15T12:45:57Z</time>
      </trkpt>
      <trkpt lat="45.14293" lon="6.20793">
        <ele>2106.39</ele>
        <time>2014-09-15T12:45:59Z</time>
      </trkpt>
      <trkpt lat="45.14294" lon="6.20792">
        <ele>2106.39</ele>
        <time>2014-09-15T12:46:00Z</time>
      </trkpt>
      <trkpt lat="45.14291" lon="6.2079">
        <ele>2105.42</ele>
        <time>2014-09-15T12:46:03Z</time>
      </trkpt>
      <trkpt lat="45.1428" lon="6.20788">
        <ele>2103.5</ele>
        <time>2014-09-15T12:46:07Z</time>
      </trkpt>
      <trkpt lat="45.1428" lon="6.20786">
        <ele>2102.54</ele>
        <time>2014-09-15T12:46:08Z</time>
      </trkpt>
      <trkpt lat="45.14281" lon="6.20785">
        <ele>2102.06</ele>
        <time>2014-09-15T12:46:10Z</time>
      </trkpt>
      <trkpt lat="45.14296" lon="6.20779">
        <ele>2099.66</ele>
        <time>2014-09-15T12:46:16Z</time>
      </trkpt>
      <trkpt lat="45.14293" lon="6.20776">
        <ele>2098.7</ele>
        <time>2014-09-15T12:46:21Z</time>
      </trkpt>
      <trkpt lat="45.14291" lon="6.20776">
        <ele>2098.21</ele>
        <time>2014-09-15T12:46:22Z</time>
      </trkpt>
      <trkpt lat="45.14288" lon="6.20775">
        <ele>2097.73</ele>
        <time>2014-09-15T12:46:23Z</time>
      </trkpt>
      <trkpt lat="45.14285" lon="6.20775">
        <ele>2097.25</ele>
        <time>2014-09-15T12:46:24Z</time>
      </trkpt>
      <trkpt lat="45.14282" lon="6.20774">
        <ele>2096.77</ele>
        <time>2014-09-15T12:46:25Z</time>
      </trkpt>
      <trkpt lat="45.14279" lon="6.20773">
        <ele>2096.29</ele>
        <time>2014-09-15T12:46:26Z</time>
      </trkpt>
      <trkpt lat="45.14276" lon="6.20773">
        <ele>2096.29</ele>
        <time>2014-09-15T12:46:27Z</time>
      </trkpt>
      <trkpt lat="45.14275" lon="6.20772">
        <ele>2095.33</ele>
        <time>2014-09-15T12:46:28Z</time>
      </trkpt>
      <trkpt lat="45.14276" lon="6.2077">
        <ele>2094.85</ele>
        <time>2014-09-15T12:46:31Z</time>
      </trkpt>
      <trkpt lat="45.14278" lon="6.20769">
        <ele>2094.37</ele>
        <time>2014-09-15T12:46:32Z</time>
      </trkpt>
      <trkpt lat="45.1428" lon="6.20768">
        <ele>2094.37</ele>
        <time>2014-09-15T12:46:33Z</time>
      </trkpt>
      <trkpt lat="45.14294" lon="6.20762">
        <ele>2092.45</ele>
        <time>2014-09-15T12:46:39Z</time>
      </trkpt>
      <trkpt lat="45.14292" lon="6.2076">
        <ele>2091.49</ele>
        <time>2014-09-15T12:46:42Z</time>
      </trkpt>
      <trkpt lat="45.14291" lon="6.2076">
        <ele>2091</ele>
        <time>2014-09-15T12:46:43Z</time>
      </trkpt>
      <trkpt lat="45.14271" lon="6.2076">
        <ele>2088.12</ele>
        <time>2014-09-15T12:46:55Z</time>
      </trkpt>
      <trkpt lat="45.14269" lon="6.20757">
        <ele>2086.2</ele>
        <time>2014-09-15T12:47:02Z</time>
      </trkpt>
      <trkpt lat="45.1427" lon="6.20756">
        <ele>2086.2</ele>
        <time>2014-09-15T12:47:03Z</time>
      </trkpt>
      <trkpt lat="45.14272" lon="6.20755">
        <ele>2086.2</ele>
        <time>2014-09-15T12:47:04Z</time>
      </trkpt>
      <trkpt lat="45.14274" lon="6.20753">
        <ele>2085.72</ele>
        <time>2014-09-15T12:47:05Z</time>
      </trkpt>
      <trkpt lat="45.14276" lon="6.20751">
        <ele>2085.24</ele>
        <time>2014-09-15T12:47:06Z</time>
      </trkpt>
      <trkpt lat="45.14279" lon="6.20749">
        <ele>2085.24</ele>
        <time>2014-09-15T12:47:07Z</time>
      </trkpt>
      <trkpt lat="45.14293" lon="6.20741">
        <ele>2082.83</ele>
        <time>2014-09-15T12:47:11Z</time>
      </trkpt>
      <trkpt lat="45.14291" lon="6.20738">
        <ele>2082.35</ele>
        <time>2014-09-15T12:47:13Z</time>
      </trkpt>
      <trkpt lat="45.14288" lon="6.20738">
        <ele>2081.39</ele>
        <time>2014-09-15T12:47:15Z</time>
      </trkpt>
      <trkpt lat="45.14285" lon="6.20738">
        <ele>2080.43</ele>
        <time>2014-09-15T12:47:16Z</time>
      </trkpt>
      <trkpt lat="45.14281" lon="6.20738">
        <ele>2079.95</ele>
        <time>2014-09-15T12:47:17Z</time>
      </trkpt>
      <trkpt lat="45.14276" lon="6.20737">
        <ele>2079.47</ele>
        <time>2014-09-15T12:47:18Z</time>
      </trkpt>
      <trkpt lat="45.14271" lon="6.20737">
        <ele>2078.51</ele>
        <time>2014-09-15T12:47:19Z</time>
      </trkpt>
      <trkpt lat="45.14268" lon="6.20737">
        <ele>2078.03</ele>
        <time>2014-09-15T12:47:20Z</time>
      </trkpt>
      <trkpt lat="45.14265" lon="6.20738">
        <ele>2077.55</ele>
        <time>2014-09-15T12:47:21Z</time>
      </trkpt>
      <trkpt lat="45.14263" lon="6.20737">
        <ele>2077.55</ele>
        <time>2014-09-15T12:47:22Z</time>
      </trkpt>
      <trkpt lat="45.14262" lon="6.20735">
        <ele>2077.07</ele>
        <time>2014-09-15T12:47:24Z</time>
      </trkpt>
      <trkpt lat="45.14263" lon="6.20733">
        <ele>2076.59</ele>
        <time>2014-09-15T12:47:26Z</time>
      </trkpt>
      <trkpt lat="45.14274" lon="6.20726">
        <ele>2074.66</ele>
        <time>2014-09-15T12:47:30Z</time>
      </trkpt>
      <trkpt lat="45.14294" lon="6.20715">
        <ele>2071.3</ele>
        <time>2014-09-15T12:47:35Z</time>
      </trkpt>
      <trkpt lat="45.14298" lon="6.20712">
        <ele>2070.34</ele>
        <time>2014-09-15T12:47:37Z</time>
      </trkpt>
      <trkpt lat="45.14298" lon="6.20711">
        <ele>2069.86</ele>
        <time>2014-09-15T12:47:38Z</time>
      </trkpt>
      <trkpt lat="45.14295" lon="6.2071">
        <ele>2068.89</ele>
        <time>2014-09-15T12:47:40Z</time>
      </trkpt>
      <trkpt lat="45.14293" lon="6.2071">
        <ele>2068.89</ele>
        <time>2014-09-15T12:47:41Z</time>
      </trkpt>
      <trkpt lat="45.14289" lon="6.20709">
        <ele>2068.41</ele>
        <time>2014-09-15T12:47:42Z</time>
      </trkpt>
      <trkpt lat="45.14286" lon="6.20709">
        <ele>2067.45</ele>
        <time>2014-09-15T12:47:43Z</time>
      </trkpt>
      <trkpt lat="45.14282" lon="6.20708">
        <ele>2067.45</ele>
        <time>2014-09-15T12:47:44Z</time>
      </trkpt>
      <trkpt lat="45.14273" lon="6.20707">
        <ele>2065.53</ele>
        <time>2014-09-15T12:47:46Z</time>
      </trkpt>
      <trkpt lat="45.14269" lon="6.20707">
        <ele>2065.05</ele>
        <time>2014-09-15T12:47:47Z</time>
      </trkpt>
      <trkpt lat="45.14265" lon="6.20708">
        <ele>2064.57</ele>
        <time>2014-09-15T12:47:48Z</time>
      </trkpt>
      <trkpt lat="45.14263" lon="6.20708">
        <ele>2064.57</ele>
        <time>2014-09-15T12:47:49Z</time>
      </trkpt>
      <trkpt lat="45.14262" lon="6.20707">
        <ele>2064.09</ele>
        <time>2014-09-15T12:47:50Z</time>
      </trkpt>
      <trkpt lat="45.14264" lon="6.20703">
        <ele>2063.13</ele>
        <time>2014-09-15T12:47:56Z</time>
      </trkpt>
      <trkpt lat="45.14266" lon="6.20701">
        <ele>2062.17</ele>
        <time>2014-09-15T12:47:57Z</time>
      </trkpt>
      <trkpt lat="45.1427" lon="6.20699">
        <ele>2061.68</ele>
        <time>2014-09-15T12:47:58Z</time>
      </trkpt>
      <trkpt lat="45.14273" lon="6.20696">
        <ele>2061.68</ele>
        <time>2014-09-15T12:47:59Z</time>
      </trkpt>
      <trkpt lat="45.14276" lon="6.20694">
        <ele>2060.72</ele>
        <time>2014-09-15T12:48:00Z</time>
      </trkpt>
      <trkpt lat="45.1428" lon="6.20691">
        <ele>2060.72</ele>
        <time>2014-09-15T12:48:01Z</time>
      </trkpt>
      <trkpt lat="45.14297" lon="6.2068">
        <ele>2056.88</ele>
        <time>2014-09-15T12:48:05Z</time>
      </trkpt>
      <trkpt lat="45.14304" lon="6.20677">
        <ele>2056.4</ele>
        <time>2014-09-15T12:48:07Z</time>
      </trkpt>
      <trkpt lat="45.14306" lon="6.20676">
        <ele>2055.44</ele>
        <time>2014-09-15T12:48:08Z</time>
      </trkpt>
      <trkpt lat="45.14304" lon="6.20673">
        <ele>2054.47</ele>
        <time>2014-09-15T12:48:12Z</time>
      </trkpt>
      <trkpt lat="45.14303" lon="6.20673">
        <ele>2053.99</ele>
        <time>2014-09-15T12:48:13Z</time>
      </trkpt>
      <trkpt lat="45.143" lon="6.20673">
        <ele>2053.51</ele>
        <time>2014-09-15T12:48:14Z</time>
      </trkpt>
      <trkpt lat="45.14296" lon="6.20672">
        <ele>2052.55</ele>
        <time>2014-09-15T12:48:15Z</time>
      </trkpt>
      <trkpt lat="45.14292" lon="6.2067">
        <ele>2052.07</ele>
        <time>2014-09-15T12:48:16Z</time>
      </trkpt>
      <trkpt lat="45.14288" lon="6.20669">
        <ele>2052.07</ele>
        <time>2014-09-15T12:48:17Z</time>
      </trkpt>
      <trkpt lat="45.14285" lon="6.20668">
        <ele>2051.59</ele>
        <time>2014-09-15T12:48:18Z</time>
      </trkpt>
      <trkpt lat="45.14273" lon="6.20665">
        <ele>2049.67</ele>
        <time>2014-09-15T12:48:21Z</time>
      </trkpt>
      <trkpt lat="45.14265" lon="6.20667">
        <ele>2048.23</ele>
        <time>2014-09-15T12:48:24Z</time>
      </trkpt>
      <trkpt lat="45.14264" lon="6.20666">
        <ele>2047.75</ele>
        <time>2014-09-15T12:48:25Z</time>
      </trkpt>
      <trkpt lat="45.14264" lon="6.20665">
        <ele>2047.26</ele>
        <time>2014-09-15T12:48:26Z</time>
      </trkpt>
      <trkpt lat="45.14265" lon="6.20662">
        <ele>2046.3</ele>
        <time>2014-09-15T12:48:31Z</time>
      </trkpt>
      <trkpt lat="45.14267" lon="6.20661">
        <ele>2046.3</ele>
        <time>2014-09-15T12:48:32Z</time>
      </trkpt>
      <trkpt lat="45.14269" lon="6.20659">
        <ele>2045.34</ele>
        <time>2014-09-15T12:48:33Z</time>
      </trkpt>
      <trkpt lat="45.1427" lon="6.20658">
        <ele>2045.34</ele>
        <time>2014-09-15T12:48:34Z</time>
      </trkpt>
      <trkpt lat="45.14271" lon="6.20658">
        <ele>2045.34</ele>
        <time>2014-09-15T12:48:50Z</time>
      </trkpt>
      <trkpt lat="45.14283" lon="6.20647">
        <ele>2042.94</ele>
        <time>2014-09-15T12:49:07Z</time>
      </trkpt>
      <trkpt lat="45.143" lon="6.20638">
        <ele>2040.54</ele>
        <time>2014-09-15T12:49:11Z</time>
      </trkpt>
      <trkpt lat="45.14303" lon="6.20636">
        <ele>2039.57</ele>
        <time>2014-09-15T12:49:12Z</time>
      </trkpt>
      <trkpt lat="45.14304" lon="6.20634">
        <ele>2039.09</ele>
        <time>2014-09-15T12:49:13Z</time>
      </trkpt>
      <trkpt lat="45.14302" lon="6.20631">
        <ele>2037.65</ele>
        <time>2014-09-15T12:49:15Z</time>
      </trkpt>
      <trkpt lat="45.14298" lon="6.20629">
        <ele>2037.17</ele>
        <time>2014-09-15T12:49:16Z</time>
      </trkpt>
      <trkpt lat="45.14294" lon="6.20627">
        <ele>2036.21</ele>
        <time>2014-09-15T12:49:17Z</time>
      </trkpt>
      <trkpt lat="45.14289" lon="6.20626">
        <ele>2035.73</ele>
        <time>2014-09-15T12:49:18Z</time>
      </trkpt>
      <trkpt lat="45.14284" lon="6.20624">
        <ele>2034.77</ele>
        <time>2014-09-15T12:49:19Z</time>
      </trkpt>
      <trkpt lat="45.14278" lon="6.20622">
        <ele>2033.81</ele>
        <time>2014-09-15T12:49:20Z</time>
      </trkpt>
      <trkpt lat="45.14272" lon="6.20622">
        <ele>2032.84</ele>
        <time>2014-09-15T12:49:21Z</time>
      </trkpt>
      <trkpt lat="45.14261" lon="6.2062">
        <ele>2030.92</ele>
        <time>2014-09-15T12:49:24Z</time>
      </trkpt>
      <trkpt lat="45.14261" lon="6.20616">
        <ele>2029.48</ele>
        <time>2014-09-15T12:49:26Z</time>
      </trkpt>
      <trkpt lat="45.1428" lon="6.20602">
        <ele>2026.12</ele>
        <time>2014-09-15T12:49:32Z</time>
      </trkpt>
      <trkpt lat="45.14282" lon="6.20599">
        <ele>2025.64</ele>
        <time>2014-09-15T12:49:33Z</time>
      </trkpt>
      <trkpt lat="45.14281" lon="6.20594">
        <ele>2023.71</ele>
        <time>2014-09-15T12:49:36Z</time>
      </trkpt>
      <trkpt lat="45.14278" lon="6.20593">
        <ele>2022.75</ele>
        <time>2014-09-15T12:49:37Z</time>
      </trkpt>
      <trkpt lat="45.14263" lon="6.20589">
        <ele>2019.87</ele>
        <time>2014-09-15T12:49:40Z</time>
      </trkpt>
      <trkpt lat="45.14257" lon="6.20588">
        <ele>2018.91</ele>
        <time>2014-09-15T12:49:41Z</time>
      </trkpt>
      <trkpt lat="45.14252" lon="6.20588">
        <ele>2017.94</ele>
        <time>2014-09-15T12:49:42Z</time>
      </trkpt>
      <trkpt lat="45.14249" lon="6.20588">
        <ele>2017.46</ele>
        <time>2014-09-15T12:49:43Z</time>
      </trkpt>
      <trkpt lat="45.14247" lon="6.20587">
        <ele>2016.98</ele>
        <time>2014-09-15T12:49:44Z</time>
      </trkpt>
      <trkpt lat="45.14247" lon="6.20585">
        <ele>2016.02</ele>
        <time>2014-09-15T12:49:45Z</time>
      </trkpt>
      <trkpt lat="45.14247" lon="6.20583">
        <ele>2015.54</ele>
        <time>2014-09-15T12:49:46Z</time>
      </trkpt>
      <trkpt lat="45.14248" lon="6.20581">
        <ele>2015.54</ele>
        <time>2014-09-15T12:49:47Z</time>
      </trkpt>
      <trkpt lat="45.1425" lon="6.20579">
        <ele>2014.58</ele>
        <time>2014-09-15T12:49:48Z</time>
      </trkpt>
      <trkpt lat="45.14253" lon="6.20576">
        <ele>2014.1</ele>
        <time>2014-09-15T12:49:49Z</time>
      </trkpt>
      <trkpt lat="45.14256" lon="6.20572">
        <ele>2013.14</ele>
        <time>2014-09-15T12:49:50Z</time>
      </trkpt>
      <trkpt lat="45.1426" lon="6.20569">
        <ele>2012.66</ele>
        <time>2014-09-15T12:49:51Z</time>
      </trkpt>
      <trkpt lat="45.14267" lon="6.20564">
        <ele>2011.22</ele>
        <time>2014-09-15T12:49:53Z</time>
      </trkpt>
      <trkpt lat="45.14271" lon="6.20563">
        <ele>2010.25</ele>
        <time>2014-09-15T12:49:54Z</time>
      </trkpt>
      <trkpt lat="45.14275" lon="6.20562">
        <ele>2009.77</ele>
        <time>2014-09-15T12:49:55Z</time>
      </trkpt>
      <trkpt lat="45.14279" lon="6.20562">
        <ele>2009.77</ele>
        <time>2014-09-15T12:49:56Z</time>
      </trkpt>
      <trkpt lat="45.14282" lon="6.20561">
        <ele>2009.29</ele>
        <time>2014-09-15T12:49:57Z</time>
      </trkpt>
      <trkpt lat="45.14286" lon="6.2056">
        <ele>2008.33</ele>
        <time>2014-09-15T12:49:58Z</time>
      </trkpt>
      <trkpt lat="45.14287" lon="6.20558">
        <ele>2007.85</ele>
        <time>2014-09-15T12:49:59Z</time>
      </trkpt>
      <trkpt lat="45.14285" lon="6.20554">
        <ele>2006.41</ele>
        <time>2014-09-15T12:50:01Z</time>
      </trkpt>
      <trkpt lat="45.14283" lon="6.20553">
        <ele>2005.93</ele>
        <time>2014-09-15T12:50:02Z</time>
      </trkpt>
      <trkpt lat="45.14281" lon="6.20553">
        <ele>2005.45</ele>
        <time>2014-09-15T12:50:03Z</time>
      </trkpt>
      <trkpt lat="45.14258" lon="6.20548">
        <ele>2002.56</ele>
        <time>2014-09-15T12:50:12Z</time>
      </trkpt>
      <trkpt lat="45.14258" lon="6.20549">
        <ele>2002.08</ele>
        <time>2014-09-15T12:50:23Z</time>
      </trkpt>
      <trkpt lat="45.14257" lon="6.20548">
        <ele>2001.6</ele>
        <time>2014-09-15T12:50:59Z</time>
      </trkpt>
      <trkpt lat="45.14257" lon="6.20548">
        <ele>2001.6</ele>
        <time>2014-09-15T12:51:25Z</time>
      </trkpt>
      <trkpt lat="45.14259" lon="6.2055">
        <ele>2001.6</ele>
        <time>2014-09-15T12:51:52Z</time>
      </trkpt>
      <trkpt lat="45.14258" lon="6.20549">
        <ele>2001.6</ele>
        <time>2014-09-15T12:52:18Z</time>
      </trkpt>
      <trkpt lat="45.14257" lon="6.20548">
        <ele>2001.12</ele>
        <time>2014-09-15T12:52:42Z</time>
      </trkpt>
      <trkpt lat="45.14249" lon="6.20544">
        <ele>1999.68</ele>
        <time>2014-09-15T12:52:49Z</time>
      </trkpt>
      <trkpt lat="45.14249" lon="6.20542">
        <ele>1999.2</ele>
        <time>2014-09-15T12:52:50Z</time>
      </trkpt>
      <trkpt lat="45.1425" lon="6.2054">
        <ele>1998.24</ele>
        <time>2014-09-15T12:52:51Z</time>
      </trkpt>
      <trkpt lat="45.14253" lon="6.20538">
        <ele>1998.24</ele>
        <time>2014-09-15T12:52:52Z</time>
      </trkpt>
      <trkpt lat="45.14257" lon="6.20535">
        <ele>1997.76</ele>
        <time>2014-09-15T12:52:53Z</time>
      </trkpt>
      <trkpt lat="45.14263" lon="6.20532">
        <ele>1996.8</ele>
        <time>2014-09-15T12:52:54Z</time>
      </trkpt>
      <trkpt lat="45.14284" lon="6.20517">
        <ele>1993.43</ele>
        <time>2014-09-15T12:52:58Z</time>
      </trkpt>
      <trkpt lat="45.14286" lon="6.20514">
        <ele>1992.95</ele>
        <time>2014-09-15T12:52:59Z</time>
      </trkpt>
      <trkpt lat="45.14286" lon="6.20511">
        <ele>1991.99</ele>
        <time>2014-09-15T12:53:00Z</time>
      </trkpt>
      <trkpt lat="45.14285" lon="6.20508">
        <ele>1991.03</ele>
        <time>2014-09-15T12:53:01Z</time>
      </trkpt>
      <trkpt lat="45.14283" lon="6.20506">
        <ele>1990.55</ele>
        <time>2014-09-15T12:53:02Z</time>
      </trkpt>
      <trkpt lat="45.1428" lon="6.20504">
        <ele>1990.07</ele>
        <time>2014-09-15T12:53:03Z</time>
      </trkpt>
      <trkpt lat="45.14275" lon="6.20501">
        <ele>1988.62</ele>
        <time>2014-09-15T12:53:04Z</time>
      </trkpt>
      <trkpt lat="45.1427" lon="6.20498">
        <ele>1987.18</ele>
        <time>2014-09-15T12:53:05Z</time>
      </trkpt>
      <trkpt lat="45.14264" lon="6.20496">
        <ele>1985.74</ele>
        <time>2014-09-15T12:53:06Z</time>
      </trkpt>
      <trkpt lat="45.14258" lon="6.20495">
        <ele>1984.3</ele>
        <time>2014-09-15T12:53:07Z</time>
      </trkpt>
      <trkpt lat="45.14252" lon="6.20494">
        <ele>1983.34</ele>
        <time>2014-09-15T12:53:08Z</time>
      </trkpt>
      <trkpt lat="45.14244" lon="6.20495">
        <ele>1981.41</ele>
        <time>2014-09-15T12:53:09Z</time>
      </trkpt>
      <trkpt lat="45.14236" lon="6.20495">
        <ele>1979.49</ele>
        <time>2014-09-15T12:53:10Z</time>
      </trkpt>
      <trkpt lat="45.14228" lon="6.20493">
        <ele>1977.57</ele>
        <time>2014-09-15T12:53:11Z</time>
      </trkpt>
      <trkpt lat="45.14212" lon="6.2049">
        <ele>1973.72</ele>
        <time>2014-09-15T12:53:13Z</time>
      </trkpt>
      <trkpt lat="45.14205" lon="6.20488">
        <ele>1972.28</ele>
        <time>2014-09-15T12:53:14Z</time>
      </trkpt>
      <trkpt lat="45.14198" lon="6.20483">
        <ele>1969.88</ele>
        <time>2014-09-15T12:53:15Z</time>
      </trkpt>
      <trkpt lat="45.14191" lon="6.20478">
        <ele>1968.44</ele>
        <time>2014-09-15T12:53:16Z</time>
      </trkpt>
      <trkpt lat="45.14184" lon="6.20474">
        <ele>1966.51</ele>
        <time>2014-09-15T12:53:17Z</time>
      </trkpt>
      <trkpt lat="45.14178" lon="6.20469">
        <ele>1964.59</ele>
        <time>2014-09-15T12:53:18Z</time>
      </trkpt>
      <trkpt lat="45.14173" lon="6.20464">
        <ele>1963.15</ele>
        <time>2014-09-15T12:53:19Z</time>
      </trkpt>
      <trkpt lat="45.14168" lon="6.2046">
        <ele>1962.19</ele>
        <time>2014-09-15T12:53:20Z</time>
      </trkpt>
      <trkpt lat="45.14157" lon="6.20455">
        <ele>1960.75</ele>
        <time>2014-09-15T12:53:23Z</time>
      </trkpt>
      <trkpt lat="45.14155" lon="6.20454">
        <ele>1961.23</ele>
        <time>2014-09-15T12:53:33Z</time>
      </trkpt>
      <trkpt lat="45.14158" lon="6.20457">
        <ele>1960.75</ele>
        <time>2014-09-15T12:53:58Z</time>
      </trkpt>
      <trkpt lat="45.14157" lon="6.20458">
        <ele>1960.75</ele>
        <time>2014-09-15T12:54:20Z</time>
      </trkpt>
      <trkpt lat="45.14157" lon="6.20456">
        <ele>1960.75</ele>
        <time>2014-09-15T12:54:46Z</time>
      </trkpt>
      <trkpt lat="45.14148" lon="6.20447">
        <ele>1959.3</ele>
        <time>2014-09-15T12:54:54Z</time>
      </trkpt>
      <trkpt lat="45.14133" lon="6.20441">
        <ele>1956.42</ele>
        <time>2014-09-15T12:55:01Z</time>
      </trkpt>
      <trkpt lat="45.14131" lon="6.20439">
        <ele>1955.46</ele>
        <time>2014-09-15T12:55:02Z</time>
      </trkpt>
      <trkpt lat="45.14128" lon="6.20437">
        <ele>1954.5</ele>
        <time>2014-09-15T12:55:03Z</time>
      </trkpt>
      <trkpt lat="45.14123" lon="6.20436">
        <ele>1953.54</ele>
        <time>2014-09-15T12:55:04Z</time>
      </trkpt>
      <trkpt lat="45.14118" lon="6.20434">
        <ele>1952.57</ele>
        <time>2014-09-15T12:55:05Z</time>
      </trkpt>
      <trkpt lat="45.14114" lon="6.20432">
        <ele>1951.61</ele>
        <time>2014-09-15T12:55:06Z</time>
      </trkpt>
      <trkpt lat="45.141" lon="6.20431">
        <ele>1947.77</ele>
        <time>2014-09-15T12:55:13Z</time>
      </trkpt>
      <trkpt lat="45.1409" lon="6.20431">
        <ele>1945.85</ele>
        <time>2014-09-15T12:55:15Z</time>
      </trkpt>
      <trkpt lat="45.14077" lon="6.20428">
        <ele>1942</ele>
        <time>2014-09-15T12:55:18Z</time>
      </trkpt>
      <trkpt lat="45.14074" lon="6.20429">
        <ele>1941.52</ele>
        <time>2014-09-15T12:55:19Z</time>
      </trkpt>
      <trkpt lat="45.14071" lon="6.20429">
        <ele>1940.08</ele>
        <time>2014-09-15T12:55:20Z</time>
      </trkpt>
      <trkpt lat="45.14064" lon="6.20428">
        <ele>1938.16</ele>
        <time>2014-09-15T12:55:22Z</time>
      </trkpt>
      <trkpt lat="45.14059" lon="6.20427">
        <ele>1936.71</ele>
        <time>2014-09-15T12:55:23Z</time>
      </trkpt>
      <trkpt lat="45.14056" lon="6.20425">
        <ele>1934.79</ele>
        <time>2014-09-15T12:55:24Z</time>
      </trkpt>
      <trkpt lat="45.14047" lon="6.20419">
        <ele>1931.91</ele>
        <time>2014-09-15T12:55:26Z</time>
      </trkpt>
      <trkpt lat="45.14043" lon="6.20418">
        <ele>1930.46</ele>
        <time>2014-09-15T12:55:27Z</time>
      </trkpt>
      <trkpt lat="45.1404" lon="6.20419">
        <ele>1929.98</ele>
        <time>2014-09-15T12:55:28Z</time>
      </trkpt>
      <trkpt lat="45.14028" lon="6.20421">
        <ele>1927.58</ele>
        <time>2014-09-15T12:55:31Z</time>
      </trkpt>
      <trkpt lat="45.14018" lon="6.20421">
        <ele>1924.7</ele>
        <time>2014-09-15T12:55:33Z</time>
      </trkpt>
      <trkpt lat="45.14005" lon="6.20418">
        <ele>1921.33</ele>
        <time>2014-09-15T12:55:36Z</time>
      </trkpt>
      <trkpt lat="45.13995" lon="6.20415">
        <ele>1918.93</ele>
        <time>2014-09-15T12:55:38Z</time>
      </trkpt>
      <trkpt lat="45.13983" lon="6.20414">
        <ele>1916.53</ele>
        <time>2014-09-15T12:55:42Z</time>
      </trkpt>
      <trkpt lat="45.13964" lon="6.20409">
        <ele>1913.64</ele>
        <time>2014-09-15T12:55:48Z</time>
      </trkpt>
      <trkpt lat="45.13953" lon="6.20408">
        <ele>1911.72</ele>
        <time>2014-09-15T12:55:50Z</time>
      </trkpt>
      <trkpt lat="45.13949" lon="6.20407">
        <ele>1911.72</ele>
        <time>2014-09-15T12:55:51Z</time>
      </trkpt>
      <trkpt lat="45.1393" lon="6.204">
        <ele>1908.83</ele>
        <time>2014-09-15T12:55:56Z</time>
      </trkpt>
      <trkpt lat="45.13911" lon="6.20399">
        <ele>1904.99</ele>
        <time>2014-09-15T12:56:03Z</time>
      </trkpt>
      <trkpt lat="45.13907" lon="6.20398">
        <ele>1904.03</ele>
        <time>2014-09-15T12:56:04Z</time>
      </trkpt>
      <trkpt lat="45.139" lon="6.20397">
        <ele>1903.55</ele>
        <time>2014-09-15T12:56:06Z</time>
      </trkpt>
      <trkpt lat="45.13897" lon="6.20399">
        <ele>1902.59</ele>
        <time>2014-09-15T12:56:07Z</time>
      </trkpt>
      <trkpt lat="45.13895" lon="6.20404">
        <ele>1902.11</ele>
        <time>2014-09-15T12:56:08Z</time>
      </trkpt>
      <trkpt lat="45.13892" lon="6.20416">
        <ele>1901.14</ele>
        <time>2014-09-15T12:56:10Z</time>
      </trkpt>
      <trkpt lat="45.1389" lon="6.20429">
        <ele>1900.18</ele>
        <time>2014-09-15T12:56:12Z</time>
      </trkpt>
      <trkpt lat="45.13891" lon="6.20435">
        <ele>1900.18</ele>
        <time>2014-09-15T12:56:13Z</time>
      </trkpt>
      <trkpt lat="45.13896" lon="6.2045">
        <ele>1900.18</ele>
        <time>2014-09-15T12:56:17Z</time>
      </trkpt>
      <trkpt lat="45.13898" lon="6.20452">
        <ele>1900.18</ele>
        <time>2014-09-15T12:56:18Z</time>
      </trkpt>
      <trkpt lat="45.13898" lon="6.20455">
        <ele>1900.18</ele>
        <time>2014-09-15T12:56:19Z</time>
      </trkpt>
      <trkpt lat="45.13895" lon="6.20461">
        <ele>1900.18</ele>
        <time>2014-09-15T12:56:22Z</time>
      </trkpt>
      <trkpt lat="45.1389" lon="6.20464">
        <ele>1900.18</ele>
        <time>2014-09-15T12:56:24Z</time>
      </trkpt>
      <trkpt lat="45.13873" lon="6.20445">
        <ele>1901.63</ele>
        <time>2014-09-15T12:56:34Z</time>
      </trkpt>
      <trkpt lat="45.13867" lon="6.20432">
        <ele>1902.11</ele>
        <time>2014-09-15T12:56:45Z</time>
      </trkpt>
      <trkpt lat="45.13865" lon="6.20428">
        <ele>1903.07</ele>
        <time>2014-09-15T12:56:57Z</time>
      </trkpt>
      <trkpt lat="45.13854" lon="6.20416">
        <ele>1904.03</ele>
        <time>2014-09-15T12:57:09Z</time>
      </trkpt>
      <trkpt lat="45.13837" lon="6.20408">
        <ele>1905.47</ele>
        <time>2014-09-15T12:57:23Z</time>
      </trkpt>
      <trkpt lat="45.13817" lon="6.20417">
        <ele>1906.43</ele>
        <time>2014-09-15T12:57:37Z</time>
      </trkpt>
      <trkpt lat="45.13795" lon="6.20426">
        <ele>1908.35</ele>
        <time>2014-09-15T12:57:50Z</time>
      </trkpt>
      <trkpt lat="45.13769" lon="6.20433">
        <ele>1909.8</ele>
        <time>2014-09-15T12:58:04Z</time>
      </trkpt>
      <trkpt lat="45.13744" lon="6.20426">
        <ele>1909.32</ele>
        <time>2014-09-15T12:58:17Z</time>
      </trkpt>
      <trkpt lat="45.13729" lon="6.20426">
        <ele>1907.87</ele>
        <time>2014-09-15T12:58:22Z</time>
      </trkpt>
      <trkpt lat="45.13727" lon="6.20423">
        <ele>1907.87</ele>
        <time>2014-09-15T12:58:23Z</time>
      </trkpt>
      <trkpt lat="45.13726" lon="6.20419">
        <ele>1907.87</ele>
        <time>2014-09-15T12:58:24Z</time>
      </trkpt>
      <trkpt lat="45.13724" lon="6.20415">
        <ele>1907.87</ele>
        <time>2014-09-15T12:58:25Z</time>
      </trkpt>
      <trkpt lat="45.13721" lon="6.20411">
        <ele>1907.39</ele>
        <time>2014-09-15T12:58:26Z</time>
      </trkpt>
      <trkpt lat="45.13719" lon="6.20406">
        <ele>1906.91</ele>
        <time>2014-09-15T12:58:27Z</time>
      </trkpt>
      <trkpt lat="45.13717" lon="6.20402">
        <ele>1906.43</ele>
        <time>2014-09-15T12:58:28Z</time>
      </trkpt>
      <trkpt lat="45.13714" lon="6.20398">
        <ele>1906.43</ele>
        <time>2014-09-15T12:58:29Z</time>
      </trkpt>
      <trkpt lat="45.13712" lon="6.20395">
        <ele>1906.43</ele>
        <time>2014-09-15T12:58:30Z</time>
      </trkpt>
      <trkpt lat="45.13708" lon="6.20393">
        <ele>1905.47</ele>
        <time>2014-09-15T12:58:31Z</time>
      </trkpt>
      <trkpt lat="45.13705" lon="6.20391">
        <ele>1905.47</ele>
        <time>2014-09-15T12:58:32Z</time>
      </trkpt>
      <trkpt lat="45.13701" lon="6.2039">
        <ele>1905.47</ele>
        <time>2014-09-15T12:58:33Z</time>
      </trkpt>
      <trkpt lat="45.13699" lon="6.20389">
        <ele>1905.47</ele>
        <time>2014-09-15T12:58:34Z</time>
      </trkpt>
      <trkpt lat="45.13663" lon="6.20373">
        <ele>1903.55</ele>
        <time>2014-09-15T12:58:46Z</time>
      </trkpt>
      <trkpt lat="45.13632" lon="6.20363">
        <ele>1902.11</ele>
        <time>2014-09-15T12:58:56Z</time>
      </trkpt>
      <trkpt lat="45.13598" lon="6.20342">
        <ele>1902.11</ele>
        <time>2014-09-15T12:59:09Z</time>
      </trkpt>
      <trkpt lat="45.13591" lon="6.20341">
        <ele>1902.11</ele>
        <time>2014-09-15T12:59:12Z</time>
      </trkpt>
      <trkpt lat="45.13588" lon="6.20343">
        <ele>1902.11</ele>
        <time>2014-09-15T12:59:13Z</time>
      </trkpt>
      <trkpt lat="45.13585" lon="6.20347">
        <ele>1901.63</ele>
        <time>2014-09-15T12:59:14Z</time>
      </trkpt>
      <trkpt lat="45.13583" lon="6.20352">
        <ele>1900.66</ele>
        <time>2014-09-15T12:59:15Z</time>
      </trkpt>
      <trkpt lat="45.13579" lon="6.20354">
        <ele>1900.66</ele>
        <time>2014-09-15T12:59:16Z</time>
      </trkpt>
      <trkpt lat="45.13577" lon="6.20353">
        <ele>1900.66</ele>
        <time>2014-09-15T12:59:17Z</time>
      </trkpt>
      <trkpt lat="45.13575" lon="6.20351">
        <ele>1900.66</ele>
        <time>2014-09-15T12:59:18Z</time>
      </trkpt>
      <trkpt lat="45.13572" lon="6.20348">
        <ele>1900.66</ele>
        <time>2014-09-15T12:59:19Z</time>
      </trkpt>
      <trkpt lat="45.1357" lon="6.20345">
        <ele>1900.66</ele>
        <time>2014-09-15T12:59:20Z</time>
      </trkpt>
      <trkpt lat="45.13567" lon="6.20342">
        <ele>1900.66</ele>
        <time>2014-09-15T12:59:21Z</time>
      </trkpt>
      <trkpt lat="45.13566" lon="6.20338">
        <ele>1902.11</ele>
        <time>2014-09-15T12:59:22Z</time>
      </trkpt>
      <trkpt lat="45.1356" lon="6.2033">
        <ele>1902.59</ele>
        <time>2014-09-15T12:59:25Z</time>
      </trkpt>
      <trkpt lat="45.13558" lon="6.20328">
        <ele>1902.59</ele>
        <time>2014-09-15T12:59:26Z</time>
      </trkpt>
      <trkpt lat="45.13555" lon="6.20327">
        <ele>1902.59</ele>
        <time>2014-09-15T12:59:27Z</time>
      </trkpt>
      <trkpt lat="45.13552" lon="6.20327">
        <ele>1902.59</ele>
        <time>2014-09-15T12:59:28Z</time>
      </trkpt>
      <trkpt lat="45.13549" lon="6.20327">
        <ele>1902.59</ele>
        <time>2014-09-15T12:59:29Z</time>
      </trkpt>
      <trkpt lat="45.13534" lon="6.20324">
        <ele>1901.14</ele>
        <time>2014-09-15T12:59:34Z</time>
      </trkpt>
      <trkpt lat="45.13515" lon="6.2032">
        <ele>1900.18</ele>
        <time>2014-09-15T12:59:39Z</time>
      </trkpt>
      <trkpt lat="45.13512" lon="6.20318">
        <ele>1899.22</ele>
        <time>2014-09-15T12:59:40Z</time>
      </trkpt>
      <trkpt lat="45.13509" lon="6.20315">
        <ele>1899.22</ele>
        <time>2014-09-15T12:59:41Z</time>
      </trkpt>
      <trkpt lat="45.13507" lon="6.20312">
        <ele>1899.22</ele>
        <time>2014-09-15T12:59:42Z</time>
      </trkpt>
      <trkpt lat="45.13504" lon="6.2031">
        <ele>1899.22</ele>
        <time>2014-09-15T12:59:43Z</time>
      </trkpt>
      <trkpt lat="45.13502" lon="6.20309">
        <ele>1899.22</ele>
        <time>2014-09-15T12:59:44Z</time>
      </trkpt>
      <trkpt lat="45.13499" lon="6.20308">
        <ele>1899.22</ele>
        <time>2014-09-15T12:59:45Z</time>
      </trkpt>
      <trkpt lat="45.13495" lon="6.20307">
        <ele>1899.22</ele>
        <time>2014-09-15T12:59:46Z</time>
      </trkpt>
      <trkpt lat="45.13492" lon="6.20305">
        <ele>1899.22</ele>
        <time>2014-09-15T12:59:47Z</time>
      </trkpt>
      <trkpt lat="45.13489" lon="6.20302">
        <ele>1898.74</ele>
        <time>2014-09-15T12:59:48Z</time>
      </trkpt>
      <trkpt lat="45.13476" lon="6.20299">
        <ele>1898.26</ele>
        <time>2014-09-15T12:59:52Z</time>
      </trkpt>
      <trkpt lat="45.13471" lon="6.20301">
        <ele>1898.26</ele>
        <time>2014-09-15T12:59:53Z</time>
      </trkpt>
      <trkpt lat="45.13467" lon="6.20302">
        <ele>1897.3</ele>
        <time>2014-09-15T12:59:54Z</time>
      </trkpt>
      <trkpt lat="45.13463" lon="6.20304">
        <ele>1897.3</ele>
        <time>2014-09-15T12:59:55Z</time>
      </trkpt>
      <trkpt lat="45.1346" lon="6.20305">
        <ele>1896.82</ele>
        <time>2014-09-15T12:59:56Z</time>
      </trkpt>
      <trkpt lat="45.13458" lon="6.20303">
        <ele>1896.82</ele>
        <time>2014-09-15T12:59:57Z</time>
      </trkpt>
      <trkpt lat="45.13457" lon="6.20301">
        <ele>1896.82</ele>
        <time>2014-09-15T12:59:58Z</time>
      </trkpt>
      <trkpt lat="45.13457" lon="6.20298">
        <ele>1896.82</ele>
        <time>2014-09-15T12:59:59Z</time>
      </trkpt>
      <trkpt lat="45.13455" lon="6.20296">
        <ele>1896.82</ele>
        <time>2014-09-15T13:00:00Z</time>
      </trkpt>
      <trkpt lat="45.13453" lon="6.20293">
        <ele>1896.82</ele>
        <time>2014-09-15T13:00:01Z</time>
      </trkpt>
      <trkpt lat="45.13451" lon="6.2029">
        <ele>1896.82</ele>
        <time>2014-09-15T13:00:02Z</time>
      </trkpt>
      <trkpt lat="45.13449" lon="6.20286">
        <ele>1896.82</ele>
        <time>2014-09-15T13:00:03Z</time>
      </trkpt>
      <trkpt lat="45.13446" lon="6.20283">
        <ele>1896.82</ele>
        <time>2014-09-15T13:00:04Z</time>
      </trkpt>
      <trkpt lat="45.13444" lon="6.2028">
        <ele>1896.82</ele>
        <time>2014-09-15T13:00:05Z</time>
      </trkpt>
      <trkpt lat="45.1344" lon="6.20279">
        <ele>1896.82</ele>
        <time>2014-09-15T13:00:06Z</time>
      </trkpt>
      <trkpt lat="45.13437" lon="6.20279">
        <ele>1896.82</ele>
        <time>2014-09-15T13:00:07Z</time>
      </trkpt>
      <trkpt lat="45.13433" lon="6.20277">
        <ele>1896.82</ele>
        <time>2014-09-15T13:00:08Z</time>
      </trkpt>
      <trkpt lat="45.13429" lon="6.20276">
        <ele>1898.74</ele>
        <time>2014-09-15T13:00:09Z</time>
      </trkpt>
      <trkpt lat="45.13426" lon="6.20276">
        <ele>1899.22</ele>
        <time>2014-09-15T13:00:10Z</time>
      </trkpt>
      <trkpt lat="45.13424" lon="6.20277">
        <ele>1899.22</ele>
        <time>2014-09-15T13:00:11Z</time>
      </trkpt>
      <trkpt lat="45.13421" lon="6.20277">
        <ele>1899.22</ele>
        <time>2014-09-15T13:00:12Z</time>
      </trkpt>
      <trkpt lat="45.13419" lon="6.20278">
        <ele>1899.22</ele>
        <time>2014-09-15T13:00:13Z</time>
      </trkpt>
      <trkpt lat="45.13411" lon="6.20278">
        <ele>1899.22</ele>
        <time>2014-09-15T13:00:16Z</time>
      </trkpt>
      <trkpt lat="45.1341" lon="6.20276">
        <ele>1899.22</ele>
        <time>2014-09-15T13:00:17Z</time>
      </trkpt>
      <trkpt lat="45.1341" lon="6.20274">
        <ele>1899.22</ele>
        <time>2014-09-15T13:00:18Z</time>
      </trkpt>
      <trkpt lat="45.13411" lon="6.20272">
        <ele>1899.22</ele>
        <time>2014-09-15T13:00:19Z</time>
      </trkpt>
      <trkpt lat="45.13411" lon="6.2027">
        <ele>1899.22</ele>
        <time>2014-09-15T13:00:20Z</time>
      </trkpt>
      <trkpt lat="45.13411" lon="6.20267">
        <ele>1899.22</ele>
        <time>2014-09-15T13:00:21Z</time>
      </trkpt>
      <trkpt lat="45.1341" lon="6.20265">
        <ele>1899.7</ele>
        <time>2014-09-15T13:00:22Z</time>
      </trkpt>
      <trkpt lat="45.13409" lon="6.20263">
        <ele>1899.7</ele>
        <time>2014-09-15T13:00:23Z</time>
      </trkpt>
      <trkpt lat="45.13407" lon="6.2026">
        <ele>1899.7</ele>
        <time>2014-09-15T13:00:24Z</time>
      </trkpt>
      <trkpt lat="45.13388" lon="6.20234">
        <ele>1897.78</ele>
        <time>2014-09-15T13:00:32Z</time>
      </trkpt>
      <trkpt lat="45.13386" lon="6.2023">
        <ele>1896.82</ele>
        <time>2014-09-15T13:00:33Z</time>
      </trkpt>
      <trkpt lat="45.13385" lon="6.20226">
        <ele>1896.82</ele>
        <time>2014-09-15T13:00:34Z</time>
      </trkpt>
      <trkpt lat="45.13383" lon="6.20223">
        <ele>1896.82</ele>
        <time>2014-09-15T13:00:35Z</time>
      </trkpt>
      <trkpt lat="45.13382" lon="6.2022">
        <ele>1896.82</ele>
        <time>2014-09-15T13:00:36Z</time>
      </trkpt>
      <trkpt lat="45.13379" lon="6.20217">
        <ele>1896.82</ele>
        <time>2014-09-15T13:00:37Z</time>
      </trkpt>
      <trkpt lat="45.13352" lon="6.20183">
        <ele>1896.82</ele>
        <time>2014-09-15T13:00:49Z</time>
      </trkpt>
      <trkpt lat="45.13333" lon="6.20159">
        <ele>1896.34</ele>
        <time>2014-09-15T13:00:56Z</time>
      </trkpt>
      <trkpt lat="45.13318" lon="6.20155">
        <ele>1895.38</ele>
        <time>2014-09-15T13:01:01Z</time>
      </trkpt>
      <trkpt lat="45.13307" lon="6.2015">
        <ele>1894.42</ele>
        <time>2014-09-15T13:01:04Z</time>
      </trkpt>
      <trkpt lat="45.13299" lon="6.20145">
        <ele>1894.42</ele>
        <time>2014-09-15T13:01:06Z</time>
      </trkpt>
      <trkpt lat="45.13296" lon="6.20142">
        <ele>1894.42</ele>
        <time>2014-09-15T13:01:07Z</time>
      </trkpt>
      <trkpt lat="45.13292" lon="6.2014">
        <ele>1894.42</ele>
        <time>2014-09-15T13:01:08Z</time>
      </trkpt>
      <trkpt lat="45.13288" lon="6.20137">
        <ele>1894.42</ele>
        <time>2014-09-15T13:01:09Z</time>
      </trkpt>
      <trkpt lat="45.13284" lon="6.20132">
        <ele>1893.45</ele>
        <time>2014-09-15T13:01:10Z</time>
      </trkpt>
      <trkpt lat="45.13281" lon="6.20127">
        <ele>1893.45</ele>
        <time>2014-09-15T13:01:11Z</time>
      </trkpt>
      <trkpt lat="45.13279" lon="6.20121">
        <ele>1893.45</ele>
        <time>2014-09-15T13:01:12Z</time>
      </trkpt>
      <trkpt lat="45.13268" lon="6.20104">
        <ele>1894.9</ele>
        <time>2014-09-15T13:01:17Z</time>
      </trkpt>
      <trkpt lat="45.13235" lon="6.20088">
        <ele>1894.9</ele>
        <time>2014-09-15T13:01:30Z</time>
      </trkpt>
      <trkpt lat="45.13212" lon="6.20082">
        <ele>1894.9</ele>
        <time>2014-09-15T13:01:39Z</time>
      </trkpt>
      <trkpt lat="45.13209" lon="6.2008">
        <ele>1894.9</ele>
        <time>2014-09-15T13:01:40Z</time>
      </trkpt>
      <trkpt lat="45.13183" lon="6.2005">
        <ele>1895.38</ele>
        <time>2014-09-15T13:01:52Z</time>
      </trkpt>
      <trkpt lat="45.13153" lon="6.20036">
        <ele>1895.38</ele>
        <time>2014-09-15T13:02:02Z</time>
      </trkpt>
      <trkpt lat="45.13129" lon="6.20023">
        <ele>1896.82</ele>
        <time>2014-09-15T13:02:11Z</time>
      </trkpt>
      <trkpt lat="45.13099" lon="6.2001">
        <ele>1897.3</ele>
        <time>2014-09-15T13:02:25Z</time>
      </trkpt>
      <trkpt lat="45.13097" lon="6.20009">
        <ele>1897.3</ele>
        <time>2014-09-15T13:02:28Z</time>
      </trkpt>
      <trkpt lat="45.13089" lon="6.19998">
        <ele>1897.78</ele>
        <time>2014-09-15T13:02:40Z</time>
      </trkpt>
      <trkpt lat="45.13062" lon="6.19979">
        <ele>1895.38</ele>
        <time>2014-09-15T13:02:50Z</time>
      </trkpt>
      <trkpt lat="45.13045" lon="6.19965">
        <ele>1893.93</ele>
        <time>2014-09-15T13:02:58Z</time>
      </trkpt>
      <trkpt lat="45.13024" lon="6.19949">
        <ele>1893.45</ele>
        <time>2014-09-15T13:03:05Z</time>
      </trkpt>
      <trkpt lat="45.1302" lon="6.19946">
        <ele>1892.97</ele>
        <time>2014-09-15T13:03:06Z</time>
      </trkpt>
      <trkpt lat="45.13017" lon="6.19943">
        <ele>1892.97</ele>
        <time>2014-09-15T13:03:07Z</time>
      </trkpt>
      <trkpt lat="45.12995" lon="6.19933">
        <ele>1891.53</ele>
        <time>2014-09-15T13:03:14Z</time>
      </trkpt>
      <trkpt lat="45.12991" lon="6.1993">
        <ele>1891.53</ele>
        <time>2014-09-15T13:03:15Z</time>
      </trkpt>
      <trkpt lat="45.12987" lon="6.19928">
        <ele>1891.05</ele>
        <time>2014-09-15T13:03:16Z</time>
      </trkpt>
      <trkpt lat="45.12982" lon="6.19925">
        <ele>1890.57</ele>
        <time>2014-09-15T13:03:17Z</time>
      </trkpt>
      <trkpt lat="45.12976" lon="6.19923">
        <ele>1889.61</ele>
        <time>2014-09-15T13:03:18Z</time>
      </trkpt>
      <trkpt lat="45.1297" lon="6.19918">
        <ele>1888.65</ele>
        <time>2014-09-15T13:03:19Z</time>
      </trkpt>
      <trkpt lat="45.12965" lon="6.19912">
        <ele>1887.69</ele>
        <time>2014-09-15T13:03:20Z</time>
      </trkpt>
      <trkpt lat="45.1296" lon="6.19905">
        <ele>1887.21</ele>
        <time>2014-09-15T13:03:21Z</time>
      </trkpt>
      <trkpt lat="45.12955" lon="6.19899">
        <ele>1887.21</ele>
        <time>2014-09-15T13:03:22Z</time>
      </trkpt>
      <trkpt lat="45.12949" lon="6.19893">
        <ele>1885.76</ele>
        <time>2014-09-15T13:03:23Z</time>
      </trkpt>
      <trkpt lat="45.12942" lon="6.19888">
        <ele>1884.32</ele>
        <time>2014-09-15T13:03:24Z</time>
      </trkpt>
      <trkpt lat="45.12923" lon="6.19875">
        <ele>1882.4</ele>
        <time>2014-09-15T13:03:27Z</time>
      </trkpt>
      <trkpt lat="45.12919" lon="6.19874">
        <ele>1881.44</ele>
        <time>2014-09-15T13:03:28Z</time>
      </trkpt>
      <trkpt lat="45.12908" lon="6.19878">
        <ele>1877.11</ele>
        <time>2014-09-15T13:03:30Z</time>
      </trkpt>
      <trkpt lat="45.12894" lon="6.19869">
        <ele>1875.19</ele>
        <time>2014-09-15T13:03:36Z</time>
      </trkpt>
      <trkpt lat="45.12887" lon="6.19858">
        <ele>1873.27</ele>
        <time>2014-09-15T13:03:38Z</time>
      </trkpt>
      <trkpt lat="45.12871" lon="6.19838">
        <ele>1871.34</ele>
        <time>2014-09-15T13:03:42Z</time>
      </trkpt>
      <trkpt lat="45.12866" lon="6.19834">
        <ele>1870.86</ele>
        <time>2014-09-15T13:03:43Z</time>
      </trkpt>
      <trkpt lat="45.12861" lon="6.19832">
        <ele>1869.9</ele>
        <time>2014-09-15T13:03:44Z</time>
      </trkpt>
      <trkpt lat="45.12857" lon="6.19832">
        <ele>1868.94</ele>
        <time>2014-09-15T13:03:45Z</time>
      </trkpt>
      <trkpt lat="45.12852" lon="6.19832">
        <ele>1868.46</ele>
        <time>2014-09-15T13:03:46Z</time>
      </trkpt>
      <trkpt lat="45.12848" lon="6.19832">
        <ele>1868.46</ele>
        <time>2014-09-15T13:03:47Z</time>
      </trkpt>
      <trkpt lat="45.12844" lon="6.19831">
        <ele>1867.98</ele>
        <time>2014-09-15T13:03:48Z</time>
      </trkpt>
      <trkpt lat="45.12835" lon="6.19831">
        <ele>1867.5</ele>
        <time>2014-09-15T13:03:50Z</time>
      </trkpt>
      <trkpt lat="45.1283" lon="6.1983">
        <ele>1867.02</ele>
        <time>2014-09-15T13:03:51Z</time>
      </trkpt>
      <trkpt lat="45.12814" lon="6.19831">
        <ele>1865.58</ele>
        <time>2014-09-15T13:03:54Z</time>
      </trkpt>
      <trkpt lat="45.12771" lon="6.1983">
        <ele>1866.54</ele>
        <time>2014-09-15T13:04:04Z</time>
      </trkpt>
      <trkpt lat="45.12743" lon="6.19817">
        <ele>1867.02</ele>
        <time>2014-09-15T13:04:14Z</time>
      </trkpt>
      <trkpt lat="45.12716" lon="6.19817">
        <ele>1869.9</ele>
        <time>2014-09-15T13:04:26Z</time>
      </trkpt>
      <trkpt lat="45.12695" lon="6.19811">
        <ele>1871.82</ele>
        <time>2014-09-15T13:04:37Z</time>
      </trkpt>
      <trkpt lat="45.12693" lon="6.1981">
        <ele>1871.82</ele>
        <time>2014-09-15T13:04:38Z</time>
      </trkpt>
      <trkpt lat="45.12691" lon="6.19809">
        <ele>1871.82</ele>
        <time>2014-09-15T13:04:39Z</time>
      </trkpt>
      <trkpt lat="45.12689" lon="6.19808">
        <ele>1871.82</ele>
        <time>2014-09-15T13:04:40Z</time>
      </trkpt>
      <trkpt lat="45.12688" lon="6.19807">
        <ele>1871.82</ele>
        <time>2014-09-15T13:04:41Z</time>
      </trkpt>
      <trkpt lat="45.12683" lon="6.19806">
        <ele>1871.82</ele>
        <time>2014-09-15T13:04:43Z</time>
      </trkpt>
      <trkpt lat="45.12681" lon="6.19805">
        <ele>1871.82</ele>
        <time>2014-09-15T13:04:44Z</time>
      </trkpt>
      <trkpt lat="45.12679" lon="6.19804">
        <ele>1871.82</ele>
        <time>2014-09-15T13:04:45Z</time>
      </trkpt>
      <trkpt lat="45.12678" lon="6.19802">
        <ele>1871.82</ele>
        <time>2014-09-15T13:04:46Z</time>
      </trkpt>
      <trkpt lat="45.12676" lon="6.19801">
        <ele>1871.82</ele>
        <time>2014-09-15T13:04:47Z</time>
      </trkpt>
      <trkpt lat="45.12673" lon="6.19801">
        <ele>1871.82</ele>
        <time>2014-09-15T13:04:48Z</time>
      </trkpt>
      <trkpt lat="45.1265" lon="6.19793">
        <ele>1873.27</ele>
        <time>2014-09-15T13:05:02Z</time>
      </trkpt>
      <trkpt lat="45.12637" lon="6.198">
        <ele>1871.34</ele>
        <time>2014-09-15T13:05:09Z</time>
      </trkpt>
      <trkpt lat="45.1263" lon="6.19794">
        <ele>1872.79</ele>
        <time>2014-09-15T13:05:20Z</time>
      </trkpt>
      <trkpt lat="45.12622" lon="6.19782">
        <ele>1875.67</ele>
        <time>2014-09-15T13:05:36Z</time>
      </trkpt>
      <trkpt lat="45.12622" lon="6.19779">
        <ele>1875.67</ele>
        <time>2014-09-15T13:05:54Z</time>
      </trkpt>
      <trkpt lat="45.12621" lon="6.19781">
        <ele>1875.19</ele>
        <time>2014-09-15T13:06:26Z</time>
      </trkpt>
      <trkpt lat="45.12621" lon="6.19779">
        <ele>1875.19</ele>
        <time>2014-09-15T13:06:55Z</time>
      </trkpt>
      <trkpt lat="45.12625" lon="6.1978">
        <ele>1875.19</ele>
        <time>2014-09-15T13:07:26Z</time>
      </trkpt>
      <trkpt lat="45.12624" lon="6.1978">
        <ele>1874.71</ele>
        <time>2014-09-15T13:07:50Z</time>
      </trkpt>
      <trkpt lat="45.12624" lon="6.19783">
        <ele>1874.71</ele>
        <time>2014-09-15T13:08:18Z</time>
      </trkpt>
      <trkpt lat="45.12623" lon="6.1978">
        <ele>1874.71</ele>
        <time>2014-09-15T13:08:41Z</time>
      </trkpt>
      <trkpt lat="45.12622" lon="6.19783">
        <ele>1875.19</ele>
        <time>2014-09-15T13:09:03Z</time>
      </trkpt>
      <trkpt lat="45.12621" lon="6.19783">
        <ele>1875.19</ele>
        <time>2014-09-15T13:09:05Z</time>
      </trkpt>
      <trkpt lat="45.1262" lon="6.19782">
        <ele>1875.67</ele>
        <time>2014-09-15T13:09:15Z</time>
      </trkpt>
      <trkpt lat="45.12619" lon="6.19781">
        <ele>1875.67</ele>
        <time>2014-09-15T13:09:16Z</time>
      </trkpt>
      <trkpt lat="45.12596" lon="6.19769">
        <ele>1877.11</ele>
        <time>2014-09-15T13:09:30Z</time>
      </trkpt>
      <trkpt lat="45.12578" lon="6.19749">
        <ele>1873.75</ele>
        <time>2014-09-15T13:09:37Z</time>
      </trkpt>
      <trkpt lat="45.12568" lon="6.19742">
        <ele>1871.34</ele>
        <time>2014-09-15T13:09:41Z</time>
      </trkpt>
      <trkpt lat="45.12568" lon="6.1974">
        <ele>1870.86</ele>
        <time>2014-09-15T13:09:42Z</time>
      </trkpt>
      <trkpt lat="45.12574" lon="6.19736">
        <ele>1868.46</ele>
        <time>2014-09-15T13:09:46Z</time>
      </trkpt>
      <trkpt lat="45.12572" lon="6.19733">
        <ele>1867.98</ele>
        <time>2014-09-15T13:09:47Z</time>
      </trkpt>
      <trkpt lat="45.12569" lon="6.19731">
        <ele>1867.02</ele>
        <time>2014-09-15T13:09:48Z</time>
      </trkpt>
      <trkpt lat="45.12565" lon="6.1973">
        <ele>1866.06</ele>
        <time>2014-09-15T13:09:49Z</time>
      </trkpt>
      <trkpt lat="45.12561" lon="6.19729">
        <ele>1864.61</ele>
        <time>2014-09-15T13:09:50Z</time>
      </trkpt>
      <trkpt lat="45.12557" lon="6.19729">
        <ele>1864.13</ele>
        <time>2014-09-15T13:09:51Z</time>
      </trkpt>
      <trkpt lat="45.12555" lon="6.19728">
        <ele>1863.65</ele>
        <time>2014-09-15T13:09:52Z</time>
      </trkpt>
      <trkpt lat="45.12552" lon="6.19728">
        <ele>1863.17</ele>
        <time>2014-09-15T13:09:53Z</time>
      </trkpt>
      <trkpt lat="45.1255" lon="6.19727">
        <ele>1862.69</ele>
        <time>2014-09-15T13:09:54Z</time>
      </trkpt>
      <trkpt lat="45.12548" lon="6.19725">
        <ele>1862.21</ele>
        <time>2014-09-15T13:09:55Z</time>
      </trkpt>
      <trkpt lat="45.12548" lon="6.19723">
        <ele>1862.21</ele>
        <time>2014-09-15T13:09:56Z</time>
      </trkpt>
      <trkpt lat="45.12547" lon="6.19721">
        <ele>1862.21</ele>
        <time>2014-09-15T13:09:57Z</time>
      </trkpt>
      <trkpt lat="45.12547" lon="6.19719">
        <ele>1862.21</ele>
        <time>2014-09-15T13:09:58Z</time>
      </trkpt>
      <trkpt lat="45.12546" lon="6.19717">
        <ele>1862.21</ele>
        <time>2014-09-15T13:09:59Z</time>
      </trkpt>
      <trkpt lat="45.12546" lon="6.19715">
        <ele>1863.17</ele>
        <time>2014-09-15T13:10:00Z</time>
      </trkpt>
      <trkpt lat="45.12546" lon="6.19713">
        <ele>1863.65</ele>
        <time>2014-09-15T13:10:01Z</time>
      </trkpt>
      <trkpt lat="45.12544" lon="6.19705">
        <ele>1866.06</ele>
        <time>2014-09-15T13:10:06Z</time>
      </trkpt>
      <trkpt lat="45.12544" lon="6.19701">
        <ele>1867.02</ele>
        <time>2014-09-15T13:10:17Z</time>
      </trkpt>
      <trkpt lat="45.12542" lon="6.19689">
        <ele>1868.46</ele>
        <time>2014-09-15T13:10:30Z</time>
      </trkpt>
      <trkpt lat="45.12541" lon="6.19691">
        <ele>1868.46</ele>
        <time>2014-09-15T13:10:36Z</time>
      </trkpt>
      <trkpt lat="45.12541" lon="6.19693">
        <ele>1868.46</ele>
        <time>2014-09-15T13:10:37Z</time>
      </trkpt>
      <trkpt lat="45.12541" lon="6.19695">
        <ele>1868.46</ele>
        <time>2014-09-15T13:10:38Z</time>
      </trkpt>
      <trkpt lat="45.1254" lon="6.19698">
        <ele>1868.46</ele>
        <time>2014-09-15T13:10:39Z</time>
      </trkpt>
      <trkpt lat="45.1254" lon="6.197">
        <ele>1868.46</ele>
        <time>2014-09-15T13:10:40Z</time>
      </trkpt>
      <trkpt lat="45.12539" lon="6.19701">
        <ele>1868.94</ele>
        <time>2014-09-15T13:10:41Z</time>
      </trkpt>
      <trkpt lat="45.12539" lon="6.19703">
        <ele>1868.94</ele>
        <time>2014-09-15T13:10:42Z</time>
      </trkpt>
      <trkpt lat="45.12538" lon="6.19705">
        <ele>1869.42</ele>
        <time>2014-09-15T13:10:43Z</time>
      </trkpt>
      <trkpt lat="45.12537" lon="6.19708">
        <ele>1869.42</ele>
        <time>2014-09-15T13:10:44Z</time>
      </trkpt>
      <trkpt lat="45.12536" lon="6.19709">
        <ele>1869.9</ele>
        <time>2014-09-15T13:10:45Z</time>
      </trkpt>
      <trkpt lat="45.12536" lon="6.19711">
        <ele>1869.9</ele>
        <time>2014-09-15T13:10:46Z</time>
      </trkpt>
      <trkpt lat="45.12535" lon="6.19712">
        <ele>1869.9</ele>
        <time>2014-09-15T13:10:47Z</time>
      </trkpt>
      <trkpt lat="45.12534" lon="6.19704">
        <ele>1871.34</ele>
        <time>2014-09-15T13:10:59Z</time>
      </trkpt>
      <trkpt lat="45.12531" lon="6.19694">
        <ele>1873.27</ele>
        <time>2014-09-15T13:11:12Z</time>
      </trkpt>
      <trkpt lat="45.12528" lon="6.19688">
        <ele>1874.71</ele>
        <time>2014-09-15T13:11:25Z</time>
      </trkpt>
      <trkpt lat="45.12527" lon="6.19687">
        <ele>1874.71</ele>
        <time>2014-09-15T13:11:26Z</time>
      </trkpt>
      <trkpt lat="45.12522" lon="6.19679">
        <ele>1875.67</ele>
        <time>2014-09-15T13:11:40Z</time>
      </trkpt>
      <trkpt lat="45.1251" lon="6.19668">
        <ele>1875.67</ele>
        <time>2014-09-15T13:11:52Z</time>
      </trkpt>
      <trkpt lat="45.12487" lon="6.19648">
        <ele>1875.67</ele>
        <time>2014-09-15T13:12:03Z</time>
      </trkpt>
      <trkpt lat="45.12477" lon="6.19643">
        <ele>1873.75</ele>
        <time>2014-09-15T13:12:07Z</time>
      </trkpt>
      <trkpt lat="45.12478" lon="6.19642">
        <ele>1871.82</ele>
        <time>2014-09-15T13:12:10Z</time>
      </trkpt>
      <trkpt lat="45.12478" lon="6.19643">
        <ele>1873.75</ele>
        <time>2014-09-15T13:12:13Z</time>
      </trkpt>
      <trkpt lat="45.1248" lon="6.1964">
        <ele>1873.75</ele>
        <time>2014-09-15T13:12:21Z</time>
      </trkpt>
      <trkpt lat="45.12476" lon="6.19625">
        <ele>1873.75</ele>
        <time>2014-09-15T13:12:27Z</time>
      </trkpt>
      <trkpt lat="45.12461" lon="6.19591">
        <ele>1871.82</ele>
        <time>2014-09-15T13:12:35Z</time>
      </trkpt>
      <trkpt lat="45.12451" lon="6.19575">
        <ele>1871.34</ele>
        <time>2014-09-15T13:12:38Z</time>
      </trkpt>
      <trkpt lat="45.12443" lon="6.19567">
        <ele>1871.34</ele>
        <time>2014-09-15T13:12:40Z</time>
      </trkpt>
      <trkpt lat="45.12403" lon="6.19562">
        <ele>1870.38</ele>
        <time>2014-09-15T13:12:51Z</time>
      </trkpt>
      <trkpt lat="45.12397" lon="6.19544">
        <ele>1871.34</ele>
        <time>2014-09-15T13:12:57Z</time>
      </trkpt>
      <trkpt lat="45.12375" lon="6.1951">
        <ele>1872.79</ele>
        <time>2014-09-15T13:13:08Z</time>
      </trkpt>
      <trkpt lat="45.12351" lon="6.19489">
        <ele>1872.79</ele>
        <time>2014-09-15T13:13:19Z</time>
      </trkpt>
      <trkpt lat="45.12314" lon="6.19464">
        <ele>1870.38</ele>
        <time>2014-09-15T13:13:31Z</time>
      </trkpt>
      <trkpt lat="45.12305" lon="6.19448">
        <ele>1871.34</ele>
        <time>2014-09-15T13:13:38Z</time>
      </trkpt>
      <trkpt lat="45.12284" lon="6.19418">
        <ele>1871.82</ele>
        <time>2014-09-15T13:13:48Z</time>
      </trkpt>
      <trkpt lat="45.12268" lon="6.19398">
        <ele>1871.82</ele>
        <time>2014-09-15T13:13:56Z</time>
      </trkpt>
      <trkpt lat="45.12252" lon="6.19385">
        <ele>1871.82</ele>
        <time>2014-09-15T13:14:03Z</time>
      </trkpt>
      <trkpt lat="45.12241" lon="6.19377">
        <ele>1871.82</ele>
        <time>2014-09-15T13:14:09Z</time>
      </trkpt>
      <trkpt lat="45.12239" lon="6.19377">
        <ele>1871.82</ele>
        <time>2014-09-15T13:14:10Z</time>
      </trkpt>
      <trkpt lat="45.12237" lon="6.19377">
        <ele>1871.82</ele>
        <time>2014-09-15T13:14:11Z</time>
      </trkpt>
      <trkpt lat="45.12235" lon="6.19377">
        <ele>1871.82</ele>
        <time>2014-09-15T13:14:12Z</time>
      </trkpt>
      <trkpt lat="45.12233" lon="6.19376">
        <ele>1870.38</ele>
        <time>2014-09-15T13:14:13Z</time>
      </trkpt>
      <trkpt lat="45.12231" lon="6.19375">
        <ele>1870.38</ele>
        <time>2014-09-15T13:14:14Z</time>
      </trkpt>
      <trkpt lat="45.12222" lon="6.19362">
        <ele>1871.82</ele>
        <time>2014-09-15T13:14:19Z</time>
      </trkpt>
      <trkpt lat="45.12208" lon="6.19342">
        <ele>1873.75</ele>
        <time>2014-09-15T13:14:31Z</time>
      </trkpt>
      <trkpt lat="45.12196" lon="6.19332">
        <ele>1876.63</ele>
        <time>2014-09-15T13:14:41Z</time>
      </trkpt>
      <trkpt lat="45.12189" lon="6.19327">
        <ele>1878.55</ele>
        <time>2014-09-15T13:14:53Z</time>
      </trkpt>
      <trkpt lat="45.12188" lon="6.19324">
        <ele>1878.55</ele>
        <time>2014-09-15T13:15:04Z</time>
      </trkpt>
      <trkpt lat="45.12187" lon="6.19326">
        <ele>1878.55</ele>
        <time>2014-09-15T13:15:19Z</time>
      </trkpt>
      <trkpt lat="45.12178" lon="6.19319">
        <ele>1879.51</ele>
        <time>2014-09-15T13:15:36Z</time>
      </trkpt>
      <trkpt lat="45.12166" lon="6.19311">
        <ele>1882.88</ele>
        <time>2014-09-15T13:15:45Z</time>
      </trkpt>
      <trkpt lat="45.12152" lon="6.193">
        <ele>1885.76</ele>
        <time>2014-09-15T13:15:54Z</time>
      </trkpt>
      <trkpt lat="45.12137" lon="6.19283">
        <ele>1886.24</ele>
        <time>2014-09-15T13:16:06Z</time>
      </trkpt>
      <trkpt lat="45.12135" lon="6.1928">
        <ele>1886.72</ele>
        <time>2014-09-15T13:16:09Z</time>
      </trkpt>
      <trkpt lat="45.12118" lon="6.19263">
        <ele>1888.17</ele>
        <time>2014-09-15T13:16:25Z</time>
      </trkpt>
      <trkpt lat="45.12102" lon="6.19251">
        <ele>1890.09</ele>
        <time>2014-09-15T13:16:38Z</time>
      </trkpt>
      <trkpt lat="45.1209" lon="6.19243">
        <ele>1891.05</ele>
        <time>2014-09-15T13:16:49Z</time>
      </trkpt>
      <trkpt lat="45.12089" lon="6.19243">
        <ele>1891.05</ele>
        <time>2014-09-15T13:16:50Z</time>
      </trkpt>
      <trkpt lat="45.12065" lon="6.19228">
        <ele>1890.57</ele>
        <time>2014-09-15T13:17:02Z</time>
      </trkpt>
      <trkpt lat="45.12036" lon="6.19216">
        <ele>1889.61</ele>
        <time>2014-09-15T13:17:15Z</time>
      </trkpt>
      <trkpt lat="45.1202" lon="6.19204">
        <ele>1887.21</ele>
        <time>2014-09-15T13:17:20Z</time>
      </trkpt>
      <trkpt lat="45.12015" lon="6.19201">
        <ele>1886.24</ele>
        <time>2014-09-15T13:17:21Z</time>
      </trkpt>
      <trkpt lat="45.12009" lon="6.192">
        <ele>1885.76</ele>
        <time>2014-09-15T13:17:22Z</time>
      </trkpt>
      <trkpt lat="45.12003" lon="6.19197">
        <ele>1885.76</ele>
        <time>2014-09-15T13:17:23Z</time>
      </trkpt>
      <trkpt lat="45.11998" lon="6.19194">
        <ele>1885.76</ele>
        <time>2014-09-15T13:17:24Z</time>
      </trkpt>
      <trkpt lat="45.11992" lon="6.19191">
        <ele>1884.8</ele>
        <time>2014-09-15T13:17:25Z</time>
      </trkpt>
      <trkpt lat="45.11986" lon="6.19188">
        <ele>1883.84</ele>
        <time>2014-09-15T13:17:26Z</time>
      </trkpt>
      <trkpt lat="45.1198" lon="6.19185">
        <ele>1883.36</ele>
        <time>2014-09-15T13:17:27Z</time>
      </trkpt>
      <trkpt lat="45.11975" lon="6.19184">
        <ele>1883.36</ele>
        <time>2014-09-15T13:17:28Z</time>
      </trkpt>
      <trkpt lat="45.11971" lon="6.19184">
        <ele>1883.36</ele>
        <time>2014-09-15T13:17:29Z</time>
      </trkpt>
      <trkpt lat="45.11969" lon="6.19185">
        <ele>1883.36</ele>
        <time>2014-09-15T13:17:30Z</time>
      </trkpt>
      <trkpt lat="45.11968" lon="6.19182">
        <ele>1882.88</ele>
        <time>2014-09-15T13:17:38Z</time>
      </trkpt>
      <trkpt lat="45.11967" lon="6.19181">
        <ele>1882.88</ele>
        <time>2014-09-15T13:17:39Z</time>
      </trkpt>
      <trkpt lat="45.11967" lon="6.19179">
        <ele>1882.4</ele>
        <time>2014-09-15T13:17:40Z</time>
      </trkpt>
      <trkpt lat="45.11948" lon="6.19161">
        <ele>1879.03</ele>
        <time>2014-09-15T13:17:48Z</time>
      </trkpt>
      <trkpt lat="45.11947" lon="6.19159">
        <ele>1878.07</ele>
        <time>2014-09-15T13:17:54Z</time>
      </trkpt>
      <trkpt lat="45.11946" lon="6.19158">
        <ele>1878.07</ele>
        <time>2014-09-15T13:17:55Z</time>
      </trkpt>
      <trkpt lat="45.11944" lon="6.19157">
        <ele>1878.07</ele>
        <time>2014-09-15T13:17:57Z</time>
      </trkpt>
      <trkpt lat="45.11941" lon="6.19152">
        <ele>1879.51</ele>
        <time>2014-09-15T13:18:02Z</time>
      </trkpt>
      <trkpt lat="45.11939" lon="6.1915">
        <ele>1879.51</ele>
        <time>2014-09-15T13:18:03Z</time>
      </trkpt>
      <trkpt lat="45.11937" lon="6.19147">
        <ele>1879.51</ele>
        <time>2014-09-15T13:18:04Z</time>
      </trkpt>
      <trkpt lat="45.11934" lon="6.19146">
        <ele>1879.51</ele>
        <time>2014-09-15T13:18:05Z</time>
      </trkpt>
      <trkpt lat="45.11933" lon="6.19144">
        <ele>1879.51</ele>
        <time>2014-09-15T13:18:06Z</time>
      </trkpt>
      <trkpt lat="45.11931" lon="6.19143">
        <ele>1879.51</ele>
        <time>2014-09-15T13:18:08Z</time>
      </trkpt>
      <trkpt lat="45.1193" lon="6.1914">
        <ele>1878.55</ele>
        <time>2014-09-15T13:18:09Z</time>
      </trkpt>
      <trkpt lat="45.11926" lon="6.19137">
        <ele>1878.07</ele>
        <time>2014-09-15T13:18:10Z</time>
      </trkpt>
      <trkpt lat="45.11908" lon="6.19125">
        <ele>1876.63</ele>
        <time>2014-09-15T13:18:14Z</time>
      </trkpt>
      <trkpt lat="45.11903" lon="6.19123">
        <ele>1876.15</ele>
        <time>2014-09-15T13:18:15Z</time>
      </trkpt>
      <trkpt lat="45.11898" lon="6.1912">
        <ele>1875.67</ele>
        <time>2014-09-15T13:18:16Z</time>
      </trkpt>
      <trkpt lat="45.11894" lon="6.19118">
        <ele>1875.67</ele>
        <time>2014-09-15T13:18:17Z</time>
      </trkpt>
      <trkpt lat="45.11891" lon="6.19116">
        <ele>1875.67</ele>
        <time>2014-09-15T13:18:18Z</time>
      </trkpt>
      <trkpt lat="45.11874" lon="6.19108">
        <ele>1874.71</ele>
        <time>2014-09-15T13:18:22Z</time>
      </trkpt>
      <trkpt lat="45.11869" lon="6.19107">
        <ele>1874.71</ele>
        <time>2014-09-15T13:18:23Z</time>
      </trkpt>
      <trkpt lat="45.11866" lon="6.19108">
        <ele>1875.19</ele>
        <time>2014-09-15T13:18:24Z</time>
      </trkpt>
      <trkpt lat="45.11862" lon="6.19109">
        <ele>1875.19</ele>
        <time>2014-09-15T13:18:25Z</time>
      </trkpt>
      <trkpt lat="45.1186" lon="6.19109">
        <ele>1874.71</ele>
        <time>2014-09-15T13:18:26Z</time>
      </trkpt>
      <trkpt lat="45.11857" lon="6.19108">
        <ele>1874.71</ele>
        <time>2014-09-15T13:18:27Z</time>
      </trkpt>
      <trkpt lat="45.11847" lon="6.19099">
        <ele>1877.59</ele>
        <time>2014-09-15T13:18:33Z</time>
      </trkpt>
      <trkpt lat="45.11834" lon="6.19086">
        <ele>1877.11</ele>
        <time>2014-09-15T13:18:39Z</time>
      </trkpt>
      <trkpt lat="45.11831" lon="6.19081">
        <ele>1877.11</ele>
        <time>2014-09-15T13:18:40Z</time>
      </trkpt>
      <trkpt lat="45.11829" lon="6.19078">
        <ele>1877.11</ele>
        <time>2014-09-15T13:18:41Z</time>
      </trkpt>
      <trkpt lat="45.11828" lon="6.19075">
        <ele>1877.11</ele>
        <time>2014-09-15T13:18:42Z</time>
      </trkpt>
      <trkpt lat="45.11827" lon="6.19073">
        <ele>1877.11</ele>
        <time>2014-09-15T13:18:43Z</time>
      </trkpt>
      <trkpt lat="45.11825" lon="6.19072">
        <ele>1877.11</ele>
        <time>2014-09-15T13:18:44Z</time>
      </trkpt>
      <trkpt lat="45.11801" lon="6.19055">
        <ele>1877.11</ele>
        <time>2014-09-15T13:18:56Z</time>
      </trkpt>
      <trkpt lat="45.11803" lon="6.19054">
        <ele>1876.63</ele>
        <time>2014-09-15T13:19:20Z</time>
      </trkpt>
      <trkpt lat="45.11802" lon="6.19053">
        <ele>1876.63</ele>
        <time>2014-09-15T13:19:31Z</time>
      </trkpt>
      <trkpt lat="45.11801" lon="6.19053">
        <ele>1876.63</ele>
        <time>2014-09-15T13:19:32Z</time>
      </trkpt>
      <trkpt lat="45.11799" lon="6.19051">
        <ele>1876.63</ele>
        <time>2014-09-15T13:19:33Z</time>
      </trkpt>
      <trkpt lat="45.11797" lon="6.19049">
        <ele>1876.63</ele>
        <time>2014-09-15T13:19:34Z</time>
      </trkpt>
      <trkpt lat="45.11795" lon="6.19047">
        <ele>1876.63</ele>
        <time>2014-09-15T13:19:35Z</time>
      </trkpt>
      <trkpt lat="45.11793" lon="6.19044">
        <ele>1876.63</ele>
        <time>2014-09-15T13:19:36Z</time>
      </trkpt>
      <trkpt lat="45.1179" lon="6.19042">
        <ele>1876.15</ele>
        <time>2014-09-15T13:19:37Z</time>
      </trkpt>
      <trkpt lat="45.11787" lon="6.1904">
        <ele>1876.15</ele>
        <time>2014-09-15T13:19:38Z</time>
      </trkpt>
      <trkpt lat="45.11784" lon="6.19039">
        <ele>1875.67</ele>
        <time>2014-09-15T13:19:39Z</time>
      </trkpt>
      <trkpt lat="45.11782" lon="6.19038">
        <ele>1875.67</ele>
        <time>2014-09-15T13:19:40Z</time>
      </trkpt>
      <trkpt lat="45.1178" lon="6.19038">
        <ele>1875.67</ele>
        <time>2014-09-15T13:19:41Z</time>
      </trkpt>
      <trkpt lat="45.11779" lon="6.19039">
        <ele>1875.19</ele>
        <time>2014-09-15T13:19:42Z</time>
      </trkpt>
      <trkpt lat="45.11777" lon="6.19039">
        <ele>1875.19</ele>
        <time>2014-09-15T13:19:43Z</time>
      </trkpt>
      <trkpt lat="45.11775" lon="6.19038">
        <ele>1874.71</ele>
        <time>2014-09-15T13:19:44Z</time>
      </trkpt>
      <trkpt lat="45.11774" lon="6.19037">
        <ele>1874.71</ele>
        <time>2014-09-15T13:19:45Z</time>
      </trkpt>
      <trkpt lat="45.11773" lon="6.19035">
        <ele>1874.71</ele>
        <time>2014-09-15T13:19:46Z</time>
      </trkpt>
      <trkpt lat="45.11771" lon="6.19033">
        <ele>1874.71</ele>
        <time>2014-09-15T13:19:47Z</time>
      </trkpt>
      <trkpt lat="45.11751" lon="6.19016">
        <ele>1873.75</ele>
        <time>2014-09-15T13:19:55Z</time>
      </trkpt>
      <trkpt lat="45.11747" lon="6.19012">
        <ele>1873.75</ele>
        <time>2014-09-15T13:19:56Z</time>
      </trkpt>
      <trkpt lat="45.11743" lon="6.19009">
        <ele>1873.75</ele>
        <time>2014-09-15T13:19:57Z</time>
      </trkpt>
      <trkpt lat="45.1173" lon="6.19">
        <ele>1873.27</ele>
        <time>2014-09-15T13:20:00Z</time>
      </trkpt>
      <trkpt lat="45.11727" lon="6.18999">
        <ele>1873.27</ele>
        <time>2014-09-15T13:20:01Z</time>
      </trkpt>
      <trkpt lat="45.11724" lon="6.18998">
        <ele>1873.27</ele>
        <time>2014-09-15T13:20:02Z</time>
      </trkpt>
      <trkpt lat="45.11722" lon="6.18998">
        <ele>1873.27</ele>
        <time>2014-09-15T13:20:03Z</time>
      </trkpt>
      <trkpt lat="45.11719" lon="6.18997">
        <ele>1874.23</ele>
        <time>2014-09-15T13:20:04Z</time>
      </trkpt>
      <trkpt lat="45.11715" lon="6.18995">
        <ele>1874.23</ele>
        <time>2014-09-15T13:20:05Z</time>
      </trkpt>
      <trkpt lat="45.11711" lon="6.18993">
        <ele>1874.23</ele>
        <time>2014-09-15T13:20:06Z</time>
      </trkpt>
      <trkpt lat="45.11708" lon="6.1899">
        <ele>1873.27</ele>
        <time>2014-09-15T13:20:07Z</time>
      </trkpt>
      <trkpt lat="45.11703" lon="6.18988">
        <ele>1872.3</ele>
        <time>2014-09-15T13:20:08Z</time>
      </trkpt>
      <trkpt lat="45.11698" lon="6.18985">
        <ele>1872.3</ele>
        <time>2014-09-15T13:20:09Z</time>
      </trkpt>
      <trkpt lat="45.11686" lon="6.18979">
        <ele>1870.38</ele>
        <time>2014-09-15T13:20:11Z</time>
      </trkpt>
      <trkpt lat="45.1168" lon="6.18975">
        <ele>1870.38</ele>
        <time>2014-09-15T13:20:12Z</time>
      </trkpt>
      <trkpt lat="45.11663" lon="6.18967">
        <ele>1869.9</ele>
        <time>2014-09-15T13:20:15Z</time>
      </trkpt>
      <trkpt lat="45.11658" lon="6.18966">
        <ele>1869.9</ele>
        <time>2014-09-15T13:20:16Z</time>
      </trkpt>
      <trkpt lat="45.11654" lon="6.18964">
        <ele>1868.94</ele>
        <time>2014-09-15T13:20:17Z</time>
      </trkpt>
      <trkpt lat="45.11652" lon="6.1896">
        <ele>1868.46</ele>
        <time>2014-09-15T13:20:18Z</time>
      </trkpt>
      <trkpt lat="45.1165" lon="6.18955">
        <ele>1868.46</ele>
        <time>2014-09-15T13:20:19Z</time>
      </trkpt>
      <trkpt lat="45.11649" lon="6.18951">
        <ele>1868.46</ele>
        <time>2014-09-15T13:20:20Z</time>
      </trkpt>
      <trkpt lat="45.11646" lon="6.18947">
        <ele>1868.46</ele>
        <time>2014-09-15T13:20:21Z</time>
      </trkpt>
      <trkpt lat="45.11642" lon="6.18944">
        <ele>1867.98</ele>
        <time>2014-09-15T13:20:22Z</time>
      </trkpt>
      <trkpt lat="45.11638" lon="6.18941">
        <ele>1867.98</ele>
        <time>2014-09-15T13:20:23Z</time>
      </trkpt>
      <trkpt lat="45.11634" lon="6.18938">
        <ele>1867.02</ele>
        <time>2014-09-15T13:20:24Z</time>
      </trkpt>
      <trkpt lat="45.11629" lon="6.18935">
        <ele>1867.02</ele>
        <time>2014-09-15T13:20:25Z</time>
      </trkpt>
      <trkpt lat="45.11618" lon="6.18926">
        <ele>1863.65</ele>
        <time>2014-09-15T13:20:30Z</time>
      </trkpt>
      <trkpt lat="45.11617" lon="6.18925">
        <ele>1863.65</ele>
        <time>2014-09-15T13:20:31Z</time>
      </trkpt>
      <trkpt lat="45.11602" lon="6.18921">
        <ele>1859.33</ele>
        <time>2014-09-15T13:20:43Z</time>
      </trkpt>
      <trkpt lat="45.11598" lon="6.18919">
        <ele>1858.85</ele>
        <time>2014-09-15T13:20:45Z</time>
      </trkpt>
      <trkpt lat="45.11583" lon="6.18906">
        <ele>1862.21</ele>
        <time>2014-09-15T13:20:55Z</time>
      </trkpt>
      <trkpt lat="45.11568" lon="6.18898">
        <ele>1862.21</ele>
        <time>2014-09-15T13:21:05Z</time>
      </trkpt>
      <trkpt lat="45.11566" lon="6.18899">
        <ele>1862.21</ele>
        <time>2014-09-15T13:21:06Z</time>
      </trkpt>
      <trkpt lat="45.11564" lon="6.18898">
        <ele>1862.21</ele>
        <time>2014-09-15T13:21:07Z</time>
      </trkpt>
      <trkpt lat="45.11562" lon="6.18896">
        <ele>1862.69</ele>
        <time>2014-09-15T13:21:08Z</time>
      </trkpt>
      <trkpt lat="45.11561" lon="6.18894">
        <ele>1863.17</ele>
        <time>2014-09-15T13:21:09Z</time>
      </trkpt>
      <trkpt lat="45.11558" lon="6.18891">
        <ele>1864.13</ele>
        <time>2014-09-15T13:21:11Z</time>
      </trkpt>
      <trkpt lat="45.11548" lon="6.18883">
        <ele>1867.5</ele>
        <time>2014-09-15T13:21:18Z</time>
      </trkpt>
      <trkpt lat="45.11535" lon="6.1888">
        <ele>1870.86</ele>
        <time>2014-09-15T13:21:25Z</time>
      </trkpt>
      <trkpt lat="45.11515" lon="6.18865">
        <ele>1872.79</ele>
        <time>2014-09-15T13:21:41Z</time>
      </trkpt>
      <trkpt lat="45.11499" lon="6.18855">
        <ele>1875.19</ele>
        <time>2014-09-15T13:21:55Z</time>
      </trkpt>
      <trkpt lat="45.11498" lon="6.18854">
        <ele>1875.19</ele>
        <time>2014-09-15T13:21:56Z</time>
      </trkpt>
      <trkpt lat="45.11497" lon="6.18853">
        <ele>1875.67</ele>
        <time>2014-09-15T13:21:57Z</time>
      </trkpt>
      <trkpt lat="45.11496" lon="6.18853">
        <ele>1875.67</ele>
        <time>2014-09-15T13:21:58Z</time>
      </trkpt>
      <trkpt lat="45.11495" lon="6.18852">
        <ele>1876.15</ele>
        <time>2014-09-15T13:21:59Z</time>
      </trkpt>
      <trkpt lat="45.11494" lon="6.18852">
        <ele>1876.15</ele>
        <time>2014-09-15T13:22:00Z</time>
      </trkpt>
      <trkpt lat="45.11493" lon="6.18852">
        <ele>1876.63</ele>
        <time>2014-09-15T13:22:01Z</time>
      </trkpt>
      <trkpt lat="45.11491" lon="6.18851">
        <ele>1876.63</ele>
        <time>2014-09-15T13:22:02Z</time>
      </trkpt>
      <trkpt lat="45.1149" lon="6.18851">
        <ele>1877.11</ele>
        <time>2014-09-15T13:22:03Z</time>
      </trkpt>
      <trkpt lat="45.11488" lon="6.18851">
        <ele>1877.59</ele>
        <time>2014-09-15T13:22:04Z</time>
      </trkpt>
      <trkpt lat="45.11487" lon="6.1885">
        <ele>1878.07</ele>
        <time>2014-09-15T13:22:05Z</time>
      </trkpt>
      <trkpt lat="45.11486" lon="6.1885">
        <ele>1878.07</ele>
        <time>2014-09-15T13:22:06Z</time>
      </trkpt>
      <trkpt lat="45.11485" lon="6.18849">
        <ele>1878.55</ele>
        <time>2014-09-15T13:22:07Z</time>
      </trkpt>
      <trkpt lat="45.11469" lon="6.1884">
        <ele>1881.44</ele>
        <time>2014-09-15T13:22:25Z</time>
      </trkpt>
      <trkpt lat="45.1146" lon="6.18834">
        <ele>1883.84</ele>
        <time>2014-09-15T13:22:34Z</time>
      </trkpt>
      <trkpt lat="45.11459" lon="6.18834">
        <ele>1883.84</ele>
        <time>2014-09-15T13:22:35Z</time>
      </trkpt>
      <trkpt lat="45.11442" lon="6.18829">
        <ele>1886.72</ele>
        <time>2014-09-15T13:22:51Z</time>
      </trkpt>
      <trkpt lat="45.11422" lon="6.18825">
        <ele>1888.65</ele>
        <time>2014-09-15T13:23:09Z</time>
      </trkpt>
      <trkpt lat="45.11419" lon="6.18824">
        <ele>1889.13</ele>
        <time>2014-09-15T13:23:12Z</time>
      </trkpt>
      <trkpt lat="45.11414" lon="6.18823">
        <ele>1889.13</ele>
        <time>2014-09-15T13:23:17Z</time>
      </trkpt>
      <trkpt lat="45.11413" lon="6.18823">
        <ele>1889.13</ele>
        <time>2014-09-15T13:23:18Z</time>
      </trkpt>
      <trkpt lat="45.11412" lon="6.18823">
        <ele>1889.13</ele>
        <time>2014-09-15T13:23:19Z</time>
      </trkpt>
      <trkpt lat="45.1141" lon="6.18823">
        <ele>1889.13</ele>
        <time>2014-09-15T13:23:20Z</time>
      </trkpt>
      <trkpt lat="45.11409" lon="6.18823">
        <ele>1889.13</ele>
        <time>2014-09-15T13:23:21Z</time>
      </trkpt>
      <trkpt lat="45.11399" lon="6.18821">
        <ele>1889.61</ele>
        <time>2014-09-15T13:23:30Z</time>
      </trkpt>
      <trkpt lat="45.11398" lon="6.1882">
        <ele>1889.61</ele>
        <time>2014-09-15T13:23:31Z</time>
      </trkpt>
      <trkpt lat="45.11389" lon="6.18815">
        <ele>1890.09</ele>
        <time>2014-09-15T13:23:40Z</time>
      </trkpt>
      <trkpt lat="45.11387" lon="6.18814">
        <ele>1890.09</ele>
        <time>2014-09-15T13:23:41Z</time>
      </trkpt>
      <trkpt lat="45.11386" lon="6.18813">
        <ele>1890.09</ele>
        <time>2014-09-15T13:23:42Z</time>
      </trkpt>
      <trkpt lat="45.11385" lon="6.18813">
        <ele>1890.09</ele>
        <time>2014-09-15T13:23:43Z</time>
      </trkpt>
      <trkpt lat="45.11384" lon="6.18813">
        <ele>1890.09</ele>
        <time>2014-09-15T13:23:44Z</time>
      </trkpt>
      <trkpt lat="45.11382" lon="6.18812">
        <ele>1890.09</ele>
        <time>2014-09-15T13:23:46Z</time>
      </trkpt>
      <trkpt lat="45.11381" lon="6.18811">
        <ele>1890.09</ele>
        <time>2014-09-15T13:23:47Z</time>
      </trkpt>
      <trkpt lat="45.11358" lon="6.18798">
        <ele>1890.09</ele>
        <time>2014-09-15T13:24:04Z</time>
      </trkpt>
      <trkpt lat="45.11352" lon="6.18794">
        <ele>1887.69</ele>
        <time>2014-09-15T13:24:08Z</time>
      </trkpt>
      <trkpt lat="45.11351" lon="6.18794">
        <ele>1892.01</ele>
        <time>2014-09-15T13:24:09Z</time>
      </trkpt>
      <trkpt lat="45.11323" lon="6.18783">
        <ele>1889.61</ele>
        <time>2014-09-15T13:24:25Z</time>
      </trkpt>
      <trkpt lat="45.11319" lon="6.18779">
        <ele>1889.13</ele>
        <time>2014-09-15T13:24:32Z</time>
      </trkpt>
      <trkpt lat="45.11313" lon="6.18781">
        <ele>1889.13</ele>
        <time>2014-09-15T13:24:43Z</time>
      </trkpt>
      <trkpt lat="45.11313" lon="6.1878">
        <ele>1889.13</ele>
        <time>2014-09-15T13:24:47Z</time>
      </trkpt>
      <trkpt lat="45.11311" lon="6.1878">
        <ele>1889.13</ele>
        <time>2014-09-15T13:24:48Z</time>
      </trkpt>
      <trkpt lat="45.1131" lon="6.1878">
        <ele>1889.13</ele>
        <time>2014-09-15T13:24:49Z</time>
      </trkpt>
      <trkpt lat="45.11308" lon="6.18779">
        <ele>1889.13</ele>
        <time>2014-09-15T13:24:50Z</time>
      </trkpt>
      <trkpt lat="45.11307" lon="6.18779">
        <ele>1889.13</ele>
        <time>2014-09-15T13:24:51Z</time>
      </trkpt>
      <trkpt lat="45.11306" lon="6.18778">
        <ele>1889.13</ele>
        <time>2014-09-15T13:24:52Z</time>
      </trkpt>
      <trkpt lat="45.11304" lon="6.18777">
        <ele>1889.13</ele>
        <time>2014-09-15T13:24:53Z</time>
      </trkpt>
      <trkpt lat="45.11302" lon="6.18777">
        <ele>1889.13</ele>
        <time>2014-09-15T13:24:54Z</time>
      </trkpt>
      <trkpt lat="45.113" lon="6.18777">
        <ele>1889.13</ele>
        <time>2014-09-15T13:24:55Z</time>
      </trkpt>
      <trkpt lat="45.11298" lon="6.18776">
        <ele>1889.13</ele>
        <time>2014-09-15T13:24:56Z</time>
      </trkpt>
      <trkpt lat="45.11295" lon="6.18776">
        <ele>1888.65</ele>
        <time>2014-09-15T13:24:57Z</time>
      </trkpt>
      <trkpt lat="45.11294" lon="6.18775">
        <ele>1888.65</ele>
        <time>2014-09-15T13:24:58Z</time>
      </trkpt>
      <trkpt lat="45.11291" lon="6.18774">
        <ele>1888.65</ele>
        <time>2014-09-15T13:24:59Z</time>
      </trkpt>
      <trkpt lat="45.11276" lon="6.1876">
        <ele>1888.17</ele>
        <time>2014-09-15T13:25:07Z</time>
      </trkpt>
      <trkpt lat="45.11261" lon="6.18753">
        <ele>1887.21</ele>
        <time>2014-09-15T13:25:12Z</time>
      </trkpt>
      <trkpt lat="45.11244" lon="6.18748">
        <ele>1886.24</ele>
        <time>2014-09-15T13:25:15Z</time>
      </trkpt>
      <trkpt lat="45.11238" lon="6.18746">
        <ele>1886.24</ele>
        <time>2014-09-15T13:25:16Z</time>
      </trkpt>
      <trkpt lat="45.11233" lon="6.18743">
        <ele>1885.76</ele>
        <time>2014-09-15T13:25:17Z</time>
      </trkpt>
      <trkpt lat="45.11228" lon="6.18737">
        <ele>1885.76</ele>
        <time>2014-09-15T13:25:18Z</time>
      </trkpt>
      <trkpt lat="45.11222" lon="6.18732">
        <ele>1885.28</ele>
        <time>2014-09-15T13:25:19Z</time>
      </trkpt>
      <trkpt lat="45.11217" lon="6.18728">
        <ele>1885.28</ele>
        <time>2014-09-15T13:25:20Z</time>
      </trkpt>
      <trkpt lat="45.11207" lon="6.18721">
        <ele>1884.32</ele>
        <time>2014-09-15T13:25:22Z</time>
      </trkpt>
      <trkpt lat="45.11202" lon="6.1872">
        <ele>1883.84</ele>
        <time>2014-09-15T13:25:23Z</time>
      </trkpt>
      <trkpt lat="45.11198" lon="6.18719">
        <ele>1883.84</ele>
        <time>2014-09-15T13:25:24Z</time>
      </trkpt>
      <trkpt lat="45.11195" lon="6.18717">
        <ele>1883.36</ele>
        <time>2014-09-15T13:25:25Z</time>
      </trkpt>
      <trkpt lat="45.11191" lon="6.18717">
        <ele>1883.36</ele>
        <time>2014-09-15T13:25:26Z</time>
      </trkpt>
      <trkpt lat="45.11184" lon="6.18714">
        <ele>1883.36</ele>
        <time>2014-09-15T13:25:28Z</time>
      </trkpt>
      <trkpt lat="45.11184" lon="6.18712">
        <ele>1882.88</ele>
        <time>2014-09-15T13:25:38Z</time>
      </trkpt>
      <trkpt lat="45.11183" lon="6.18711">
        <ele>1882.88</ele>
        <time>2014-09-15T13:25:42Z</time>
      </trkpt>
      <trkpt lat="45.11183" lon="6.18709">
        <ele>1882.88</ele>
        <time>2014-09-15T13:25:43Z</time>
      </trkpt>
      <trkpt lat="45.11182" lon="6.18706">
        <ele>1882.4</ele>
        <time>2014-09-15T13:25:44Z</time>
      </trkpt>
      <trkpt lat="45.1118" lon="6.18704">
        <ele>1881.92</ele>
        <time>2014-09-15T13:25:45Z</time>
      </trkpt>
      <trkpt lat="45.11178" lon="6.18701">
        <ele>1881.92</ele>
        <time>2014-09-15T13:25:46Z</time>
      </trkpt>
      <trkpt lat="45.11176" lon="6.18698">
        <ele>1881.44</ele>
        <time>2014-09-15T13:25:47Z</time>
      </trkpt>
      <trkpt lat="45.11173" lon="6.18694">
        <ele>1881.44</ele>
        <time>2014-09-15T13:25:48Z</time>
      </trkpt>
      <trkpt lat="45.1117" lon="6.1869">
        <ele>1880.48</ele>
        <time>2014-09-15T13:25:49Z</time>
      </trkpt>
      <trkpt lat="45.11155" lon="6.18668">
        <ele>1877.11</ele>
        <time>2014-09-15T13:25:53Z</time>
      </trkpt>
      <trkpt lat="45.1115" lon="6.18663">
        <ele>1876.63</ele>
        <time>2014-09-15T13:25:54Z</time>
      </trkpt>
      <trkpt lat="45.11145" lon="6.1866">
        <ele>1876.15</ele>
        <time>2014-09-15T13:25:55Z</time>
      </trkpt>
      <trkpt lat="45.1114" lon="6.18659">
        <ele>1875.19</ele>
        <time>2014-09-15T13:25:56Z</time>
      </trkpt>
      <trkpt lat="45.11134" lon="6.18659">
        <ele>1874.23</ele>
        <time>2014-09-15T13:25:57Z</time>
      </trkpt>
      <trkpt lat="45.11127" lon="6.18659">
        <ele>1873.27</ele>
        <time>2014-09-15T13:25:58Z</time>
      </trkpt>
      <trkpt lat="45.11121" lon="6.18658">
        <ele>1872.3</ele>
        <time>2014-09-15T13:25:59Z</time>
      </trkpt>
      <trkpt lat="45.11115" lon="6.18658">
        <ele>1871.34</ele>
        <time>2014-09-15T13:26:00Z</time>
      </trkpt>
      <trkpt lat="45.11109" lon="6.18659">
        <ele>1870.38</ele>
        <time>2014-09-15T13:26:01Z</time>
      </trkpt>
      <trkpt lat="45.11103" lon="6.18662">
        <ele>1868.94</ele>
        <time>2014-09-15T13:26:02Z</time>
      </trkpt>
      <trkpt lat="45.11097" lon="6.18667">
        <ele>1868.46</ele>
        <time>2014-09-15T13:26:03Z</time>
      </trkpt>
      <trkpt lat="45.11092" lon="6.18673">
        <ele>1867.02</ele>
        <time>2014-09-15T13:26:04Z</time>
      </trkpt>
      <trkpt lat="45.11088" lon="6.18678">
        <ele>1866.06</ele>
        <time>2014-09-15T13:26:05Z</time>
      </trkpt>
      <trkpt lat="45.11086" lon="6.18684">
        <ele>1865.58</ele>
        <time>2014-09-15T13:26:06Z</time>
      </trkpt>
      <trkpt lat="45.11085" lon="6.18689">
        <ele>1865.09</ele>
        <time>2014-09-15T13:26:07Z</time>
      </trkpt>
      <trkpt lat="45.11085" lon="6.18695">
        <ele>1864.61</ele>
        <time>2014-09-15T13:26:08Z</time>
      </trkpt>
      <trkpt lat="45.11084" lon="6.187">
        <ele>1863.65</ele>
        <time>2014-09-15T13:26:09Z</time>
      </trkpt>
      <trkpt lat="45.11084" lon="6.18705">
        <ele>1862.69</ele>
        <time>2014-09-15T13:26:10Z</time>
      </trkpt>
      <trkpt lat="45.11083" lon="6.1871">
        <ele>1862.21</ele>
        <time>2014-09-15T13:26:11Z</time>
      </trkpt>
      <trkpt lat="45.11082" lon="6.18714">
        <ele>1861.25</ele>
        <time>2014-09-15T13:26:12Z</time>
      </trkpt>
      <trkpt lat="45.1108" lon="6.18717">
        <ele>1860.77</ele>
        <time>2014-09-15T13:26:13Z</time>
      </trkpt>
      <trkpt lat="45.11078" lon="6.18719">
        <ele>1859.81</ele>
        <time>2014-09-15T13:26:14Z</time>
      </trkpt>
      <trkpt lat="45.11075" lon="6.18718">
        <ele>1859.33</ele>
        <time>2014-09-15T13:26:15Z</time>
      </trkpt>
      <trkpt lat="45.11071" lon="6.18711">
        <ele>1860.29</ele>
        <time>2014-09-15T13:26:18Z</time>
      </trkpt>
      <trkpt lat="45.11067" lon="6.18698">
        <ele>1862.21</ele>
        <time>2014-09-15T13:26:26Z</time>
      </trkpt>
      <trkpt lat="45.11065" lon="6.18692">
        <ele>1863.17</ele>
        <time>2014-09-15T13:26:30Z</time>
      </trkpt>
      <trkpt lat="45.11059" lon="6.18666">
        <ele>1865.58</ele>
        <time>2014-09-15T13:26:45Z</time>
      </trkpt>
      <trkpt lat="45.11057" lon="6.18642">
        <ele>1867.98</ele>
        <time>2014-09-15T13:26:59Z</time>
      </trkpt>
      <trkpt lat="45.11056" lon="6.18631">
        <ele>1869.9</ele>
        <time>2014-09-15T13:27:06Z</time>
      </trkpt>
      <trkpt lat="45.11047" lon="6.18614">
        <ele>1872.3</ele>
        <time>2014-09-15T13:27:17Z</time>
      </trkpt>
      <trkpt lat="45.11042" lon="6.18611">
        <ele>1873.75</ele>
        <time>2014-09-15T13:27:21Z</time>
      </trkpt>
      <trkpt lat="45.11036" lon="6.18607">
        <ele>1875.19</ele>
        <time>2014-09-15T13:27:26Z</time>
      </trkpt>
      <trkpt lat="45.1102" lon="6.18596">
        <ele>1878.07</ele>
        <time>2014-09-15T13:27:41Z</time>
      </trkpt>
      <trkpt lat="45.11012" lon="6.18593">
        <ele>1878.55</ele>
        <time>2014-09-15T13:27:57Z</time>
      </trkpt>
      <trkpt lat="45.11013" lon="6.18593">
        <ele>1878.55</ele>
        <time>2014-09-15T13:28:26Z</time>
      </trkpt>
      <trkpt lat="45.11015" lon="6.18592">
        <ele>1878.55</ele>
        <time>2014-09-15T13:28:39Z</time>
      </trkpt>
      <trkpt lat="45.11018" lon="6.18593">
        <ele>1878.55</ele>
        <time>2014-09-15T13:29:09Z</time>
      </trkpt>
      <trkpt lat="45.11019" lon="6.18595">
        <ele>1878.07</ele>
        <time>2014-09-15T13:29:31Z</time>
      </trkpt>
      <trkpt lat="45.11017" lon="6.18594">
        <ele>1878.07</ele>
        <time>2014-09-15T13:29:59Z</time>
      </trkpt>
      <trkpt lat="45.11018" lon="6.18594">
        <ele>1878.07</ele>
        <time>2014-09-15T13:30:30Z</time>
      </trkpt>
      <trkpt lat="45.11017" lon="6.18596">
        <ele>1878.07</ele>
        <time>2014-09-15T13:30:52Z</time>
      </trkpt>
      <trkpt lat="45.11016" lon="6.18595">
        <ele>1878.07</ele>
        <time>2014-09-15T13:31:10Z</time>
      </trkpt>
      <trkpt lat="45.11014" lon="6.18594">
        <ele>1878.07</ele>
        <time>2014-09-15T13:31:42Z</time>
      </trkpt>
      <trkpt lat="45.11007" lon="6.18591">
        <ele>1878.07</ele>
        <time>2014-09-15T13:31:48Z</time>
      </trkpt>
      <trkpt lat="45.11005" lon="6.1859">
        <ele>1878.07</ele>
        <time>2014-09-15T13:31:49Z</time>
      </trkpt>
      <trkpt lat="45.11002" lon="6.18588">
        <ele>1878.07</ele>
        <time>2014-09-15T13:31:50Z</time>
      </trkpt>
      <trkpt lat="45.10997" lon="6.18586">
        <ele>1876.15</ele>
        <time>2014-09-15T13:31:51Z</time>
      </trkpt>
      <trkpt lat="45.10992" lon="6.18583">
        <ele>1875.19</ele>
        <time>2014-09-15T13:31:52Z</time>
      </trkpt>
      <trkpt lat="45.10987" lon="6.18581">
        <ele>1874.71</ele>
        <time>2014-09-15T13:31:53Z</time>
      </trkpt>
      <trkpt lat="45.10981" lon="6.18581">
        <ele>1873.75</ele>
        <time>2014-09-15T13:31:54Z</time>
      </trkpt>
      <trkpt lat="45.10977" lon="6.18583">
        <ele>1872.79</ele>
        <time>2014-09-15T13:31:55Z</time>
      </trkpt>
      <trkpt lat="45.10974" lon="6.18586">
        <ele>1871.82</ele>
        <time>2014-09-15T13:31:56Z</time>
      </trkpt>
      <trkpt lat="45.10972" lon="6.18588">
        <ele>1870.86</ele>
        <time>2014-09-15T13:31:57Z</time>
      </trkpt>
      <trkpt lat="45.10969" lon="6.18588">
        <ele>1870.38</ele>
        <time>2014-09-15T13:31:58Z</time>
      </trkpt>
      <trkpt lat="45.10967" lon="6.18588">
        <ele>1869.42</ele>
        <time>2014-09-15T13:31:59Z</time>
      </trkpt>
      <trkpt lat="45.10965" lon="6.18588">
        <ele>1868.94</ele>
        <time>2014-09-15T13:32:00Z</time>
      </trkpt>
      <trkpt lat="45.10963" lon="6.18588">
        <ele>1868.46</ele>
        <time>2014-09-15T13:32:01Z</time>
      </trkpt>
      <trkpt lat="45.10956" lon="6.18589">
        <ele>1866.06</ele>
        <time>2014-09-15T13:32:03Z</time>
      </trkpt>
      <trkpt lat="45.10946" lon="6.18594">
        <ele>1865.58</ele>
        <time>2014-09-15T13:32:05Z</time>
      </trkpt>
      <trkpt lat="45.10942" lon="6.18596">
        <ele>1865.58</ele>
        <time>2014-09-15T13:32:06Z</time>
      </trkpt>
      <trkpt lat="45.10938" lon="6.18595">
        <ele>1865.58</ele>
        <time>2014-09-15T13:32:07Z</time>
      </trkpt>
      <trkpt lat="45.10935" lon="6.18596">
        <ele>1865.58</ele>
        <time>2014-09-15T13:32:08Z</time>
      </trkpt>
      <trkpt lat="45.10926" lon="6.18599">
        <ele>1867.02</ele>
        <time>2014-09-15T13:32:13Z</time>
      </trkpt>
      <trkpt lat="45.10911" lon="6.18594">
        <ele>1868.46</ele>
        <time>2014-09-15T13:32:24Z</time>
      </trkpt>
      <trkpt lat="45.1091" lon="6.18585">
        <ele>1869.9</ele>
        <time>2014-09-15T13:32:29Z</time>
      </trkpt>
      <trkpt lat="45.10909" lon="6.18583">
        <ele>1869.9</ele>
        <time>2014-09-15T13:32:30Z</time>
      </trkpt>
      <trkpt lat="45.10904" lon="6.18569">
        <ele>1871.34</ele>
        <time>2014-09-15T13:32:39Z</time>
      </trkpt>
      <trkpt lat="45.10896" lon="6.18544">
        <ele>1873.27</ele>
        <time>2014-09-15T13:32:53Z</time>
      </trkpt>
      <trkpt lat="45.10882" lon="6.18523">
        <ele>1876.15</ele>
        <time>2014-09-15T13:33:10Z</time>
      </trkpt>
      <trkpt lat="45.10863" lon="6.18512">
        <ele>1878.55</ele>
        <time>2014-09-15T13:33:27Z</time>
      </trkpt>
      <trkpt lat="45.10847" lon="6.185">
        <ele>1879.51</ele>
        <time>2014-09-15T13:33:41Z</time>
      </trkpt>
      <trkpt lat="45.10845" lon="6.18498">
        <ele>1879.51</ele>
        <time>2014-09-15T13:33:43Z</time>
      </trkpt>
      <trkpt lat="45.10844" lon="6.18496">
        <ele>1879.51</ele>
        <time>2014-09-15T13:33:44Z</time>
      </trkpt>
      <trkpt lat="45.10844" lon="6.18495">
        <ele>1880</ele>
        <time>2014-09-15T13:33:45Z</time>
      </trkpt>
      <trkpt lat="45.10843" lon="6.18493">
        <ele>1880</ele>
        <time>2014-09-15T13:33:46Z</time>
      </trkpt>
      <trkpt lat="45.10843" lon="6.18492">
        <ele>1880</ele>
        <time>2014-09-15T13:33:47Z</time>
      </trkpt>
      <trkpt lat="45.10842" lon="6.18491">
        <ele>1880</ele>
        <time>2014-09-15T13:33:48Z</time>
      </trkpt>
      <trkpt lat="45.10831" lon="6.18473">
        <ele>1883.36</ele>
        <time>2014-09-15T13:34:02Z</time>
      </trkpt>
      <trkpt lat="45.10819" lon="6.18457">
        <ele>1885.76</ele>
        <time>2014-09-15T13:34:17Z</time>
      </trkpt>
      <trkpt lat="45.1081" lon="6.18448">
        <ele>1887.69</ele>
        <time>2014-09-15T13:34:27Z</time>
      </trkpt>
      <trkpt lat="45.10809" lon="6.18448">
        <ele>1888.17</ele>
        <time>2014-09-15T13:34:28Z</time>
      </trkpt>
      <trkpt lat="45.10799" lon="6.18438">
        <ele>1890.09</ele>
        <time>2014-09-15T13:34:38Z</time>
      </trkpt>
      <trkpt lat="45.10796" lon="6.18435">
        <ele>1890.57</ele>
        <time>2014-09-15T13:34:43Z</time>
      </trkpt>
      <trkpt lat="45.10787" lon="6.18417">
        <ele>1893.45</ele>
        <time>2014-09-15T13:34:58Z</time>
      </trkpt>
      <trkpt lat="45.10783" lon="6.18396">
        <ele>1895.38</ele>
        <time>2014-09-15T13:35:12Z</time>
      </trkpt>
      <trkpt lat="45.1078" lon="6.18388">
        <ele>1895.86</ele>
        <time>2014-09-15T13:35:21Z</time>
      </trkpt>
      <trkpt lat="45.10766" lon="6.18377">
        <ele>1899.22</ele>
        <time>2014-09-15T13:35:33Z</time>
      </trkpt>
      <trkpt lat="45.10758" lon="6.18362">
        <ele>1902.59</ele>
        <time>2014-09-15T13:35:42Z</time>
      </trkpt>
      <trkpt lat="45.10757" lon="6.1836">
        <ele>1902.59</ele>
        <time>2014-09-15T13:35:43Z</time>
      </trkpt>
      <trkpt lat="45.10755" lon="6.18358">
        <ele>1903.55</ele>
        <time>2014-09-15T13:35:45Z</time>
      </trkpt>
      <trkpt lat="45.10755" lon="6.18356">
        <ele>1904.03</ele>
        <time>2014-09-15T13:35:46Z</time>
      </trkpt>
      <trkpt lat="45.10755" lon="6.18355">
        <ele>1903.55</ele>
        <time>2014-09-15T13:35:47Z</time>
      </trkpt>
      <trkpt lat="45.10755" lon="6.18353">
        <ele>1904.03</ele>
        <time>2014-09-15T13:35:48Z</time>
      </trkpt>
      <trkpt lat="45.10754" lon="6.18352">
        <ele>1904.03</ele>
        <time>2014-09-15T13:35:49Z</time>
      </trkpt>
      <trkpt lat="45.10754" lon="6.1835">
        <ele>1904.99</ele>
        <time>2014-09-15T13:35:50Z</time>
      </trkpt>
      <trkpt lat="45.10753" lon="6.18348">
        <ele>1904.99</ele>
        <time>2014-09-15T13:35:51Z</time>
      </trkpt>
      <trkpt lat="45.10751" lon="6.18331">
        <ele>1907.87</ele>
        <time>2014-09-15T13:36:07Z</time>
      </trkpt>
      <trkpt lat="45.10745" lon="6.18315">
        <ele>1910.76</ele>
        <time>2014-09-15T13:36:24Z</time>
      </trkpt>
      <trkpt lat="45.1074" lon="6.183">
        <ele>1913.16</ele>
        <time>2014-09-15T13:36:42Z</time>
      </trkpt>
      <trkpt lat="45.1074" lon="6.18294">
        <ele>1914.6</ele>
        <time>2014-09-15T13:36:57Z</time>
      </trkpt>
      <trkpt lat="45.1074" lon="6.18294">
        <ele>1914.12</ele>
        <time>2014-09-15T13:37:27Z</time>
      </trkpt>
      <trkpt lat="45.10738" lon="6.18294">
        <ele>1914.6</ele>
        <time>2014-09-15T13:37:40Z</time>
      </trkpt>
      <trkpt lat="45.10733" lon="6.18286">
        <ele>1914.6</ele>
        <time>2014-09-15T13:38:05Z</time>
      </trkpt>
      <trkpt lat="45.10732" lon="6.18286">
        <ele>1914.6</ele>
        <time>2014-09-15T13:38:06Z</time>
      </trkpt>
      <trkpt lat="45.10731" lon="6.18286">
        <ele>1915.56</ele>
        <time>2014-09-15T13:38:07Z</time>
      </trkpt>
      <trkpt lat="45.1073" lon="6.18287">
        <ele>1915.56</ele>
        <time>2014-09-15T13:38:08Z</time>
      </trkpt>
      <trkpt lat="45.10725" lon="6.18286">
        <ele>1916.53</ele>
        <time>2014-09-15T13:38:15Z</time>
      </trkpt>
      <trkpt lat="45.10724" lon="6.18286">
        <ele>1917.01</ele>
        <time>2014-09-15T13:38:16Z</time>
      </trkpt>
      <trkpt lat="45.10721" lon="6.18285">
        <ele>1917.97</ele>
        <time>2014-09-15T13:38:18Z</time>
      </trkpt>
      <trkpt lat="45.10714" lon="6.18281">
        <ele>1919.89</ele>
        <time>2014-09-15T13:38:24Z</time>
      </trkpt>
      <trkpt lat="45.10714" lon="6.18279">
        <ele>1919.89</ele>
        <time>2014-09-15T13:38:25Z</time>
      </trkpt>
      <trkpt lat="45.10713" lon="6.18278">
        <ele>1920.37</ele>
        <time>2014-09-15T13:38:26Z</time>
      </trkpt>
      <trkpt lat="45.10712" lon="6.18278">
        <ele>1920.37</ele>
        <time>2014-09-15T13:38:27Z</time>
      </trkpt>
      <trkpt lat="45.10711" lon="6.18277">
        <ele>1920.85</ele>
        <time>2014-09-15T13:38:28Z</time>
      </trkpt>
      <trkpt lat="45.1071" lon="6.18277">
        <ele>1920.85</ele>
        <time>2014-09-15T13:38:29Z</time>
      </trkpt>
      <trkpt lat="45.10709" lon="6.18276">
        <ele>1921.33</ele>
        <time>2014-09-15T13:38:30Z</time>
      </trkpt>
      <trkpt lat="45.10701" lon="6.18271">
        <ele>1923.25</ele>
        <time>2014-09-15T13:38:35Z</time>
      </trkpt>
      <trkpt lat="45.107" lon="6.18271">
        <ele>1923.74</ele>
        <time>2014-09-15T13:38:36Z</time>
      </trkpt>
      <trkpt lat="45.10692" lon="6.18266">
        <ele>1926.14</ele>
        <time>2014-09-15T13:38:44Z</time>
      </trkpt>
      <trkpt lat="45.10691" lon="6.18266">
        <ele>1926.62</ele>
        <time>2014-09-15T13:38:45Z</time>
      </trkpt>
      <trkpt lat="45.10686" lon="6.18264">
        <ele>1927.58</ele>
        <time>2014-09-15T13:38:50Z</time>
      </trkpt>
      <trkpt lat="45.10685" lon="6.18263">
        <ele>1928.54</ele>
        <time>2014-09-15T13:38:51Z</time>
      </trkpt>
      <trkpt lat="45.10671" lon="6.18258">
        <ele>1930.95</ele>
        <time>2014-09-15T13:39:05Z</time>
      </trkpt>
      <trkpt lat="45.10668" lon="6.18258">
        <ele>1930.95</ele>
        <time>2014-09-15T13:39:07Z</time>
      </trkpt>
      <trkpt lat="45.10667" lon="6.18257">
        <ele>1930.95</ele>
        <time>2014-09-15T13:39:08Z</time>
      </trkpt>
      <trkpt lat="45.10664" lon="6.18256">
        <ele>1931.43</ele>
        <time>2014-09-15T13:39:11Z</time>
      </trkpt>
      <trkpt lat="45.10663" lon="6.18256">
        <ele>1931.43</ele>
        <time>2014-09-15T13:39:12Z</time>
      </trkpt>
      <trkpt lat="45.10648" lon="6.18248">
        <ele>1931.91</ele>
        <time>2014-09-15T13:39:27Z</time>
      </trkpt>
      <trkpt lat="45.10651" lon="6.18249">
        <ele>1931.91</ele>
        <time>2014-09-15T13:39:52Z</time>
      </trkpt>
      <trkpt lat="45.1065" lon="6.18249">
        <ele>1931.91</ele>
        <time>2014-09-15T13:40:21Z</time>
      </trkpt>
      <trkpt lat="45.10649" lon="6.18249">
        <ele>1931.91</ele>
        <time>2014-09-15T13:40:47Z</time>
      </trkpt>
      <trkpt lat="45.1065" lon="6.1825">
        <ele>1931.91</ele>
        <time>2014-09-15T13:41:21Z</time>
      </trkpt>
      <trkpt lat="45.10649" lon="6.18248">
        <ele>1931.91</ele>
        <time>2014-09-15T13:41:49Z</time>
      </trkpt>
      <trkpt lat="45.10649" lon="6.18249">
        <ele>1931.91</ele>
        <time>2014-09-15T13:42:21Z</time>
      </trkpt>
      <trkpt lat="45.1065" lon="6.1825">
        <ele>1931.43</ele>
        <time>2014-09-15T13:42:48Z</time>
      </trkpt>
      <trkpt lat="45.1065" lon="6.1825">
        <ele>1931.43</ele>
        <time>2014-09-15T13:43:15Z</time>
      </trkpt>
      <trkpt lat="45.1065" lon="6.1825">
        <ele>1931.43</ele>
        <time>2014-09-15T13:43:51Z</time>
      </trkpt>
      <trkpt lat="45.10649" lon="6.18249">
        <ele>1931.43</ele>
        <time>2014-09-15T13:44:12Z</time>
      </trkpt>
      <trkpt lat="45.1065" lon="6.18249">
        <ele>1931.43</ele>
        <time>2014-09-15T13:44:42Z</time>
      </trkpt>
      <trkpt lat="45.1065" lon="6.1825">
        <ele>1931.43</ele>
        <time>2014-09-15T13:45:15Z</time>
      </trkpt>
      <trkpt lat="45.1065" lon="6.18249">
        <ele>1931.43</ele>
        <time>2014-09-15T13:45:43Z</time>
      </trkpt>
      <trkpt lat="45.10651" lon="6.18251">
        <ele>1931.43</ele>
        <time>2014-09-15T13:46:18Z</time>
      </trkpt>
      <trkpt lat="45.10649" lon="6.18249">
        <ele>1931.43</ele>
        <time>2014-09-15T13:46:51Z</time>
      </trkpt>
      <trkpt lat="45.10649" lon="6.18249">
        <ele>1931.43</ele>
        <time>2014-09-15T13:47:21Z</time>
      </trkpt>
      <trkpt lat="45.1065" lon="6.1825">
        <ele>1931.43</ele>
        <time>2014-09-15T13:47:53Z</time>
      </trkpt>
      <trkpt lat="45.1065" lon="6.1825">
        <ele>1931.43</ele>
        <time>2014-09-15T13:48:21Z</time>
      </trkpt>
      <trkpt lat="45.10649" lon="6.18249">
        <ele>1931.43</ele>
        <time>2014-09-15T13:48:48Z</time>
      </trkpt>
      <trkpt lat="45.10649" lon="6.1825">
        <ele>1931.43</ele>
        <time>2014-09-15T13:48:59Z</time>
      </trkpt>
      <trkpt lat="45.1062" lon="6.18236">
        <ele>1928.54</ele>
        <time>2014-09-15T13:49:08Z</time>
      </trkpt>
      <trkpt lat="45.10582" lon="6.18213">
        <ele>1924.7</ele>
        <time>2014-09-15T13:49:14Z</time>
      </trkpt>
      <trkpt lat="45.10574" lon="6.18209">
        <ele>1924.7</ele>
        <time>2014-09-15T13:49:15Z</time>
      </trkpt>
      <trkpt lat="45.10567" lon="6.18206">
        <ele>1923.74</ele>
        <time>2014-09-15T13:49:16Z</time>
      </trkpt>
      <trkpt lat="45.10558" lon="6.18203">
        <ele>1922.77</ele>
        <time>2014-09-15T13:49:17Z</time>
      </trkpt>
      <trkpt lat="45.1055" lon="6.18201">
        <ele>1921.81</ele>
        <time>2014-09-15T13:49:18Z</time>
      </trkpt>
      <trkpt lat="45.10541" lon="6.18199">
        <ele>1921.81</ele>
        <time>2014-09-15T13:49:19Z</time>
      </trkpt>
      <trkpt lat="45.10506" lon="6.18189">
        <ele>1918.45</ele>
        <time>2014-09-15T13:49:23Z</time>
      </trkpt>
      <trkpt lat="45.10471" lon="6.18178">
        <ele>1915.08</ele>
        <time>2014-09-15T13:49:27Z</time>
      </trkpt>
      <trkpt lat="45.10441" lon="6.18177">
        <ele>1912.68</ele>
        <time>2014-09-15T13:49:31Z</time>
      </trkpt>
      <trkpt lat="45.10426" lon="6.18175">
        <ele>1910.28</ele>
        <time>2014-09-15T13:49:33Z</time>
      </trkpt>
      <trkpt lat="45.10404" lon="6.18174">
        <ele>1906.91</ele>
        <time>2014-09-15T13:49:36Z</time>
      </trkpt>
      <trkpt lat="45.10369" lon="6.18176">
        <ele>1903.07</ele>
        <time>2014-09-15T13:49:40Z</time>
      </trkpt>
      <trkpt lat="45.10331" lon="6.18175">
        <ele>1899.7</ele>
        <time>2014-09-15T13:49:44Z</time>
      </trkpt>
      <trkpt lat="45.10312" lon="6.18176">
        <ele>1898.26</ele>
        <time>2014-09-15T13:49:46Z</time>
      </trkpt>
      <trkpt lat="45.10302" lon="6.18179">
        <ele>1896.82</ele>
        <time>2014-09-15T13:49:47Z</time>
      </trkpt>
      <trkpt lat="45.10294" lon="6.18182">
        <ele>1896.34</ele>
        <time>2014-09-15T13:49:48Z</time>
      </trkpt>
      <trkpt lat="45.10287" lon="6.18187">
        <ele>1896.34</ele>
        <time>2014-09-15T13:49:49Z</time>
      </trkpt>
      <trkpt lat="45.1028" lon="6.18194">
        <ele>1895.86</ele>
        <time>2014-09-15T13:49:50Z</time>
      </trkpt>
      <trkpt lat="45.10274" lon="6.18203">
        <ele>1894.9</ele>
        <time>2014-09-15T13:49:51Z</time>
      </trkpt>
      <trkpt lat="45.10269" lon="6.18213">
        <ele>1894.42</ele>
        <time>2014-09-15T13:49:52Z</time>
      </trkpt>
      <trkpt lat="45.10264" lon="6.18223">
        <ele>1893.45</ele>
        <time>2014-09-15T13:49:53Z</time>
      </trkpt>
      <trkpt lat="45.10258" lon="6.18232">
        <ele>1892.97</ele>
        <time>2014-09-15T13:49:54Z</time>
      </trkpt>
      <trkpt lat="45.10251" lon="6.18239">
        <ele>1892.97</ele>
        <time>2014-09-15T13:49:55Z</time>
      </trkpt>
      <trkpt lat="45.10244" lon="6.18243">
        <ele>1892.97</ele>
        <time>2014-09-15T13:49:56Z</time>
      </trkpt>
      <trkpt lat="45.10226" lon="6.18254">
        <ele>1892.97</ele>
        <time>2014-09-15T13:49:59Z</time>
      </trkpt>
      <trkpt lat="45.10222" lon="6.18258">
        <ele>1892.97</ele>
        <time>2014-09-15T13:50:00Z</time>
      </trkpt>
      <trkpt lat="45.10203" lon="6.18277">
        <ele>1894.9</ele>
        <time>2014-09-15T13:50:06Z</time>
      </trkpt>
      <trkpt lat="45.10199" lon="6.18281">
        <ele>1894.9</ele>
        <time>2014-09-15T13:50:07Z</time>
      </trkpt>
      <trkpt lat="45.10197" lon="6.18285">
        <ele>1894.9</ele>
        <time>2014-09-15T13:50:08Z</time>
      </trkpt>
      <trkpt lat="45.10195" lon="6.18291">
        <ele>1894.9</ele>
        <time>2014-09-15T13:50:09Z</time>
      </trkpt>
      <trkpt lat="45.10193" lon="6.18298">
        <ele>1894.9</ele>
        <time>2014-09-15T13:50:10Z</time>
      </trkpt>
      <trkpt lat="45.1019" lon="6.18305">
        <ele>1893.45</ele>
        <time>2014-09-15T13:50:11Z</time>
      </trkpt>
      <trkpt lat="45.10187" lon="6.1831">
        <ele>1893.45</ele>
        <time>2014-09-15T13:50:12Z</time>
      </trkpt>
      <trkpt lat="45.10184" lon="6.18311">
        <ele>1893.45</ele>
        <time>2014-09-15T13:50:13Z</time>
      </trkpt>
      <trkpt lat="45.10181" lon="6.1831">
        <ele>1893.45</ele>
        <time>2014-09-15T13:50:14Z</time>
      </trkpt>
      <trkpt lat="45.10179" lon="6.18308">
        <ele>1893.45</ele>
        <time>2014-09-15T13:50:15Z</time>
      </trkpt>
      <trkpt lat="45.10177" lon="6.18305">
        <ele>1893.45</ele>
        <time>2014-09-15T13:50:16Z</time>
      </trkpt>
      <trkpt lat="45.10176" lon="6.18302">
        <ele>1893.45</ele>
        <time>2014-09-15T13:50:17Z</time>
      </trkpt>
      <trkpt lat="45.10176" lon="6.18298">
        <ele>1893.45</ele>
        <time>2014-09-15T13:50:18Z</time>
      </trkpt>
      <trkpt lat="45.10177" lon="6.18294">
        <ele>1893.45</ele>
        <time>2014-09-15T13:50:19Z</time>
      </trkpt>
      <trkpt lat="45.10177" lon="6.1829">
        <ele>1894.9</ele>
        <time>2014-09-15T13:50:20Z</time>
      </trkpt>
      <trkpt lat="45.10177" lon="6.18287">
        <ele>1895.38</ele>
        <time>2014-09-15T13:50:21Z</time>
      </trkpt>
      <trkpt lat="45.10177" lon="6.18283">
        <ele>1895.38</ele>
        <time>2014-09-15T13:50:22Z</time>
      </trkpt>
      <trkpt lat="45.10176" lon="6.1828">
        <ele>1895.38</ele>
        <time>2014-09-15T13:50:23Z</time>
      </trkpt>
      <trkpt lat="45.10176" lon="6.18277">
        <ele>1895.86</ele>
        <time>2014-09-15T13:50:24Z</time>
      </trkpt>
      <trkpt lat="45.10175" lon="6.18274">
        <ele>1895.86</ele>
        <time>2014-09-15T13:50:25Z</time>
      </trkpt>
      <trkpt lat="45.10174" lon="6.18271">
        <ele>1895.86</ele>
        <time>2014-09-15T13:50:26Z</time>
      </trkpt>
      <trkpt lat="45.10172" lon="6.18268">
        <ele>1895.86</ele>
        <time>2014-09-15T13:50:27Z</time>
      </trkpt>
      <trkpt lat="45.1017" lon="6.18264">
        <ele>1895.86</ele>
        <time>2014-09-15T13:50:28Z</time>
      </trkpt>
      <trkpt lat="45.10166" lon="6.18261">
        <ele>1895.86</ele>
        <time>2014-09-15T13:50:29Z</time>
      </trkpt>
      <trkpt lat="45.10162" lon="6.18258">
        <ele>1895.86</ele>
        <time>2014-09-15T13:50:30Z</time>
      </trkpt>
      <trkpt lat="45.10158" lon="6.18255">
        <ele>1895.86</ele>
        <time>2014-09-15T13:50:31Z</time>
      </trkpt>
      <trkpt lat="45.10154" lon="6.18253">
        <ele>1895.86</ele>
        <time>2014-09-15T13:50:32Z</time>
      </trkpt>
      <trkpt lat="45.10119" lon="6.18241">
        <ele>1895.86</ele>
        <time>2014-09-15T13:50:42Z</time>
      </trkpt>
      <trkpt lat="45.10063" lon="6.18219">
        <ele>1896.34</ele>
        <time>2014-09-15T13:50:58Z</time>
      </trkpt>
      <trkpt lat="45.10013" lon="6.18203">
        <ele>1896.82</ele>
        <time>2014-09-15T13:51:11Z</time>
      </trkpt>
      <trkpt lat="45.09967" lon="6.18201">
        <ele>1898.26</ele>
        <time>2014-09-15T13:51:24Z</time>
      </trkpt>
      <trkpt lat="45.09963" lon="6.182">
        <ele>1898.26</ele>
        <time>2014-09-15T13:51:25Z</time>
      </trkpt>
      <trkpt lat="45.0996" lon="6.18197">
        <ele>1898.26</ele>
        <time>2014-09-15T13:51:26Z</time>
      </trkpt>
      <trkpt lat="45.09957" lon="6.18194">
        <ele>1898.26</ele>
        <time>2014-09-15T13:51:27Z</time>
      </trkpt>
      <trkpt lat="45.09954" lon="6.18191">
        <ele>1898.74</ele>
        <time>2014-09-15T13:51:28Z</time>
      </trkpt>
      <trkpt lat="45.0995" lon="6.18189">
        <ele>1898.74</ele>
        <time>2014-09-15T13:51:29Z</time>
      </trkpt>
      <trkpt lat="45.09907" lon="6.18178">
        <ele>1901.63</ele>
        <time>2014-09-15T13:51:41Z</time>
      </trkpt>
      <trkpt lat="45.09874" lon="6.18168">
        <ele>1903.07</ele>
        <time>2014-09-15T13:51:51Z</time>
      </trkpt>
      <trkpt lat="45.09844" lon="6.18171">
        <ele>1904.03</ele>
        <time>2014-09-15T13:52:02Z</time>
      </trkpt>
      <trkpt lat="45.09842" lon="6.18169">
        <ele>1904.51</ele>
        <time>2014-09-15T13:52:03Z</time>
      </trkpt>
      <trkpt lat="45.09841" lon="6.18167">
        <ele>1904.51</ele>
        <time>2014-09-15T13:52:04Z</time>
      </trkpt>
      <trkpt lat="45.09839" lon="6.18164">
        <ele>1905.47</ele>
        <time>2014-09-15T13:52:05Z</time>
      </trkpt>
      <trkpt lat="45.09838" lon="6.18162">
        <ele>1905.47</ele>
        <time>2014-09-15T13:52:06Z</time>
      </trkpt>
      <trkpt lat="45.0983" lon="6.18148">
        <ele>1905.47</ele>
        <time>2014-09-15T13:52:11Z</time>
      </trkpt>
      <trkpt lat="45.09807" lon="6.18148">
        <ele>1906.91</ele>
        <time>2014-09-15T13:52:21Z</time>
      </trkpt>
      <trkpt lat="45.09795" lon="6.18149">
        <ele>1907.39</ele>
        <time>2014-09-15T13:52:26Z</time>
      </trkpt>
      <trkpt lat="45.09793" lon="6.18147">
        <ele>1907.39</ele>
        <time>2014-09-15T13:52:27Z</time>
      </trkpt>
      <trkpt lat="45.0978" lon="6.18114">
        <ele>1907.87</ele>
        <time>2014-09-15T13:52:35Z</time>
      </trkpt>
      <trkpt lat="45.09777" lon="6.18108">
        <ele>1907.87</ele>
        <time>2014-09-15T13:52:36Z</time>
      </trkpt>
      <trkpt lat="45.09773" lon="6.18104">
        <ele>1906.91</ele>
        <time>2014-09-15T13:52:37Z</time>
      </trkpt>
      <trkpt lat="45.09768" lon="6.18099">
        <ele>1906.91</ele>
        <time>2014-09-15T13:52:38Z</time>
      </trkpt>
      <trkpt lat="45.09763" lon="6.18095">
        <ele>1906.43</ele>
        <time>2014-09-15T13:52:39Z</time>
      </trkpt>
      <trkpt lat="45.09759" lon="6.18092">
        <ele>1906.43</ele>
        <time>2014-09-15T13:52:40Z</time>
      </trkpt>
      <trkpt lat="45.09755" lon="6.1809">
        <ele>1906.43</ele>
        <time>2014-09-15T13:52:41Z</time>
      </trkpt>
      <trkpt lat="45.0975" lon="6.18088">
        <ele>1906.43</ele>
        <time>2014-09-15T13:52:42Z</time>
      </trkpt>
      <trkpt lat="45.09746" lon="6.18087">
        <ele>1906.43</ele>
        <time>2014-09-15T13:52:43Z</time>
      </trkpt>
      <trkpt lat="45.09734" lon="6.18086">
        <ele>1907.87</ele>
        <time>2014-09-15T13:52:47Z</time>
      </trkpt>
      <trkpt lat="45.09706" lon="6.1807">
        <ele>1909.32</ele>
        <time>2014-09-15T13:52:57Z</time>
      </trkpt>
      <trkpt lat="45.09659" lon="6.18054">
        <ele>1911.72</ele>
        <time>2014-09-15T13:53:10Z</time>
      </trkpt>
      <trkpt lat="45.0964" lon="6.18037">
        <ele>1912.68</ele>
        <time>2014-09-15T13:53:18Z</time>
      </trkpt>
      <trkpt lat="45.09607" lon="6.18013">
        <ele>1913.64</ele>
        <time>2014-09-15T13:53:30Z</time>
      </trkpt>
      <trkpt lat="45.09584" lon="6.17995">
        <ele>1915.08</ele>
        <time>2014-09-15T13:53:40Z</time>
      </trkpt>
      <trkpt lat="45.0956" lon="6.17973">
        <ele>1916.53</ele>
        <time>2014-09-15T13:53:50Z</time>
      </trkpt>
      <trkpt lat="45.09529" lon="6.17947">
        <ele>1918.45</ele>
        <time>2014-09-15T13:54:03Z</time>
      </trkpt>
      <trkpt lat="45.09505" lon="6.17931">
        <ele>1919.41</ele>
        <time>2014-09-15T13:54:14Z</time>
      </trkpt>
      <trkpt lat="45.09489" lon="6.17894">
        <ele>1920.37</ele>
        <time>2014-09-15T13:54:26Z</time>
      </trkpt>
      <trkpt lat="45.09447" lon="6.17849">
        <ele>1921.33</ele>
        <time>2014-09-15T13:54:42Z</time>
      </trkpt>
      <trkpt lat="45.09412" lon="6.17813">
        <ele>1922.77</ele>
        <time>2014-09-15T13:54:54Z</time>
      </trkpt>
      <trkpt lat="45.09365" lon="6.1778">
        <ele>1924.22</ele>
        <time>2014-09-15T13:55:09Z</time>
      </trkpt>
      <trkpt lat="45.09318" lon="6.17751">
        <ele>1926.14</ele>
        <time>2014-09-15T13:55:24Z</time>
      </trkpt>
      <trkpt lat="45.09269" lon="6.17722">
        <ele>1927.58</ele>
        <time>2014-09-15T13:55:41Z</time>
      </trkpt>
      <trkpt lat="45.09231" lon="6.17699">
        <ele>1930.46</ele>
        <time>2014-09-15T13:55:55Z</time>
      </trkpt>
      <trkpt lat="45.09191" lon="6.17669">
        <ele>1931.91</ele>
        <time>2014-09-15T13:56:10Z</time>
      </trkpt>
      <trkpt lat="45.09143" lon="6.17636">
        <ele>1934.31</ele>
        <time>2014-09-15T13:56:27Z</time>
      </trkpt>
      <trkpt lat="45.09097" lon="6.17613">
        <ele>1936.23</ele>
        <time>2014-09-15T13:56:43Z</time>
      </trkpt>
      <trkpt lat="45.09053" lon="6.17598">
        <ele>1938.64</ele>
        <time>2014-09-15T13:56:58Z</time>
      </trkpt>
      <trkpt lat="45.09006" lon="6.17593">
        <ele>1941.04</ele>
        <time>2014-09-15T13:57:15Z</time>
      </trkpt>
      <trkpt lat="45.08966" lon="6.17612">
        <ele>1943.44</ele>
        <time>2014-09-15T13:57:31Z</time>
      </trkpt>
      <trkpt lat="45.0894" lon="6.17648">
        <ele>1946.33</ele>
        <time>2014-09-15T13:57:46Z</time>
      </trkpt>
      <trkpt lat="45.08915" lon="6.17647">
        <ele>1947.77</ele>
        <time>2014-09-15T13:57:58Z</time>
      </trkpt>
      <trkpt lat="45.08881" lon="6.17636">
        <ele>1948.73</ele>
        <time>2014-09-15T13:58:11Z</time>
      </trkpt>
      <trkpt lat="45.08839" lon="6.17625">
        <ele>1950.17</ele>
        <time>2014-09-15T13:58:27Z</time>
      </trkpt>
      <trkpt lat="45.08804" lon="6.17605">
        <ele>1952.09</ele>
        <time>2014-09-15T13:58:40Z</time>
      </trkpt>
      <trkpt lat="45.08769" lon="6.17574">
        <ele>1954.98</ele>
        <time>2014-09-15T13:58:55Z</time>
      </trkpt>
      <trkpt lat="45.08732" lon="6.17545">
        <ele>1957.86</ele>
        <time>2014-09-15T13:59:11Z</time>
      </trkpt>
      <trkpt lat="45.08707" lon="6.17517">
        <ele>1958.82</ele>
        <time>2014-09-15T13:59:25Z</time>
      </trkpt>
      <trkpt lat="45.08698" lon="6.17508">
        <ele>1959.78</ele>
        <time>2014-09-15T13:59:39Z</time>
      </trkpt>
      <trkpt lat="45.08697" lon="6.17511">
        <ele>1959.78</ele>
        <time>2014-09-15T14:00:28Z</time>
      </trkpt>
      <trkpt lat="45.08695" lon="6.1751">
        <ele>1959.78</ele>
        <time>2014-09-15T14:01:05Z</time>
      </trkpt>
      <trkpt lat="45.08694" lon="6.17509">
        <ele>1959.78</ele>
        <time>2014-09-15T14:01:41Z</time>
      </trkpt>
      <trkpt lat="45.08696" lon="6.17511">
        <ele>1959.78</ele>
        <time>2014-09-15T14:02:20Z</time>
      </trkpt>
      <trkpt lat="45.08696" lon="6.1751">
        <ele>1959.78</ele>
        <time>2014-09-15T14:03:00Z</time>
      </trkpt>
      <trkpt lat="45.08696" lon="6.17512">
        <ele>1959.78</ele>
        <time>2014-09-15T14:03:39Z</time>
      </trkpt>
      <trkpt lat="45.08695" lon="6.17511">
        <ele>1959.78</ele>
        <time>2014-09-15T14:04:09Z</time>
      </trkpt>
      <trkpt lat="45.08697" lon="6.1751">
        <ele>1959.3</ele>
        <time>2014-09-15T14:04:43Z</time>
      </trkpt>
      <trkpt lat="45.08696" lon="6.1751">
        <ele>1959.3</ele>
        <time>2014-09-15T14:05:18Z</time>
      </trkpt>
      <trkpt lat="45.08696" lon="6.1751">
        <ele>1959.3</ele>
        <time>2014-09-15T14:05:53Z</time>
      </trkpt>
      <trkpt lat="45.08697" lon="6.1751">
        <ele>1959.3</ele>
        <time>2014-09-15T14:06:23Z</time>
      </trkpt>
      <trkpt lat="45.08697" lon="6.1751">
        <ele>1959.3</ele>
        <time>2014-09-15T14:07:03Z</time>
      </trkpt>
      <trkpt lat="45.08696" lon="6.17511">
        <ele>1959.3</ele>
        <time>2014-09-15T14:07:38Z</time>
      </trkpt>
      <trkpt lat="45.08698" lon="6.1751">
        <ele>1959.3</ele>
        <time>2014-09-15T14:08:17Z</time>
      </trkpt>
      <trkpt lat="45.08697" lon="6.17511">
        <ele>1959.3</ele>
        <time>2014-09-15T14:08:52Z</time>
      </trkpt>
      <trkpt lat="45.08698" lon="6.17508">
        <ele>1959.78</ele>
        <time>2014-09-15T14:09:11Z</time>
      </trkpt>
      <trkpt lat="45.08697" lon="6.17509">
        <ele>1959.3</ele>
        <time>2014-09-15T14:09:26Z</time>
      </trkpt>
      <trkpt lat="45.08696" lon="6.17511">
        <ele>1959.3</ele>
        <time>2014-09-15T14:09:31Z</time>
      </trkpt>
      <trkpt lat="45.08695" lon="6.17511">
        <ele>1959.3</ele>
        <time>2014-09-15T14:09:32Z</time>
      </trkpt>
      <trkpt lat="45.08693" lon="6.17512">
        <ele>1959.3</ele>
        <time>2014-09-15T14:09:33Z</time>
      </trkpt>
      <trkpt lat="45.0869" lon="6.17513">
        <ele>1959.3</ele>
        <time>2014-09-15T14:09:34Z</time>
      </trkpt>
      <trkpt lat="45.08686" lon="6.17513">
        <ele>1959.3</ele>
        <time>2014-09-15T14:09:35Z</time>
      </trkpt>
      <trkpt lat="45.08683" lon="6.17514">
        <ele>1958.34</ele>
        <time>2014-09-15T14:09:36Z</time>
      </trkpt>
      <trkpt lat="45.08679" lon="6.17515">
        <ele>1958.34</ele>
        <time>2014-09-15T14:09:37Z</time>
      </trkpt>
      <trkpt lat="45.08669" lon="6.17517">
        <ele>1955.94</ele>
        <time>2014-09-15T14:09:39Z</time>
      </trkpt>
      <trkpt lat="45.08659" lon="6.17521">
        <ele>1953.54</ele>
        <time>2014-09-15T14:09:41Z</time>
      </trkpt>
      <trkpt lat="45.08654" lon="6.1752">
        <ele>1953.06</ele>
        <time>2014-09-15T14:09:42Z</time>
      </trkpt>
      <trkpt lat="45.08649" lon="6.17519">
        <ele>1951.61</ele>
        <time>2014-09-15T14:09:43Z</time>
      </trkpt>
      <trkpt lat="45.08644" lon="6.17518">
        <ele>1950.65</ele>
        <time>2014-09-15T14:09:44Z</time>
      </trkpt>
      <trkpt lat="45.08638" lon="6.17515">
        <ele>1949.69</ele>
        <time>2014-09-15T14:09:45Z</time>
      </trkpt>
      <trkpt lat="45.08631" lon="6.17511">
        <ele>1948.25</ele>
        <time>2014-09-15T14:09:46Z</time>
      </trkpt>
      <trkpt lat="45.08614" lon="6.175">
        <ele>1946.33</ele>
        <time>2014-09-15T14:09:49Z</time>
      </trkpt>
      <trkpt lat="45.08593" lon="6.17485">
        <ele>1944.4</ele>
        <time>2014-09-15T14:09:57Z</time>
      </trkpt>
      <trkpt lat="45.08549" lon="6.17452">
        <ele>1941.04</ele>
        <time>2014-09-15T14:10:05Z</time>
      </trkpt>
      <trkpt lat="45.08544" lon="6.17446">
        <ele>1941.04</ele>
        <time>2014-09-15T14:10:06Z</time>
      </trkpt>
      <trkpt lat="45.08538" lon="6.17443">
        <ele>1940.56</ele>
        <time>2014-09-15T14:10:07Z</time>
      </trkpt>
      <trkpt lat="45.08533" lon="6.17443">
        <ele>1939.6</ele>
        <time>2014-09-15T14:10:08Z</time>
      </trkpt>
      <trkpt lat="45.0853" lon="6.17444">
        <ele>1939.6</ele>
        <time>2014-09-15T14:10:09Z</time>
      </trkpt>
      <trkpt lat="45.08527" lon="6.17444">
        <ele>1939.6</ele>
        <time>2014-09-15T14:10:10Z</time>
      </trkpt>
      <trkpt lat="45.08526" lon="6.17444">
        <ele>1939.6</ele>
        <time>2014-09-15T14:10:11Z</time>
      </trkpt>
      <trkpt lat="45.08525" lon="6.17445">
        <ele>1940.08</ele>
        <time>2014-09-15T14:10:27Z</time>
      </trkpt>
      <trkpt lat="45.08524" lon="6.17445">
        <ele>1940.08</ele>
        <time>2014-09-15T14:10:32Z</time>
      </trkpt>
      <trkpt lat="45.08522" lon="6.17446">
        <ele>1940.08</ele>
        <time>2014-09-15T14:10:42Z</time>
      </trkpt>
      <trkpt lat="45.08523" lon="6.17449">
        <ele>1940.08</ele>
        <time>2014-09-15T14:11:08Z</time>
      </trkpt>
      <trkpt lat="45.08524" lon="6.17451">
        <ele>1940.08</ele>
        <time>2014-09-15T14:11:09Z</time>
      </trkpt>
      <trkpt lat="45.08526" lon="6.17452">
        <ele>1940.08</ele>
        <time>2014-09-15T14:11:10Z</time>
      </trkpt>
      <trkpt lat="45.08528" lon="6.17453">
        <ele>1940.08</ele>
        <time>2014-09-15T14:11:11Z</time>
      </trkpt>
      <trkpt lat="45.0853" lon="6.17453">
        <ele>1940.08</ele>
        <time>2014-09-15T14:11:12Z</time>
      </trkpt>
      <trkpt lat="45.08534" lon="6.17449">
        <ele>1939.6</ele>
        <time>2014-09-15T14:11:14Z</time>
      </trkpt>
      <trkpt lat="45.08534" lon="6.17447">
        <ele>1939.6</ele>
        <time>2014-09-15T14:11:15Z</time>
      </trkpt>
      <trkpt lat="45.08533" lon="6.17446">
        <ele>1939.6</ele>
        <time>2014-09-15T14:11:16Z</time>
      </trkpt>
      <trkpt lat="45.08531" lon="6.17445">
        <ele>1939.6</ele>
        <time>2014-09-15T14:11:17Z</time>
      </trkpt>
      <trkpt lat="45.0853" lon="6.17446">
        <ele>1939.6</ele>
        <time>2014-09-15T14:11:18Z</time>
      </trkpt>
      <trkpt lat="45.08526" lon="6.17447">
        <ele>1939.6</ele>
        <time>2014-09-15T14:11:32Z</time>
      </trkpt>
      <trkpt lat="45.08525" lon="6.17446">
        <ele>1939.6</ele>
        <time>2014-09-15T14:11:36Z</time>
      </trkpt>
      <trkpt lat="45.08521" lon="6.1744">
        <ele>1939.6</ele>
        <time>2014-09-15T14:11:39Z</time>
      </trkpt>
      <trkpt lat="45.08518" lon="6.1744">
        <ele>1939.6</ele>
        <time>2014-09-15T14:11:40Z</time>
      </trkpt>
      <trkpt lat="45.08514" lon="6.17439">
        <ele>1938.64</ele>
        <time>2014-09-15T14:11:41Z</time>
      </trkpt>
      <trkpt lat="45.08509" lon="6.17437">
        <ele>1937.19</ele>
        <time>2014-09-15T14:11:42Z</time>
      </trkpt>
      <trkpt lat="45.08504" lon="6.17434">
        <ele>1936.23</ele>
        <time>2014-09-15T14:11:43Z</time>
      </trkpt>
      <trkpt lat="45.08496" lon="6.1743">
        <ele>1934.31</ele>
        <time>2014-09-15T14:11:45Z</time>
      </trkpt>
      <trkpt lat="45.08492" lon="6.17428">
        <ele>1933.83</ele>
        <time>2014-09-15T14:11:46Z</time>
      </trkpt>
      <trkpt lat="45.0848" lon="6.1742">
        <ele>1931.91</ele>
        <time>2014-09-15T14:11:49Z</time>
      </trkpt>
      <trkpt lat="45.08469" lon="6.17415">
        <ele>1929.98</ele>
        <time>2014-09-15T14:11:51Z</time>
      </trkpt>
      <trkpt lat="45.08458" lon="6.17411">
        <ele>1926.62</ele>
        <time>2014-09-15T14:11:53Z</time>
      </trkpt>
      <trkpt lat="45.0844" lon="6.17403">
        <ele>1922.29</ele>
        <time>2014-09-15T14:11:56Z</time>
      </trkpt>
      <trkpt lat="45.08434" lon="6.174">
        <ele>1921.33</ele>
        <time>2014-09-15T14:11:57Z</time>
      </trkpt>
      <trkpt lat="45.08428" lon="6.17398">
        <ele>1920.37</ele>
        <time>2014-09-15T14:11:58Z</time>
      </trkpt>
      <trkpt lat="45.08418" lon="6.17392">
        <ele>1917.97</ele>
        <time>2014-09-15T14:12:00Z</time>
      </trkpt>
      <trkpt lat="45.08414" lon="6.17389">
        <ele>1917.97</ele>
        <time>2014-09-15T14:12:01Z</time>
      </trkpt>
      <trkpt lat="45.08393" lon="6.17374">
        <ele>1914.6</ele>
        <time>2014-09-15T14:12:10Z</time>
      </trkpt>
      <trkpt lat="45.08389" lon="6.17374">
        <ele>1914.6</ele>
        <time>2014-09-15T14:12:28Z</time>
      </trkpt>
      <trkpt lat="45.08381" lon="6.17369">
        <ele>1913.16</ele>
        <time>2014-09-15T14:12:30Z</time>
      </trkpt>
      <trkpt lat="45.08376" lon="6.17367">
        <ele>1912.2</ele>
        <time>2014-09-15T14:12:31Z</time>
      </trkpt>
      <trkpt lat="45.08371" lon="6.17365">
        <ele>1911.24</ele>
        <time>2014-09-15T14:12:32Z</time>
      </trkpt>
      <trkpt lat="45.08365" lon="6.17362">
        <ele>1910.28</ele>
        <time>2014-09-15T14:12:33Z</time>
      </trkpt>
      <trkpt lat="45.08359" lon="6.17359">
        <ele>1908.83</ele>
        <time>2014-09-15T14:12:34Z</time>
      </trkpt>
      <trkpt lat="45.08352" lon="6.17355">
        <ele>1908.35</ele>
        <time>2014-09-15T14:12:35Z</time>
      </trkpt>
      <trkpt lat="45.08346" lon="6.1735">
        <ele>1907.39</ele>
        <time>2014-09-15T14:12:36Z</time>
      </trkpt>
      <trkpt lat="45.08339" lon="6.17346">
        <ele>1906.43</ele>
        <time>2014-09-15T14:12:37Z</time>
      </trkpt>
      <trkpt lat="45.08317" lon="6.17333">
        <ele>1903.55</ele>
        <time>2014-09-15T14:12:40Z</time>
      </trkpt>
      <trkpt lat="45.08302" lon="6.17324">
        <ele>1900.18</ele>
        <time>2014-09-15T14:12:42Z</time>
      </trkpt>
      <trkpt lat="45.08275" lon="6.17307">
        <ele>1896.82</ele>
        <time>2014-09-15T14:12:46Z</time>
      </trkpt>
      <trkpt lat="45.08249" lon="6.17291">
        <ele>1892.97</ele>
        <time>2014-09-15T14:12:51Z</time>
      </trkpt>
      <trkpt lat="45.08228" lon="6.1728">
        <ele>1889.61</ele>
        <time>2014-09-15T14:12:55Z</time>
      </trkpt>
      <trkpt lat="45.08207" lon="6.17269">
        <ele>1886.24</ele>
        <time>2014-09-15T14:12:59Z</time>
      </trkpt>
      <trkpt lat="45.08201" lon="6.17264">
        <ele>1885.76</ele>
        <time>2014-09-15T14:13:00Z</time>
      </trkpt>
      <trkpt lat="45.08185" lon="6.17251">
        <ele>1883.84</ele>
        <time>2014-09-15T14:13:03Z</time>
      </trkpt>
      <trkpt lat="45.0818" lon="6.1725">
        <ele>1883.84</ele>
        <time>2014-09-15T14:13:04Z</time>
      </trkpt>
      <trkpt lat="45.08154" lon="6.1725">
        <ele>1879.51</ele>
        <time>2014-09-15T14:13:08Z</time>
      </trkpt>
      <trkpt lat="45.0814" lon="6.17249">
        <ele>1877.59</ele>
        <time>2014-09-15T14:13:10Z</time>
      </trkpt>
      <trkpt lat="45.08125" lon="6.17247">
        <ele>1875.67</ele>
        <time>2014-09-15T14:13:12Z</time>
      </trkpt>
      <trkpt lat="45.08118" lon="6.17244">
        <ele>1874.71</ele>
        <time>2014-09-15T14:13:13Z</time>
      </trkpt>
      <trkpt lat="45.08098" lon="6.17236">
        <ele>1872.79</ele>
        <time>2014-09-15T14:13:16Z</time>
      </trkpt>
      <trkpt lat="45.08091" lon="6.17234">
        <ele>1870.86</ele>
        <time>2014-09-15T14:13:17Z</time>
      </trkpt>
      <trkpt lat="45.08067" lon="6.17226">
        <ele>1867.5</ele>
        <time>2014-09-15T14:13:20Z</time>
      </trkpt>
      <trkpt lat="45.08058" lon="6.17224">
        <ele>1866.06</ele>
        <time>2014-09-15T14:13:21Z</time>
      </trkpt>
      <trkpt lat="45.08049" lon="6.17222">
        <ele>1864.61</ele>
        <time>2014-09-15T14:13:22Z</time>
      </trkpt>
      <trkpt lat="45.08041" lon="6.17218">
        <ele>1863.65</ele>
        <time>2014-09-15T14:13:23Z</time>
      </trkpt>
      <trkpt lat="45.08032" lon="6.17213">
        <ele>1862.21</ele>
        <time>2014-09-15T14:13:24Z</time>
      </trkpt>
      <trkpt lat="45.08023" lon="6.17208">
        <ele>1861.25</ele>
        <time>2014-09-15T14:13:25Z</time>
      </trkpt>
      <trkpt lat="45.07993" lon="6.17192">
        <ele>1858.85</ele>
        <time>2014-09-15T14:13:29Z</time>
      </trkpt>
      <trkpt lat="45.07978" lon="6.17189">
        <ele>1857.4</ele>
        <time>2014-09-15T14:13:33Z</time>
      </trkpt>
      <trkpt lat="45.07967" lon="6.17188">
        <ele>1854.52</ele>
        <time>2014-09-15T14:13:35Z</time>
      </trkpt>
      <trkpt lat="45.07961" lon="6.17186">
        <ele>1853.08</ele>
        <time>2014-09-15T14:13:36Z</time>
      </trkpt>
      <trkpt lat="45.07944" lon="6.17176">
        <ele>1849.71</ele>
        <time>2014-09-15T14:13:39Z</time>
      </trkpt>
      <trkpt lat="45.0793" lon="6.1717">
        <ele>1846.35</ele>
        <time>2014-09-15T14:13:41Z</time>
      </trkpt>
      <trkpt lat="45.07924" lon="6.17167">
        <ele>1844.91</ele>
        <time>2014-09-15T14:13:42Z</time>
      </trkpt>
      <trkpt lat="45.07919" lon="6.17164">
        <ele>1842.98</ele>
        <time>2014-09-15T14:13:43Z</time>
      </trkpt>
      <trkpt lat="45.07906" lon="6.17159">
        <ele>1840.1</ele>
        <time>2014-09-15T14:13:46Z</time>
      </trkpt>
      <trkpt lat="45.07903" lon="6.17158">
        <ele>1840.1</ele>
        <time>2014-09-15T14:13:47Z</time>
      </trkpt>
      <trkpt lat="45.07895" lon="6.17156">
        <ele>1838.18</ele>
        <time>2014-09-15T14:13:50Z</time>
      </trkpt>
      <trkpt lat="45.07891" lon="6.17153">
        <ele>1835.77</ele>
        <time>2014-09-15T14:13:51Z</time>
      </trkpt>
      <trkpt lat="45.07887" lon="6.1715">
        <ele>1834.33</ele>
        <time>2014-09-15T14:13:52Z</time>
      </trkpt>
      <trkpt lat="45.07873" lon="6.17142">
        <ele>1830.49</ele>
        <time>2014-09-15T14:13:55Z</time>
      </trkpt>
      <trkpt lat="45.0785" lon="6.17137">
        <ele>1824.72</ele>
        <time>2014-09-15T14:14:00Z</time>
      </trkpt>
      <trkpt lat="45.07834" lon="6.1713">
        <ele>1818.47</ele>
        <time>2014-09-15T14:14:03Z</time>
      </trkpt>
      <trkpt lat="45.07821" lon="6.17126">
        <ele>1813.66</ele>
        <time>2014-09-15T14:14:06Z</time>
      </trkpt>
      <trkpt lat="45.07809" lon="6.17123">
        <ele>1810.3</ele>
        <time>2014-09-15T14:14:08Z</time>
      </trkpt>
      <trkpt lat="45.07796" lon="6.17117">
        <ele>1805.49</ele>
        <time>2014-09-15T14:14:10Z</time>
      </trkpt>
      <trkpt lat="45.07778" lon="6.17107">
        <ele>1799.73</ele>
        <time>2014-09-15T14:14:13Z</time>
      </trkpt>
      <trkpt lat="45.07769" lon="6.17101">
        <ele>1796.36</ele>
        <time>2014-09-15T14:14:15Z</time>
      </trkpt>
      <trkpt lat="45.07759" lon="6.17094">
        <ele>1793</ele>
        <time>2014-09-15T14:14:18Z</time>
      </trkpt>
      <trkpt lat="45.07753" lon="6.17092">
        <ele>1790.59</ele>
        <time>2014-09-15T14:14:20Z</time>
      </trkpt>
      <trkpt lat="45.07747" lon="6.17083">
        <ele>1789.15</ele>
        <time>2014-09-15T14:14:23Z</time>
      </trkpt>
      <trkpt lat="45.07736" lon="6.17067">
        <ele>1788.67</ele>
        <time>2014-09-15T14:14:29Z</time>
      </trkpt>
      <trkpt lat="45.07734" lon="6.17066">
        <ele>1788.19</ele>
        <time>2014-09-15T14:14:30Z</time>
      </trkpt>
      <trkpt lat="45.07726" lon="6.17063">
        <ele>1785.79</ele>
        <time>2014-09-15T14:14:34Z</time>
      </trkpt>
      <trkpt lat="45.07727" lon="6.17076">
        <ele>1781.94</ele>
        <time>2014-09-15T14:14:41Z</time>
      </trkpt>
      <trkpt lat="45.07729" lon="6.17082">
        <ele>1781.46</ele>
        <time>2014-09-15T14:14:55Z</time>
      </trkpt>
      <trkpt lat="45.07727" lon="6.17083">
        <ele>1780.98</ele>
        <time>2014-09-15T14:15:16Z</time>
      </trkpt>
      <trkpt lat="45.07726" lon="6.17087">
        <ele>1780.98</ele>
        <time>2014-09-15T14:15:18Z</time>
      </trkpt>
      <trkpt lat="45.07725" lon="6.17091">
        <ele>1780.98</ele>
        <time>2014-09-15T14:15:19Z</time>
      </trkpt>
      <trkpt lat="45.07725" lon="6.17096">
        <ele>1780.5</ele>
        <time>2014-09-15T14:15:20Z</time>
      </trkpt>
      <trkpt lat="45.07725" lon="6.17102">
        <ele>1780.5</ele>
        <time>2014-09-15T14:15:21Z</time>
      </trkpt>
      <trkpt lat="45.07727" lon="6.17108">
        <ele>1779.54</ele>
        <time>2014-09-15T14:15:22Z</time>
      </trkpt>
      <trkpt lat="45.07729" lon="6.17114">
        <ele>1779.54</ele>
        <time>2014-09-15T14:15:23Z</time>
      </trkpt>
      <trkpt lat="45.07731" lon="6.17122">
        <ele>1779.06</ele>
        <time>2014-09-15T14:15:24Z</time>
      </trkpt>
      <trkpt lat="45.07733" lon="6.17129">
        <ele>1775.21</ele>
        <time>2014-09-15T14:15:25Z</time>
      </trkpt>
      <trkpt lat="45.07735" lon="6.17137">
        <ele>1780.5</ele>
        <time>2014-09-15T14:15:26Z</time>
      </trkpt>
      <trkpt lat="45.07739" lon="6.17154">
        <ele>1777.13</ele>
        <time>2014-09-15T14:15:28Z</time>
      </trkpt>
      <trkpt lat="45.07742" lon="6.17163">
        <ele>1776.17</ele>
        <time>2014-09-15T14:15:29Z</time>
      </trkpt>
      <trkpt lat="45.07747" lon="6.17181">
        <ele>1775.21</ele>
        <time>2014-09-15T14:15:31Z</time>
      </trkpt>
      <trkpt lat="45.0775" lon="6.172">
        <ele>1774.25</ele>
        <time>2014-09-15T14:15:33Z</time>
      </trkpt>
      <trkpt lat="45.07751" lon="6.17221">
        <ele>1773.77</ele>
        <time>2014-09-15T14:15:35Z</time>
      </trkpt>
      <trkpt lat="45.0775" lon="6.17231">
        <ele>1771.85</ele>
        <time>2014-09-15T14:15:36Z</time>
      </trkpt>
      <trkpt lat="45.07745" lon="6.17258">
        <ele>1770.89</ele>
        <time>2014-09-15T14:15:39Z</time>
      </trkpt>
      <trkpt lat="45.07745" lon="6.17264">
        <ele>1770.41</ele>
        <time>2014-09-15T14:15:40Z</time>
      </trkpt>
      <trkpt lat="45.07746" lon="6.17269">
        <ele>1770.41</ele>
        <time>2014-09-15T14:15:41Z</time>
      </trkpt>
      <trkpt lat="45.07747" lon="6.17274">
        <ele>1769.92</ele>
        <time>2014-09-15T14:15:42Z</time>
      </trkpt>
      <trkpt lat="45.07748" lon="6.17278">
        <ele>1769.92</ele>
        <time>2014-09-15T14:15:43Z</time>
      </trkpt>
      <trkpt lat="45.07749" lon="6.17281">
        <ele>1769.92</ele>
        <time>2014-09-15T14:15:44Z</time>
      </trkpt>
      <trkpt lat="45.07751" lon="6.17284">
        <ele>1769.44</ele>
        <time>2014-09-15T14:15:45Z</time>
      </trkpt>
      <trkpt lat="45.07752" lon="6.17287">
        <ele>1769.44</ele>
        <time>2014-09-15T14:15:46Z</time>
      </trkpt>
      <trkpt lat="45.07751" lon="6.17289">
        <ele>1768.96</ele>
        <time>2014-09-15T14:15:58Z</time>
      </trkpt>
      <trkpt lat="45.07762" lon="6.17315">
        <ele>1767.04</ele>
        <time>2014-09-15T14:16:09Z</time>
      </trkpt>
      <trkpt lat="45.07783" lon="6.17362">
        <ele>1764.16</ele>
        <time>2014-09-15T14:16:15Z</time>
      </trkpt>
      <trkpt lat="45.07803" lon="6.17403">
        <ele>1761.27</ele>
        <time>2014-09-15T14:16:19Z</time>
      </trkpt>
      <trkpt lat="45.0781" lon="6.17413">
        <ele>1760.31</ele>
        <time>2014-09-15T14:16:20Z</time>
      </trkpt>
      <trkpt lat="45.07843" lon="6.1745">
        <ele>1756.47</ele>
        <time>2014-09-15T14:16:24Z</time>
      </trkpt>
      <trkpt lat="45.07868" lon="6.1747">
        <ele>1754.54</ele>
        <time>2014-09-15T14:16:27Z</time>
      </trkpt>
      <trkpt lat="45.07876" lon="6.17474">
        <ele>1753.58</ele>
        <time>2014-09-15T14:16:28Z</time>
      </trkpt>
      <trkpt lat="45.07884" lon="6.17475">
        <ele>1753.1</ele>
        <time>2014-09-15T14:16:29Z</time>
      </trkpt>
      <trkpt lat="45.07891" lon="6.17474">
        <ele>1752.14</ele>
        <time>2014-09-15T14:16:30Z</time>
      </trkpt>
      <trkpt lat="45.07898" lon="6.17474">
        <ele>1752.14</ele>
        <time>2014-09-15T14:16:31Z</time>
      </trkpt>
      <trkpt lat="45.07903" lon="6.17475">
        <ele>1751.18</ele>
        <time>2014-09-15T14:16:32Z</time>
      </trkpt>
      <trkpt lat="45.07906" lon="6.17478">
        <ele>1751.18</ele>
        <time>2014-09-15T14:16:33Z</time>
      </trkpt>
      <trkpt lat="45.07908" lon="6.17482">
        <ele>1750.7</ele>
        <time>2014-09-15T14:16:34Z</time>
      </trkpt>
      <trkpt lat="45.07908" lon="6.17486">
        <ele>1750.7</ele>
        <time>2014-09-15T14:16:35Z</time>
      </trkpt>
      <trkpt lat="45.07907" lon="6.17488">
        <ele>1750.7</ele>
        <time>2014-09-15T14:16:36Z</time>
      </trkpt>
      <trkpt lat="45.07906" lon="6.1749">
        <ele>1750.7</ele>
        <time>2014-09-15T14:16:37Z</time>
      </trkpt>
      <trkpt lat="45.07905" lon="6.17492">
        <ele>1750.7</ele>
        <time>2014-09-15T14:16:52Z</time>
      </trkpt>
      <trkpt lat="45.07904" lon="6.1749">
        <ele>1750.7</ele>
        <time>2014-09-15T14:17:23Z</time>
      </trkpt>
      <trkpt lat="45.07902" lon="6.17492">
        <ele>1750.7</ele>
        <time>2014-09-15T14:17:42Z</time>
      </trkpt>
      <trkpt lat="45.079" lon="6.17492">
        <ele>1750.7</ele>
        <time>2014-09-15T14:17:43Z</time>
      </trkpt>
      <trkpt lat="45.07862" lon="6.17484">
        <ele>1747.81</ele>
        <time>2014-09-15T14:17:52Z</time>
      </trkpt>
      <trkpt lat="45.07834" lon="6.17474">
        <ele>1744.45</ele>
        <time>2014-09-15T14:17:57Z</time>
      </trkpt>
      <trkpt lat="45.07805" lon="6.17463">
        <ele>1741.08</ele>
        <time>2014-09-15T14:18:02Z</time>
      </trkpt>
      <trkpt lat="45.07765" lon="6.17434">
        <ele>1737.24</ele>
        <time>2014-09-15T14:18:09Z</time>
      </trkpt>
      <trkpt lat="45.07731" lon="6.17403">
        <ele>1733.39</ele>
        <time>2014-09-15T14:18:15Z</time>
      </trkpt>
      <trkpt lat="45.07725" lon="6.17398">
        <ele>1733.39</ele>
        <time>2014-09-15T14:18:16Z</time>
      </trkpt>
      <trkpt lat="45.07704" lon="6.17378">
        <ele>1730.51</ele>
        <time>2014-09-15T14:18:21Z</time>
      </trkpt>
      <trkpt lat="45.07701" lon="6.17377">
        <ele>1730.99</ele>
        <time>2014-09-15T14:18:30Z</time>
      </trkpt>
      <trkpt lat="45.077" lon="6.17376">
        <ele>1730.51</ele>
        <time>2014-09-15T14:18:31Z</time>
      </trkpt>
      <trkpt lat="45.07693" lon="6.17362">
        <ele>1729.07</ele>
        <time>2014-09-15T14:18:35Z</time>
      </trkpt>
      <trkpt lat="45.0769" lon="6.17357">
        <ele>1728.59</ele>
        <time>2014-09-15T14:18:36Z</time>
      </trkpt>
      <trkpt lat="45.07671" lon="6.17325">
        <ele>1725.22</ele>
        <time>2014-09-15T14:18:41Z</time>
      </trkpt>
      <trkpt lat="45.07652" lon="6.17292">
        <ele>1721.86</ele>
        <time>2014-09-15T14:18:45Z</time>
      </trkpt>
      <trkpt lat="45.07647" lon="6.17283">
        <ele>1721.86</ele>
        <time>2014-09-15T14:18:46Z</time>
      </trkpt>
      <trkpt lat="45.07624" lon="6.17237">
        <ele>1718.01</ele>
        <time>2014-09-15T14:18:51Z</time>
      </trkpt>
      <trkpt lat="45.07607" lon="6.17196">
        <ele>1715.13</ele>
        <time>2014-09-15T14:18:55Z</time>
      </trkpt>
      <trkpt lat="45.07599" lon="6.17177">
        <ele>1713.21</ele>
        <time>2014-09-15T14:18:57Z</time>
      </trkpt>
      <trkpt lat="45.07594" lon="6.17167">
        <ele>1712.25</ele>
        <time>2014-09-15T14:18:58Z</time>
      </trkpt>
      <trkpt lat="45.07571" lon="6.1713">
        <ele>1708.88</ele>
        <time>2014-09-15T14:19:02Z</time>
      </trkpt>
      <trkpt lat="45.07544" lon="6.17081">
        <ele>1705.52</ele>
        <time>2014-09-15T14:19:08Z</time>
      </trkpt>
      <trkpt lat="45.07526" lon="6.17043">
        <ele>1702.15</ele>
        <time>2014-09-15T14:19:14Z</time>
      </trkpt>
      <trkpt lat="45.07518" lon="6.1702">
        <ele>1701.19</ele>
        <time>2014-09-15T14:19:17Z</time>
      </trkpt>
      <trkpt lat="45.07516" lon="6.17013">
        <ele>1700.71</ele>
        <time>2014-09-15T14:19:18Z</time>
      </trkpt>
      <trkpt lat="45.07516" lon="6.17007">
        <ele>1700.23</ele>
        <time>2014-09-15T14:19:19Z</time>
      </trkpt>
      <trkpt lat="45.07516" lon="6.17002">
        <ele>1700.23</ele>
        <time>2014-09-15T14:19:20Z</time>
      </trkpt>
      <trkpt lat="45.07516" lon="6.16999">
        <ele>1700.23</ele>
        <time>2014-09-15T14:19:21Z</time>
      </trkpt>
      <trkpt lat="45.07516" lon="6.16996">
        <ele>1700.23</ele>
        <time>2014-09-15T14:19:22Z</time>
      </trkpt>
      <trkpt lat="45.07515" lon="6.16995">
        <ele>1700.23</ele>
        <time>2014-09-15T14:19:36Z</time>
      </trkpt>
      <trkpt lat="45.07515" lon="6.16994">
        <ele>1699.75</ele>
        <time>2014-09-15T14:20:08Z</time>
      </trkpt>
      <trkpt lat="45.07517" lon="6.16993">
        <ele>1699.75</ele>
        <time>2014-09-15T14:20:09Z</time>
      </trkpt>
      <trkpt lat="45.07517" lon="6.1699">
        <ele>1699.27</ele>
        <time>2014-09-15T14:20:10Z</time>
      </trkpt>
      <trkpt lat="45.07517" lon="6.16987">
        <ele>1699.27</ele>
        <time>2014-09-15T14:20:11Z</time>
      </trkpt>
      <trkpt lat="45.07509" lon="6.16982">
        <ele>1696.38</ele>
        <time>2014-09-15T14:20:14Z</time>
      </trkpt>
      <trkpt lat="45.07501" lon="6.16981">
        <ele>1693.5</ele>
        <time>2014-09-15T14:20:16Z</time>
      </trkpt>
      <trkpt lat="45.07487" lon="6.16978">
        <ele>1687.73</ele>
        <time>2014-09-15T14:20:19Z</time>
      </trkpt>
      <trkpt lat="45.07473" lon="6.16975">
        <ele>1681.96</ele>
        <time>2014-09-15T14:20:22Z</time>
      </trkpt>
      <trkpt lat="45.0746" lon="6.16973">
        <ele>1676.2</ele>
        <time>2014-09-15T14:20:25Z</time>
      </trkpt>
      <trkpt lat="45.07456" lon="6.16972">
        <ele>1674.75</ele>
        <time>2014-09-15T14:20:26Z</time>
      </trkpt>
      <trkpt lat="45.07443" lon="6.1697">
        <ele>1669.47</ele>
        <time>2014-09-15T14:20:29Z</time>
      </trkpt>
      <trkpt lat="45.07435" lon="6.16967">
        <ele>1666.1</ele>
        <time>2014-09-15T14:20:31Z</time>
      </trkpt>
      <trkpt lat="45.07428" lon="6.16966">
        <ele>1663.22</ele>
        <time>2014-09-15T14:20:33Z</time>
      </trkpt>
      <trkpt lat="45.0742" lon="6.16965">
        <ele>1660.81</ele>
        <time>2014-09-15T14:20:35Z</time>
      </trkpt>
      <trkpt lat="45.07406" lon="6.1696">
        <ele>1655.05</ele>
        <time>2014-09-15T14:20:39Z</time>
      </trkpt>
      <trkpt lat="45.07396" lon="6.16956">
        <ele>1651.68</ele>
        <time>2014-09-15T14:20:42Z</time>
      </trkpt>
      <trkpt lat="45.07389" lon="6.16951">
        <ele>1647.84</ele>
        <time>2014-09-15T14:20:44Z</time>
      </trkpt>
      <trkpt lat="45.07383" lon="6.16947">
        <ele>1644.47</ele>
        <time>2014-09-15T14:20:46Z</time>
      </trkpt>
      <trkpt lat="45.07376" lon="6.1694">
        <ele>1640.15</ele>
        <time>2014-09-15T14:20:49Z</time>
      </trkpt>
      <trkpt lat="45.0737" lon="6.16936">
        <ele>1637.26</ele>
        <time>2014-09-15T14:20:51Z</time>
      </trkpt>
      <trkpt lat="45.07365" lon="6.1693">
        <ele>1633.9</ele>
        <time>2014-09-15T14:20:53Z</time>
      </trkpt>
      <trkpt lat="45.07359" lon="6.16924">
        <ele>1630.53</ele>
        <time>2014-09-15T14:20:55Z</time>
      </trkpt>
      <trkpt lat="45.07352" lon="6.16921">
        <ele>1627.17</ele>
        <time>2014-09-15T14:20:57Z</time>
      </trkpt>
      <trkpt lat="45.07345" lon="6.1692">
        <ele>1623.8</ele>
        <time>2014-09-15T14:20:59Z</time>
      </trkpt>
      <trkpt lat="45.07329" lon="6.16925">
        <ele>1620.92</ele>
        <time>2014-09-15T14:21:04Z</time>
      </trkpt>
      <trkpt lat="45.07318" lon="6.16929">
        <ele>1616.59</ele>
        <time>2014-09-15T14:21:09Z</time>
      </trkpt>
      <trkpt lat="45.0731" lon="6.16923">
        <ele>1613.71</ele>
        <time>2014-09-15T14:21:13Z</time>
      </trkpt>
      <trkpt lat="45.07308" lon="6.16922">
        <ele>1613.23</ele>
        <time>2014-09-15T14:21:14Z</time>
      </trkpt>
      <trkpt lat="45.07307" lon="6.16924">
        <ele>1613.23</ele>
        <time>2014-09-15T14:21:26Z</time>
      </trkpt>
      <trkpt lat="45.07306" lon="6.16925">
        <ele>1613.23</ele>
        <time>2014-09-15T14:21:27Z</time>
      </trkpt>
      <trkpt lat="45.07306" lon="6.16927">
        <ele>1613.23</ele>
        <time>2014-09-15T14:21:28Z</time>
      </trkpt>
      <trkpt lat="45.07305" lon="6.16929">
        <ele>1612.75</ele>
        <time>2014-09-15T14:21:30Z</time>
      </trkpt>
      <trkpt lat="45.07304" lon="6.16931">
        <ele>1612.75</ele>
        <time>2014-09-15T14:21:31Z</time>
      </trkpt>
      <trkpt lat="45.07303" lon="6.16933">
        <ele>1612.75</ele>
        <time>2014-09-15T14:21:32Z</time>
      </trkpt>
      <trkpt lat="45.07301" lon="6.16936">
        <ele>1612.27</ele>
        <time>2014-09-15T14:21:33Z</time>
      </trkpt>
      <trkpt lat="45.073" lon="6.1694">
        <ele>1612.27</ele>
        <time>2014-09-15T14:21:34Z</time>
      </trkpt>
      <trkpt lat="45.07298" lon="6.16945">
        <ele>1611.31</ele>
        <time>2014-09-15T14:21:35Z</time>
      </trkpt>
      <trkpt lat="45.07297" lon="6.16951">
        <ele>1610.83</ele>
        <time>2014-09-15T14:21:36Z</time>
      </trkpt>
      <trkpt lat="45.07297" lon="6.16959">
        <ele>1610.35</ele>
        <time>2014-09-15T14:21:37Z</time>
      </trkpt>
      <trkpt lat="45.07296" lon="6.16967">
        <ele>1609.38</ele>
        <time>2014-09-15T14:21:38Z</time>
      </trkpt>
      <trkpt lat="45.07294" lon="6.17014">
        <ele>1606.02</ele>
        <time>2014-09-15T14:21:43Z</time>
      </trkpt>
      <trkpt lat="45.07293" lon="6.17022">
        <ele>1606.02</ele>
        <time>2014-09-15T14:21:44Z</time>
      </trkpt>
      <trkpt lat="45.07293" lon="6.17058">
        <ele>1603.62</ele>
        <time>2014-09-15T14:21:54Z</time>
      </trkpt>
      <trkpt lat="45.07294" lon="6.17068">
        <ele>1603.14</ele>
        <time>2014-09-15T14:21:56Z</time>
      </trkpt>
      <trkpt lat="45.07295" lon="6.17073">
        <ele>1602.17</ele>
        <time>2014-09-15T14:21:57Z</time>
      </trkpt>
      <trkpt lat="45.07295" lon="6.17078">
        <ele>1602.17</ele>
        <time>2014-09-15T14:21:58Z</time>
      </trkpt>
      <trkpt lat="45.07298" lon="6.17112">
        <ele>1599.77</ele>
        <time>2014-09-15T14:22:07Z</time>
      </trkpt>
      <trkpt lat="45.07298" lon="6.17122">
        <ele>1598.81</ele>
        <time>2014-09-15T14:22:09Z</time>
      </trkpt>
      <trkpt lat="45.07298" lon="6.17129">
        <ele>1598.33</ele>
        <time>2014-09-15T14:22:10Z</time>
      </trkpt>
      <trkpt lat="45.07299" lon="6.17136">
        <ele>1597.85</ele>
        <time>2014-09-15T14:22:11Z</time>
      </trkpt>
      <trkpt lat="45.07299" lon="6.17145">
        <ele>1597.37</ele>
        <time>2014-09-15T14:22:12Z</time>
      </trkpt>
      <trkpt lat="45.073" lon="6.17153">
        <ele>1596.41</ele>
        <time>2014-09-15T14:22:13Z</time>
      </trkpt>
      <trkpt lat="45.07301" lon="6.17162">
        <ele>1596.41</ele>
        <time>2014-09-15T14:22:14Z</time>
      </trkpt>
      <trkpt lat="45.07303" lon="6.17171">
        <ele>1595.45</ele>
        <time>2014-09-15T14:22:15Z</time>
      </trkpt>
      <trkpt lat="45.07306" lon="6.17195">
        <ele>1593.04</ele>
        <time>2014-09-15T14:22:18Z</time>
      </trkpt>
      <trkpt lat="45.07306" lon="6.17201">
        <ele>1593.04</ele>
        <time>2014-09-15T14:22:19Z</time>
      </trkpt>
      <trkpt lat="45.07307" lon="6.17205">
        <ele>1593.04</ele>
        <time>2014-09-15T14:22:20Z</time>
      </trkpt>
      <trkpt lat="45.07307" lon="6.17207">
        <ele>1592.56</ele>
        <time>2014-09-15T14:22:21Z</time>
      </trkpt>
      <trkpt lat="45.07308" lon="6.17209">
        <ele>1592.56</ele>
        <time>2014-09-15T14:22:22Z</time>
      </trkpt>
      <trkpt lat="45.07308" lon="6.17211">
        <ele>1592.56</ele>
        <time>2014-09-15T14:22:23Z</time>
      </trkpt>
      <trkpt lat="45.07307" lon="6.17213">
        <ele>1592.56</ele>
        <time>2014-09-15T14:22:24Z</time>
      </trkpt>
      <trkpt lat="45.07307" lon="6.17216">
        <ele>1592.08</ele>
        <time>2014-09-15T14:22:25Z</time>
      </trkpt>
      <trkpt lat="45.07307" lon="6.17219">
        <ele>1592.08</ele>
        <time>2014-09-15T14:22:26Z</time>
      </trkpt>
      <trkpt lat="45.07307" lon="6.17223">
        <ele>1591.6</ele>
        <time>2014-09-15T14:22:27Z</time>
      </trkpt>
      <trkpt lat="45.07306" lon="6.17229">
        <ele>1591.12</ele>
        <time>2014-09-15T14:22:30Z</time>
      </trkpt>
      <trkpt lat="45.07306" lon="6.17231">
        <ele>1591.12</ele>
        <time>2014-09-15T14:22:31Z</time>
      </trkpt>
      <trkpt lat="45.07296" lon="6.1728">
        <ele>1588.72</ele>
        <time>2014-09-15T14:22:42Z</time>
      </trkpt>
      <trkpt lat="45.07294" lon="6.17302">
        <ele>1587.27</ele>
        <time>2014-09-15T14:22:45Z</time>
      </trkpt>
      <trkpt lat="45.07296" lon="6.17324">
        <ele>1586.31</ele>
        <time>2014-09-15T14:22:48Z</time>
      </trkpt>
      <trkpt lat="45.07308" lon="6.17385">
        <ele>1583.43</ele>
        <time>2014-09-15T14:22:56Z</time>
      </trkpt>
      <trkpt lat="45.0731" lon="6.17415">
        <ele>1581.51</ele>
        <time>2014-09-15T14:22:59Z</time>
      </trkpt>
      <trkpt lat="45.07312" lon="6.17425">
        <ele>1581.51</ele>
        <time>2014-09-15T14:23:00Z</time>
      </trkpt>
      <trkpt lat="45.07315" lon="6.17434">
        <ele>1580.54</ele>
        <time>2014-09-15T14:23:01Z</time>
      </trkpt>
      <trkpt lat="45.07321" lon="6.1745">
        <ele>1580.06</ele>
        <time>2014-09-15T14:23:03Z</time>
      </trkpt>
      <trkpt lat="45.07327" lon="6.17471">
        <ele>1579.1</ele>
        <time>2014-09-15T14:23:08Z</time>
      </trkpt>
      <trkpt lat="45.07324" lon="6.17473">
        <ele>1578.62</ele>
        <time>2014-09-15T14:23:09Z</time>
      </trkpt>
      <trkpt lat="45.07322" lon="6.17471">
        <ele>1578.14</ele>
        <time>2014-09-15T14:23:10Z</time>
      </trkpt>
      <trkpt lat="45.07315" lon="6.17459">
        <ele>1577.66</ele>
        <time>2014-09-15T14:23:13Z</time>
      </trkpt>
      <trkpt lat="45.07313" lon="6.17454">
        <ele>1577.66</ele>
        <time>2014-09-15T14:23:14Z</time>
      </trkpt>
      <trkpt lat="45.07308" lon="6.17443">
        <ele>1577.18</ele>
        <time>2014-09-15T14:23:16Z</time>
      </trkpt>
      <trkpt lat="45.07293" lon="6.17404">
        <ele>1575.74</ele>
        <time>2014-09-15T14:23:24Z</time>
      </trkpt>
      <trkpt lat="45.07283" lon="6.17379">
        <ele>1574.3</ele>
        <time>2014-09-15T14:23:29Z</time>
      </trkpt>
      <trkpt lat="45.07255" lon="6.17332">
        <ele>1571.89</ele>
        <time>2014-09-15T14:23:38Z</time>
      </trkpt>
      <trkpt lat="45.07252" lon="6.17325">
        <ele>1571.41</ele>
        <time>2014-09-15T14:23:39Z</time>
      </trkpt>
      <trkpt lat="45.0725" lon="6.17319">
        <ele>1571.41</ele>
        <time>2014-09-15T14:23:40Z</time>
      </trkpt>
      <trkpt lat="45.07248" lon="6.17313">
        <ele>1570.93</ele>
        <time>2014-09-15T14:23:41Z</time>
      </trkpt>
      <trkpt lat="45.07247" lon="6.17307">
        <ele>1570.93</ele>
        <time>2014-09-15T14:23:42Z</time>
      </trkpt>
      <trkpt lat="45.07246" lon="6.17302">
        <ele>1570.45</ele>
        <time>2014-09-15T14:23:43Z</time>
      </trkpt>
      <trkpt lat="45.07244" lon="6.17296">
        <ele>1570.45</ele>
        <time>2014-09-15T14:23:44Z</time>
      </trkpt>
      <trkpt lat="45.07234" lon="6.17276">
        <ele>1568.53</ele>
        <time>2014-09-15T14:23:52Z</time>
      </trkpt>
      <trkpt lat="45.07233" lon="6.17275">
        <ele>1568.53</ele>
        <time>2014-09-15T14:23:53Z</time>
      </trkpt>
      <trkpt lat="45.07231" lon="6.17273">
        <ele>1568.53</ele>
        <time>2014-09-15T14:23:54Z</time>
      </trkpt>
      <trkpt lat="45.0722" lon="6.17257">
        <ele>1566.61</ele>
        <time>2014-09-15T14:24:05Z</time>
      </trkpt>
      <trkpt lat="45.07208" lon="6.17235">
        <ele>1565.64</ele>
        <time>2014-09-15T14:24:16Z</time>
      </trkpt>
      <trkpt lat="45.07205" lon="6.17226">
        <ele>1565.64</ele>
        <time>2014-09-15T14:24:20Z</time>
      </trkpt>
      <trkpt lat="45.07204" lon="6.17224">
        <ele>1565.64</ele>
        <time>2014-09-15T14:24:21Z</time>
      </trkpt>
      <trkpt lat="45.07204" lon="6.17221">
        <ele>1565.64</ele>
        <time>2014-09-15T14:24:22Z</time>
      </trkpt>
      <trkpt lat="45.07204" lon="6.17219">
        <ele>1565.64</ele>
        <time>2014-09-15T14:24:23Z</time>
      </trkpt>
      <trkpt lat="45.07203" lon="6.17216">
        <ele>1565.64</ele>
        <time>2014-09-15T14:24:24Z</time>
      </trkpt>
      <trkpt lat="45.07196" lon="6.17175">
        <ele>1564.2</ele>
        <time>2014-09-15T14:24:35Z</time>
      </trkpt>
      <trkpt lat="45.07192" lon="6.17152">
        <ele>1562.76</ele>
        <time>2014-09-15T14:24:38Z</time>
      </trkpt>
      <trkpt lat="45.07186" lon="6.17132">
        <ele>1561.8</ele>
        <time>2014-09-15T14:24:46Z</time>
      </trkpt>
      <trkpt lat="45.07184" lon="6.17128">
        <ele>1561.32</ele>
        <time>2014-09-15T14:24:56Z</time>
      </trkpt>
      <trkpt lat="45.07181" lon="6.17127">
        <ele>1561.32</ele>
        <time>2014-09-15T14:25:16Z</time>
      </trkpt>
      <trkpt lat="45.07185" lon="6.17128">
        <ele>1561.32</ele>
        <time>2014-09-15T14:25:41Z</time>
      </trkpt>
      <trkpt lat="45.07186" lon="6.17129">
        <ele>1560.84</ele>
        <time>2014-09-15T14:25:58Z</time>
      </trkpt>
      <trkpt lat="45.07183" lon="6.17131">
        <ele>1560.84</ele>
        <time>2014-09-15T14:26:22Z</time>
      </trkpt>
    </trkseg>
  </trk>
</gpx>